<?xml version="1.0" encoding="UTF-8" standalone="no" ?>
<gpx xmlns="http://www.topografix.com/GPX/1/1" xmlns:xsi="http://www.w3.org/2001/XMLSchema-instance" xsi:schemaLocation="http://www.topografix.com/GPX/1/1 http://www.topografix.com/GPX/1/1/gpx.xsd" version="1.1" creator="VisuGPX - https://www.visugpx.com">
  <metadata>
    <name>Marchkinkele (Cornetto di Confine) </name>
    <desc><![CDATA[Innervillegraten, Klamber Platz - Marchkinkele (Cornetto di Confine) ]]></desc>
  </metadata>
  <trk>
    <name><![CDATA[Cornetto_Confine_2016-02-21]]></name>
    <trkseg>
      <trkpt lat="46.80394" lon="12.37735">
        <ele>1378.67</ele>
        <time>2016-02-21T08:29:32Z</time>
      </trkpt>
      <trkpt lat="46.8039" lon="12.37732">
        <ele>1376.26</ele>
        <time>2016-02-21T08:29:37Z</time>
      </trkpt>
      <trkpt lat="46.80389" lon="12.37731">
        <ele>1378.67</ele>
        <time>2016-02-21T08:29:39Z</time>
      </trkpt>
      <trkpt lat="46.80378" lon="12.3772">
        <ele>1379.63</ele>
        <time>2016-02-21T08:29:54Z</time>
      </trkpt>
      <trkpt lat="46.80367" lon="12.37708">
        <ele>1381.07</ele>
        <time>2016-02-21T08:30:10Z</time>
      </trkpt>
      <trkpt lat="46.80357" lon="12.37699">
        <ele>1382.03</ele>
        <time>2016-02-21T08:30:24Z</time>
      </trkpt>
      <trkpt lat="46.80351" lon="12.37694">
        <ele>1382.99</ele>
        <time>2016-02-21T08:30:32Z</time>
      </trkpt>
      <trkpt lat="46.8034" lon="12.37687">
        <ele>1384.44</ele>
        <time>2016-02-21T08:30:48Z</time>
      </trkpt>
      <trkpt lat="46.80336" lon="12.37674">
        <ele>1385.4</ele>
        <time>2016-02-21T08:31:02Z</time>
      </trkpt>
      <trkpt lat="46.80334" lon="12.3766">
        <ele>1385.88</ele>
        <time>2016-02-21T08:31:17Z</time>
      </trkpt>
      <trkpt lat="46.80336" lon="12.37645">
        <ele>1387.32</ele>
        <time>2016-02-21T08:31:29Z</time>
      </trkpt>
      <trkpt lat="46.80335" lon="12.37638">
        <ele>1386.36</ele>
        <time>2016-02-21T08:31:37Z</time>
      </trkpt>
      <trkpt lat="46.8033" lon="12.37625">
        <ele>1386.84</ele>
        <time>2016-02-21T08:31:53Z</time>
      </trkpt>
      <trkpt lat="46.8033" lon="12.37622">
        <ele>1386.84</ele>
        <time>2016-02-21T08:32:10Z</time>
      </trkpt>
      <trkpt lat="46.8033" lon="12.3762">
        <ele>1385.88</ele>
        <time>2016-02-21T08:32:24Z</time>
      </trkpt>
      <trkpt lat="46.80328" lon="12.37621">
        <ele>1385.88</ele>
        <time>2016-02-21T08:33:01Z</time>
      </trkpt>
      <trkpt lat="46.80329" lon="12.37618">
        <ele>1386.36</ele>
        <time>2016-02-21T08:33:25Z</time>
      </trkpt>
      <trkpt lat="46.80331" lon="12.37614">
        <ele>1386.36</ele>
        <time>2016-02-21T08:33:41Z</time>
      </trkpt>
      <trkpt lat="46.8033" lon="12.37613">
        <ele>1386.84</ele>
        <time>2016-02-21T08:33:55Z</time>
      </trkpt>
      <trkpt lat="46.80333" lon="12.37615">
        <ele>1386.36</ele>
        <time>2016-02-21T08:34:14Z</time>
      </trkpt>
      <trkpt lat="46.80328" lon="12.37614">
        <ele>1387.8</ele>
        <time>2016-02-21T08:34:27Z</time>
      </trkpt>
      <trkpt lat="46.80322" lon="12.37611">
        <ele>1389.24</ele>
        <time>2016-02-21T08:34:39Z</time>
      </trkpt>
      <trkpt lat="46.80312" lon="12.37605">
        <ele>1390.2</ele>
        <time>2016-02-21T08:34:52Z</time>
      </trkpt>
      <trkpt lat="46.80311" lon="12.37604">
        <ele>1390.68</ele>
        <time>2016-02-21T08:34:53Z</time>
      </trkpt>
      <trkpt lat="46.80304" lon="12.37599">
        <ele>1392.13</ele>
        <time>2016-02-21T08:35:06Z</time>
      </trkpt>
      <trkpt lat="46.80298" lon="12.37595">
        <ele>1394.05</ele>
        <time>2016-02-21T08:35:19Z</time>
      </trkpt>
      <trkpt lat="46.80297" lon="12.37593">
        <ele>1394.53</ele>
        <time>2016-02-21T08:35:37Z</time>
      </trkpt>
      <trkpt lat="46.80289" lon="12.3759">
        <ele>1395.97</ele>
        <time>2016-02-21T08:35:51Z</time>
      </trkpt>
      <trkpt lat="46.80281" lon="12.37587">
        <ele>1396.93</ele>
        <time>2016-02-21T08:36:05Z</time>
      </trkpt>
      <trkpt lat="46.80272" lon="12.37582">
        <ele>1398.37</ele>
        <time>2016-02-21T08:36:18Z</time>
      </trkpt>
      <trkpt lat="46.80262" lon="12.37581">
        <ele>1399.82</ele>
        <time>2016-02-21T08:36:31Z</time>
      </trkpt>
      <trkpt lat="46.80248" lon="12.37585">
        <ele>1401.74</ele>
        <time>2016-02-21T08:36:48Z</time>
      </trkpt>
      <trkpt lat="46.8024" lon="12.37586">
        <ele>1403.18</ele>
        <time>2016-02-21T08:37:00Z</time>
      </trkpt>
      <trkpt lat="46.80231" lon="12.37586">
        <ele>1405.1</ele>
        <time>2016-02-21T08:37:13Z</time>
      </trkpt>
      <trkpt lat="46.80219" lon="12.37584">
        <ele>1407.03</ele>
        <time>2016-02-21T08:37:28Z</time>
      </trkpt>
      <trkpt lat="46.80211" lon="12.37578">
        <ele>1408.47</ele>
        <time>2016-02-21T08:37:42Z</time>
      </trkpt>
      <trkpt lat="46.80203" lon="12.37572">
        <ele>1409.91</ele>
        <time>2016-02-21T08:37:54Z</time>
      </trkpt>
      <trkpt lat="46.80201" lon="12.3757">
        <ele>1410.39</ele>
        <time>2016-02-21T08:37:57Z</time>
      </trkpt>
      <trkpt lat="46.80197" lon="12.37568">
        <ele>1410.87</ele>
        <time>2016-02-21T08:38:01Z</time>
      </trkpt>
      <trkpt lat="46.80193" lon="12.37567">
        <ele>1410.87</ele>
        <time>2016-02-21T08:38:05Z</time>
      </trkpt>
      <trkpt lat="46.80185" lon="12.37565">
        <ele>1411.83</ele>
        <time>2016-02-21T08:38:15Z</time>
      </trkpt>
      <trkpt lat="46.80172" lon="12.37563">
        <ele>1413.28</ele>
        <time>2016-02-21T08:38:30Z</time>
      </trkpt>
      <trkpt lat="46.8016" lon="12.37561">
        <ele>1414.72</ele>
        <time>2016-02-21T08:38:46Z</time>
      </trkpt>
      <trkpt lat="46.80153" lon="12.37565">
        <ele>1415.2</ele>
        <time>2016-02-21T08:39:00Z</time>
      </trkpt>
      <trkpt lat="46.80144" lon="12.37569">
        <ele>1416.16</ele>
        <time>2016-02-21T08:39:15Z</time>
      </trkpt>
      <trkpt lat="46.80133" lon="12.37563">
        <ele>1417.12</ele>
        <time>2016-02-21T08:39:28Z</time>
      </trkpt>
      <trkpt lat="46.80123" lon="12.37556">
        <ele>1418.08</ele>
        <time>2016-02-21T08:39:40Z</time>
      </trkpt>
      <trkpt lat="46.80117" lon="12.3755">
        <ele>1419.52</ele>
        <time>2016-02-21T08:39:50Z</time>
      </trkpt>
      <trkpt lat="46.8011" lon="12.37541">
        <ele>1421.45</ele>
        <time>2016-02-21T08:40:05Z</time>
      </trkpt>
      <trkpt lat="46.80102" lon="12.37529">
        <ele>1423.85</ele>
        <time>2016-02-21T08:40:24Z</time>
      </trkpt>
      <trkpt lat="46.80089" lon="12.37525">
        <ele>1425.29</ele>
        <time>2016-02-21T08:40:40Z</time>
      </trkpt>
      <trkpt lat="46.8008" lon="12.37518">
        <ele>1427.21</ele>
        <time>2016-02-21T08:40:54Z</time>
      </trkpt>
      <trkpt lat="46.80063" lon="12.37505">
        <ele>1429.62</ele>
        <time>2016-02-21T08:41:12Z</time>
      </trkpt>
      <trkpt lat="46.80059" lon="12.37503">
        <ele>1430.58</ele>
        <time>2016-02-21T08:41:16Z</time>
      </trkpt>
      <trkpt lat="46.80049" lon="12.37499">
        <ele>1432.5</ele>
        <time>2016-02-21T08:41:33Z</time>
      </trkpt>
      <trkpt lat="46.80038" lon="12.37489">
        <ele>1434.91</ele>
        <time>2016-02-21T08:41:50Z</time>
      </trkpt>
      <trkpt lat="46.80026" lon="12.37481">
        <ele>1437.31</ele>
        <time>2016-02-21T08:42:07Z</time>
      </trkpt>
      <trkpt lat="46.80018" lon="12.3747">
        <ele>1439.71</ele>
        <time>2016-02-21T08:42:27Z</time>
      </trkpt>
      <trkpt lat="46.80004" lon="12.37475">
        <ele>1442.6</ele>
        <time>2016-02-21T08:42:44Z</time>
      </trkpt>
      <trkpt lat="46.79994" lon="12.37472">
        <ele>1444.52</ele>
        <time>2016-02-21T08:43:01Z</time>
      </trkpt>
      <trkpt lat="46.79982" lon="12.37471">
        <ele>1446.44</ele>
        <time>2016-02-21T08:43:17Z</time>
      </trkpt>
      <trkpt lat="46.79975" lon="12.37465">
        <ele>1448.84</ele>
        <time>2016-02-21T08:43:34Z</time>
      </trkpt>
      <trkpt lat="46.79963" lon="12.37457">
        <ele>1451.73</ele>
        <time>2016-02-21T08:43:54Z</time>
      </trkpt>
      <trkpt lat="46.7995" lon="12.37448">
        <ele>1454.13</ele>
        <time>2016-02-21T08:44:12Z</time>
      </trkpt>
      <trkpt lat="46.79937" lon="12.3744">
        <ele>1456.53</ele>
        <time>2016-02-21T08:44:31Z</time>
      </trkpt>
      <trkpt lat="46.79922" lon="12.37437">
        <ele>1459.42</ele>
        <time>2016-02-21T08:44:49Z</time>
      </trkpt>
      <trkpt lat="46.79914" lon="12.3744">
        <ele>1461.82</ele>
        <time>2016-02-21T08:45:06Z</time>
      </trkpt>
      <trkpt lat="46.79903" lon="12.37442">
        <ele>1464.23</ele>
        <time>2016-02-21T08:45:20Z</time>
      </trkpt>
      <trkpt lat="46.79891" lon="12.37433">
        <ele>1468.07</ele>
        <time>2016-02-21T08:45:36Z</time>
      </trkpt>
      <trkpt lat="46.79885" lon="12.37426">
        <ele>1468.55</ele>
        <time>2016-02-21T08:45:48Z</time>
      </trkpt>
      <trkpt lat="46.79878" lon="12.37423">
        <ele>1470.47</ele>
        <time>2016-02-21T08:46:03Z</time>
      </trkpt>
      <trkpt lat="46.79869" lon="12.37418">
        <ele>1472.4</ele>
        <time>2016-02-21T08:46:17Z</time>
      </trkpt>
      <trkpt lat="46.79863" lon="12.37413">
        <ele>1474.32</ele>
        <time>2016-02-21T08:46:30Z</time>
      </trkpt>
      <trkpt lat="46.7985" lon="12.37407">
        <ele>1476.72</ele>
        <time>2016-02-21T08:46:47Z</time>
      </trkpt>
      <trkpt lat="46.79844" lon="12.37397">
        <ele>1479.13</ele>
        <time>2016-02-21T08:47:05Z</time>
      </trkpt>
      <trkpt lat="46.79845" lon="12.37387">
        <ele>1481.53</ele>
        <time>2016-02-21T08:47:24Z</time>
      </trkpt>
      <trkpt lat="46.79841" lon="12.37382">
        <ele>1484.41</ele>
        <time>2016-02-21T08:47:37Z</time>
      </trkpt>
      <trkpt lat="46.79832" lon="12.37375">
        <ele>1485.37</ele>
        <time>2016-02-21T08:47:53Z</time>
      </trkpt>
      <trkpt lat="46.79825" lon="12.3737">
        <ele>1487.3</ele>
        <time>2016-02-21T08:48:08Z</time>
      </trkpt>
      <trkpt lat="46.798" lon="12.37385">
        <ele>1489.7</ele>
        <time>2016-02-21T08:48:24Z</time>
      </trkpt>
      <trkpt lat="46.79781" lon="12.37384">
        <ele>1491.62</ele>
        <time>2016-02-21T08:48:40Z</time>
      </trkpt>
      <trkpt lat="46.79763" lon="12.37382">
        <ele>1494.03</ele>
        <time>2016-02-21T08:48:57Z</time>
      </trkpt>
      <trkpt lat="46.79759" lon="12.37379">
        <ele>1496.43</ele>
        <time>2016-02-21T08:49:15Z</time>
      </trkpt>
      <trkpt lat="46.79754" lon="12.37377">
        <ele>1498.35</ele>
        <time>2016-02-21T08:49:32Z</time>
      </trkpt>
      <trkpt lat="46.79742" lon="12.37372">
        <ele>1498.83</ele>
        <time>2016-02-21T08:49:45Z</time>
      </trkpt>
      <trkpt lat="46.79733" lon="12.37365">
        <ele>1500.76</ele>
        <time>2016-02-21T08:50:01Z</time>
      </trkpt>
      <trkpt lat="46.79725" lon="12.37357">
        <ele>1502.2</ele>
        <time>2016-02-21T08:50:16Z</time>
      </trkpt>
      <trkpt lat="46.79717" lon="12.37352">
        <ele>1504.12</ele>
        <time>2016-02-21T08:50:29Z</time>
      </trkpt>
      <trkpt lat="46.79709" lon="12.37345">
        <ele>1506.04</ele>
        <time>2016-02-21T08:50:43Z</time>
      </trkpt>
      <trkpt lat="46.79697" lon="12.37338">
        <ele>1508.93</ele>
        <time>2016-02-21T08:51:03Z</time>
      </trkpt>
      <trkpt lat="46.79685" lon="12.3733">
        <ele>1511.81</ele>
        <time>2016-02-21T08:51:26Z</time>
      </trkpt>
      <trkpt lat="46.79684" lon="12.37323">
        <ele>1515.18</ele>
        <time>2016-02-21T08:51:39Z</time>
      </trkpt>
      <trkpt lat="46.79676" lon="12.37315">
        <ele>1515.66</ele>
        <time>2016-02-21T08:51:54Z</time>
      </trkpt>
      <trkpt lat="46.79663" lon="12.37312">
        <ele>1517.58</ele>
        <time>2016-02-21T08:52:10Z</time>
      </trkpt>
      <trkpt lat="46.79653" lon="12.37302">
        <ele>1519.98</ele>
        <time>2016-02-21T08:52:27Z</time>
      </trkpt>
      <trkpt lat="46.79648" lon="12.37288">
        <ele>1522.39</ele>
        <time>2016-02-21T08:52:45Z</time>
      </trkpt>
      <trkpt lat="46.79636" lon="12.37277">
        <ele>1523.83</ele>
        <time>2016-02-21T08:53:04Z</time>
      </trkpt>
      <trkpt lat="46.79631" lon="12.37271">
        <ele>1524.31</ele>
        <time>2016-02-21T08:53:10Z</time>
      </trkpt>
      <trkpt lat="46.79623" lon="12.37257">
        <ele>1526.71</ele>
        <time>2016-02-21T08:53:29Z</time>
      </trkpt>
      <trkpt lat="46.79618" lon="12.37249">
        <ele>1530.08</ele>
        <time>2016-02-21T08:53:39Z</time>
      </trkpt>
      <trkpt lat="46.79618" lon="12.37249">
        <ele>1530.08</ele>
        <time>2016-02-21T08:53:40Z</time>
      </trkpt>
      <trkpt lat="46.79616" lon="12.37234">
        <ele>1530.08</ele>
        <time>2016-02-21T08:53:55Z</time>
      </trkpt>
      <trkpt lat="46.7961" lon="12.37228">
        <ele>1531.52</ele>
        <time>2016-02-21T08:54:08Z</time>
      </trkpt>
      <trkpt lat="46.79601" lon="12.37219">
        <ele>1533.44</ele>
        <time>2016-02-21T08:54:23Z</time>
      </trkpt>
      <trkpt lat="46.79596" lon="12.37212">
        <ele>1535.36</ele>
        <time>2016-02-21T08:54:36Z</time>
      </trkpt>
      <trkpt lat="46.79588" lon="12.37204">
        <ele>1537.29</ele>
        <time>2016-02-21T08:54:50Z</time>
      </trkpt>
      <trkpt lat="46.79584" lon="12.37195">
        <ele>1539.21</ele>
        <time>2016-02-21T08:55:04Z</time>
      </trkpt>
      <trkpt lat="46.79573" lon="12.37188">
        <ele>1541.61</ele>
        <time>2016-02-21T08:55:19Z</time>
      </trkpt>
      <trkpt lat="46.79563" lon="12.37182">
        <ele>1543.05</ele>
        <time>2016-02-21T08:55:34Z</time>
      </trkpt>
      <trkpt lat="46.79557" lon="12.37182">
        <ele>1544.98</ele>
        <time>2016-02-21T08:55:41Z</time>
      </trkpt>
      <trkpt lat="46.79542" lon="12.37175">
        <ele>1545.94</ele>
        <time>2016-02-21T08:55:59Z</time>
      </trkpt>
      <trkpt lat="46.79544" lon="12.37165">
        <ele>1546.42</ele>
        <time>2016-02-21T08:56:15Z</time>
      </trkpt>
      <trkpt lat="46.79526" lon="12.37154">
        <ele>1549.3</ele>
        <time>2016-02-21T08:56:38Z</time>
      </trkpt>
      <trkpt lat="46.79525" lon="12.37149">
        <ele>1550.26</ele>
        <time>2016-02-21T08:56:54Z</time>
      </trkpt>
      <trkpt lat="46.79519" lon="12.37141">
        <ele>1551.22</ele>
        <time>2016-02-21T08:57:08Z</time>
      </trkpt>
      <trkpt lat="46.7951" lon="12.37131">
        <ele>1553.15</ele>
        <time>2016-02-21T08:57:22Z</time>
      </trkpt>
      <trkpt lat="46.79504" lon="12.37123">
        <ele>1555.07</ele>
        <time>2016-02-21T08:57:37Z</time>
      </trkpt>
      <trkpt lat="46.79496" lon="12.37112">
        <ele>1556.51</ele>
        <time>2016-02-21T08:57:51Z</time>
      </trkpt>
      <trkpt lat="46.7949" lon="12.37101">
        <ele>1558.43</ele>
        <time>2016-02-21T08:58:06Z</time>
      </trkpt>
      <trkpt lat="46.79484" lon="12.37089">
        <ele>1560.36</ele>
        <time>2016-02-21T08:58:22Z</time>
      </trkpt>
      <trkpt lat="46.79477" lon="12.37078">
        <ele>1563.24</ele>
        <time>2016-02-21T08:58:39Z</time>
      </trkpt>
      <trkpt lat="46.79477" lon="12.37076">
        <ele>1563.24</ele>
        <time>2016-02-21T08:58:42Z</time>
      </trkpt>
      <trkpt lat="46.79473" lon="12.3707">
        <ele>1564.2</ele>
        <time>2016-02-21T08:58:50Z</time>
      </trkpt>
      <trkpt lat="46.79474" lon="12.37066">
        <ele>1564.68</ele>
        <time>2016-02-21T08:58:54Z</time>
      </trkpt>
      <trkpt lat="46.79475" lon="12.37057">
        <ele>1566.12</ele>
        <time>2016-02-21T08:59:08Z</time>
      </trkpt>
      <trkpt lat="46.79475" lon="12.37056">
        <ele>1566.12</ele>
        <time>2016-02-21T08:59:09Z</time>
      </trkpt>
      <trkpt lat="46.79469" lon="12.37044">
        <ele>1568.05</ele>
        <time>2016-02-21T08:59:24Z</time>
      </trkpt>
      <trkpt lat="46.79461" lon="12.37033">
        <ele>1569.97</ele>
        <time>2016-02-21T08:59:42Z</time>
      </trkpt>
      <trkpt lat="46.79461" lon="12.37032">
        <ele>1571.89</ele>
        <time>2016-02-21T08:59:43Z</time>
      </trkpt>
      <trkpt lat="46.79453" lon="12.37023">
        <ele>1571.89</ele>
        <time>2016-02-21T08:59:56Z</time>
      </trkpt>
      <trkpt lat="46.79448" lon="12.37016">
        <ele>1573.82</ele>
        <time>2016-02-21T09:00:11Z</time>
      </trkpt>
      <trkpt lat="46.79444" lon="12.37006">
        <ele>1575.26</ele>
        <time>2016-02-21T09:00:26Z</time>
      </trkpt>
      <trkpt lat="46.79438" lon="12.36994">
        <ele>1576.7</ele>
        <time>2016-02-21T09:00:40Z</time>
      </trkpt>
      <trkpt lat="46.79432" lon="12.36979">
        <ele>1578.62</ele>
        <time>2016-02-21T09:00:57Z</time>
      </trkpt>
      <trkpt lat="46.7943" lon="12.36975">
        <ele>1579.1</ele>
        <time>2016-02-21T09:01:03Z</time>
      </trkpt>
      <trkpt lat="46.79423" lon="12.36964">
        <ele>1580.06</ele>
        <time>2016-02-21T09:01:17Z</time>
      </trkpt>
      <trkpt lat="46.7942" lon="12.36953">
        <ele>1581.03</ele>
        <time>2016-02-21T09:01:31Z</time>
      </trkpt>
      <trkpt lat="46.79418" lon="12.36945">
        <ele>1582.47</ele>
        <time>2016-02-21T09:01:47Z</time>
      </trkpt>
      <trkpt lat="46.79413" lon="12.36934">
        <ele>1584.39</ele>
        <time>2016-02-21T09:02:07Z</time>
      </trkpt>
      <trkpt lat="46.79407" lon="12.36927">
        <ele>1585.83</ele>
        <time>2016-02-21T09:02:19Z</time>
      </trkpt>
      <trkpt lat="46.79403" lon="12.3692">
        <ele>1586.79</ele>
        <time>2016-02-21T09:02:31Z</time>
      </trkpt>
      <trkpt lat="46.79402" lon="12.36919">
        <ele>1587.27</ele>
        <time>2016-02-21T09:02:33Z</time>
      </trkpt>
      <trkpt lat="46.79401" lon="12.36913">
        <ele>1587.75</ele>
        <time>2016-02-21T09:02:43Z</time>
      </trkpt>
      <trkpt lat="46.79399" lon="12.36908">
        <ele>1589.2</ele>
        <time>2016-02-21T09:02:53Z</time>
      </trkpt>
      <trkpt lat="46.79392" lon="12.36899">
        <ele>1591.12</ele>
        <time>2016-02-21T09:03:05Z</time>
      </trkpt>
      <trkpt lat="46.79385" lon="12.36891">
        <ele>1592.56</ele>
        <time>2016-02-21T09:03:19Z</time>
      </trkpt>
      <trkpt lat="46.7938" lon="12.3688">
        <ele>1594.48</ele>
        <time>2016-02-21T09:03:35Z</time>
      </trkpt>
      <trkpt lat="46.79378" lon="12.36876">
        <ele>1594.96</ele>
        <time>2016-02-21T09:03:41Z</time>
      </trkpt>
      <trkpt lat="46.79377" lon="12.36872">
        <ele>1596.89</ele>
        <time>2016-02-21T09:03:45Z</time>
      </trkpt>
      <trkpt lat="46.79371" lon="12.36862">
        <ele>1596.89</ele>
        <time>2016-02-21T09:03:56Z</time>
      </trkpt>
      <trkpt lat="46.79371" lon="12.3686">
        <ele>1597.37</ele>
        <time>2016-02-21T09:03:58Z</time>
      </trkpt>
      <trkpt lat="46.79369" lon="12.36854">
        <ele>1598.81</ele>
        <time>2016-02-21T09:04:10Z</time>
      </trkpt>
      <trkpt lat="46.79365" lon="12.36844">
        <ele>1600.25</ele>
        <time>2016-02-21T09:04:24Z</time>
      </trkpt>
      <trkpt lat="46.79365" lon="12.36842">
        <ele>1601.21</ele>
        <time>2016-02-21T09:04:27Z</time>
      </trkpt>
      <trkpt lat="46.79368" lon="12.36834">
        <ele>1601.69</ele>
        <time>2016-02-21T09:04:35Z</time>
      </trkpt>
      <trkpt lat="46.79362" lon="12.36824">
        <ele>1603.14</ele>
        <time>2016-02-21T09:04:47Z</time>
      </trkpt>
      <trkpt lat="46.79358" lon="12.36821">
        <ele>1604.58</ele>
        <time>2016-02-21T09:04:53Z</time>
      </trkpt>
      <trkpt lat="46.79356" lon="12.36816">
        <ele>1605.06</ele>
        <time>2016-02-21T09:05:00Z</time>
      </trkpt>
      <trkpt lat="46.79356" lon="12.36807">
        <ele>1606.5</ele>
        <time>2016-02-21T09:05:13Z</time>
      </trkpt>
      <trkpt lat="46.79362" lon="12.36797">
        <ele>1608.42</ele>
        <time>2016-02-21T09:05:28Z</time>
      </trkpt>
      <trkpt lat="46.79366" lon="12.36787">
        <ele>1609.38</ele>
        <time>2016-02-21T09:05:42Z</time>
      </trkpt>
      <trkpt lat="46.79369" lon="12.36774">
        <ele>1611.31</ele>
        <time>2016-02-21T09:05:57Z</time>
      </trkpt>
      <trkpt lat="46.7937" lon="12.36765">
        <ele>1612.75</ele>
        <time>2016-02-21T09:06:11Z</time>
      </trkpt>
      <trkpt lat="46.79372" lon="12.36753">
        <ele>1614.67</ele>
        <time>2016-02-21T09:06:27Z</time>
      </trkpt>
      <trkpt lat="46.79371" lon="12.36738">
        <ele>1617.07</ele>
        <time>2016-02-21T09:06:46Z</time>
      </trkpt>
      <trkpt lat="46.79369" lon="12.36729">
        <ele>1619</ele>
        <time>2016-02-21T09:07:02Z</time>
      </trkpt>
      <trkpt lat="46.79364" lon="12.36717">
        <ele>1620.44</ele>
        <time>2016-02-21T09:07:20Z</time>
      </trkpt>
      <trkpt lat="46.79363" lon="12.36707">
        <ele>1621.88</ele>
        <time>2016-02-21T09:07:35Z</time>
      </trkpt>
      <trkpt lat="46.79359" lon="12.36697">
        <ele>1623.32</ele>
        <time>2016-02-21T09:07:50Z</time>
      </trkpt>
      <trkpt lat="46.79361" lon="12.36678">
        <ele>1625.73</ele>
        <time>2016-02-21T09:08:08Z</time>
      </trkpt>
      <trkpt lat="46.79362" lon="12.36668">
        <ele>1627.65</ele>
        <time>2016-02-21T09:08:26Z</time>
      </trkpt>
      <trkpt lat="46.7936" lon="12.36657">
        <ele>1629.57</ele>
        <time>2016-02-21T09:08:41Z</time>
      </trkpt>
      <trkpt lat="46.7936" lon="12.36644">
        <ele>1631.01</ele>
        <time>2016-02-21T09:08:57Z</time>
      </trkpt>
      <trkpt lat="46.79362" lon="12.36632">
        <ele>1633.42</ele>
        <time>2016-02-21T09:09:12Z</time>
      </trkpt>
      <trkpt lat="46.79357" lon="12.36622">
        <ele>1634.86</ele>
        <time>2016-02-21T09:09:27Z</time>
      </trkpt>
      <trkpt lat="46.79355" lon="12.36611">
        <ele>1636.78</ele>
        <time>2016-02-21T09:09:43Z</time>
      </trkpt>
      <trkpt lat="46.79353" lon="12.36602">
        <ele>1638.7</ele>
        <time>2016-02-21T09:09:56Z</time>
      </trkpt>
      <trkpt lat="46.79355" lon="12.36592">
        <ele>1640.63</ele>
        <time>2016-02-21T09:10:11Z</time>
      </trkpt>
      <trkpt lat="46.79354" lon="12.36583">
        <ele>1642.07</ele>
        <time>2016-02-21T09:10:23Z</time>
      </trkpt>
      <trkpt lat="46.7935" lon="12.36576">
        <ele>1643.51</ele>
        <time>2016-02-21T09:10:37Z</time>
      </trkpt>
      <trkpt lat="46.79351" lon="12.36563">
        <ele>1645.43</ele>
        <time>2016-02-21T09:10:54Z</time>
      </trkpt>
      <trkpt lat="46.79349" lon="12.3655">
        <ele>1648.32</ele>
        <time>2016-02-21T09:11:13Z</time>
      </trkpt>
      <trkpt lat="46.79347" lon="12.36542">
        <ele>1650.72</ele>
        <time>2016-02-21T09:11:29Z</time>
      </trkpt>
      <trkpt lat="46.79343" lon="12.36537">
        <ele>1652.64</ele>
        <time>2016-02-21T09:11:44Z</time>
      </trkpt>
      <trkpt lat="46.79344" lon="12.3653">
        <ele>1652.64</ele>
        <time>2016-02-21T09:12:01Z</time>
      </trkpt>
      <trkpt lat="46.79342" lon="12.36524">
        <ele>1654.57</ele>
        <time>2016-02-21T09:12:17Z</time>
      </trkpt>
      <trkpt lat="46.7934" lon="12.36524">
        <ele>1655.05</ele>
        <time>2016-02-21T09:12:37Z</time>
      </trkpt>
      <trkpt lat="46.7934" lon="12.36526">
        <ele>1655.53</ele>
        <time>2016-02-21T09:12:50Z</time>
      </trkpt>
      <trkpt lat="46.79346" lon="12.36536">
        <ele>1656.97</ele>
        <time>2016-02-21T09:13:06Z</time>
      </trkpt>
      <trkpt lat="46.7935" lon="12.36538">
        <ele>1657.93</ele>
        <time>2016-02-21T09:13:12Z</time>
      </trkpt>
      <trkpt lat="46.7936" lon="12.36543">
        <ele>1660.33</ele>
        <time>2016-02-21T09:13:28Z</time>
      </trkpt>
      <trkpt lat="46.79362" lon="12.36549">
        <ele>1661.78</ele>
        <time>2016-02-21T09:13:45Z</time>
      </trkpt>
      <trkpt lat="46.79367" lon="12.36556">
        <ele>1663.22</ele>
        <time>2016-02-21T09:13:59Z</time>
      </trkpt>
      <trkpt lat="46.79373" lon="12.36561">
        <ele>1664.66</ele>
        <time>2016-02-21T09:14:16Z</time>
      </trkpt>
      <trkpt lat="46.79382" lon="12.36567">
        <ele>1666.1</ele>
        <time>2016-02-21T09:14:31Z</time>
      </trkpt>
      <trkpt lat="46.79387" lon="12.36573">
        <ele>1667.06</ele>
        <time>2016-02-21T09:14:41Z</time>
      </trkpt>
      <trkpt lat="46.79394" lon="12.36582">
        <ele>1668.99</ele>
        <time>2016-02-21T09:14:57Z</time>
      </trkpt>
      <trkpt lat="46.79399" lon="12.36593">
        <ele>1670.91</ele>
        <time>2016-02-21T09:15:17Z</time>
      </trkpt>
      <trkpt lat="46.79407" lon="12.36602">
        <ele>1672.83</ele>
        <time>2016-02-21T09:15:32Z</time>
      </trkpt>
      <trkpt lat="46.79413" lon="12.36611">
        <ele>1673.31</ele>
        <time>2016-02-21T09:15:48Z</time>
      </trkpt>
      <trkpt lat="46.79419" lon="12.36623">
        <ele>1676.2</ele>
        <time>2016-02-21T09:16:04Z</time>
      </trkpt>
      <trkpt lat="46.79424" lon="12.36628">
        <ele>1678.12</ele>
        <time>2016-02-21T09:16:19Z</time>
      </trkpt>
      <trkpt lat="46.79431" lon="12.36637">
        <ele>1679.56</ele>
        <time>2016-02-21T09:16:34Z</time>
      </trkpt>
      <trkpt lat="46.79436" lon="12.3664">
        <ele>1681</ele>
        <time>2016-02-21T09:16:48Z</time>
      </trkpt>
      <trkpt lat="46.79438" lon="12.36642">
        <ele>1681.48</ele>
        <time>2016-02-21T09:17:01Z</time>
      </trkpt>
      <trkpt lat="46.79436" lon="12.36642">
        <ele>1679.08</ele>
        <time>2016-02-21T09:17:18Z</time>
      </trkpt>
      <trkpt lat="46.79438" lon="12.36641">
        <ele>1680.04</ele>
        <time>2016-02-21T09:17:41Z</time>
      </trkpt>
      <trkpt lat="46.79436" lon="12.36643">
        <ele>1679.08</ele>
        <time>2016-02-21T09:18:07Z</time>
      </trkpt>
      <trkpt lat="46.79436" lon="12.36644">
        <ele>1679.56</ele>
        <time>2016-02-21T09:18:40Z</time>
      </trkpt>
      <trkpt lat="46.79439" lon="12.36643">
        <ele>1679.56</ele>
        <time>2016-02-21T09:19:07Z</time>
      </trkpt>
      <trkpt lat="46.79442" lon="12.36642">
        <ele>1679.56</ele>
        <time>2016-02-21T09:19:33Z</time>
      </trkpt>
      <trkpt lat="46.79444" lon="12.36639">
        <ele>1680.04</ele>
        <time>2016-02-21T09:19:52Z</time>
      </trkpt>
      <trkpt lat="46.79442" lon="12.36634">
        <ele>1681.96</ele>
        <time>2016-02-21T09:20:06Z</time>
      </trkpt>
      <trkpt lat="46.79437" lon="12.36621">
        <ele>1683.89</ele>
        <time>2016-02-21T09:20:20Z</time>
      </trkpt>
      <trkpt lat="46.79434" lon="12.36606">
        <ele>1685.81</ele>
        <time>2016-02-21T09:20:35Z</time>
      </trkpt>
      <trkpt lat="46.79429" lon="12.36588">
        <ele>1687.25</ele>
        <time>2016-02-21T09:20:53Z</time>
      </trkpt>
      <trkpt lat="46.79425" lon="12.36573">
        <ele>1688.69</ele>
        <time>2016-02-21T09:21:10Z</time>
      </trkpt>
      <trkpt lat="46.7942" lon="12.36561">
        <ele>1690.14</ele>
        <time>2016-02-21T09:21:24Z</time>
      </trkpt>
      <trkpt lat="46.79417" lon="12.36546">
        <ele>1691.1</ele>
        <time>2016-02-21T09:21:39Z</time>
      </trkpt>
      <trkpt lat="46.79414" lon="12.36534">
        <ele>1693.02</ele>
        <time>2016-02-21T09:21:51Z</time>
      </trkpt>
      <trkpt lat="46.79408" lon="12.36519">
        <ele>1693.98</ele>
        <time>2016-02-21T09:22:07Z</time>
      </trkpt>
      <trkpt lat="46.79403" lon="12.36507">
        <ele>1694.46</ele>
        <time>2016-02-21T09:22:22Z</time>
      </trkpt>
      <trkpt lat="46.79399" lon="12.36494">
        <ele>1695.9</ele>
        <time>2016-02-21T09:22:37Z</time>
      </trkpt>
      <trkpt lat="46.79396" lon="12.36483">
        <ele>1696.38</ele>
        <time>2016-02-21T09:22:51Z</time>
      </trkpt>
      <trkpt lat="46.79387" lon="12.3647">
        <ele>1698.79</ele>
        <time>2016-02-21T09:23:08Z</time>
      </trkpt>
      <trkpt lat="46.79383" lon="12.36464">
        <ele>1699.27</ele>
        <time>2016-02-21T09:23:21Z</time>
      </trkpt>
      <trkpt lat="46.79377" lon="12.36455">
        <ele>1701.67</ele>
        <time>2016-02-21T09:23:33Z</time>
      </trkpt>
      <trkpt lat="46.79377" lon="12.36443">
        <ele>1703.11</ele>
        <time>2016-02-21T09:23:49Z</time>
      </trkpt>
      <trkpt lat="46.79378" lon="12.36429">
        <ele>1704.07</ele>
        <time>2016-02-21T09:24:03Z</time>
      </trkpt>
      <trkpt lat="46.7938" lon="12.36417">
        <ele>1705.52</ele>
        <time>2016-02-21T09:24:19Z</time>
      </trkpt>
      <trkpt lat="46.79383" lon="12.36402">
        <ele>1706.96</ele>
        <time>2016-02-21T09:24:35Z</time>
      </trkpt>
      <trkpt lat="46.79382" lon="12.36391">
        <ele>1708.88</ele>
        <time>2016-02-21T09:24:48Z</time>
      </trkpt>
      <trkpt lat="46.79382" lon="12.3639">
        <ele>1708.88</ele>
        <time>2016-02-21T09:24:49Z</time>
      </trkpt>
      <trkpt lat="46.79376" lon="12.36387">
        <ele>1709.36</ele>
        <time>2016-02-21T09:25:01Z</time>
      </trkpt>
      <trkpt lat="46.79368" lon="12.36377">
        <ele>1710.32</ele>
        <time>2016-02-21T09:25:14Z</time>
      </trkpt>
      <trkpt lat="46.79361" lon="12.36365">
        <ele>1711.28</ele>
        <time>2016-02-21T09:25:34Z</time>
      </trkpt>
      <trkpt lat="46.79354" lon="12.36353">
        <ele>1714.65</ele>
        <time>2016-02-21T09:25:51Z</time>
      </trkpt>
      <trkpt lat="46.79349" lon="12.36341">
        <ele>1716.09</ele>
        <time>2016-02-21T09:26:10Z</time>
      </trkpt>
      <trkpt lat="46.79345" lon="12.36332">
        <ele>1716.09</ele>
        <time>2016-02-21T09:26:24Z</time>
      </trkpt>
      <trkpt lat="46.79344" lon="12.36325">
        <ele>1719.46</ele>
        <time>2016-02-21T09:26:35Z</time>
      </trkpt>
      <trkpt lat="46.79341" lon="12.36311">
        <ele>1720.42</ele>
        <time>2016-02-21T09:26:53Z</time>
      </trkpt>
      <trkpt lat="46.79338" lon="12.363">
        <ele>1721.86</ele>
        <time>2016-02-21T09:27:09Z</time>
      </trkpt>
      <trkpt lat="46.79335" lon="12.36286">
        <ele>1723.78</ele>
        <time>2016-02-21T09:27:27Z</time>
      </trkpt>
      <trkpt lat="46.79336" lon="12.36271">
        <ele>1725.22</ele>
        <time>2016-02-21T09:27:44Z</time>
      </trkpt>
      <trkpt lat="46.79334" lon="12.36257">
        <ele>1727.63</ele>
        <time>2016-02-21T09:28:05Z</time>
      </trkpt>
      <trkpt lat="46.79333" lon="12.36241">
        <ele>1729.07</ele>
        <time>2016-02-21T09:28:23Z</time>
      </trkpt>
      <trkpt lat="46.7933" lon="12.36229">
        <ele>1731.47</ele>
        <time>2016-02-21T09:28:40Z</time>
      </trkpt>
      <trkpt lat="46.79325" lon="12.36222">
        <ele>1732.43</ele>
        <time>2016-02-21T09:28:56Z</time>
      </trkpt>
      <trkpt lat="46.7932" lon="12.36213">
        <ele>1733.88</ele>
        <time>2016-02-21T09:29:12Z</time>
      </trkpt>
      <trkpt lat="46.79315" lon="12.36203">
        <ele>1735.8</ele>
        <time>2016-02-21T09:29:29Z</time>
      </trkpt>
      <trkpt lat="46.79311" lon="12.36198">
        <ele>1736.76</ele>
        <time>2016-02-21T09:29:42Z</time>
      </trkpt>
      <trkpt lat="46.79308" lon="12.36198">
        <ele>1737.72</ele>
        <time>2016-02-21T09:30:02Z</time>
      </trkpt>
      <trkpt lat="46.79308" lon="12.36198">
        <ele>1737.72</ele>
        <time>2016-02-21T09:30:16Z</time>
      </trkpt>
      <trkpt lat="46.79307" lon="12.36196">
        <ele>1738.2</ele>
        <time>2016-02-21T09:30:42Z</time>
      </trkpt>
      <trkpt lat="46.79305" lon="12.36188">
        <ele>1739.64</ele>
        <time>2016-02-21T09:31:00Z</time>
      </trkpt>
      <trkpt lat="46.79301" lon="12.3618">
        <ele>1741.08</ele>
        <time>2016-02-21T09:31:15Z</time>
      </trkpt>
      <trkpt lat="46.79298" lon="12.36172">
        <ele>1743.01</ele>
        <time>2016-02-21T09:31:30Z</time>
      </trkpt>
      <trkpt lat="46.79293" lon="12.36157">
        <ele>1744.93</ele>
        <time>2016-02-21T09:31:45Z</time>
      </trkpt>
      <trkpt lat="46.7929" lon="12.36151">
        <ele>1747.33</ele>
        <time>2016-02-21T09:32:01Z</time>
      </trkpt>
      <trkpt lat="46.79285" lon="12.3614">
        <ele>1748.29</ele>
        <time>2016-02-21T09:32:15Z</time>
      </trkpt>
      <trkpt lat="46.79282" lon="12.3613">
        <ele>1750.7</ele>
        <time>2016-02-21T09:32:29Z</time>
      </trkpt>
      <trkpt lat="46.79279" lon="12.36123">
        <ele>1751.66</ele>
        <time>2016-02-21T09:32:41Z</time>
      </trkpt>
      <trkpt lat="46.79273" lon="12.36114">
        <ele>1752.62</ele>
        <time>2016-02-21T09:32:54Z</time>
      </trkpt>
      <trkpt lat="46.79265" lon="12.36105">
        <ele>1755.02</ele>
        <time>2016-02-21T09:33:10Z</time>
      </trkpt>
      <trkpt lat="46.7926" lon="12.36091">
        <ele>1755.02</ele>
        <time>2016-02-21T09:33:25Z</time>
      </trkpt>
      <trkpt lat="46.79253" lon="12.3608">
        <ele>1756.47</ele>
        <time>2016-02-21T09:33:43Z</time>
      </trkpt>
      <trkpt lat="46.79243" lon="12.36069">
        <ele>1758.39</ele>
        <time>2016-02-21T09:34:02Z</time>
      </trkpt>
      <trkpt lat="46.79237" lon="12.36058">
        <ele>1758.87</ele>
        <time>2016-02-21T09:34:16Z</time>
      </trkpt>
      <trkpt lat="46.79229" lon="12.36046">
        <ele>1760.31</ele>
        <time>2016-02-21T09:34:32Z</time>
      </trkpt>
      <trkpt lat="46.79224" lon="12.36034">
        <ele>1761.75</ele>
        <time>2016-02-21T09:34:47Z</time>
      </trkpt>
      <trkpt lat="46.79215" lon="12.36022">
        <ele>1763.68</ele>
        <time>2016-02-21T09:35:02Z</time>
      </trkpt>
      <trkpt lat="46.79208" lon="12.36011">
        <ele>1766.08</ele>
        <time>2016-02-21T09:35:19Z</time>
      </trkpt>
      <trkpt lat="46.79207" lon="12.36004">
        <ele>1766.08</ele>
        <time>2016-02-21T09:35:33Z</time>
      </trkpt>
      <trkpt lat="46.79197" lon="12.36001">
        <ele>1767.52</ele>
        <time>2016-02-21T09:35:49Z</time>
      </trkpt>
      <trkpt lat="46.79188" lon="12.35986">
        <ele>1768</ele>
        <time>2016-02-21T09:36:04Z</time>
      </trkpt>
      <trkpt lat="46.79174" lon="12.35971">
        <ele>1768.96</ele>
        <time>2016-02-21T09:36:23Z</time>
      </trkpt>
      <trkpt lat="46.79162" lon="12.35963">
        <ele>1769.92</ele>
        <time>2016-02-21T09:36:37Z</time>
      </trkpt>
      <trkpt lat="46.79152" lon="12.35955">
        <ele>1771.85</ele>
        <time>2016-02-21T09:36:50Z</time>
      </trkpt>
      <trkpt lat="46.79145" lon="12.35948">
        <ele>1772.33</ele>
        <time>2016-02-21T09:37:03Z</time>
      </trkpt>
      <trkpt lat="46.79134" lon="12.3594">
        <ele>1773.29</ele>
        <time>2016-02-21T09:37:18Z</time>
      </trkpt>
      <trkpt lat="46.79124" lon="12.35934">
        <ele>1775.69</ele>
        <time>2016-02-21T09:37:34Z</time>
      </trkpt>
      <trkpt lat="46.79114" lon="12.3593">
        <ele>1776.65</ele>
        <time>2016-02-21T09:37:49Z</time>
      </trkpt>
      <trkpt lat="46.79107" lon="12.35927">
        <ele>1777.61</ele>
        <time>2016-02-21T09:38:02Z</time>
      </trkpt>
      <trkpt lat="46.791" lon="12.35918">
        <ele>1779.06</ele>
        <time>2016-02-21T09:38:17Z</time>
      </trkpt>
      <trkpt lat="46.79095" lon="12.3591">
        <ele>1780.02</ele>
        <time>2016-02-21T09:38:31Z</time>
      </trkpt>
      <trkpt lat="46.79088" lon="12.359">
        <ele>1780.98</ele>
        <time>2016-02-21T09:38:48Z</time>
      </trkpt>
      <trkpt lat="46.79084" lon="12.35895">
        <ele>1782.9</ele>
        <time>2016-02-21T09:39:03Z</time>
      </trkpt>
      <trkpt lat="46.79079" lon="12.35889">
        <ele>1783.86</ele>
        <time>2016-02-21T09:39:19Z</time>
      </trkpt>
      <trkpt lat="46.79072" lon="12.35881">
        <ele>1786.27</ele>
        <time>2016-02-21T09:39:37Z</time>
      </trkpt>
      <trkpt lat="46.79062" lon="12.35877">
        <ele>1787.71</ele>
        <time>2016-02-21T09:39:53Z</time>
      </trkpt>
      <trkpt lat="46.79054" lon="12.35869">
        <ele>1789.63</ele>
        <time>2016-02-21T09:40:09Z</time>
      </trkpt>
      <trkpt lat="46.79047" lon="12.35863">
        <ele>1791.07</ele>
        <time>2016-02-21T09:40:26Z</time>
      </trkpt>
      <trkpt lat="46.79042" lon="12.3586">
        <ele>1792.52</ele>
        <time>2016-02-21T09:40:41Z</time>
      </trkpt>
      <trkpt lat="46.79033" lon="12.35851">
        <ele>1793</ele>
        <time>2016-02-21T09:40:55Z</time>
      </trkpt>
      <trkpt lat="46.79027" lon="12.35841">
        <ele>1793.96</ele>
        <time>2016-02-21T09:41:08Z</time>
      </trkpt>
      <trkpt lat="46.79016" lon="12.35835">
        <ele>1795.4</ele>
        <time>2016-02-21T09:41:26Z</time>
      </trkpt>
      <trkpt lat="46.79008" lon="12.35826">
        <ele>1797.32</ele>
        <time>2016-02-21T09:41:42Z</time>
      </trkpt>
      <trkpt lat="46.79" lon="12.35818">
        <ele>1798.76</ele>
        <time>2016-02-21T09:41:56Z</time>
      </trkpt>
      <trkpt lat="46.78991" lon="12.35813">
        <ele>1800.21</ele>
        <time>2016-02-21T09:42:13Z</time>
      </trkpt>
      <trkpt lat="46.78981" lon="12.35806">
        <ele>1802.13</ele>
        <time>2016-02-21T09:42:28Z</time>
      </trkpt>
      <trkpt lat="46.78973" lon="12.35796">
        <ele>1804.05</ele>
        <time>2016-02-21T09:42:47Z</time>
      </trkpt>
      <trkpt lat="46.78965" lon="12.35786">
        <ele>1805.97</ele>
        <time>2016-02-21T09:43:05Z</time>
      </trkpt>
      <trkpt lat="46.78959" lon="12.35773">
        <ele>1806.94</ele>
        <time>2016-02-21T09:43:21Z</time>
      </trkpt>
      <trkpt lat="46.78952" lon="12.35763">
        <ele>1808.38</ele>
        <time>2016-02-21T09:43:36Z</time>
      </trkpt>
      <trkpt lat="46.78949" lon="12.35753">
        <ele>1808.38</ele>
        <time>2016-02-21T09:43:49Z</time>
      </trkpt>
      <trkpt lat="46.78944" lon="12.35744">
        <ele>1811.74</ele>
        <time>2016-02-21T09:44:00Z</time>
      </trkpt>
      <trkpt lat="46.78938" lon="12.35735">
        <ele>1811.74</ele>
        <time>2016-02-21T09:44:16Z</time>
      </trkpt>
      <trkpt lat="46.78932" lon="12.35723">
        <ele>1811.74</ele>
        <time>2016-02-21T09:44:31Z</time>
      </trkpt>
      <trkpt lat="46.7892" lon="12.35717">
        <ele>1814.15</ele>
        <time>2016-02-21T09:44:48Z</time>
      </trkpt>
      <trkpt lat="46.78911" lon="12.35707">
        <ele>1815.11</ele>
        <time>2016-02-21T09:45:04Z</time>
      </trkpt>
      <trkpt lat="46.78898" lon="12.35695">
        <ele>1816.07</ele>
        <time>2016-02-21T09:45:28Z</time>
      </trkpt>
      <trkpt lat="46.78888" lon="12.35686">
        <ele>1817.51</ele>
        <time>2016-02-21T09:45:47Z</time>
      </trkpt>
      <trkpt lat="46.78879" lon="12.35681">
        <ele>1820.39</ele>
        <time>2016-02-21T09:46:01Z</time>
      </trkpt>
      <trkpt lat="46.78872" lon="12.35679">
        <ele>1820.39</ele>
        <time>2016-02-21T09:46:14Z</time>
      </trkpt>
      <trkpt lat="46.78864" lon="12.3567">
        <ele>1821.35</ele>
        <time>2016-02-21T09:46:30Z</time>
      </trkpt>
      <trkpt lat="46.78854" lon="12.35665">
        <ele>1821.35</ele>
        <time>2016-02-21T09:46:45Z</time>
      </trkpt>
      <trkpt lat="46.78847" lon="12.35662">
        <ele>1823.76</ele>
        <time>2016-02-21T09:46:59Z</time>
      </trkpt>
      <trkpt lat="46.78841" lon="12.35655">
        <ele>1826.16</ele>
        <time>2016-02-21T09:47:16Z</time>
      </trkpt>
      <trkpt lat="46.78834" lon="12.3565">
        <ele>1827.12</ele>
        <time>2016-02-21T09:47:29Z</time>
      </trkpt>
      <trkpt lat="46.78828" lon="12.35648">
        <ele>1829.53</ele>
        <time>2016-02-21T09:47:44Z</time>
      </trkpt>
      <trkpt lat="46.78821" lon="12.35643">
        <ele>1830.49</ele>
        <time>2016-02-21T09:47:58Z</time>
      </trkpt>
      <trkpt lat="46.78813" lon="12.35636">
        <ele>1832.41</ele>
        <time>2016-02-21T09:48:15Z</time>
      </trkpt>
      <trkpt lat="46.78805" lon="12.35631">
        <ele>1833.85</ele>
        <time>2016-02-21T09:48:31Z</time>
      </trkpt>
      <trkpt lat="46.78797" lon="12.35629">
        <ele>1834.81</ele>
        <time>2016-02-21T09:48:45Z</time>
      </trkpt>
      <trkpt lat="46.78789" lon="12.35623">
        <ele>1835.77</ele>
        <time>2016-02-21T09:48:59Z</time>
      </trkpt>
      <trkpt lat="46.78777" lon="12.35615">
        <ele>1838.18</ele>
        <time>2016-02-21T09:49:18Z</time>
      </trkpt>
      <trkpt lat="46.78771" lon="12.35608">
        <ele>1839.14</ele>
        <time>2016-02-21T09:49:35Z</time>
      </trkpt>
      <trkpt lat="46.78762" lon="12.35603">
        <ele>1841.06</ele>
        <time>2016-02-21T09:49:52Z</time>
      </trkpt>
      <trkpt lat="46.78759" lon="12.35601">
        <ele>1842.02</ele>
        <time>2016-02-21T09:50:05Z</time>
      </trkpt>
      <trkpt lat="46.78755" lon="12.35598">
        <ele>1842.5</ele>
        <time>2016-02-21T09:50:17Z</time>
      </trkpt>
      <trkpt lat="46.78749" lon="12.35592">
        <ele>1843.47</ele>
        <time>2016-02-21T09:50:31Z</time>
      </trkpt>
      <trkpt lat="46.78741" lon="12.35583">
        <ele>1844.91</ele>
        <time>2016-02-21T09:50:46Z</time>
      </trkpt>
      <trkpt lat="46.78736" lon="12.35575">
        <ele>1846.83</ele>
        <time>2016-02-21T09:51:03Z</time>
      </trkpt>
      <trkpt lat="46.7873" lon="12.35568">
        <ele>1848.27</ele>
        <time>2016-02-21T09:51:19Z</time>
      </trkpt>
      <trkpt lat="46.78725" lon="12.3556">
        <ele>1850.19</ele>
        <time>2016-02-21T09:51:34Z</time>
      </trkpt>
      <trkpt lat="46.7872" lon="12.35555">
        <ele>1851.16</ele>
        <time>2016-02-21T09:51:47Z</time>
      </trkpt>
      <trkpt lat="46.78715" lon="12.35549">
        <ele>1852.12</ele>
        <time>2016-02-21T09:52:00Z</time>
      </trkpt>
      <trkpt lat="46.78707" lon="12.35542">
        <ele>1853.56</ele>
        <time>2016-02-21T09:52:17Z</time>
      </trkpt>
      <trkpt lat="46.787" lon="12.35535">
        <ele>1855.48</ele>
        <time>2016-02-21T09:52:33Z</time>
      </trkpt>
      <trkpt lat="46.78693" lon="12.35531">
        <ele>1857.4</ele>
        <time>2016-02-21T09:52:48Z</time>
      </trkpt>
      <trkpt lat="46.78686" lon="12.35526">
        <ele>1858.37</ele>
        <time>2016-02-21T09:53:03Z</time>
      </trkpt>
      <trkpt lat="46.78678" lon="12.35517">
        <ele>1859.33</ele>
        <time>2016-02-21T09:53:20Z</time>
      </trkpt>
      <trkpt lat="46.78671" lon="12.35508">
        <ele>1861.25</ele>
        <time>2016-02-21T09:53:37Z</time>
      </trkpt>
      <trkpt lat="46.78663" lon="12.35499">
        <ele>1862.21</ele>
        <time>2016-02-21T09:53:52Z</time>
      </trkpt>
      <trkpt lat="46.78659" lon="12.35491">
        <ele>1863.65</ele>
        <time>2016-02-21T09:54:08Z</time>
      </trkpt>
      <trkpt lat="46.78654" lon="12.35484">
        <ele>1865.58</ele>
        <time>2016-02-21T09:54:23Z</time>
      </trkpt>
      <trkpt lat="46.78646" lon="12.35479">
        <ele>1867.5</ele>
        <time>2016-02-21T09:54:39Z</time>
      </trkpt>
      <trkpt lat="46.78641" lon="12.35473">
        <ele>1869.42</ele>
        <time>2016-02-21T09:54:53Z</time>
      </trkpt>
      <trkpt lat="46.78633" lon="12.35467">
        <ele>1870.38</ele>
        <time>2016-02-21T09:55:09Z</time>
      </trkpt>
      <trkpt lat="46.78625" lon="12.35457">
        <ele>1872.3</ele>
        <time>2016-02-21T09:55:29Z</time>
      </trkpt>
      <trkpt lat="46.78618" lon="12.3545">
        <ele>1873.75</ele>
        <time>2016-02-21T09:55:45Z</time>
      </trkpt>
      <trkpt lat="46.78612" lon="12.35442">
        <ele>1875.67</ele>
        <time>2016-02-21T09:56:02Z</time>
      </trkpt>
      <trkpt lat="46.78605" lon="12.35436">
        <ele>1877.11</ele>
        <time>2016-02-21T09:56:18Z</time>
      </trkpt>
      <trkpt lat="46.78594" lon="12.35432">
        <ele>1879.03</ele>
        <time>2016-02-21T09:56:35Z</time>
      </trkpt>
      <trkpt lat="46.7859" lon="12.35428">
        <ele>1880.48</ele>
        <time>2016-02-21T09:56:46Z</time>
      </trkpt>
      <trkpt lat="46.78585" lon="12.35422">
        <ele>1881.44</ele>
        <time>2016-02-21T09:56:59Z</time>
      </trkpt>
      <trkpt lat="46.78579" lon="12.35416">
        <ele>1882.88</ele>
        <time>2016-02-21T09:57:13Z</time>
      </trkpt>
      <trkpt lat="46.78576" lon="12.35413">
        <ele>1884.32</ele>
        <time>2016-02-21T09:57:25Z</time>
      </trkpt>
      <trkpt lat="46.78569" lon="12.35406">
        <ele>1886.24</ele>
        <time>2016-02-21T09:57:39Z</time>
      </trkpt>
      <trkpt lat="46.78564" lon="12.35399">
        <ele>1887.69</ele>
        <time>2016-02-21T09:57:55Z</time>
      </trkpt>
      <trkpt lat="46.78558" lon="12.35399">
        <ele>1888.65</ele>
        <time>2016-02-21T09:58:10Z</time>
      </trkpt>
      <trkpt lat="46.78552" lon="12.35393">
        <ele>1890.57</ele>
        <time>2016-02-21T09:58:23Z</time>
      </trkpt>
      <trkpt lat="46.78547" lon="12.35388">
        <ele>1891.53</ele>
        <time>2016-02-21T09:58:35Z</time>
      </trkpt>
      <trkpt lat="46.78542" lon="12.35384">
        <ele>1892.97</ele>
        <time>2016-02-21T09:58:48Z</time>
      </trkpt>
      <trkpt lat="46.78538" lon="12.35379">
        <ele>1894.42</ele>
        <time>2016-02-21T09:59:00Z</time>
      </trkpt>
      <trkpt lat="46.78534" lon="12.35372">
        <ele>1896.34</ele>
        <time>2016-02-21T09:59:15Z</time>
      </trkpt>
      <trkpt lat="46.78534" lon="12.35373">
        <ele>1896.82</ele>
        <time>2016-02-21T09:59:29Z</time>
      </trkpt>
      <trkpt lat="46.7853" lon="12.35367">
        <ele>1897.78</ele>
        <time>2016-02-21T09:59:42Z</time>
      </trkpt>
      <trkpt lat="46.78527" lon="12.35362">
        <ele>1899.22</ele>
        <time>2016-02-21T09:59:54Z</time>
      </trkpt>
      <trkpt lat="46.78522" lon="12.35353">
        <ele>1900.66</ele>
        <time>2016-02-21T10:00:08Z</time>
      </trkpt>
      <trkpt lat="46.78518" lon="12.35347">
        <ele>1902.11</ele>
        <time>2016-02-21T10:00:21Z</time>
      </trkpt>
      <trkpt lat="46.78515" lon="12.35339">
        <ele>1903.07</ele>
        <time>2016-02-21T10:00:34Z</time>
      </trkpt>
      <trkpt lat="46.78512" lon="12.35329">
        <ele>1904.51</ele>
        <time>2016-02-21T10:00:49Z</time>
      </trkpt>
      <trkpt lat="46.78509" lon="12.35318">
        <ele>1904.99</ele>
        <time>2016-02-21T10:01:02Z</time>
      </trkpt>
      <trkpt lat="46.78506" lon="12.3531">
        <ele>1906.43</ele>
        <time>2016-02-21T10:01:14Z</time>
      </trkpt>
      <trkpt lat="46.78502" lon="12.353">
        <ele>1906.91</ele>
        <time>2016-02-21T10:01:27Z</time>
      </trkpt>
      <trkpt lat="46.785" lon="12.35293">
        <ele>1907.87</ele>
        <time>2016-02-21T10:01:40Z</time>
      </trkpt>
      <trkpt lat="46.78498" lon="12.35286">
        <ele>1909.32</ele>
        <time>2016-02-21T10:01:52Z</time>
      </trkpt>
      <trkpt lat="46.78497" lon="12.35279">
        <ele>1910.76</ele>
        <time>2016-02-21T10:02:06Z</time>
      </trkpt>
      <trkpt lat="46.78496" lon="12.35268">
        <ele>1912.2</ele>
        <time>2016-02-21T10:02:20Z</time>
      </trkpt>
      <trkpt lat="46.78495" lon="12.35255">
        <ele>1913.16</ele>
        <time>2016-02-21T10:02:36Z</time>
      </trkpt>
      <trkpt lat="46.78492" lon="12.35245">
        <ele>1916.04</ele>
        <time>2016-02-21T10:02:48Z</time>
      </trkpt>
      <trkpt lat="46.7849" lon="12.35238">
        <ele>1915.08</ele>
        <time>2016-02-21T10:03:00Z</time>
      </trkpt>
      <trkpt lat="46.78487" lon="12.3523">
        <ele>1916.53</ele>
        <time>2016-02-21T10:03:14Z</time>
      </trkpt>
      <trkpt lat="46.78486" lon="12.35222">
        <ele>1918.45</ele>
        <time>2016-02-21T10:03:28Z</time>
      </trkpt>
      <trkpt lat="46.78483" lon="12.35211">
        <ele>1920.37</ele>
        <time>2016-02-21T10:03:43Z</time>
      </trkpt>
      <trkpt lat="46.78481" lon="12.35205">
        <ele>1922.29</ele>
        <time>2016-02-21T10:03:56Z</time>
      </trkpt>
      <trkpt lat="46.78479" lon="12.35197">
        <ele>1923.25</ele>
        <time>2016-02-21T10:04:09Z</time>
      </trkpt>
      <trkpt lat="46.78473" lon="12.35191">
        <ele>1925.18</ele>
        <time>2016-02-21T10:04:22Z</time>
      </trkpt>
      <trkpt lat="46.78468" lon="12.35186">
        <ele>1926.14</ele>
        <time>2016-02-21T10:04:35Z</time>
      </trkpt>
      <trkpt lat="46.78465" lon="12.35179">
        <ele>1929.02</ele>
        <time>2016-02-21T10:04:48Z</time>
      </trkpt>
      <trkpt lat="46.78464" lon="12.35169">
        <ele>1929.02</ele>
        <time>2016-02-21T10:05:02Z</time>
      </trkpt>
      <trkpt lat="46.78458" lon="12.35164">
        <ele>1930.46</ele>
        <time>2016-02-21T10:05:16Z</time>
      </trkpt>
      <trkpt lat="46.78456" lon="12.3516">
        <ele>1931.43</ele>
        <time>2016-02-21T10:05:30Z</time>
      </trkpt>
      <trkpt lat="46.78454" lon="12.35151">
        <ele>1932.87</ele>
        <time>2016-02-21T10:05:45Z</time>
      </trkpt>
      <trkpt lat="46.78454" lon="12.35147">
        <ele>1933.35</ele>
        <time>2016-02-21T10:06:02Z</time>
      </trkpt>
      <trkpt lat="46.78453" lon="12.35138">
        <ele>1934.79</ele>
        <time>2016-02-21T10:06:16Z</time>
      </trkpt>
      <trkpt lat="46.78453" lon="12.35134">
        <ele>1934.79</ele>
        <time>2016-02-21T10:06:30Z</time>
      </trkpt>
      <trkpt lat="46.78453" lon="12.35133">
        <ele>1934.79</ele>
        <time>2016-02-21T10:06:45Z</time>
      </trkpt>
      <trkpt lat="46.78454" lon="12.35131">
        <ele>1936.23</ele>
        <time>2016-02-21T10:07:03Z</time>
      </trkpt>
      <trkpt lat="46.78453" lon="12.35133">
        <ele>1935.75</ele>
        <time>2016-02-21T10:07:21Z</time>
      </trkpt>
      <trkpt lat="46.78451" lon="12.35132">
        <ele>1935.27</ele>
        <time>2016-02-21T10:07:49Z</time>
      </trkpt>
      <trkpt lat="46.78455" lon="12.35134">
        <ele>1935.27</ele>
        <time>2016-02-21T10:08:17Z</time>
      </trkpt>
      <trkpt lat="46.78454" lon="12.35135">
        <ele>1935.75</ele>
        <time>2016-02-21T10:08:55Z</time>
      </trkpt>
      <trkpt lat="46.78454" lon="12.35132">
        <ele>1936.23</ele>
        <time>2016-02-21T10:09:24Z</time>
      </trkpt>
      <trkpt lat="46.78458" lon="12.35133">
        <ele>1936.23</ele>
        <time>2016-02-21T10:10:07Z</time>
      </trkpt>
      <trkpt lat="46.78455" lon="12.35134">
        <ele>1933.35</ele>
        <time>2016-02-21T10:10:32Z</time>
      </trkpt>
      <trkpt lat="46.78452" lon="12.35134">
        <ele>1935.75</ele>
        <time>2016-02-21T10:10:38Z</time>
      </trkpt>
      <trkpt lat="46.78453" lon="12.35137">
        <ele>1936.23</ele>
        <time>2016-02-21T10:11:14Z</time>
      </trkpt>
      <trkpt lat="46.78452" lon="12.35136">
        <ele>1936.23</ele>
        <time>2016-02-21T10:11:48Z</time>
      </trkpt>
      <trkpt lat="46.78454" lon="12.35134">
        <ele>1936.71</ele>
        <time>2016-02-21T10:12:28Z</time>
      </trkpt>
      <trkpt lat="46.78454" lon="12.35133">
        <ele>1937.19</ele>
        <time>2016-02-21T10:13:04Z</time>
      </trkpt>
      <trkpt lat="46.78453" lon="12.35136">
        <ele>1937.19</ele>
        <time>2016-02-21T10:13:44Z</time>
      </trkpt>
      <trkpt lat="46.78454" lon="12.35133">
        <ele>1938.16</ele>
        <time>2016-02-21T10:14:21Z</time>
      </trkpt>
      <trkpt lat="46.78456" lon="12.35135">
        <ele>1938.64</ele>
        <time>2016-02-21T10:14:53Z</time>
      </trkpt>
      <trkpt lat="46.78452" lon="12.35135">
        <ele>1939.6</ele>
        <time>2016-02-21T10:15:08Z</time>
      </trkpt>
      <trkpt lat="46.78454" lon="12.35128">
        <ele>1940.08</ele>
        <time>2016-02-21T10:15:29Z</time>
      </trkpt>
      <trkpt lat="46.78454" lon="12.35124">
        <ele>1941.04</ele>
        <time>2016-02-21T10:15:41Z</time>
      </trkpt>
      <trkpt lat="46.78453" lon="12.35117">
        <ele>1942.48</ele>
        <time>2016-02-21T10:15:53Z</time>
      </trkpt>
      <trkpt lat="46.78453" lon="12.35105">
        <ele>1943.92</ele>
        <time>2016-02-21T10:16:08Z</time>
      </trkpt>
      <trkpt lat="46.78452" lon="12.35096">
        <ele>1945.36</ele>
        <time>2016-02-21T10:16:24Z</time>
      </trkpt>
      <trkpt lat="46.78451" lon="12.35086">
        <ele>1946.81</ele>
        <time>2016-02-21T10:16:39Z</time>
      </trkpt>
      <trkpt lat="46.78451" lon="12.35077">
        <ele>1948.73</ele>
        <time>2016-02-21T10:16:54Z</time>
      </trkpt>
      <trkpt lat="46.78452" lon="12.35071">
        <ele>1949.21</ele>
        <time>2016-02-21T10:17:03Z</time>
      </trkpt>
      <trkpt lat="46.78451" lon="12.35061">
        <ele>1951.13</ele>
        <time>2016-02-21T10:17:19Z</time>
      </trkpt>
      <trkpt lat="46.7845" lon="12.35052">
        <ele>1952.57</ele>
        <time>2016-02-21T10:17:34Z</time>
      </trkpt>
      <trkpt lat="46.78448" lon="12.35048">
        <ele>1953.54</ele>
        <time>2016-02-21T10:17:45Z</time>
      </trkpt>
      <trkpt lat="46.78445" lon="12.35043">
        <ele>1954.5</ele>
        <time>2016-02-21T10:17:59Z</time>
      </trkpt>
      <trkpt lat="46.78446" lon="12.35036">
        <ele>1955.46</ele>
        <time>2016-02-21T10:18:10Z</time>
      </trkpt>
      <trkpt lat="46.78443" lon="12.35031">
        <ele>1956.42</ele>
        <time>2016-02-21T10:18:22Z</time>
      </trkpt>
      <trkpt lat="46.78441" lon="12.35026">
        <ele>1957.38</ele>
        <time>2016-02-21T10:18:33Z</time>
      </trkpt>
      <trkpt lat="46.78439" lon="12.35019">
        <ele>1958.34</ele>
        <time>2016-02-21T10:18:45Z</time>
      </trkpt>
      <trkpt lat="46.78436" lon="12.35018">
        <ele>1959.3</ele>
        <time>2016-02-21T10:18:59Z</time>
      </trkpt>
      <trkpt lat="46.78437" lon="12.35013">
        <ele>1961.23</ele>
        <time>2016-02-21T10:19:08Z</time>
      </trkpt>
      <trkpt lat="46.78431" lon="12.35004">
        <ele>1963.15</ele>
        <time>2016-02-21T10:19:25Z</time>
      </trkpt>
      <trkpt lat="46.78426" lon="12.35002">
        <ele>1964.59</ele>
        <time>2016-02-21T10:19:37Z</time>
      </trkpt>
      <trkpt lat="46.78427" lon="12.34995">
        <ele>1966.51</ele>
        <time>2016-02-21T10:19:53Z</time>
      </trkpt>
      <trkpt lat="46.78425" lon="12.34983">
        <ele>1968.44</ele>
        <time>2016-02-21T10:20:09Z</time>
      </trkpt>
      <trkpt lat="46.78427" lon="12.34977">
        <ele>1969.88</ele>
        <time>2016-02-21T10:20:28Z</time>
      </trkpt>
      <trkpt lat="46.78426" lon="12.34964">
        <ele>1971.32</ele>
        <time>2016-02-21T10:20:43Z</time>
      </trkpt>
      <trkpt lat="46.78426" lon="12.34955">
        <ele>1974.69</ele>
        <time>2016-02-21T10:20:55Z</time>
      </trkpt>
      <trkpt lat="46.78426" lon="12.3494">
        <ele>1975.17</ele>
        <time>2016-02-21T10:21:13Z</time>
      </trkpt>
      <trkpt lat="46.78424" lon="12.34929">
        <ele>1976.61</ele>
        <time>2016-02-21T10:21:26Z</time>
      </trkpt>
      <trkpt lat="46.78418" lon="12.34926">
        <ele>1978.05</ele>
        <time>2016-02-21T10:21:41Z</time>
      </trkpt>
      <trkpt lat="46.78416" lon="12.3492">
        <ele>1979.97</ele>
        <time>2016-02-21T10:21:56Z</time>
      </trkpt>
      <trkpt lat="46.78418" lon="12.34909">
        <ele>1981.9</ele>
        <time>2016-02-21T10:22:15Z</time>
      </trkpt>
      <trkpt lat="46.78421" lon="12.34899">
        <ele>1983.34</ele>
        <time>2016-02-21T10:22:30Z</time>
      </trkpt>
      <trkpt lat="46.78423" lon="12.34891">
        <ele>1984.78</ele>
        <time>2016-02-21T10:22:43Z</time>
      </trkpt>
      <trkpt lat="46.7842" lon="12.3488">
        <ele>1986.7</ele>
        <time>2016-02-21T10:22:58Z</time>
      </trkpt>
      <trkpt lat="46.78413" lon="12.34875">
        <ele>1988.14</ele>
        <time>2016-02-21T10:23:15Z</time>
      </trkpt>
      <trkpt lat="46.78409" lon="12.34869">
        <ele>1989.59</ele>
        <time>2016-02-21T10:23:30Z</time>
      </trkpt>
      <trkpt lat="46.78409" lon="12.34866">
        <ele>1991.03</ele>
        <time>2016-02-21T10:23:43Z</time>
      </trkpt>
      <trkpt lat="46.78412" lon="12.34862">
        <ele>1992.47</ele>
        <time>2016-02-21T10:23:56Z</time>
      </trkpt>
      <trkpt lat="46.78413" lon="12.34855">
        <ele>1993.91</ele>
        <time>2016-02-21T10:24:10Z</time>
      </trkpt>
      <trkpt lat="46.78412" lon="12.34846">
        <ele>1995.83</ele>
        <time>2016-02-21T10:24:24Z</time>
      </trkpt>
      <trkpt lat="46.78406" lon="12.3484">
        <ele>1997.28</ele>
        <time>2016-02-21T10:24:37Z</time>
      </trkpt>
      <trkpt lat="46.78402" lon="12.34836">
        <ele>1998.72</ele>
        <time>2016-02-21T10:24:51Z</time>
      </trkpt>
      <trkpt lat="46.78404" lon="12.34833">
        <ele>2000.16</ele>
        <time>2016-02-21T10:25:04Z</time>
      </trkpt>
      <trkpt lat="46.78404" lon="12.34827">
        <ele>2001.6</ele>
        <time>2016-02-21T10:25:18Z</time>
      </trkpt>
      <trkpt lat="46.78397" lon="12.3482">
        <ele>2003.04</ele>
        <time>2016-02-21T10:25:32Z</time>
      </trkpt>
      <trkpt lat="46.78394" lon="12.34814">
        <ele>2004.97</ele>
        <time>2016-02-21T10:25:44Z</time>
      </trkpt>
      <trkpt lat="46.78392" lon="12.34811">
        <ele>2006.41</ele>
        <time>2016-02-21T10:25:55Z</time>
      </trkpt>
      <trkpt lat="46.78395" lon="12.34808">
        <ele>2007.85</ele>
        <time>2016-02-21T10:26:09Z</time>
      </trkpt>
      <trkpt lat="46.78398" lon="12.34802">
        <ele>2009.29</ele>
        <time>2016-02-21T10:26:25Z</time>
      </trkpt>
      <trkpt lat="46.78405" lon="12.34799">
        <ele>2011.22</ele>
        <time>2016-02-21T10:26:42Z</time>
      </trkpt>
      <trkpt lat="46.78412" lon="12.34797">
        <ele>2013.62</ele>
        <time>2016-02-21T10:26:58Z</time>
      </trkpt>
      <trkpt lat="46.78418" lon="12.34797">
        <ele>2013.62</ele>
        <time>2016-02-21T10:27:14Z</time>
      </trkpt>
      <trkpt lat="46.78423" lon="12.34796">
        <ele>2015.54</ele>
        <time>2016-02-21T10:27:29Z</time>
      </trkpt>
      <trkpt lat="46.78429" lon="12.34789">
        <ele>2017.46</ele>
        <time>2016-02-21T10:27:46Z</time>
      </trkpt>
      <trkpt lat="46.78431" lon="12.34785">
        <ele>2019.39</ele>
        <time>2016-02-21T10:27:59Z</time>
      </trkpt>
      <trkpt lat="46.78434" lon="12.34778">
        <ele>2021.31</ele>
        <time>2016-02-21T10:28:16Z</time>
      </trkpt>
      <trkpt lat="46.78431" lon="12.3477">
        <ele>2023.23</ele>
        <time>2016-02-21T10:28:28Z</time>
      </trkpt>
      <trkpt lat="46.78427" lon="12.34765">
        <ele>2025.15</ele>
        <time>2016-02-21T10:28:42Z</time>
      </trkpt>
      <trkpt lat="46.78425" lon="12.34763">
        <ele>2026.6</ele>
        <time>2016-02-21T10:28:57Z</time>
      </trkpt>
      <trkpt lat="46.78429" lon="12.34756">
        <ele>2028.52</ele>
        <time>2016-02-21T10:29:15Z</time>
      </trkpt>
      <trkpt lat="46.78429" lon="12.34748">
        <ele>2029.96</ele>
        <time>2016-02-21T10:29:29Z</time>
      </trkpt>
      <trkpt lat="46.78425" lon="12.34747">
        <ele>2031.88</ele>
        <time>2016-02-21T10:29:45Z</time>
      </trkpt>
      <trkpt lat="46.78419" lon="12.34742">
        <ele>2033.33</ele>
        <time>2016-02-21T10:30:01Z</time>
      </trkpt>
      <trkpt lat="46.78422" lon="12.3474">
        <ele>2035.25</ele>
        <time>2016-02-21T10:30:14Z</time>
      </trkpt>
      <trkpt lat="46.78422" lon="12.34737">
        <ele>2036.21</ele>
        <time>2016-02-21T10:30:28Z</time>
      </trkpt>
      <trkpt lat="46.78416" lon="12.34731">
        <ele>2037.65</ele>
        <time>2016-02-21T10:30:41Z</time>
      </trkpt>
      <trkpt lat="46.78412" lon="12.34729">
        <ele>2040.05</ele>
        <time>2016-02-21T10:30:58Z</time>
      </trkpt>
      <trkpt lat="46.78405" lon="12.34726">
        <ele>2041.02</ele>
        <time>2016-02-21T10:31:15Z</time>
      </trkpt>
      <trkpt lat="46.78398" lon="12.34721">
        <ele>2042.94</ele>
        <time>2016-02-21T10:31:34Z</time>
      </trkpt>
      <trkpt lat="46.78397" lon="12.34713">
        <ele>2044.86</ele>
        <time>2016-02-21T10:31:49Z</time>
      </trkpt>
      <trkpt lat="46.78394" lon="12.34712">
        <ele>2046.78</ele>
        <time>2016-02-21T10:32:04Z</time>
      </trkpt>
      <trkpt lat="46.7839" lon="12.34707">
        <ele>2048.71</ele>
        <time>2016-02-21T10:32:19Z</time>
      </trkpt>
      <trkpt lat="46.78396" lon="12.34705">
        <ele>2050.15</ele>
        <time>2016-02-21T10:32:35Z</time>
      </trkpt>
      <trkpt lat="46.784" lon="12.34703">
        <ele>2052.07</ele>
        <time>2016-02-21T10:32:51Z</time>
      </trkpt>
      <trkpt lat="46.78396" lon="12.34693">
        <ele>2053.03</ele>
        <time>2016-02-21T10:33:08Z</time>
      </trkpt>
      <trkpt lat="46.78393" lon="12.3469">
        <ele>2056.4</ele>
        <time>2016-02-21T10:33:22Z</time>
      </trkpt>
      <trkpt lat="46.78389" lon="12.34691">
        <ele>2055.92</ele>
        <time>2016-02-21T10:33:41Z</time>
      </trkpt>
      <trkpt lat="46.78384" lon="12.34686">
        <ele>2057.36</ele>
        <time>2016-02-21T10:33:56Z</time>
      </trkpt>
      <trkpt lat="46.7838" lon="12.34681">
        <ele>2058.8</ele>
        <time>2016-02-21T10:34:10Z</time>
      </trkpt>
      <trkpt lat="46.78373" lon="12.34678">
        <ele>2060.72</ele>
        <time>2016-02-21T10:34:26Z</time>
      </trkpt>
      <trkpt lat="46.78366" lon="12.34675">
        <ele>2062.17</ele>
        <time>2016-02-21T10:34:42Z</time>
      </trkpt>
      <trkpt lat="46.78361" lon="12.34671">
        <ele>2063.61</ele>
        <time>2016-02-21T10:34:57Z</time>
      </trkpt>
      <trkpt lat="46.78356" lon="12.34672">
        <ele>2065.05</ele>
        <time>2016-02-21T10:35:12Z</time>
      </trkpt>
      <trkpt lat="46.78351" lon="12.34669">
        <ele>2066.49</ele>
        <time>2016-02-21T10:35:26Z</time>
      </trkpt>
      <trkpt lat="46.78352" lon="12.34664">
        <ele>2067.93</ele>
        <time>2016-02-21T10:35:40Z</time>
      </trkpt>
      <trkpt lat="46.78354" lon="12.3466">
        <ele>2069.38</ele>
        <time>2016-02-21T10:35:54Z</time>
      </trkpt>
      <trkpt lat="46.78356" lon="12.34652">
        <ele>2070.82</ele>
        <time>2016-02-21T10:36:09Z</time>
      </trkpt>
      <trkpt lat="46.78358" lon="12.34643">
        <ele>2071.78</ele>
        <time>2016-02-21T10:36:24Z</time>
      </trkpt>
      <trkpt lat="46.7836" lon="12.34634">
        <ele>2073.22</ele>
        <time>2016-02-21T10:36:37Z</time>
      </trkpt>
      <trkpt lat="46.78357" lon="12.34626">
        <ele>2074.18</ele>
        <time>2016-02-21T10:36:53Z</time>
      </trkpt>
      <trkpt lat="46.78353" lon="12.34622">
        <ele>2076.1</ele>
        <time>2016-02-21T10:37:09Z</time>
      </trkpt>
      <trkpt lat="46.78349" lon="12.34617">
        <ele>2078.03</ele>
        <time>2016-02-21T10:37:24Z</time>
      </trkpt>
      <trkpt lat="46.78345" lon="12.34615">
        <ele>2078.99</ele>
        <time>2016-02-21T10:37:35Z</time>
      </trkpt>
      <trkpt lat="46.78343" lon="12.34611">
        <ele>2080.43</ele>
        <time>2016-02-21T10:37:50Z</time>
      </trkpt>
      <trkpt lat="46.78342" lon="12.34604">
        <ele>2082.83</ele>
        <time>2016-02-21T10:38:05Z</time>
      </trkpt>
      <trkpt lat="46.78341" lon="12.34595">
        <ele>2084.28</ele>
        <time>2016-02-21T10:38:20Z</time>
      </trkpt>
      <trkpt lat="46.78342" lon="12.3459">
        <ele>2085.24</ele>
        <time>2016-02-21T10:38:34Z</time>
      </trkpt>
      <trkpt lat="46.78343" lon="12.34582">
        <ele>2084.76</ele>
        <time>2016-02-21T10:38:47Z</time>
      </trkpt>
      <trkpt lat="46.78345" lon="12.34575">
        <ele>2086.68</ele>
        <time>2016-02-21T10:39:01Z</time>
      </trkpt>
      <trkpt lat="46.78347" lon="12.34569">
        <ele>2088.12</ele>
        <time>2016-02-21T10:39:14Z</time>
      </trkpt>
      <trkpt lat="46.78341" lon="12.34565">
        <ele>2090.04</ele>
        <time>2016-02-21T10:39:29Z</time>
      </trkpt>
      <trkpt lat="46.78337" lon="12.34561">
        <ele>2091.49</ele>
        <time>2016-02-21T10:39:43Z</time>
      </trkpt>
      <trkpt lat="46.78332" lon="12.34558">
        <ele>2092.93</ele>
        <time>2016-02-21T10:39:57Z</time>
      </trkpt>
      <trkpt lat="46.78329" lon="12.34554">
        <ele>2094.37</ele>
        <time>2016-02-21T10:40:11Z</time>
      </trkpt>
      <trkpt lat="46.78332" lon="12.34549">
        <ele>2096.29</ele>
        <time>2016-02-21T10:40:25Z</time>
      </trkpt>
      <trkpt lat="46.78336" lon="12.34544">
        <ele>2098.7</ele>
        <time>2016-02-21T10:40:41Z</time>
      </trkpt>
      <trkpt lat="46.78335" lon="12.34535">
        <ele>2099.66</ele>
        <time>2016-02-21T10:40:56Z</time>
      </trkpt>
      <trkpt lat="46.78331" lon="12.34528">
        <ele>2101.58</ele>
        <time>2016-02-21T10:41:10Z</time>
      </trkpt>
      <trkpt lat="46.78326" lon="12.34524">
        <ele>2102.06</ele>
        <time>2016-02-21T10:41:25Z</time>
      </trkpt>
      <trkpt lat="46.78321" lon="12.3452">
        <ele>2103.02</ele>
        <time>2016-02-21T10:41:39Z</time>
      </trkpt>
      <trkpt lat="46.78317" lon="12.34518">
        <ele>2104.94</ele>
        <time>2016-02-21T10:41:54Z</time>
      </trkpt>
      <trkpt lat="46.78315" lon="12.34512">
        <ele>2106.87</ele>
        <time>2016-02-21T10:42:08Z</time>
      </trkpt>
      <trkpt lat="46.78315" lon="12.34505">
        <ele>2108.31</ele>
        <time>2016-02-21T10:42:23Z</time>
      </trkpt>
      <trkpt lat="46.78316" lon="12.34498">
        <ele>2109.75</ele>
        <time>2016-02-21T10:42:38Z</time>
      </trkpt>
      <trkpt lat="46.78316" lon="12.34491">
        <ele>2111.67</ele>
        <time>2016-02-21T10:42:51Z</time>
      </trkpt>
      <trkpt lat="46.78315" lon="12.34484">
        <ele>2112.63</ele>
        <time>2016-02-21T10:43:05Z</time>
      </trkpt>
      <trkpt lat="46.78317" lon="12.34476">
        <ele>2114.56</ele>
        <time>2016-02-21T10:43:20Z</time>
      </trkpt>
      <trkpt lat="46.78316" lon="12.3447">
        <ele>2116.48</ele>
        <time>2016-02-21T10:43:34Z</time>
      </trkpt>
      <trkpt lat="46.78315" lon="12.34463">
        <ele>2116.48</ele>
        <time>2016-02-21T10:43:47Z</time>
      </trkpt>
      <trkpt lat="46.78313" lon="12.34456">
        <ele>2116.48</ele>
        <time>2016-02-21T10:44:02Z</time>
      </trkpt>
      <trkpt lat="46.78308" lon="12.34455">
        <ele>2119.36</ele>
        <time>2016-02-21T10:44:16Z</time>
      </trkpt>
      <trkpt lat="46.78301" lon="12.34455">
        <ele>2119.84</ele>
        <time>2016-02-21T10:44:32Z</time>
      </trkpt>
      <trkpt lat="46.78295" lon="12.34456">
        <ele>2120.81</ele>
        <time>2016-02-21T10:44:48Z</time>
      </trkpt>
      <trkpt lat="46.78292" lon="12.34454">
        <ele>2123.21</ele>
        <time>2016-02-21T10:45:01Z</time>
      </trkpt>
      <trkpt lat="46.78291" lon="12.34448">
        <ele>2125.13</ele>
        <time>2016-02-21T10:45:14Z</time>
      </trkpt>
      <trkpt lat="46.78292" lon="12.34441">
        <ele>2126.09</ele>
        <time>2016-02-21T10:45:27Z</time>
      </trkpt>
      <trkpt lat="46.78292" lon="12.34435">
        <ele>2127.53</ele>
        <time>2016-02-21T10:45:40Z</time>
      </trkpt>
      <trkpt lat="46.7829" lon="12.34427">
        <ele>2128.5</ele>
        <time>2016-02-21T10:45:52Z</time>
      </trkpt>
      <trkpt lat="46.78288" lon="12.34421">
        <ele>2129.94</ele>
        <time>2016-02-21T10:46:04Z</time>
      </trkpt>
      <trkpt lat="46.78289" lon="12.34415">
        <ele>2130.9</ele>
        <time>2016-02-21T10:46:16Z</time>
      </trkpt>
      <trkpt lat="46.78289" lon="12.34408">
        <ele>2131.38</ele>
        <time>2016-02-21T10:46:28Z</time>
      </trkpt>
      <trkpt lat="46.78289" lon="12.344">
        <ele>2132.82</ele>
        <time>2016-02-21T10:46:42Z</time>
      </trkpt>
      <trkpt lat="46.78289" lon="12.34394">
        <ele>2133.78</ele>
        <time>2016-02-21T10:46:55Z</time>
      </trkpt>
      <trkpt lat="46.78288" lon="12.34386">
        <ele>2134.26</ele>
        <time>2016-02-21T10:47:10Z</time>
      </trkpt>
      <trkpt lat="46.78287" lon="12.34379">
        <ele>2134.26</ele>
        <time>2016-02-21T10:47:24Z</time>
      </trkpt>
      <trkpt lat="46.78287" lon="12.34375">
        <ele>2137.63</ele>
        <time>2016-02-21T10:47:32Z</time>
      </trkpt>
      <trkpt lat="46.78287" lon="12.34374">
        <ele>2138.11</ele>
        <time>2016-02-21T10:47:34Z</time>
      </trkpt>
      <trkpt lat="46.78285" lon="12.34367">
        <ele>2139.07</ele>
        <time>2016-02-21T10:47:49Z</time>
      </trkpt>
      <trkpt lat="46.78285" lon="12.34358">
        <ele>2140.99</ele>
        <time>2016-02-21T10:48:07Z</time>
      </trkpt>
      <trkpt lat="46.78283" lon="12.34352">
        <ele>2142.44</ele>
        <time>2016-02-21T10:48:20Z</time>
      </trkpt>
      <trkpt lat="46.78283" lon="12.34346">
        <ele>2144.36</ele>
        <time>2016-02-21T10:48:33Z</time>
      </trkpt>
      <trkpt lat="46.78282" lon="12.34338">
        <ele>2145.8</ele>
        <time>2016-02-21T10:48:47Z</time>
      </trkpt>
      <trkpt lat="46.7828" lon="12.34331">
        <ele>2147.24</ele>
        <time>2016-02-21T10:49:01Z</time>
      </trkpt>
      <trkpt lat="46.78278" lon="12.34326">
        <ele>2148.68</ele>
        <time>2016-02-21T10:49:14Z</time>
      </trkpt>
      <trkpt lat="46.78279" lon="12.34321">
        <ele>2150.13</ele>
        <time>2016-02-21T10:49:28Z</time>
      </trkpt>
      <trkpt lat="46.7828" lon="12.34314">
        <ele>2150.61</ele>
        <time>2016-02-21T10:49:42Z</time>
      </trkpt>
      <trkpt lat="46.78278" lon="12.34306">
        <ele>2152.05</ele>
        <time>2016-02-21T10:49:56Z</time>
      </trkpt>
      <trkpt lat="46.78278" lon="12.34299">
        <ele>2153.01</ele>
        <time>2016-02-21T10:50:10Z</time>
      </trkpt>
      <trkpt lat="46.78278" lon="12.34292">
        <ele>2154.45</ele>
        <time>2016-02-21T10:50:23Z</time>
      </trkpt>
      <trkpt lat="46.78276" lon="12.34287">
        <ele>2155.89</ele>
        <time>2016-02-21T10:50:36Z</time>
      </trkpt>
      <trkpt lat="46.78276" lon="12.34283">
        <ele>2153.97</ele>
        <time>2016-02-21T10:50:42Z</time>
      </trkpt>
      <trkpt lat="46.78273" lon="12.34282">
        <ele>2156.86</ele>
        <time>2016-02-21T10:50:56Z</time>
      </trkpt>
      <trkpt lat="46.78268" lon="12.3428">
        <ele>2159.26</ele>
        <time>2016-02-21T10:51:10Z</time>
      </trkpt>
      <trkpt lat="46.78268" lon="12.34275">
        <ele>2160.7</ele>
        <time>2016-02-21T10:51:23Z</time>
      </trkpt>
      <trkpt lat="46.78267" lon="12.34271">
        <ele>2162.14</ele>
        <time>2016-02-21T10:51:36Z</time>
      </trkpt>
      <trkpt lat="46.78267" lon="12.34263">
        <ele>2164.06</ele>
        <time>2016-02-21T10:51:50Z</time>
      </trkpt>
      <trkpt lat="46.78268" lon="12.34257">
        <ele>2165.03</ele>
        <time>2016-02-21T10:52:04Z</time>
      </trkpt>
      <trkpt lat="46.78267" lon="12.34251">
        <ele>2165.99</ele>
        <time>2016-02-21T10:52:18Z</time>
      </trkpt>
      <trkpt lat="46.78264" lon="12.34244">
        <ele>2166.95</ele>
        <time>2016-02-21T10:52:31Z</time>
      </trkpt>
      <trkpt lat="46.78263" lon="12.3424">
        <ele>2169.35</ele>
        <time>2016-02-21T10:52:44Z</time>
      </trkpt>
      <trkpt lat="46.78265" lon="12.34235">
        <ele>2169.35</ele>
        <time>2016-02-21T10:52:57Z</time>
      </trkpt>
      <trkpt lat="46.78266" lon="12.3423">
        <ele>2169.83</ele>
        <time>2016-02-21T10:53:10Z</time>
      </trkpt>
      <trkpt lat="46.78266" lon="12.34222">
        <ele>2171.27</ele>
        <time>2016-02-21T10:53:25Z</time>
      </trkpt>
      <trkpt lat="46.78268" lon="12.34215">
        <ele>2172.72</ele>
        <time>2016-02-21T10:53:39Z</time>
      </trkpt>
      <trkpt lat="46.7827" lon="12.3421">
        <ele>2174.64</ele>
        <time>2016-02-21T10:53:53Z</time>
      </trkpt>
      <trkpt lat="46.7827" lon="12.34204">
        <ele>2175.12</ele>
        <time>2016-02-21T10:54:06Z</time>
      </trkpt>
      <trkpt lat="46.78269" lon="12.34196">
        <ele>2176.56</ele>
        <time>2016-02-21T10:54:20Z</time>
      </trkpt>
      <trkpt lat="46.78267" lon="12.3419">
        <ele>2179.93</ele>
        <time>2016-02-21T10:54:34Z</time>
      </trkpt>
      <trkpt lat="46.78264" lon="12.34185">
        <ele>2179.93</ele>
        <time>2016-02-21T10:54:47Z</time>
      </trkpt>
      <trkpt lat="46.7826" lon="12.34179">
        <ele>2180.41</ele>
        <time>2016-02-21T10:55:00Z</time>
      </trkpt>
      <trkpt lat="46.78258" lon="12.34176">
        <ele>2182.33</ele>
        <time>2016-02-21T10:55:09Z</time>
      </trkpt>
      <trkpt lat="46.78259" lon="12.34171">
        <ele>2183.29</ele>
        <time>2016-02-21T10:55:22Z</time>
      </trkpt>
      <trkpt lat="46.78257" lon="12.34166">
        <ele>2184.25</ele>
        <time>2016-02-21T10:55:35Z</time>
      </trkpt>
      <trkpt lat="46.78255" lon="12.3416">
        <ele>2186.18</ele>
        <time>2016-02-21T10:55:49Z</time>
      </trkpt>
      <trkpt lat="46.78255" lon="12.34152">
        <ele>2187.62</ele>
        <time>2016-02-21T10:56:04Z</time>
      </trkpt>
      <trkpt lat="46.78251" lon="12.34146">
        <ele>2189.06</ele>
        <time>2016-02-21T10:56:18Z</time>
      </trkpt>
      <trkpt lat="46.78248" lon="12.34144">
        <ele>2188.58</ele>
        <time>2016-02-21T10:56:30Z</time>
      </trkpt>
      <trkpt lat="46.78247" lon="12.34139">
        <ele>2190.98</ele>
        <time>2016-02-21T10:56:41Z</time>
      </trkpt>
      <trkpt lat="46.78247" lon="12.3413">
        <ele>2192.42</ele>
        <time>2016-02-21T10:56:56Z</time>
      </trkpt>
      <trkpt lat="46.78247" lon="12.34129">
        <ele>2193.39</ele>
        <time>2016-02-21T10:57:02Z</time>
      </trkpt>
      <trkpt lat="46.78242" lon="12.34123">
        <ele>2193.39</ele>
        <time>2016-02-21T10:57:15Z</time>
      </trkpt>
      <trkpt lat="46.78239" lon="12.34119">
        <ele>2194.35</ele>
        <time>2016-02-21T10:57:29Z</time>
      </trkpt>
      <trkpt lat="46.7824" lon="12.34111">
        <ele>2195.79</ele>
        <time>2016-02-21T10:57:43Z</time>
      </trkpt>
      <trkpt lat="46.78236" lon="12.34106">
        <ele>2198.19</ele>
        <time>2016-02-21T10:57:56Z</time>
      </trkpt>
      <trkpt lat="46.78234" lon="12.341">
        <ele>2199.15</ele>
        <time>2016-02-21T10:58:10Z</time>
      </trkpt>
      <trkpt lat="46.78231" lon="12.34093">
        <ele>2201.56</ele>
        <time>2016-02-21T10:58:24Z</time>
      </trkpt>
      <trkpt lat="46.78229" lon="12.34088">
        <ele>2202.52</ele>
        <time>2016-02-21T10:58:37Z</time>
      </trkpt>
      <trkpt lat="46.78229" lon="12.34081">
        <ele>2203.96</ele>
        <time>2016-02-21T10:58:51Z</time>
      </trkpt>
      <trkpt lat="46.78226" lon="12.34076">
        <ele>2207.32</ele>
        <time>2016-02-21T10:59:05Z</time>
      </trkpt>
      <trkpt lat="46.78223" lon="12.34069">
        <ele>2207.32</ele>
        <time>2016-02-21T10:59:20Z</time>
      </trkpt>
      <trkpt lat="46.78222" lon="12.34062">
        <ele>2208.77</ele>
        <time>2016-02-21T10:59:34Z</time>
      </trkpt>
      <trkpt lat="46.7822" lon="12.34056">
        <ele>2211.65</ele>
        <time>2016-02-21T10:59:48Z</time>
      </trkpt>
      <trkpt lat="46.78218" lon="12.34048">
        <ele>2212.13</ele>
        <time>2016-02-21T11:00:04Z</time>
      </trkpt>
      <trkpt lat="46.78217" lon="12.34041">
        <ele>2212.61</ele>
        <time>2016-02-21T11:00:18Z</time>
      </trkpt>
      <trkpt lat="46.78214" lon="12.34033">
        <ele>2214.05</ele>
        <time>2016-02-21T11:00:33Z</time>
      </trkpt>
      <trkpt lat="46.78213" lon="12.34026">
        <ele>2214.05</ele>
        <time>2016-02-21T11:00:49Z</time>
      </trkpt>
      <trkpt lat="46.78212" lon="12.34019">
        <ele>2215.98</ele>
        <time>2016-02-21T11:01:02Z</time>
      </trkpt>
      <trkpt lat="46.78211" lon="12.34012">
        <ele>2214.53</ele>
        <time>2016-02-21T11:01:17Z</time>
      </trkpt>
      <trkpt lat="46.78212" lon="12.34013">
        <ele>2217.9</ele>
        <time>2016-02-21T11:01:19Z</time>
      </trkpt>
      <trkpt lat="46.78212" lon="12.34011">
        <ele>2214.53</ele>
        <time>2016-02-21T11:01:29Z</time>
      </trkpt>
      <trkpt lat="46.78212" lon="12.3401">
        <ele>2215.01</ele>
        <time>2016-02-21T11:02:02Z</time>
      </trkpt>
      <trkpt lat="46.78211" lon="12.3401">
        <ele>2215.01</ele>
        <time>2016-02-21T11:02:13Z</time>
      </trkpt>
      <trkpt lat="46.78212" lon="12.34011">
        <ele>2215.5</ele>
        <time>2016-02-21T11:02:25Z</time>
      </trkpt>
      <trkpt lat="46.7821" lon="12.34016">
        <ele>2215.98</ele>
        <time>2016-02-21T11:02:57Z</time>
      </trkpt>
      <trkpt lat="46.78209" lon="12.34014">
        <ele>2217.9</ele>
        <time>2016-02-21T11:03:26Z</time>
      </trkpt>
      <trkpt lat="46.78212" lon="12.34014">
        <ele>2218.38</ele>
        <time>2016-02-21T11:03:58Z</time>
      </trkpt>
      <trkpt lat="46.7821" lon="12.34011">
        <ele>2217.9</ele>
        <time>2016-02-21T11:04:31Z</time>
      </trkpt>
      <trkpt lat="46.78213" lon="12.34012">
        <ele>2215.98</ele>
        <time>2016-02-21T11:05:12Z</time>
      </trkpt>
      <trkpt lat="46.78217" lon="12.34013">
        <ele>2216.94</ele>
        <time>2016-02-21T11:05:39Z</time>
      </trkpt>
      <trkpt lat="46.78213" lon="12.34013">
        <ele>2216.94</ele>
        <time>2016-02-21T11:06:16Z</time>
      </trkpt>
      <trkpt lat="46.78212" lon="12.34011">
        <ele>2216.46</ele>
        <time>2016-02-21T11:06:46Z</time>
      </trkpt>
      <trkpt lat="46.78211" lon="12.34011">
        <ele>2216.46</ele>
        <time>2016-02-21T11:06:47Z</time>
      </trkpt>
      <trkpt lat="46.78211" lon="12.34009">
        <ele>2218.86</ele>
        <time>2016-02-21T11:07:02Z</time>
      </trkpt>
      <trkpt lat="46.78212" lon="12.34009">
        <ele>2217.42</ele>
        <time>2016-02-21T11:07:04Z</time>
      </trkpt>
      <trkpt lat="46.78211" lon="12.3401">
        <ele>2222.22</ele>
        <time>2016-02-21T11:07:12Z</time>
      </trkpt>
      <trkpt lat="46.78211" lon="12.3401">
        <ele>2222.22</ele>
        <time>2016-02-21T11:07:13Z</time>
      </trkpt>
      <trkpt lat="46.78211" lon="12.3401">
        <ele>2220.78</ele>
        <time>2016-02-21T11:07:16Z</time>
      </trkpt>
      <trkpt lat="46.7821" lon="12.34011">
        <ele>2217.9</ele>
        <time>2016-02-21T11:07:21Z</time>
      </trkpt>
      <trkpt lat="46.78211" lon="12.34009">
        <ele>2219.82</ele>
        <time>2016-02-21T11:07:35Z</time>
      </trkpt>
      <trkpt lat="46.78209" lon="12.34002">
        <ele>2221.26</ele>
        <time>2016-02-21T11:07:47Z</time>
      </trkpt>
      <trkpt lat="46.78208" lon="12.33995">
        <ele>2222.22</ele>
        <time>2016-02-21T11:07:58Z</time>
      </trkpt>
      <trkpt lat="46.78207" lon="12.33986">
        <ele>2221.26</ele>
        <time>2016-02-21T11:08:11Z</time>
      </trkpt>
      <trkpt lat="46.78204" lon="12.33978">
        <ele>2222.71</ele>
        <time>2016-02-21T11:08:24Z</time>
      </trkpt>
      <trkpt lat="46.78202" lon="12.3397">
        <ele>2225.11</ele>
        <time>2016-02-21T11:08:38Z</time>
      </trkpt>
      <trkpt lat="46.78201" lon="12.33964">
        <ele>2226.55</ele>
        <time>2016-02-21T11:08:51Z</time>
      </trkpt>
      <trkpt lat="46.782" lon="12.33959">
        <ele>2227.03</ele>
        <time>2016-02-21T11:09:01Z</time>
      </trkpt>
      <trkpt lat="46.782" lon="12.33955">
        <ele>2227.99</ele>
        <time>2016-02-21T11:09:12Z</time>
      </trkpt>
      <trkpt lat="46.78199" lon="12.33952">
        <ele>2228.95</ele>
        <time>2016-02-21T11:09:25Z</time>
      </trkpt>
      <trkpt lat="46.78196" lon="12.33946">
        <ele>2230.4</ele>
        <time>2016-02-21T11:09:39Z</time>
      </trkpt>
      <trkpt lat="46.78194" lon="12.33942">
        <ele>2230.88</ele>
        <time>2016-02-21T11:09:50Z</time>
      </trkpt>
      <trkpt lat="46.78193" lon="12.33937">
        <ele>2231.36</ele>
        <time>2016-02-21T11:10:01Z</time>
      </trkpt>
      <trkpt lat="46.78194" lon="12.33932">
        <ele>2233.28</ele>
        <time>2016-02-21T11:10:13Z</time>
      </trkpt>
      <trkpt lat="46.78195" lon="12.33928">
        <ele>2234.72</ele>
        <time>2016-02-21T11:10:24Z</time>
      </trkpt>
      <trkpt lat="46.78196" lon="12.33924">
        <ele>2234.72</ele>
        <time>2016-02-21T11:10:37Z</time>
      </trkpt>
      <trkpt lat="46.78199" lon="12.33919">
        <ele>2235.2</ele>
        <time>2016-02-21T11:10:49Z</time>
      </trkpt>
      <trkpt lat="46.78202" lon="12.33916">
        <ele>2236.16</ele>
        <time>2016-02-21T11:11:01Z</time>
      </trkpt>
      <trkpt lat="46.78206" lon="12.33912">
        <ele>2238.09</ele>
        <time>2016-02-21T11:11:13Z</time>
      </trkpt>
      <trkpt lat="46.78209" lon="12.3391">
        <ele>2238.57</ele>
        <time>2016-02-21T11:11:24Z</time>
      </trkpt>
      <trkpt lat="46.78212" lon="12.33908">
        <ele>2240.49</ele>
        <time>2016-02-21T11:11:36Z</time>
      </trkpt>
      <trkpt lat="46.78216" lon="12.33906">
        <ele>2241.45</ele>
        <time>2016-02-21T11:11:47Z</time>
      </trkpt>
      <trkpt lat="46.7822" lon="12.33905">
        <ele>2241.93</ele>
        <time>2016-02-21T11:11:59Z</time>
      </trkpt>
      <trkpt lat="46.78224" lon="12.33902">
        <ele>2243.85</ele>
        <time>2016-02-21T11:12:11Z</time>
      </trkpt>
      <trkpt lat="46.78227" lon="12.33901">
        <ele>2245.3</ele>
        <time>2016-02-21T11:12:22Z</time>
      </trkpt>
      <trkpt lat="46.78232" lon="12.33902">
        <ele>2246.74</ele>
        <time>2016-02-21T11:12:35Z</time>
      </trkpt>
      <trkpt lat="46.78234" lon="12.339">
        <ele>2248.18</ele>
        <time>2016-02-21T11:12:46Z</time>
      </trkpt>
      <trkpt lat="46.78238" lon="12.33894">
        <ele>2249.14</ele>
        <time>2016-02-21T11:13:00Z</time>
      </trkpt>
      <trkpt lat="46.78241" lon="12.3389">
        <ele>2250.58</ele>
        <time>2016-02-21T11:13:12Z</time>
      </trkpt>
      <trkpt lat="46.78243" lon="12.33885">
        <ele>2252.03</ele>
        <time>2016-02-21T11:13:24Z</time>
      </trkpt>
      <trkpt lat="46.78248" lon="12.33877">
        <ele>2251.54</ele>
        <time>2016-02-21T11:13:41Z</time>
      </trkpt>
      <trkpt lat="46.78258" lon="12.33873">
        <ele>2251.54</ele>
        <time>2016-02-21T11:13:55Z</time>
      </trkpt>
      <trkpt lat="46.78261" lon="12.33873">
        <ele>2253.47</ele>
        <time>2016-02-21T11:14:05Z</time>
      </trkpt>
      <trkpt lat="46.78266" lon="12.3387">
        <ele>2254.43</ele>
        <time>2016-02-21T11:14:17Z</time>
      </trkpt>
      <trkpt lat="46.78269" lon="12.33871">
        <ele>2254.91</ele>
        <time>2016-02-21T11:14:31Z</time>
      </trkpt>
      <trkpt lat="46.78275" lon="12.33869">
        <ele>2256.35</ele>
        <time>2016-02-21T11:14:46Z</time>
      </trkpt>
      <trkpt lat="46.78282" lon="12.33865">
        <ele>2256.83</ele>
        <time>2016-02-21T11:14:59Z</time>
      </trkpt>
      <trkpt lat="46.78287" lon="12.33864">
        <ele>2259.72</ele>
        <time>2016-02-21T11:15:13Z</time>
      </trkpt>
      <trkpt lat="46.78291" lon="12.3386">
        <ele>2259.24</ele>
        <time>2016-02-21T11:15:25Z</time>
      </trkpt>
      <trkpt lat="46.78295" lon="12.33855">
        <ele>2260.68</ele>
        <time>2016-02-21T11:15:37Z</time>
      </trkpt>
      <trkpt lat="46.783" lon="12.33851">
        <ele>2262.6</ele>
        <time>2016-02-21T11:15:50Z</time>
      </trkpt>
      <trkpt lat="46.78304" lon="12.33844">
        <ele>2262.6</ele>
        <time>2016-02-21T11:16:06Z</time>
      </trkpt>
      <trkpt lat="46.78304" lon="12.33836">
        <ele>2263.56</ele>
        <time>2016-02-21T11:16:21Z</time>
      </trkpt>
      <trkpt lat="46.78305" lon="12.33829">
        <ele>2264.04</ele>
        <time>2016-02-21T11:16:34Z</time>
      </trkpt>
      <trkpt lat="46.78307" lon="12.33821">
        <ele>2265.48</ele>
        <time>2016-02-21T11:16:48Z</time>
      </trkpt>
      <trkpt lat="46.78308" lon="12.33815">
        <ele>2266.45</ele>
        <time>2016-02-21T11:17:00Z</time>
      </trkpt>
      <trkpt lat="46.78309" lon="12.33809">
        <ele>2267.89</ele>
        <time>2016-02-21T11:17:12Z</time>
      </trkpt>
      <trkpt lat="46.78312" lon="12.33805">
        <ele>2269.81</ele>
        <time>2016-02-21T11:17:26Z</time>
      </trkpt>
      <trkpt lat="46.78316" lon="12.33802">
        <ele>2271.25</ele>
        <time>2016-02-21T11:17:39Z</time>
      </trkpt>
      <trkpt lat="46.78317" lon="12.33798">
        <ele>2272.21</ele>
        <time>2016-02-21T11:17:50Z</time>
      </trkpt>
      <trkpt lat="46.78319" lon="12.33794">
        <ele>2273.66</ele>
        <time>2016-02-21T11:18:03Z</time>
      </trkpt>
      <trkpt lat="46.78319" lon="12.33789">
        <ele>2274.14</ele>
        <time>2016-02-21T11:18:13Z</time>
      </trkpt>
      <trkpt lat="46.78319" lon="12.33784">
        <ele>2274.62</ele>
        <time>2016-02-21T11:18:26Z</time>
      </trkpt>
      <trkpt lat="46.78317" lon="12.33781">
        <ele>2274.14</ele>
        <time>2016-02-21T11:18:36Z</time>
      </trkpt>
      <trkpt lat="46.78314" lon="12.33776">
        <ele>2276.54</ele>
        <time>2016-02-21T11:18:51Z</time>
      </trkpt>
      <trkpt lat="46.78311" lon="12.33772">
        <ele>2278.46</ele>
        <time>2016-02-21T11:19:04Z</time>
      </trkpt>
      <trkpt lat="46.78313" lon="12.33767">
        <ele>2280.38</ele>
        <time>2016-02-21T11:19:17Z</time>
      </trkpt>
      <trkpt lat="46.78314" lon="12.3376">
        <ele>2281.35</ele>
        <time>2016-02-21T11:19:30Z</time>
      </trkpt>
      <trkpt lat="46.78316" lon="12.33754">
        <ele>2283.27</ele>
        <time>2016-02-21T11:19:43Z</time>
      </trkpt>
      <trkpt lat="46.78316" lon="12.33748">
        <ele>2284.23</ele>
        <time>2016-02-21T11:19:55Z</time>
      </trkpt>
      <trkpt lat="46.78315" lon="12.3374">
        <ele>2284.71</ele>
        <time>2016-02-21T11:20:09Z</time>
      </trkpt>
      <trkpt lat="46.78314" lon="12.33731">
        <ele>2285.67</ele>
        <time>2016-02-21T11:20:22Z</time>
      </trkpt>
      <trkpt lat="46.78314" lon="12.33723">
        <ele>2286.63</ele>
        <time>2016-02-21T11:20:35Z</time>
      </trkpt>
      <trkpt lat="46.78311" lon="12.33717">
        <ele>2286.63</ele>
        <time>2016-02-21T11:20:49Z</time>
      </trkpt>
      <trkpt lat="46.78311" lon="12.33711">
        <ele>2286.63</ele>
        <time>2016-02-21T11:20:55Z</time>
      </trkpt>
      <trkpt lat="46.78311" lon="12.33709">
        <ele>2288.56</ele>
        <time>2016-02-21T11:20:57Z</time>
      </trkpt>
      <trkpt lat="46.7831" lon="12.33703">
        <ele>2290</ele>
        <time>2016-02-21T11:21:07Z</time>
      </trkpt>
      <trkpt lat="46.78315" lon="12.33691">
        <ele>2290.48</ele>
        <time>2016-02-21T11:21:23Z</time>
      </trkpt>
      <trkpt lat="46.7832" lon="12.33685">
        <ele>2290.96</ele>
        <time>2016-02-21T11:21:36Z</time>
      </trkpt>
      <trkpt lat="46.78326" lon="12.33678">
        <ele>2291.44</ele>
        <time>2016-02-21T11:21:50Z</time>
      </trkpt>
      <trkpt lat="46.78331" lon="12.3368">
        <ele>2291.44</ele>
        <time>2016-02-21T11:22:03Z</time>
      </trkpt>
      <trkpt lat="46.78332" lon="12.33683">
        <ele>2292.88</ele>
        <time>2016-02-21T11:22:14Z</time>
      </trkpt>
      <trkpt lat="46.78335" lon="12.33685">
        <ele>2292.88</ele>
        <time>2016-02-21T11:22:31Z</time>
      </trkpt>
      <trkpt lat="46.7834" lon="12.33684">
        <ele>2295.28</ele>
        <time>2016-02-21T11:22:41Z</time>
      </trkpt>
      <trkpt lat="46.7834" lon="12.3368">
        <ele>2298.65</ele>
        <time>2016-02-21T11:22:51Z</time>
      </trkpt>
      <trkpt lat="46.78341" lon="12.33678">
        <ele>2298.65</ele>
        <time>2016-02-21T11:22:55Z</time>
      </trkpt>
      <trkpt lat="46.78342" lon="12.33676">
        <ele>2299.61</ele>
        <time>2016-02-21T11:22:57Z</time>
      </trkpt>
      <trkpt lat="46.78344" lon="12.33672">
        <ele>2294.32</ele>
        <time>2016-02-21T11:23:06Z</time>
      </trkpt>
      <trkpt lat="46.78345" lon="12.33672">
        <ele>2296.73</ele>
        <time>2016-02-21T11:23:07Z</time>
      </trkpt>
      <trkpt lat="46.78347" lon="12.33666">
        <ele>2301.53</ele>
        <time>2016-02-21T11:23:16Z</time>
      </trkpt>
      <trkpt lat="46.78347" lon="12.33667">
        <ele>2300.57</ele>
        <time>2016-02-21T11:23:17Z</time>
      </trkpt>
      <trkpt lat="46.78347" lon="12.33667">
        <ele>2299.61</ele>
        <time>2016-02-21T11:23:19Z</time>
      </trkpt>
      <trkpt lat="46.7835" lon="12.33662">
        <ele>2299.61</ele>
        <time>2016-02-21T11:23:32Z</time>
      </trkpt>
      <trkpt lat="46.78352" lon="12.33654">
        <ele>2301.53</ele>
        <time>2016-02-21T11:23:46Z</time>
      </trkpt>
      <trkpt lat="46.78352" lon="12.33649">
        <ele>2302.01</ele>
        <time>2016-02-21T11:23:58Z</time>
      </trkpt>
      <trkpt lat="46.78356" lon="12.33644">
        <ele>2303.94</ele>
        <time>2016-02-21T11:24:12Z</time>
      </trkpt>
      <trkpt lat="46.78356" lon="12.33635">
        <ele>2303.46</ele>
        <time>2016-02-21T11:24:26Z</time>
      </trkpt>
      <trkpt lat="46.78356" lon="12.33635">
        <ele>2302.98</ele>
        <time>2016-02-21T11:24:27Z</time>
      </trkpt>
      <trkpt lat="46.78356" lon="12.33633">
        <ele>2304.42</ele>
        <time>2016-02-21T11:24:32Z</time>
      </trkpt>
      <trkpt lat="46.78358" lon="12.33627">
        <ele>2304.9</ele>
        <time>2016-02-21T11:24:45Z</time>
      </trkpt>
      <trkpt lat="46.78358" lon="12.33623">
        <ele>2306.82</ele>
        <time>2016-02-21T11:24:56Z</time>
      </trkpt>
      <trkpt lat="46.7836" lon="12.33618">
        <ele>2308.74</ele>
        <time>2016-02-21T11:25:10Z</time>
      </trkpt>
      <trkpt lat="46.78361" lon="12.33616">
        <ele>2309.7</ele>
        <time>2016-02-21T11:25:14Z</time>
      </trkpt>
      <trkpt lat="46.78363" lon="12.3362">
        <ele>2308.74</ele>
        <time>2016-02-21T11:25:25Z</time>
      </trkpt>
      <trkpt lat="46.78366" lon="12.33624">
        <ele>2311.15</ele>
        <time>2016-02-21T11:25:39Z</time>
      </trkpt>
      <trkpt lat="46.7837" lon="12.33625">
        <ele>2312.59</ele>
        <time>2016-02-21T11:25:51Z</time>
      </trkpt>
      <trkpt lat="46.78376" lon="12.33629">
        <ele>2314.99</ele>
        <time>2016-02-21T11:26:04Z</time>
      </trkpt>
      <trkpt lat="46.78386" lon="12.33629">
        <ele>2314.99</ele>
        <time>2016-02-21T11:26:17Z</time>
      </trkpt>
      <trkpt lat="46.7839" lon="12.33629">
        <ele>2314.03</ele>
        <time>2016-02-21T11:26:24Z</time>
      </trkpt>
      <trkpt lat="46.78405" lon="12.33634">
        <ele>2313.07</ele>
        <time>2016-02-21T11:26:42Z</time>
      </trkpt>
      <trkpt lat="46.78411" lon="12.3364">
        <ele>2313.07</ele>
        <time>2016-02-21T11:26:54Z</time>
      </trkpt>
      <trkpt lat="46.78416" lon="12.33643">
        <ele>2314.51</ele>
        <time>2016-02-21T11:27:06Z</time>
      </trkpt>
      <trkpt lat="46.78421" lon="12.33649">
        <ele>2315.95</ele>
        <time>2016-02-21T11:27:19Z</time>
      </trkpt>
      <trkpt lat="46.78426" lon="12.33656">
        <ele>2315.95</ele>
        <time>2016-02-21T11:27:34Z</time>
      </trkpt>
      <trkpt lat="46.78429" lon="12.33659">
        <ele>2317.4</ele>
        <time>2016-02-21T11:27:46Z</time>
      </trkpt>
      <trkpt lat="46.78435" lon="12.33665">
        <ele>2318.84</ele>
        <time>2016-02-21T11:28:00Z</time>
      </trkpt>
      <trkpt lat="46.78441" lon="12.3367">
        <ele>2320.76</ele>
        <time>2016-02-21T11:28:15Z</time>
      </trkpt>
      <trkpt lat="46.78446" lon="12.33675">
        <ele>2322.2</ele>
        <time>2016-02-21T11:28:30Z</time>
      </trkpt>
      <trkpt lat="46.78452" lon="12.33678">
        <ele>2323.16</ele>
        <time>2016-02-21T11:28:44Z</time>
      </trkpt>
      <trkpt lat="46.78457" lon="12.33682">
        <ele>2324.12</ele>
        <time>2016-02-21T11:28:55Z</time>
      </trkpt>
      <trkpt lat="46.78462" lon="12.33688">
        <ele>2324.61</ele>
        <time>2016-02-21T11:29:09Z</time>
      </trkpt>
      <trkpt lat="46.78468" lon="12.33692">
        <ele>2326.05</ele>
        <time>2016-02-21T11:29:23Z</time>
      </trkpt>
      <trkpt lat="46.7847" lon="12.33697">
        <ele>2328.45</ele>
        <time>2016-02-21T11:29:34Z</time>
      </trkpt>
      <trkpt lat="46.78474" lon="12.33699">
        <ele>2331.33</ele>
        <time>2016-02-21T11:29:48Z</time>
      </trkpt>
      <trkpt lat="46.78479" lon="12.33697">
        <ele>2332.3</ele>
        <time>2016-02-21T11:30:03Z</time>
      </trkpt>
      <trkpt lat="46.78482" lon="12.33693">
        <ele>2332.3</ele>
        <time>2016-02-21T11:30:16Z</time>
      </trkpt>
      <trkpt lat="46.78481" lon="12.33694">
        <ele>2335.18</ele>
        <time>2016-02-21T11:30:20Z</time>
      </trkpt>
      <trkpt lat="46.78481" lon="12.33692">
        <ele>2331.81</ele>
        <time>2016-02-21T11:30:37Z</time>
      </trkpt>
      <trkpt lat="46.78481" lon="12.33692">
        <ele>2331.81</ele>
        <time>2016-02-21T11:30:48Z</time>
      </trkpt>
      <trkpt lat="46.7848" lon="12.33691">
        <ele>2331.81</ele>
        <time>2016-02-21T11:30:56Z</time>
      </trkpt>
      <trkpt lat="46.78482" lon="12.33691">
        <ele>2327.49</ele>
        <time>2016-02-21T11:31:08Z</time>
      </trkpt>
      <trkpt lat="46.78482" lon="12.33691">
        <ele>2327.97</ele>
        <time>2016-02-21T11:31:09Z</time>
      </trkpt>
      <trkpt lat="46.78482" lon="12.33692">
        <ele>2328.93</ele>
        <time>2016-02-21T11:31:11Z</time>
      </trkpt>
      <trkpt lat="46.7848" lon="12.33695">
        <ele>2328.45</ele>
        <time>2016-02-21T11:31:52Z</time>
      </trkpt>
      <trkpt lat="46.7848" lon="12.33696">
        <ele>2329.41</ele>
        <time>2016-02-21T11:31:59Z</time>
      </trkpt>
      <trkpt lat="46.78481" lon="12.33693">
        <ele>2332.3</ele>
        <time>2016-02-21T11:32:23Z</time>
      </trkpt>
      <trkpt lat="46.78482" lon="12.33691">
        <ele>2332.3</ele>
        <time>2016-02-21T11:32:40Z</time>
      </trkpt>
      <trkpt lat="46.78484" lon="12.33686">
        <ele>2335.18</ele>
        <time>2016-02-21T11:32:55Z</time>
      </trkpt>
      <trkpt lat="46.78485" lon="12.33684">
        <ele>2334.22</ele>
        <time>2016-02-21T11:33:03Z</time>
      </trkpt>
      <trkpt lat="46.78484" lon="12.3368">
        <ele>2333.26</ele>
        <time>2016-02-21T11:33:14Z</time>
      </trkpt>
      <trkpt lat="46.78486" lon="12.33674">
        <ele>2336.62</ele>
        <time>2016-02-21T11:33:27Z</time>
      </trkpt>
      <trkpt lat="46.78486" lon="12.33665">
        <ele>2339.02</ele>
        <time>2016-02-21T11:33:40Z</time>
      </trkpt>
      <trkpt lat="46.78484" lon="12.33661">
        <ele>2339.51</ele>
        <time>2016-02-21T11:33:48Z</time>
      </trkpt>
      <trkpt lat="46.78484" lon="12.33653">
        <ele>2339.02</ele>
        <time>2016-02-21T11:34:02Z</time>
      </trkpt>
      <trkpt lat="46.78482" lon="12.33648">
        <ele>2339.51</ele>
        <time>2016-02-21T11:34:11Z</time>
      </trkpt>
      <trkpt lat="46.78482" lon="12.33642">
        <ele>2340.95</ele>
        <time>2016-02-21T11:34:23Z</time>
      </trkpt>
      <trkpt lat="46.78481" lon="12.33635">
        <ele>2340.95</ele>
        <time>2016-02-21T11:34:36Z</time>
      </trkpt>
      <trkpt lat="46.7848" lon="12.33628">
        <ele>2342.39</ele>
        <time>2016-02-21T11:34:47Z</time>
      </trkpt>
      <trkpt lat="46.7848" lon="12.33622">
        <ele>2346.23</ele>
        <time>2016-02-21T11:34:59Z</time>
      </trkpt>
      <trkpt lat="46.7848" lon="12.33622">
        <ele>2346.23</ele>
        <time>2016-02-21T11:35:00Z</time>
      </trkpt>
      <trkpt lat="46.7848" lon="12.33616">
        <ele>2344.31</ele>
        <time>2016-02-21T11:35:13Z</time>
      </trkpt>
      <trkpt lat="46.7848" lon="12.33616">
        <ele>2346.23</ele>
        <time>2016-02-21T11:35:14Z</time>
      </trkpt>
      <trkpt lat="46.7848" lon="12.33609">
        <ele>2347.2</ele>
        <time>2016-02-21T11:35:28Z</time>
      </trkpt>
      <trkpt lat="46.7848" lon="12.33603">
        <ele>2349.6</ele>
        <time>2016-02-21T11:35:40Z</time>
      </trkpt>
      <trkpt lat="46.78481" lon="12.33599">
        <ele>2344.31</ele>
        <time>2016-02-21T11:35:53Z</time>
      </trkpt>
      <trkpt lat="46.78481" lon="12.33597">
        <ele>2348.16</ele>
        <time>2016-02-21T11:35:58Z</time>
      </trkpt>
      <trkpt lat="46.78481" lon="12.33598">
        <ele>2345.27</ele>
        <time>2016-02-21T11:36:00Z</time>
      </trkpt>
      <trkpt lat="46.78481" lon="12.33604">
        <ele>2347.68</ele>
        <time>2016-02-21T11:36:03Z</time>
      </trkpt>
      <trkpt lat="46.7848" lon="12.33607">
        <ele>2348.64</ele>
        <time>2016-02-21T11:36:21Z</time>
      </trkpt>
      <trkpt lat="46.78481" lon="12.33607">
        <ele>2347.2</ele>
        <time>2016-02-21T11:36:25Z</time>
      </trkpt>
      <trkpt lat="46.78481" lon="12.33606">
        <ele>2347.68</ele>
        <time>2016-02-21T11:36:43Z</time>
      </trkpt>
      <trkpt lat="46.78481" lon="12.33605">
        <ele>2350.56</ele>
        <time>2016-02-21T11:36:51Z</time>
      </trkpt>
      <trkpt lat="46.78481" lon="12.33605">
        <ele>2350.08</ele>
        <time>2016-02-21T11:36:52Z</time>
      </trkpt>
      <trkpt lat="46.78481" lon="12.33604">
        <ele>2346.72</ele>
        <time>2016-02-21T11:36:54Z</time>
      </trkpt>
      <trkpt lat="46.7848" lon="12.33603">
        <ele>2347.68</ele>
        <time>2016-02-21T11:36:55Z</time>
      </trkpt>
      <trkpt lat="46.7848" lon="12.33601">
        <ele>2342.87</ele>
        <time>2016-02-21T11:36:59Z</time>
      </trkpt>
      <trkpt lat="46.7848" lon="12.33601">
        <ele>2343.35</ele>
        <time>2016-02-21T11:37:00Z</time>
      </trkpt>
      <trkpt lat="46.7848" lon="12.33601">
        <ele>2349.6</ele>
        <time>2016-02-21T11:37:02Z</time>
      </trkpt>
      <trkpt lat="46.78481" lon="12.33601">
        <ele>2349.6</ele>
        <time>2016-02-21T11:37:03Z</time>
      </trkpt>
      <trkpt lat="46.7848" lon="12.33601">
        <ele>2349.6</ele>
        <time>2016-02-21T11:37:23Z</time>
      </trkpt>
      <trkpt lat="46.7848" lon="12.33601">
        <ele>2353.44</ele>
        <time>2016-02-21T11:37:28Z</time>
      </trkpt>
      <trkpt lat="46.78481" lon="12.33601">
        <ele>2353.44</ele>
        <time>2016-02-21T11:37:29Z</time>
      </trkpt>
      <trkpt lat="46.7848" lon="12.336">
        <ele>2350.08</ele>
        <time>2016-02-21T11:37:35Z</time>
      </trkpt>
      <trkpt lat="46.78478" lon="12.33599">
        <ele>2349.12</ele>
        <time>2016-02-21T11:37:40Z</time>
      </trkpt>
      <trkpt lat="46.78478" lon="12.33599">
        <ele>2352.48</ele>
        <time>2016-02-21T11:37:41Z</time>
      </trkpt>
      <trkpt lat="46.78477" lon="12.33599">
        <ele>2351.04</ele>
        <time>2016-02-21T11:37:46Z</time>
      </trkpt>
      <trkpt lat="46.78478" lon="12.33607">
        <ele>2347.68</ele>
        <time>2016-02-21T11:37:55Z</time>
      </trkpt>
      <trkpt lat="46.78481" lon="12.33602">
        <ele>2350.08</ele>
        <time>2016-02-21T11:38:09Z</time>
      </trkpt>
      <trkpt lat="46.7848" lon="12.33604">
        <ele>2352</ele>
        <time>2016-02-21T11:38:23Z</time>
      </trkpt>
      <trkpt lat="46.7848" lon="12.33604">
        <ele>2349.12</ele>
        <time>2016-02-21T11:38:25Z</time>
      </trkpt>
      <trkpt lat="46.78481" lon="12.336">
        <ele>2352.48</ele>
        <time>2016-02-21T11:38:42Z</time>
      </trkpt>
      <trkpt lat="46.78482" lon="12.336">
        <ele>2352</ele>
        <time>2016-02-21T11:38:43Z</time>
      </trkpt>
      <trkpt lat="46.78482" lon="12.33599">
        <ele>2347.68</ele>
        <time>2016-02-21T11:38:45Z</time>
      </trkpt>
      <trkpt lat="46.78483" lon="12.33598">
        <ele>2348.64</ele>
        <time>2016-02-21T11:38:46Z</time>
      </trkpt>
      <trkpt lat="46.78484" lon="12.33596">
        <ele>2350.08</ele>
        <time>2016-02-21T11:38:49Z</time>
      </trkpt>
      <trkpt lat="46.78485" lon="12.33595">
        <ele>2351.04</ele>
        <time>2016-02-21T11:38:54Z</time>
      </trkpt>
      <trkpt lat="46.78489" lon="12.3359">
        <ele>2353.44</ele>
        <time>2016-02-21T11:39:07Z</time>
      </trkpt>
      <trkpt lat="46.78491" lon="12.33586">
        <ele>2353.93</ele>
        <time>2016-02-21T11:39:17Z</time>
      </trkpt>
      <trkpt lat="46.78492" lon="12.33583">
        <ele>2352.96</ele>
        <time>2016-02-21T11:39:26Z</time>
      </trkpt>
      <trkpt lat="46.78489" lon="12.33578">
        <ele>2354.89</ele>
        <time>2016-02-21T11:39:37Z</time>
      </trkpt>
      <trkpt lat="46.78488" lon="12.33574">
        <ele>2356.33</ele>
        <time>2016-02-21T11:39:49Z</time>
      </trkpt>
      <trkpt lat="46.78487" lon="12.3357">
        <ele>2355.37</ele>
        <time>2016-02-21T11:39:58Z</time>
      </trkpt>
      <trkpt lat="46.78487" lon="12.33566">
        <ele>2357.29</ele>
        <time>2016-02-21T11:40:10Z</time>
      </trkpt>
      <trkpt lat="46.78488" lon="12.33559">
        <ele>2360.17</ele>
        <time>2016-02-21T11:40:23Z</time>
      </trkpt>
      <trkpt lat="46.78487" lon="12.33555">
        <ele>2357.77</ele>
        <time>2016-02-21T11:40:34Z</time>
      </trkpt>
      <trkpt lat="46.78488" lon="12.3355">
        <ele>2361.14</ele>
        <time>2016-02-21T11:40:44Z</time>
      </trkpt>
      <trkpt lat="46.78487" lon="12.33544">
        <ele>2359.69</ele>
        <time>2016-02-21T11:40:55Z</time>
      </trkpt>
      <trkpt lat="46.78487" lon="12.33543">
        <ele>2362.1</ele>
        <time>2016-02-21T11:40:58Z</time>
      </trkpt>
      <trkpt lat="46.78486" lon="12.33538">
        <ele>2363.06</ele>
        <time>2016-02-21T11:41:07Z</time>
      </trkpt>
      <trkpt lat="46.78486" lon="12.33533">
        <ele>2364.02</ele>
        <time>2016-02-21T11:41:14Z</time>
      </trkpt>
      <trkpt lat="46.78486" lon="12.33528">
        <ele>2364.98</ele>
        <time>2016-02-21T11:41:26Z</time>
      </trkpt>
      <trkpt lat="46.78486" lon="12.33526">
        <ele>2363.54</ele>
        <time>2016-02-21T11:41:30Z</time>
      </trkpt>
      <trkpt lat="46.78485" lon="12.33525">
        <ele>2364.98</ele>
        <time>2016-02-21T11:41:33Z</time>
      </trkpt>
      <trkpt lat="46.78485" lon="12.33521">
        <ele>2364.5</ele>
        <time>2016-02-21T11:41:42Z</time>
      </trkpt>
      <trkpt lat="46.78485" lon="12.33518">
        <ele>2365.94</ele>
        <time>2016-02-21T11:41:46Z</time>
      </trkpt>
      <trkpt lat="46.78485" lon="12.33511">
        <ele>2368.83</ele>
        <time>2016-02-21T11:41:59Z</time>
      </trkpt>
      <trkpt lat="46.78484" lon="12.33508">
        <ele>2367.38</ele>
        <time>2016-02-21T11:42:05Z</time>
      </trkpt>
      <trkpt lat="46.78484" lon="12.33504">
        <ele>2370.27</ele>
        <time>2016-02-21T11:42:14Z</time>
      </trkpt>
      <trkpt lat="46.78483" lon="12.33502">
        <ele>2368.83</ele>
        <time>2016-02-21T11:42:18Z</time>
      </trkpt>
      <trkpt lat="46.78483" lon="12.33497">
        <ele>2369.79</ele>
        <time>2016-02-21T11:42:30Z</time>
      </trkpt>
      <trkpt lat="46.78482" lon="12.33494">
        <ele>2371.23</ele>
        <time>2016-02-21T11:42:34Z</time>
      </trkpt>
      <trkpt lat="46.78482" lon="12.33489">
        <ele>2373.15</ele>
        <time>2016-02-21T11:42:45Z</time>
      </trkpt>
      <trkpt lat="46.78483" lon="12.33486">
        <ele>2372.67</ele>
        <time>2016-02-21T11:42:57Z</time>
      </trkpt>
      <trkpt lat="46.78483" lon="12.3348">
        <ele>2373.63</ele>
        <time>2016-02-21T11:43:09Z</time>
      </trkpt>
      <trkpt lat="46.78484" lon="12.33476">
        <ele>2375.07</ele>
        <time>2016-02-21T11:43:21Z</time>
      </trkpt>
      <trkpt lat="46.78487" lon="12.33474">
        <ele>2375.55</ele>
        <time>2016-02-21T11:43:34Z</time>
      </trkpt>
      <trkpt lat="46.78488" lon="12.33466">
        <ele>2377.48</ele>
        <time>2016-02-21T11:43:47Z</time>
      </trkpt>
      <trkpt lat="46.78487" lon="12.33461">
        <ele>2378.44</ele>
        <time>2016-02-21T11:43:57Z</time>
      </trkpt>
      <trkpt lat="46.78487" lon="12.33456">
        <ele>2378.44</ele>
        <time>2016-02-21T11:44:08Z</time>
      </trkpt>
      <trkpt lat="46.78487" lon="12.33449">
        <ele>2378.92</ele>
        <time>2016-02-21T11:44:19Z</time>
      </trkpt>
      <trkpt lat="46.78486" lon="12.33442">
        <ele>2380.36</ele>
        <time>2016-02-21T11:44:32Z</time>
      </trkpt>
      <trkpt lat="46.78485" lon="12.33436">
        <ele>2381.8</ele>
        <time>2016-02-21T11:44:45Z</time>
      </trkpt>
      <trkpt lat="46.78485" lon="12.33429">
        <ele>2382.28</ele>
        <time>2016-02-21T11:44:57Z</time>
      </trkpt>
      <trkpt lat="46.78485" lon="12.33422">
        <ele>2382.76</ele>
        <time>2016-02-21T11:45:09Z</time>
      </trkpt>
      <trkpt lat="46.78486" lon="12.33413">
        <ele>2384.69</ele>
        <time>2016-02-21T11:45:23Z</time>
      </trkpt>
      <trkpt lat="46.78484" lon="12.33406">
        <ele>2386.13</ele>
        <time>2016-02-21T11:45:35Z</time>
      </trkpt>
      <trkpt lat="46.78484" lon="12.33396">
        <ele>2388.53</ele>
        <time>2016-02-21T11:45:48Z</time>
      </trkpt>
      <trkpt lat="46.78484" lon="12.33387">
        <ele>2389.49</ele>
        <time>2016-02-21T11:46:03Z</time>
      </trkpt>
      <trkpt lat="46.78483" lon="12.33381">
        <ele>2389.97</ele>
        <time>2016-02-21T11:46:15Z</time>
      </trkpt>
      <trkpt lat="46.78482" lon="12.33373">
        <ele>2392.38</ele>
        <time>2016-02-21T11:46:28Z</time>
      </trkpt>
      <trkpt lat="46.7848" lon="12.33366">
        <ele>2394.3</ele>
        <time>2016-02-21T11:46:42Z</time>
      </trkpt>
      <trkpt lat="46.7848" lon="12.33359">
        <ele>2395.74</ele>
        <time>2016-02-21T11:46:55Z</time>
      </trkpt>
      <trkpt lat="46.78479" lon="12.33352">
        <ele>2398.15</ele>
        <time>2016-02-21T11:47:08Z</time>
      </trkpt>
      <trkpt lat="46.78479" lon="12.3335">
        <ele>2397.18</ele>
        <time>2016-02-21T11:47:21Z</time>
      </trkpt>
      <trkpt lat="46.78483" lon="12.33343">
        <ele>2398.63</ele>
        <time>2016-02-21T11:47:35Z</time>
      </trkpt>
      <trkpt lat="46.78486" lon="12.33334">
        <ele>2399.11</ele>
        <time>2016-02-21T11:47:48Z</time>
      </trkpt>
      <trkpt lat="46.78487" lon="12.33328">
        <ele>2401.51</ele>
        <time>2016-02-21T11:47:59Z</time>
      </trkpt>
      <trkpt lat="46.78487" lon="12.33323">
        <ele>2403.91</ele>
        <time>2016-02-21T11:48:12Z</time>
      </trkpt>
      <trkpt lat="46.78485" lon="12.33322">
        <ele>2405.36</ele>
        <time>2016-02-21T11:48:16Z</time>
      </trkpt>
      <trkpt lat="46.78486" lon="12.33319">
        <ele>2404.88</ele>
        <time>2016-02-21T11:48:22Z</time>
      </trkpt>
      <trkpt lat="46.78488" lon="12.33316">
        <ele>2405.36</ele>
        <time>2016-02-21T11:48:33Z</time>
      </trkpt>
      <trkpt lat="46.7849" lon="12.33315">
        <ele>2408.72</ele>
        <time>2016-02-21T11:48:39Z</time>
      </trkpt>
      <trkpt lat="46.7849" lon="12.33313">
        <ele>2407.28</ele>
        <time>2016-02-21T11:48:43Z</time>
      </trkpt>
      <trkpt lat="46.78492" lon="12.33308">
        <ele>2410.16</ele>
        <time>2016-02-21T11:48:56Z</time>
      </trkpt>
      <trkpt lat="46.78492" lon="12.33305">
        <ele>2409.2</ele>
        <time>2016-02-21T11:49:05Z</time>
      </trkpt>
      <trkpt lat="46.78493" lon="12.33305">
        <ele>2409.2</ele>
        <time>2016-02-21T11:49:13Z</time>
      </trkpt>
      <trkpt lat="46.78493" lon="12.33306">
        <ele>2405.84</ele>
        <time>2016-02-21T11:49:19Z</time>
      </trkpt>
      <trkpt lat="46.78493" lon="12.33307">
        <ele>2404.88</ele>
        <time>2016-02-21T11:49:26Z</time>
      </trkpt>
      <trkpt lat="46.78493" lon="12.33308">
        <ele>2407.28</ele>
        <time>2016-02-21T11:49:27Z</time>
      </trkpt>
      <trkpt lat="46.78492" lon="12.33308">
        <ele>2404.39</ele>
        <time>2016-02-21T11:49:31Z</time>
      </trkpt>
      <trkpt lat="46.78492" lon="12.33308">
        <ele>2404.88</ele>
        <time>2016-02-21T11:49:32Z</time>
      </trkpt>
      <trkpt lat="46.78492" lon="12.33307">
        <ele>2410.64</ele>
        <time>2016-02-21T11:49:34Z</time>
      </trkpt>
      <trkpt lat="46.78492" lon="12.33306">
        <ele>2410.16</ele>
        <time>2016-02-21T11:49:35Z</time>
      </trkpt>
      <trkpt lat="46.78492" lon="12.33307">
        <ele>2403.91</ele>
        <time>2016-02-21T11:49:37Z</time>
      </trkpt>
      <trkpt lat="46.78492" lon="12.33307">
        <ele>2407.76</ele>
        <time>2016-02-21T11:49:41Z</time>
      </trkpt>
      <trkpt lat="46.78493" lon="12.33307">
        <ele>2407.76</ele>
        <time>2016-02-21T11:49:42Z</time>
      </trkpt>
      <trkpt lat="46.78492" lon="12.33306">
        <ele>2410.64</ele>
        <time>2016-02-21T11:49:49Z</time>
      </trkpt>
      <trkpt lat="46.78491" lon="12.33306">
        <ele>2410.16</ele>
        <time>2016-02-21T11:50:03Z</time>
      </trkpt>
      <trkpt lat="46.78491" lon="12.33305">
        <ele>2414.01</ele>
        <time>2016-02-21T11:50:15Z</time>
      </trkpt>
      <trkpt lat="46.78491" lon="12.33305">
        <ele>2411.12</ele>
        <time>2016-02-21T11:50:18Z</time>
      </trkpt>
      <trkpt lat="46.78491" lon="12.33305">
        <ele>2413.05</ele>
        <time>2016-02-21T11:50:23Z</time>
      </trkpt>
      <trkpt lat="46.78491" lon="12.33305">
        <ele>2411.6</ele>
        <time>2016-02-21T11:50:25Z</time>
      </trkpt>
      <trkpt lat="46.78492" lon="12.33304">
        <ele>2408.72</ele>
        <time>2016-02-21T11:50:35Z</time>
      </trkpt>
      <trkpt lat="46.78492" lon="12.33304">
        <ele>2411.6</ele>
        <time>2016-02-21T11:50:36Z</time>
      </trkpt>
      <trkpt lat="46.78492" lon="12.33304">
        <ele>2414.97</ele>
        <time>2016-02-21T11:50:43Z</time>
      </trkpt>
      <trkpt lat="46.78492" lon="12.33304">
        <ele>2410.64</ele>
        <time>2016-02-21T11:50:53Z</time>
      </trkpt>
      <trkpt lat="46.78491" lon="12.33303">
        <ele>2409.2</ele>
        <time>2016-02-21T11:50:59Z</time>
      </trkpt>
      <trkpt lat="46.78488" lon="12.33302">
        <ele>2410.16</ele>
        <time>2016-02-21T11:51:13Z</time>
      </trkpt>
      <trkpt lat="46.78486" lon="12.33306">
        <ele>2414.97</ele>
        <time>2016-02-21T11:51:31Z</time>
      </trkpt>
      <trkpt lat="46.78486" lon="12.33306">
        <ele>2414.49</ele>
        <time>2016-02-21T11:51:32Z</time>
      </trkpt>
      <trkpt lat="46.78486" lon="12.33304">
        <ele>2414.01</ele>
        <time>2016-02-21T11:51:39Z</time>
      </trkpt>
      <trkpt lat="46.78486" lon="12.33302">
        <ele>2412.09</ele>
        <time>2016-02-21T11:51:42Z</time>
      </trkpt>
      <trkpt lat="46.78487" lon="12.33299">
        <ele>2412.57</ele>
        <time>2016-02-21T11:51:48Z</time>
      </trkpt>
      <trkpt lat="46.78486" lon="12.33297">
        <ele>2415.93</ele>
        <time>2016-02-21T11:51:53Z</time>
      </trkpt>
      <trkpt lat="46.78484" lon="12.33299">
        <ele>2419.3</ele>
        <time>2016-02-21T11:51:56Z</time>
      </trkpt>
      <trkpt lat="46.78482" lon="12.33299">
        <ele>2415.45</ele>
        <time>2016-02-21T11:52:02Z</time>
      </trkpt>
      <trkpt lat="46.7848" lon="12.33301">
        <ele>2413.53</ele>
        <time>2016-02-21T11:52:13Z</time>
      </trkpt>
      <trkpt lat="46.78478" lon="12.333">
        <ele>2415.93</ele>
        <time>2016-02-21T11:52:18Z</time>
      </trkpt>
      <trkpt lat="46.78477" lon="12.33299">
        <ele>2419.78</ele>
        <time>2016-02-21T11:52:22Z</time>
      </trkpt>
      <trkpt lat="46.78477" lon="12.33298">
        <ele>2414.97</ele>
        <time>2016-02-21T11:52:24Z</time>
      </trkpt>
      <trkpt lat="46.78476" lon="12.33298">
        <ele>2419.3</ele>
        <time>2016-02-21T11:52:25Z</time>
      </trkpt>
      <trkpt lat="46.78476" lon="12.33297">
        <ele>2416.41</ele>
        <time>2016-02-21T11:52:28Z</time>
      </trkpt>
      <trkpt lat="46.78475" lon="12.33295">
        <ele>2410.64</ele>
        <time>2016-02-21T11:52:32Z</time>
      </trkpt>
      <trkpt lat="46.78474" lon="12.33292">
        <ele>2410.64</ele>
        <time>2016-02-21T11:52:39Z</time>
      </trkpt>
      <trkpt lat="46.78474" lon="12.33292">
        <ele>2413.05</ele>
        <time>2016-02-21T11:52:41Z</time>
      </trkpt>
      <trkpt lat="46.78474" lon="12.33291">
        <ele>2414.97</ele>
        <time>2016-02-21T11:52:43Z</time>
      </trkpt>
      <trkpt lat="46.78473" lon="12.3329">
        <ele>2421.22</ele>
        <time>2016-02-21T11:52:47Z</time>
      </trkpt>
      <trkpt lat="46.78473" lon="12.3329">
        <ele>2424.58</ele>
        <time>2016-02-21T11:52:49Z</time>
      </trkpt>
      <trkpt lat="46.78472" lon="12.33291">
        <ele>2423.14</ele>
        <time>2016-02-21T11:52:50Z</time>
      </trkpt>
      <trkpt lat="46.78471" lon="12.33293">
        <ele>2421.7</ele>
        <time>2016-02-21T11:52:55Z</time>
      </trkpt>
      <trkpt lat="46.78471" lon="12.33293">
        <ele>2418.33</ele>
        <time>2016-02-21T11:53:04Z</time>
      </trkpt>
      <trkpt lat="46.7847" lon="12.33291">
        <ele>2414.97</ele>
        <time>2016-02-21T11:53:07Z</time>
      </trkpt>
      <trkpt lat="46.78471" lon="12.3329">
        <ele>2415.45</ele>
        <time>2016-02-21T11:53:08Z</time>
      </trkpt>
      <trkpt lat="46.7847" lon="12.33288">
        <ele>2419.78</ele>
        <time>2016-02-21T11:53:13Z</time>
      </trkpt>
      <trkpt lat="46.7847" lon="12.33288">
        <ele>2422.66</ele>
        <time>2016-02-21T11:53:15Z</time>
      </trkpt>
      <trkpt lat="46.78467" lon="12.33284">
        <ele>2420.26</ele>
        <time>2016-02-21T11:53:29Z</time>
      </trkpt>
      <trkpt lat="46.78465" lon="12.33281">
        <ele>2424.1</ele>
        <time>2016-02-21T11:53:37Z</time>
      </trkpt>
      <trkpt lat="46.78464" lon="12.3328">
        <ele>2424.58</ele>
        <time>2016-02-21T11:53:39Z</time>
      </trkpt>
      <trkpt lat="46.78464" lon="12.33279">
        <ele>2423.14</ele>
        <time>2016-02-21T11:53:41Z</time>
      </trkpt>
      <trkpt lat="46.7846" lon="12.33275">
        <ele>2424.58</ele>
        <time>2016-02-21T11:53:52Z</time>
      </trkpt>
      <trkpt lat="46.7846" lon="12.33274">
        <ele>2423.14</ele>
        <time>2016-02-21T11:53:54Z</time>
      </trkpt>
      <trkpt lat="46.78457" lon="12.33268">
        <ele>2422.18</ele>
        <time>2016-02-21T11:54:09Z</time>
      </trkpt>
      <trkpt lat="46.78457" lon="12.33269">
        <ele>2426.5</ele>
        <time>2016-02-21T11:54:12Z</time>
      </trkpt>
      <trkpt lat="46.78457" lon="12.33269">
        <ele>2422.18</ele>
        <time>2016-02-21T11:54:14Z</time>
      </trkpt>
      <trkpt lat="46.78457" lon="12.33269">
        <ele>2423.14</ele>
        <time>2016-02-21T11:54:15Z</time>
      </trkpt>
      <trkpt lat="46.78456" lon="12.3327">
        <ele>2422.66</ele>
        <time>2016-02-21T11:54:22Z</time>
      </trkpt>
      <trkpt lat="46.78456" lon="12.33269">
        <ele>2425.06</ele>
        <time>2016-02-21T11:54:27Z</time>
      </trkpt>
      <trkpt lat="46.78456" lon="12.33267">
        <ele>2425.54</ele>
        <time>2016-02-21T11:54:35Z</time>
      </trkpt>
      <trkpt lat="46.78457" lon="12.33266">
        <ele>2424.1</ele>
        <time>2016-02-21T11:54:55Z</time>
      </trkpt>
      <trkpt lat="46.78457" lon="12.33266">
        <ele>2427.47</ele>
        <time>2016-02-21T11:54:57Z</time>
      </trkpt>
      <trkpt lat="46.78457" lon="12.33266">
        <ele>2427.47</ele>
        <time>2016-02-21T11:54:58Z</time>
      </trkpt>
      <trkpt lat="46.78457" lon="12.33266">
        <ele>2424.1</ele>
        <time>2016-02-21T11:54:59Z</time>
      </trkpt>
      <trkpt lat="46.78457" lon="12.33266">
        <ele>2424.58</ele>
        <time>2016-02-21T11:55:00Z</time>
      </trkpt>
      <trkpt lat="46.78457" lon="12.33266">
        <ele>2428.43</ele>
        <time>2016-02-21T11:55:05Z</time>
      </trkpt>
      <trkpt lat="46.78456" lon="12.33266">
        <ele>2424.1</ele>
        <time>2016-02-21T11:55:07Z</time>
      </trkpt>
      <trkpt lat="46.78456" lon="12.33266">
        <ele>2424.1</ele>
        <time>2016-02-21T11:55:08Z</time>
      </trkpt>
      <trkpt lat="46.78456" lon="12.33267">
        <ele>2427.47</ele>
        <time>2016-02-21T11:55:12Z</time>
      </trkpt>
      <trkpt lat="46.78456" lon="12.33267">
        <ele>2431.31</ele>
        <time>2016-02-21T11:55:14Z</time>
      </trkpt>
      <trkpt lat="46.78456" lon="12.33267">
        <ele>2426.99</ele>
        <time>2016-02-21T11:55:17Z</time>
      </trkpt>
      <trkpt lat="46.78456" lon="12.33267">
        <ele>2430.83</ele>
        <time>2016-02-21T11:55:19Z</time>
      </trkpt>
      <trkpt lat="46.78456" lon="12.33267">
        <ele>2431.79</ele>
        <time>2016-02-21T11:55:21Z</time>
      </trkpt>
      <trkpt lat="46.78456" lon="12.33266">
        <ele>2426.5</ele>
        <time>2016-02-21T11:55:25Z</time>
      </trkpt>
      <trkpt lat="46.78456" lon="12.33266">
        <ele>2426.99</ele>
        <time>2016-02-21T11:55:26Z</time>
      </trkpt>
      <trkpt lat="46.78456" lon="12.33266">
        <ele>2425.06</ele>
        <time>2016-02-21T11:55:28Z</time>
      </trkpt>
      <trkpt lat="46.78456" lon="12.33266">
        <ele>2426.02</ele>
        <time>2016-02-21T11:55:30Z</time>
      </trkpt>
      <trkpt lat="46.78457" lon="12.33266">
        <ele>2432.27</ele>
        <time>2016-02-21T11:55:36Z</time>
      </trkpt>
      <trkpt lat="46.78457" lon="12.33266">
        <ele>2430.83</ele>
        <time>2016-02-21T11:55:37Z</time>
      </trkpt>
      <trkpt lat="46.78457" lon="12.33266">
        <ele>2426.99</ele>
        <time>2016-02-21T11:55:39Z</time>
      </trkpt>
      <trkpt lat="46.78457" lon="12.33266">
        <ele>2428.43</ele>
        <time>2016-02-21T11:55:40Z</time>
      </trkpt>
      <trkpt lat="46.78456" lon="12.33266">
        <ele>2424.1</ele>
        <time>2016-02-21T11:55:44Z</time>
      </trkpt>
      <trkpt lat="46.78456" lon="12.33265">
        <ele>2428.43</ele>
        <time>2016-02-21T11:55:47Z</time>
      </trkpt>
      <trkpt lat="46.78455" lon="12.33264">
        <ele>2426.5</ele>
        <time>2016-02-21T11:55:50Z</time>
      </trkpt>
      <trkpt lat="46.78455" lon="12.33263">
        <ele>2430.83</ele>
        <time>2016-02-21T11:55:51Z</time>
      </trkpt>
      <trkpt lat="46.78454" lon="12.33263">
        <ele>2429.87</ele>
        <time>2016-02-21T11:55:52Z</time>
      </trkpt>
      <trkpt lat="46.78454" lon="12.33263">
        <ele>2426.02</ele>
        <time>2016-02-21T11:55:53Z</time>
      </trkpt>
      <trkpt lat="46.78452" lon="12.33262">
        <ele>2430.83</ele>
        <time>2016-02-21T11:55:57Z</time>
      </trkpt>
      <trkpt lat="46.78452" lon="12.33262">
        <ele>2430.83</ele>
        <time>2016-02-21T11:55:58Z</time>
      </trkpt>
      <trkpt lat="46.7845" lon="12.33261">
        <ele>2430.83</ele>
        <time>2016-02-21T11:56:04Z</time>
      </trkpt>
      <trkpt lat="46.78444" lon="12.33258">
        <ele>2431.79</ele>
        <time>2016-02-21T11:56:17Z</time>
      </trkpt>
      <trkpt lat="46.7844" lon="12.33255">
        <ele>2434.2</ele>
        <time>2016-02-21T11:56:29Z</time>
      </trkpt>
      <trkpt lat="46.78437" lon="12.33256">
        <ele>2430.35</ele>
        <time>2016-02-21T11:56:35Z</time>
      </trkpt>
      <trkpt lat="46.78436" lon="12.33257">
        <ele>2428.43</ele>
        <time>2016-02-21T11:56:38Z</time>
      </trkpt>
      <trkpt lat="46.78435" lon="12.33257">
        <ele>2431.79</ele>
        <time>2016-02-21T11:56:40Z</time>
      </trkpt>
      <trkpt lat="46.78432" lon="12.33256">
        <ele>2427.47</ele>
        <time>2016-02-21T11:56:50Z</time>
      </trkpt>
      <trkpt lat="46.78432" lon="12.33255">
        <ele>2433.71</ele>
        <time>2016-02-21T11:56:51Z</time>
      </trkpt>
      <trkpt lat="46.78432" lon="12.33255">
        <ele>2434.2</ele>
        <time>2016-02-21T11:56:52Z</time>
      </trkpt>
      <trkpt lat="46.7843" lon="12.33255">
        <ele>2430.35</ele>
        <time>2016-02-21T11:56:54Z</time>
      </trkpt>
      <trkpt lat="46.78429" lon="12.33254">
        <ele>2434.68</ele>
        <time>2016-02-21T11:56:56Z</time>
      </trkpt>
      <trkpt lat="46.78429" lon="12.33252">
        <ele>2437.08</ele>
        <time>2016-02-21T11:57:00Z</time>
      </trkpt>
      <trkpt lat="46.78429" lon="12.33252">
        <ele>2440.92</ele>
        <time>2016-02-21T11:57:01Z</time>
      </trkpt>
      <trkpt lat="46.78428" lon="12.33252">
        <ele>2437.08</ele>
        <time>2016-02-21T11:57:02Z</time>
      </trkpt>
      <trkpt lat="46.78428" lon="12.33251">
        <ele>2431.31</ele>
        <time>2016-02-21T11:57:04Z</time>
      </trkpt>
      <trkpt lat="46.78429" lon="12.33251">
        <ele>2434.68</ele>
        <time>2016-02-21T11:57:05Z</time>
      </trkpt>
      <trkpt lat="46.78428" lon="12.33247">
        <ele>2437.08</ele>
        <time>2016-02-21T11:57:17Z</time>
      </trkpt>
      <trkpt lat="46.78428" lon="12.33247">
        <ele>2441.89</ele>
        <time>2016-02-21T11:57:19Z</time>
      </trkpt>
      <trkpt lat="46.78428" lon="12.33247">
        <ele>2442.37</ele>
        <time>2016-02-21T11:57:20Z</time>
      </trkpt>
      <trkpt lat="46.78428" lon="12.33246">
        <ele>2438.04</ele>
        <time>2016-02-21T11:57:22Z</time>
      </trkpt>
      <trkpt lat="46.78428" lon="12.33246">
        <ele>2438.52</ele>
        <time>2016-02-21T11:57:23Z</time>
      </trkpt>
      <trkpt lat="46.78428" lon="12.33245">
        <ele>2442.85</ele>
        <time>2016-02-21T11:57:24Z</time>
      </trkpt>
      <trkpt lat="46.78427" lon="12.33245">
        <ele>2447.17</ele>
        <time>2016-02-21T11:57:25Z</time>
      </trkpt>
      <trkpt lat="46.78428" lon="12.33244">
        <ele>2440.44</ele>
        <time>2016-02-21T11:57:26Z</time>
      </trkpt>
      <trkpt lat="46.78428" lon="12.33244">
        <ele>2440.44</ele>
        <time>2016-02-21T11:57:27Z</time>
      </trkpt>
      <trkpt lat="46.78427" lon="12.33244">
        <ele>2443.81</ele>
        <time>2016-02-21T11:57:28Z</time>
      </trkpt>
      <trkpt lat="46.78427" lon="12.33243">
        <ele>2439</ele>
        <time>2016-02-21T11:57:29Z</time>
      </trkpt>
      <trkpt lat="46.78427" lon="12.33242">
        <ele>2442.37</ele>
        <time>2016-02-21T11:57:34Z</time>
      </trkpt>
      <trkpt lat="46.78427" lon="12.33241">
        <ele>2439</ele>
        <time>2016-02-21T11:57:35Z</time>
      </trkpt>
      <trkpt lat="46.78427" lon="12.33241">
        <ele>2439.48</ele>
        <time>2016-02-21T11:57:36Z</time>
      </trkpt>
      <trkpt lat="46.78426" lon="12.3324">
        <ele>2435.64</ele>
        <time>2016-02-21T11:57:38Z</time>
      </trkpt>
      <trkpt lat="46.78426" lon="12.33239">
        <ele>2436.12</ele>
        <time>2016-02-21T11:57:39Z</time>
      </trkpt>
      <trkpt lat="46.78427" lon="12.33236">
        <ele>2432.75</ele>
        <time>2016-02-21T11:57:47Z</time>
      </trkpt>
      <trkpt lat="46.78427" lon="12.33235">
        <ele>2436.12</ele>
        <time>2016-02-21T11:57:54Z</time>
      </trkpt>
      <trkpt lat="46.78427" lon="12.33235">
        <ele>2432.75</ele>
        <time>2016-02-21T11:57:56Z</time>
      </trkpt>
      <trkpt lat="46.78426" lon="12.33234">
        <ele>2432.75</ele>
        <time>2016-02-21T11:58:02Z</time>
      </trkpt>
      <trkpt lat="46.78425" lon="12.33231">
        <ele>2436.12</ele>
        <time>2016-02-21T11:58:10Z</time>
      </trkpt>
      <trkpt lat="46.78424" lon="12.3323">
        <ele>2430.83</ele>
        <time>2016-02-21T11:58:12Z</time>
      </trkpt>
      <trkpt lat="46.78424" lon="12.3323">
        <ele>2432.27</ele>
        <time>2016-02-21T11:58:13Z</time>
      </trkpt>
      <trkpt lat="46.78423" lon="12.33229">
        <ele>2434.2</ele>
        <time>2016-02-21T11:58:16Z</time>
      </trkpt>
      <trkpt lat="46.78421" lon="12.33225">
        <ele>2433.71</ele>
        <time>2016-02-21T11:58:24Z</time>
      </trkpt>
      <trkpt lat="46.78419" lon="12.33223">
        <ele>2428.91</ele>
        <time>2016-02-21T11:58:28Z</time>
      </trkpt>
      <trkpt lat="46.78419" lon="12.33222">
        <ele>2428.43</ele>
        <time>2016-02-21T11:58:29Z</time>
      </trkpt>
      <trkpt lat="46.78418" lon="12.33222">
        <ele>2435.16</ele>
        <time>2016-02-21T11:58:30Z</time>
      </trkpt>
      <trkpt lat="46.78418" lon="12.33222">
        <ele>2438.04</ele>
        <time>2016-02-21T11:58:31Z</time>
      </trkpt>
      <trkpt lat="46.78418" lon="12.33222">
        <ele>2432.75</ele>
        <time>2016-02-21T11:58:32Z</time>
      </trkpt>
      <trkpt lat="46.78417" lon="12.33221">
        <ele>2429.87</ele>
        <time>2016-02-21T11:58:34Z</time>
      </trkpt>
      <trkpt lat="46.78416" lon="12.33219">
        <ele>2428.91</ele>
        <time>2016-02-21T11:58:36Z</time>
      </trkpt>
      <trkpt lat="46.78415" lon="12.33217">
        <ele>2434.2</ele>
        <time>2016-02-21T11:58:40Z</time>
      </trkpt>
      <trkpt lat="46.78415" lon="12.33216">
        <ele>2434.2</ele>
        <time>2016-02-21T11:58:41Z</time>
      </trkpt>
      <trkpt lat="46.78414" lon="12.33209">
        <ele>2437.08</ele>
        <time>2016-02-21T11:58:53Z</time>
      </trkpt>
      <trkpt lat="46.78412" lon="12.33203">
        <ele>2440.44</ele>
        <time>2016-02-21T11:59:06Z</time>
      </trkpt>
      <trkpt lat="46.78412" lon="12.33198">
        <ele>2443.33</ele>
        <time>2016-02-21T11:59:14Z</time>
      </trkpt>
      <trkpt lat="46.78412" lon="12.33196">
        <ele>2439.48</ele>
        <time>2016-02-21T11:59:16Z</time>
      </trkpt>
      <trkpt lat="46.78412" lon="12.33194">
        <ele>2443.33</ele>
        <time>2016-02-21T11:59:21Z</time>
      </trkpt>
      <trkpt lat="46.7841" lon="12.33186">
        <ele>2442.37</ele>
        <time>2016-02-21T11:59:33Z</time>
      </trkpt>
      <trkpt lat="46.78409" lon="12.33185">
        <ele>2445.73</ele>
        <time>2016-02-21T11:59:35Z</time>
      </trkpt>
      <trkpt lat="46.78408" lon="12.33178">
        <ele>2444.29</ele>
        <time>2016-02-21T11:59:49Z</time>
      </trkpt>
      <trkpt lat="46.78409" lon="12.33177">
        <ele>2440.92</ele>
        <time>2016-02-21T11:59:59Z</time>
      </trkpt>
      <trkpt lat="46.78409" lon="12.33177">
        <ele>2442.37</ele>
        <time>2016-02-21T12:00:07Z</time>
      </trkpt>
      <trkpt lat="46.78409" lon="12.33178">
        <ele>2443.81</ele>
        <time>2016-02-21T12:00:09Z</time>
      </trkpt>
      <trkpt lat="46.7841" lon="12.3318">
        <ele>2442.37</ele>
        <time>2016-02-21T12:00:14Z</time>
      </trkpt>
      <trkpt lat="46.7841" lon="12.3318">
        <ele>2446.21</ele>
        <time>2016-02-21T12:00:16Z</time>
      </trkpt>
      <trkpt lat="46.7841" lon="12.33181">
        <ele>2443.33</ele>
        <time>2016-02-21T12:00:18Z</time>
      </trkpt>
      <trkpt lat="46.78411" lon="12.33182">
        <ele>2445.73</ele>
        <time>2016-02-21T12:00:35Z</time>
      </trkpt>
      <trkpt lat="46.78411" lon="12.33182">
        <ele>2442.85</ele>
        <time>2016-02-21T12:00:41Z</time>
      </trkpt>
      <trkpt lat="46.78412" lon="12.33182">
        <ele>2444.77</ele>
        <time>2016-02-21T12:00:50Z</time>
      </trkpt>
      <trkpt lat="46.78411" lon="12.33182">
        <ele>2444.77</ele>
        <time>2016-02-21T12:01:03Z</time>
      </trkpt>
      <trkpt lat="46.78412" lon="12.33182">
        <ele>2441.41</ele>
        <time>2016-02-21T12:01:22Z</time>
      </trkpt>
      <trkpt lat="46.78412" lon="12.33182">
        <ele>2444.77</ele>
        <time>2016-02-21T12:01:24Z</time>
      </trkpt>
      <trkpt lat="46.78412" lon="12.33182">
        <ele>2442.85</ele>
        <time>2016-02-21T12:01:25Z</time>
      </trkpt>
      <trkpt lat="46.78412" lon="12.33182">
        <ele>2446.21</ele>
        <time>2016-02-21T12:01:35Z</time>
      </trkpt>
      <trkpt lat="46.78412" lon="12.33183">
        <ele>2443.33</ele>
        <time>2016-02-21T12:01:46Z</time>
      </trkpt>
      <trkpt lat="46.78412" lon="12.33183">
        <ele>2447.65</ele>
        <time>2016-02-21T12:02:06Z</time>
      </trkpt>
      <trkpt lat="46.78412" lon="12.33183">
        <ele>2447.17</ele>
        <time>2016-02-21T12:02:07Z</time>
      </trkpt>
      <trkpt lat="46.78409" lon="12.33181">
        <ele>2443.81</ele>
        <time>2016-02-21T12:02:20Z</time>
      </trkpt>
      <trkpt lat="46.7841" lon="12.33179">
        <ele>2440.44</ele>
        <time>2016-02-21T12:02:22Z</time>
      </trkpt>
      <trkpt lat="46.7841" lon="12.33179">
        <ele>2443.81</ele>
        <time>2016-02-21T12:02:23Z</time>
      </trkpt>
      <trkpt lat="46.78409" lon="12.33177">
        <ele>2444.77</ele>
        <time>2016-02-21T12:02:28Z</time>
      </trkpt>
      <trkpt lat="46.7841" lon="12.33179">
        <ele>2440.92</ele>
        <time>2016-02-21T12:02:39Z</time>
      </trkpt>
      <trkpt lat="46.7841" lon="12.33179">
        <ele>2443.81</ele>
        <time>2016-02-21T12:02:40Z</time>
      </trkpt>
      <trkpt lat="46.7841" lon="12.33179">
        <ele>2443.33</ele>
        <time>2016-02-21T12:02:41Z</time>
      </trkpt>
      <trkpt lat="46.78409" lon="12.33179">
        <ele>2443.81</ele>
        <time>2016-02-21T12:02:49Z</time>
      </trkpt>
      <trkpt lat="46.78409" lon="12.33179">
        <ele>2447.65</ele>
        <time>2016-02-21T12:02:50Z</time>
      </trkpt>
      <trkpt lat="46.78409" lon="12.3318">
        <ele>2447.17</ele>
        <time>2016-02-21T12:02:51Z</time>
      </trkpt>
      <trkpt lat="46.78409" lon="12.33181">
        <ele>2445.73</ele>
        <time>2016-02-21T12:02:52Z</time>
      </trkpt>
      <trkpt lat="46.78409" lon="12.33185">
        <ele>2443.81</ele>
        <time>2016-02-21T12:02:54Z</time>
      </trkpt>
      <trkpt lat="46.7841" lon="12.33187">
        <ele>2444.77</ele>
        <time>2016-02-21T12:02:55Z</time>
      </trkpt>
      <trkpt lat="46.78411" lon="12.3319">
        <ele>2445.25</ele>
        <time>2016-02-21T12:02:56Z</time>
      </trkpt>
      <trkpt lat="46.78412" lon="12.33193">
        <ele>2441.89</ele>
        <time>2016-02-21T12:02:57Z</time>
      </trkpt>
      <trkpt lat="46.78412" lon="12.33195">
        <ele>2442.85</ele>
        <time>2016-02-21T12:02:58Z</time>
      </trkpt>
      <trkpt lat="46.78413" lon="12.33197">
        <ele>2442.85</ele>
        <time>2016-02-21T12:02:59Z</time>
      </trkpt>
      <trkpt lat="46.78415" lon="12.33199">
        <ele>2440.44</ele>
        <time>2016-02-21T12:03:02Z</time>
      </trkpt>
      <trkpt lat="46.78418" lon="12.33198">
        <ele>2441.89</ele>
        <time>2016-02-21T12:03:06Z</time>
      </trkpt>
      <trkpt lat="46.78421" lon="12.33197">
        <ele>2439.96</ele>
        <time>2016-02-21T12:03:08Z</time>
      </trkpt>
      <trkpt lat="46.78423" lon="12.33195">
        <ele>2436.6</ele>
        <time>2016-02-21T12:03:15Z</time>
      </trkpt>
      <trkpt lat="46.78422" lon="12.33195">
        <ele>2439.96</ele>
        <time>2016-02-21T12:03:20Z</time>
      </trkpt>
      <trkpt lat="46.78422" lon="12.33195">
        <ele>2437.08</ele>
        <time>2016-02-21T12:03:23Z</time>
      </trkpt>
      <trkpt lat="46.78423" lon="12.33195">
        <ele>2439.48</ele>
        <time>2016-02-21T12:03:38Z</time>
      </trkpt>
      <trkpt lat="46.78424" lon="12.33195">
        <ele>2438.52</ele>
        <time>2016-02-21T12:03:40Z</time>
      </trkpt>
      <trkpt lat="46.78424" lon="12.33195">
        <ele>2440.92</ele>
        <time>2016-02-21T12:03:49Z</time>
      </trkpt>
      <trkpt lat="46.78424" lon="12.33194">
        <ele>2439.48</ele>
        <time>2016-02-21T12:03:51Z</time>
      </trkpt>
      <trkpt lat="46.78424" lon="12.33195">
        <ele>2434.68</ele>
        <time>2016-02-21T12:03:56Z</time>
      </trkpt>
      <trkpt lat="46.78424" lon="12.33195">
        <ele>2436.12</ele>
        <time>2016-02-21T12:03:57Z</time>
      </trkpt>
      <trkpt lat="46.78422" lon="12.33195">
        <ele>2436.6</ele>
        <time>2016-02-21T12:04:11Z</time>
      </trkpt>
      <trkpt lat="46.78418" lon="12.33198">
        <ele>2439.96</ele>
        <time>2016-02-21T12:04:18Z</time>
      </trkpt>
      <trkpt lat="46.78416" lon="12.33199">
        <ele>2436.12</ele>
        <time>2016-02-21T12:04:26Z</time>
      </trkpt>
      <trkpt lat="46.78413" lon="12.33194">
        <ele>2440.44</ele>
        <time>2016-02-21T12:04:34Z</time>
      </trkpt>
      <trkpt lat="46.78412" lon="12.33193">
        <ele>2440.92</ele>
        <time>2016-02-21T12:04:36Z</time>
      </trkpt>
      <trkpt lat="46.78412" lon="12.33191">
        <ele>2439.48</ele>
        <time>2016-02-21T12:04:38Z</time>
      </trkpt>
      <trkpt lat="46.78411" lon="12.33188">
        <ele>2442.85</ele>
        <time>2016-02-21T12:04:45Z</time>
      </trkpt>
      <trkpt lat="46.78411" lon="12.33186">
        <ele>2439.48</ele>
        <time>2016-02-21T12:04:54Z</time>
      </trkpt>
      <trkpt lat="46.78411" lon="12.33185">
        <ele>2441.89</ele>
        <time>2016-02-21T12:05:00Z</time>
      </trkpt>
      <trkpt lat="46.78409" lon="12.33181">
        <ele>2441.89</ele>
        <time>2016-02-21T12:05:07Z</time>
      </trkpt>
      <trkpt lat="46.78407" lon="12.33177">
        <ele>2442.85</ele>
        <time>2016-02-21T12:05:14Z</time>
      </trkpt>
      <trkpt lat="46.78403" lon="12.33181">
        <ele>2440.92</ele>
        <time>2016-02-21T12:05:27Z</time>
      </trkpt>
      <trkpt lat="46.78401" lon="12.33182">
        <ele>2440.92</ele>
        <time>2016-02-21T12:05:33Z</time>
      </trkpt>
      <trkpt lat="46.78397" lon="12.33181">
        <ele>2441.89</ele>
        <time>2016-02-21T12:05:42Z</time>
      </trkpt>
      <trkpt lat="46.78395" lon="12.33178">
        <ele>2439</ele>
        <time>2016-02-21T12:05:50Z</time>
      </trkpt>
      <trkpt lat="46.78394" lon="12.33178">
        <ele>2442.85</ele>
        <time>2016-02-21T12:05:55Z</time>
      </trkpt>
      <trkpt lat="46.78394" lon="12.33179">
        <ele>2446.21</ele>
        <time>2016-02-21T12:05:58Z</time>
      </trkpt>
      <trkpt lat="46.78395" lon="12.3318">
        <ele>2444.77</ele>
        <time>2016-02-21T12:05:59Z</time>
      </trkpt>
      <trkpt lat="46.78395" lon="12.33178">
        <ele>2440.92</ele>
        <time>2016-02-21T12:06:04Z</time>
      </trkpt>
      <trkpt lat="46.78395" lon="12.33178">
        <ele>2440.92</ele>
        <time>2016-02-21T12:06:05Z</time>
      </trkpt>
      <trkpt lat="46.78395" lon="12.33177">
        <ele>2439.48</ele>
        <time>2016-02-21T12:06:07Z</time>
      </trkpt>
      <trkpt lat="46.78395" lon="12.33176">
        <ele>2443.33</ele>
        <time>2016-02-21T12:06:10Z</time>
      </trkpt>
      <trkpt lat="46.78395" lon="12.33176">
        <ele>2443.33</ele>
        <time>2016-02-21T12:06:11Z</time>
      </trkpt>
      <trkpt lat="46.78395" lon="12.33174">
        <ele>2447.65</ele>
        <time>2016-02-21T12:06:14Z</time>
      </trkpt>
      <trkpt lat="46.78395" lon="12.33172">
        <ele>2451.02</ele>
        <time>2016-02-21T12:06:18Z</time>
      </trkpt>
      <trkpt lat="46.78395" lon="12.3317">
        <ele>2446.69</ele>
        <time>2016-02-21T12:06:20Z</time>
      </trkpt>
      <trkpt lat="46.78396" lon="12.33169">
        <ele>2449.58</ele>
        <time>2016-02-21T12:06:23Z</time>
      </trkpt>
      <trkpt lat="46.78396" lon="12.33168">
        <ele>2446.21</ele>
        <time>2016-02-21T12:06:24Z</time>
      </trkpt>
      <trkpt lat="46.78396" lon="12.33167">
        <ele>2446.69</ele>
        <time>2016-02-21T12:06:25Z</time>
      </trkpt>
      <trkpt lat="46.78396" lon="12.33166">
        <ele>2443.33</ele>
        <time>2016-02-21T12:06:27Z</time>
      </trkpt>
      <trkpt lat="46.78396" lon="12.33165">
        <ele>2447.65</ele>
        <time>2016-02-21T12:06:28Z</time>
      </trkpt>
      <trkpt lat="46.78396" lon="12.33164">
        <ele>2443.81</ele>
        <time>2016-02-21T12:06:29Z</time>
      </trkpt>
      <trkpt lat="46.78396" lon="12.33161">
        <ele>2447.65</ele>
        <time>2016-02-21T12:06:33Z</time>
      </trkpt>
      <trkpt lat="46.78395" lon="12.3315">
        <ele>2449.1</ele>
        <time>2016-02-21T12:06:49Z</time>
      </trkpt>
      <trkpt lat="46.78395" lon="12.3314">
        <ele>2448.13</ele>
        <time>2016-02-21T12:07:02Z</time>
      </trkpt>
      <trkpt lat="46.78395" lon="12.33135">
        <ele>2451.5</ele>
        <time>2016-02-21T12:07:10Z</time>
      </trkpt>
      <trkpt lat="46.78395" lon="12.33134">
        <ele>2454.86</ele>
        <time>2016-02-21T12:07:13Z</time>
      </trkpt>
      <trkpt lat="46.78395" lon="12.33133">
        <ele>2451.98</ele>
        <time>2016-02-21T12:07:14Z</time>
      </trkpt>
      <trkpt lat="46.78395" lon="12.33131">
        <ele>2450.54</ele>
        <time>2016-02-21T12:07:16Z</time>
      </trkpt>
      <trkpt lat="46.78395" lon="12.33126">
        <ele>2449.58</ele>
        <time>2016-02-21T12:07:24Z</time>
      </trkpt>
      <trkpt lat="46.78394" lon="12.33122">
        <ele>2452.46</ele>
        <time>2016-02-21T12:07:29Z</time>
      </trkpt>
      <trkpt lat="46.78394" lon="12.3312">
        <ele>2447.65</ele>
        <time>2016-02-21T12:07:31Z</time>
      </trkpt>
      <trkpt lat="46.78394" lon="12.33119">
        <ele>2448.62</ele>
        <time>2016-02-21T12:07:32Z</time>
      </trkpt>
      <trkpt lat="46.78393" lon="12.33114">
        <ele>2450.06</ele>
        <time>2016-02-21T12:07:40Z</time>
      </trkpt>
      <trkpt lat="46.78393" lon="12.33112">
        <ele>2456.31</ele>
        <time>2016-02-21T12:07:43Z</time>
      </trkpt>
      <trkpt lat="46.78392" lon="12.33111">
        <ele>2456.79</ele>
        <time>2016-02-21T12:07:44Z</time>
      </trkpt>
      <trkpt lat="46.78392" lon="12.33107">
        <ele>2453.9</ele>
        <time>2016-02-21T12:07:47Z</time>
      </trkpt>
      <trkpt lat="46.78392" lon="12.33105">
        <ele>2456.31</ele>
        <time>2016-02-21T12:07:49Z</time>
      </trkpt>
      <trkpt lat="46.78391" lon="12.33103">
        <ele>2450.06</ele>
        <time>2016-02-21T12:07:52Z</time>
      </trkpt>
      <trkpt lat="46.78391" lon="12.33102">
        <ele>2449.1</ele>
        <time>2016-02-21T12:07:54Z</time>
      </trkpt>
      <trkpt lat="46.78391" lon="12.33098">
        <ele>2442.37</ele>
        <time>2016-02-21T12:08:00Z</time>
      </trkpt>
      <trkpt lat="46.78391" lon="12.33097">
        <ele>2442.37</ele>
        <time>2016-02-21T12:08:01Z</time>
      </trkpt>
      <trkpt lat="46.7839" lon="12.33095">
        <ele>2444.77</ele>
        <time>2016-02-21T12:08:05Z</time>
      </trkpt>
      <trkpt lat="46.78386" lon="12.33083">
        <ele>2443.81</ele>
        <time>2016-02-21T12:08:20Z</time>
      </trkpt>
      <trkpt lat="46.78385" lon="12.33078">
        <ele>2438.52</ele>
        <time>2016-02-21T12:08:24Z</time>
      </trkpt>
      <trkpt lat="46.78385" lon="12.33077">
        <ele>2444.77</ele>
        <time>2016-02-21T12:08:25Z</time>
      </trkpt>
      <trkpt lat="46.78385" lon="12.33076">
        <ele>2443.81</ele>
        <time>2016-02-21T12:08:26Z</time>
      </trkpt>
      <trkpt lat="46.78385" lon="12.33074">
        <ele>2444.77</ele>
        <time>2016-02-21T12:08:30Z</time>
      </trkpt>
      <trkpt lat="46.78385" lon="12.33068">
        <ele>2441.41</ele>
        <time>2016-02-21T12:08:36Z</time>
      </trkpt>
      <trkpt lat="46.78385" lon="12.33066">
        <ele>2441.89</ele>
        <time>2016-02-21T12:08:40Z</time>
      </trkpt>
      <trkpt lat="46.78385" lon="12.3306">
        <ele>2445.25</ele>
        <time>2016-02-21T12:08:48Z</time>
      </trkpt>
      <trkpt lat="46.78383" lon="12.3305">
        <ele>2447.17</ele>
        <time>2016-02-21T12:09:00Z</time>
      </trkpt>
      <trkpt lat="46.78383" lon="12.3305">
        <ele>2443.81</ele>
        <time>2016-02-21T12:09:01Z</time>
      </trkpt>
      <trkpt lat="46.78381" lon="12.33042">
        <ele>2448.62</ele>
        <time>2016-02-21T12:09:10Z</time>
      </trkpt>
      <trkpt lat="46.78381" lon="12.33042">
        <ele>2447.17</ele>
        <time>2016-02-21T12:09:11Z</time>
      </trkpt>
      <trkpt lat="46.78381" lon="12.33036">
        <ele>2449.1</ele>
        <time>2016-02-21T12:09:25Z</time>
      </trkpt>
      <trkpt lat="46.78382" lon="12.33034">
        <ele>2442.85</ele>
        <time>2016-02-21T12:09:27Z</time>
      </trkpt>
      <trkpt lat="46.78381" lon="12.33028">
        <ele>2450.06</ele>
        <time>2016-02-21T12:09:34Z</time>
      </trkpt>
      <trkpt lat="46.78381" lon="12.33027">
        <ele>2448.62</ele>
        <time>2016-02-21T12:09:35Z</time>
      </trkpt>
      <trkpt lat="46.78381" lon="12.33025">
        <ele>2444.29</ele>
        <time>2016-02-21T12:09:37Z</time>
      </trkpt>
      <trkpt lat="46.78381" lon="12.33012">
        <ele>2444.29</ele>
        <time>2016-02-21T12:09:50Z</time>
      </trkpt>
      <trkpt lat="46.78381" lon="12.33011">
        <ele>2448.62</ele>
        <time>2016-02-21T12:09:52Z</time>
      </trkpt>
      <trkpt lat="46.78381" lon="12.3301">
        <ele>2447.17</ele>
        <time>2016-02-21T12:09:53Z</time>
      </trkpt>
      <trkpt lat="46.78382" lon="12.3301">
        <ele>2450.54</ele>
        <time>2016-02-21T12:09:55Z</time>
      </trkpt>
      <trkpt lat="46.78383" lon="12.33008">
        <ele>2445.25</ele>
        <time>2016-02-21T12:10:00Z</time>
      </trkpt>
      <trkpt lat="46.78383" lon="12.33007">
        <ele>2446.69</ele>
        <time>2016-02-21T12:10:01Z</time>
      </trkpt>
      <trkpt lat="46.78384" lon="12.32998">
        <ele>2444.77</ele>
        <time>2016-02-21T12:10:11Z</time>
      </trkpt>
      <trkpt lat="46.78384" lon="12.32997">
        <ele>2445.73</ele>
        <time>2016-02-21T12:10:13Z</time>
      </trkpt>
      <trkpt lat="46.78383" lon="12.32991">
        <ele>2449.58</ele>
        <time>2016-02-21T12:10:25Z</time>
      </trkpt>
      <trkpt lat="46.78383" lon="12.3299">
        <ele>2445.73</ele>
        <time>2016-02-21T12:10:27Z</time>
      </trkpt>
      <trkpt lat="46.78383" lon="12.32989">
        <ele>2449.1</ele>
        <time>2016-02-21T12:10:29Z</time>
      </trkpt>
      <trkpt lat="46.78383" lon="12.32988">
        <ele>2448.62</ele>
        <time>2016-02-21T12:10:30Z</time>
      </trkpt>
      <trkpt lat="46.78383" lon="12.32987">
        <ele>2451.98</ele>
        <time>2016-02-21T12:10:31Z</time>
      </trkpt>
      <trkpt lat="46.78382" lon="12.32986">
        <ele>2451.5</ele>
        <time>2016-02-21T12:10:32Z</time>
      </trkpt>
      <trkpt lat="46.7838" lon="12.32979">
        <ele>2446.69</ele>
        <time>2016-02-21T12:10:42Z</time>
      </trkpt>
      <trkpt lat="46.7838" lon="12.32979">
        <ele>2447.17</ele>
        <time>2016-02-21T12:10:43Z</time>
      </trkpt>
      <trkpt lat="46.78377" lon="12.32971">
        <ele>2447.17</ele>
        <time>2016-02-21T12:10:54Z</time>
      </trkpt>
      <trkpt lat="46.78374" lon="12.32967">
        <ele>2445.73</ele>
        <time>2016-02-21T12:11:01Z</time>
      </trkpt>
      <trkpt lat="46.78372" lon="12.32962">
        <ele>2446.21</ele>
        <time>2016-02-21T12:11:06Z</time>
      </trkpt>
      <trkpt lat="46.78371" lon="12.32961">
        <ele>2450.06</ele>
        <time>2016-02-21T12:11:07Z</time>
      </trkpt>
      <trkpt lat="46.78371" lon="12.3296">
        <ele>2450.54</ele>
        <time>2016-02-21T12:11:08Z</time>
      </trkpt>
      <trkpt lat="46.7837" lon="12.32955">
        <ele>2449.58</ele>
        <time>2016-02-21T12:11:14Z</time>
      </trkpt>
      <trkpt lat="46.7837" lon="12.32954">
        <ele>2451.98</ele>
        <time>2016-02-21T12:11:16Z</time>
      </trkpt>
      <trkpt lat="46.78368" lon="12.32947">
        <ele>2455.34</ele>
        <time>2016-02-21T12:11:25Z</time>
      </trkpt>
      <trkpt lat="46.78365" lon="12.32941">
        <ele>2457.27</ele>
        <time>2016-02-21T12:11:36Z</time>
      </trkpt>
      <trkpt lat="46.7836" lon="12.32936">
        <ele>2457.27</ele>
        <time>2016-02-21T12:11:48Z</time>
      </trkpt>
      <trkpt lat="46.78358" lon="12.32935">
        <ele>2457.27</ele>
        <time>2016-02-21T12:11:53Z</time>
      </trkpt>
      <trkpt lat="46.78355" lon="12.32931">
        <ele>2460.63</ele>
        <time>2016-02-21T12:12:01Z</time>
      </trkpt>
      <trkpt lat="46.78355" lon="12.32931">
        <ele>2460.63</ele>
        <time>2016-02-21T12:12:02Z</time>
      </trkpt>
      <trkpt lat="46.78352" lon="12.32927">
        <ele>2457.27</ele>
        <time>2016-02-21T12:12:12Z</time>
      </trkpt>
      <trkpt lat="46.7835" lon="12.32922">
        <ele>2459.67</ele>
        <time>2016-02-21T12:12:23Z</time>
      </trkpt>
      <trkpt lat="46.78349" lon="12.32914">
        <ele>2460.15</ele>
        <time>2016-02-21T12:12:40Z</time>
      </trkpt>
      <trkpt lat="46.7835" lon="12.32914">
        <ele>2463.52</ele>
        <time>2016-02-21T12:12:43Z</time>
      </trkpt>
      <trkpt lat="46.78351" lon="12.32914">
        <ele>2460.63</ele>
        <time>2016-02-21T12:12:46Z</time>
      </trkpt>
      <trkpt lat="46.78347" lon="12.32907">
        <ele>2461.59</ele>
        <time>2016-02-21T12:13:00Z</time>
      </trkpt>
      <trkpt lat="46.78346" lon="12.32906">
        <ele>2464</ele>
        <time>2016-02-21T12:13:03Z</time>
      </trkpt>
      <trkpt lat="46.78344" lon="12.32904">
        <ele>2464.48</ele>
        <time>2016-02-21T12:13:09Z</time>
      </trkpt>
      <trkpt lat="46.7834" lon="12.32899">
        <ele>2468.8</ele>
        <time>2016-02-21T12:13:20Z</time>
      </trkpt>
      <trkpt lat="46.7834" lon="12.32899">
        <ele>2467.84</ele>
        <time>2016-02-21T12:13:21Z</time>
      </trkpt>
      <trkpt lat="46.78339" lon="12.32896">
        <ele>2463.04</ele>
        <time>2016-02-21T12:13:25Z</time>
      </trkpt>
      <trkpt lat="46.78339" lon="12.32896">
        <ele>2463.52</ele>
        <time>2016-02-21T12:13:26Z</time>
      </trkpt>
      <trkpt lat="46.78337" lon="12.32887">
        <ele>2466.4</ele>
        <time>2016-02-21T12:13:41Z</time>
      </trkpt>
      <trkpt lat="46.78336" lon="12.32886">
        <ele>2463.04</ele>
        <time>2016-02-21T12:13:44Z</time>
      </trkpt>
      <trkpt lat="46.78334" lon="12.3288">
        <ele>2466.4</ele>
        <time>2016-02-21T12:13:57Z</time>
      </trkpt>
      <trkpt lat="46.78334" lon="12.3288">
        <ele>2466.4</ele>
        <time>2016-02-21T12:13:58Z</time>
      </trkpt>
      <trkpt lat="46.78333" lon="12.32876">
        <ele>2469.76</ele>
        <time>2016-02-21T12:14:04Z</time>
      </trkpt>
      <trkpt lat="46.78332" lon="12.32876">
        <ele>2470.24</ele>
        <time>2016-02-21T12:14:06Z</time>
      </trkpt>
      <trkpt lat="46.78331" lon="12.32876">
        <ele>2473.61</ele>
        <time>2016-02-21T12:14:08Z</time>
      </trkpt>
      <trkpt lat="46.7833" lon="12.32876">
        <ele>2478.42</ele>
        <time>2016-02-21T12:14:10Z</time>
      </trkpt>
      <trkpt lat="46.7833" lon="12.32875">
        <ele>2472.65</ele>
        <time>2016-02-21T12:14:12Z</time>
      </trkpt>
      <trkpt lat="46.78329" lon="12.32872">
        <ele>2476.49</ele>
        <time>2016-02-21T12:14:17Z</time>
      </trkpt>
      <trkpt lat="46.78329" lon="12.32872">
        <ele>2473.61</ele>
        <time>2016-02-21T12:14:20Z</time>
      </trkpt>
      <trkpt lat="46.78326" lon="12.32867">
        <ele>2477.45</ele>
        <time>2016-02-21T12:14:28Z</time>
      </trkpt>
      <trkpt lat="46.78326" lon="12.32867">
        <ele>2472.65</ele>
        <time>2016-02-21T12:14:29Z</time>
      </trkpt>
      <trkpt lat="46.78326" lon="12.32867">
        <ele>2473.13</ele>
        <time>2016-02-21T12:14:30Z</time>
      </trkpt>
      <trkpt lat="46.78325" lon="12.32867">
        <ele>2476.01</ele>
        <time>2016-02-21T12:14:32Z</time>
      </trkpt>
      <trkpt lat="46.78326" lon="12.32866">
        <ele>2472.17</ele>
        <time>2016-02-21T12:14:34Z</time>
      </trkpt>
      <trkpt lat="46.78326" lon="12.32865">
        <ele>2472.65</ele>
        <time>2016-02-21T12:14:35Z</time>
      </trkpt>
      <trkpt lat="46.78325" lon="12.32864">
        <ele>2476.97</ele>
        <time>2016-02-21T12:14:37Z</time>
      </trkpt>
      <trkpt lat="46.78325" lon="12.32864">
        <ele>2476.97</ele>
        <time>2016-02-21T12:14:38Z</time>
      </trkpt>
      <trkpt lat="46.78324" lon="12.32863">
        <ele>2475.05</ele>
        <time>2016-02-21T12:14:41Z</time>
      </trkpt>
      <trkpt lat="46.78323" lon="12.32862">
        <ele>2478.9</ele>
        <time>2016-02-21T12:14:44Z</time>
      </trkpt>
      <trkpt lat="46.78323" lon="12.32862">
        <ele>2475.05</ele>
        <time>2016-02-21T12:14:45Z</time>
      </trkpt>
      <trkpt lat="46.78322" lon="12.3286">
        <ele>2478.42</ele>
        <time>2016-02-21T12:14:48Z</time>
      </trkpt>
      <trkpt lat="46.78321" lon="12.3286">
        <ele>2482.26</ele>
        <time>2016-02-21T12:14:49Z</time>
      </trkpt>
      <trkpt lat="46.7832" lon="12.3286">
        <ele>2473.61</ele>
        <time>2016-02-21T12:14:52Z</time>
      </trkpt>
      <trkpt lat="46.7832" lon="12.3286">
        <ele>2470.24</ele>
        <time>2016-02-21T12:14:53Z</time>
      </trkpt>
      <trkpt lat="46.78319" lon="12.32859">
        <ele>2471.21</ele>
        <time>2016-02-21T12:14:57Z</time>
      </trkpt>
      <trkpt lat="46.78317" lon="12.32858">
        <ele>2474.57</ele>
        <time>2016-02-21T12:15:01Z</time>
      </trkpt>
      <trkpt lat="46.78315" lon="12.32858">
        <ele>2479.38</ele>
        <time>2016-02-21T12:15:02Z</time>
      </trkpt>
      <trkpt lat="46.78315" lon="12.32858">
        <ele>2482.74</ele>
        <time>2016-02-21T12:15:03Z</time>
      </trkpt>
      <trkpt lat="46.78314" lon="12.32857">
        <ele>2479.86</ele>
        <time>2016-02-21T12:15:04Z</time>
      </trkpt>
      <trkpt lat="46.78313" lon="12.32856">
        <ele>2477.45</ele>
        <time>2016-02-21T12:15:06Z</time>
      </trkpt>
      <trkpt lat="46.78314" lon="12.32856">
        <ele>2470.73</ele>
        <time>2016-02-21T12:15:07Z</time>
      </trkpt>
      <trkpt lat="46.78314" lon="12.32856">
        <ele>2467.36</ele>
        <time>2016-02-21T12:15:08Z</time>
      </trkpt>
      <trkpt lat="46.78314" lon="12.32854">
        <ele>2477.45</ele>
        <time>2016-02-21T12:15:11Z</time>
      </trkpt>
      <trkpt lat="46.78314" lon="12.32854">
        <ele>2473.61</ele>
        <time>2016-02-21T12:15:12Z</time>
      </trkpt>
      <trkpt lat="46.78314" lon="12.32853">
        <ele>2477.94</ele>
        <time>2016-02-21T12:15:13Z</time>
      </trkpt>
      <trkpt lat="46.78314" lon="12.32853">
        <ele>2482.74</ele>
        <time>2016-02-21T12:15:14Z</time>
      </trkpt>
      <trkpt lat="46.78314" lon="12.32852">
        <ele>2475.53</ele>
        <time>2016-02-21T12:15:15Z</time>
      </trkpt>
      <trkpt lat="46.78312" lon="12.32851">
        <ele>2473.61</ele>
        <time>2016-02-21T12:15:19Z</time>
      </trkpt>
      <trkpt lat="46.78312" lon="12.3285">
        <ele>2478.42</ele>
        <time>2016-02-21T12:15:21Z</time>
      </trkpt>
      <trkpt lat="46.78312" lon="12.3285">
        <ele>2474.57</ele>
        <time>2016-02-21T12:15:22Z</time>
      </trkpt>
      <trkpt lat="46.78312" lon="12.32851">
        <ele>2470.73</ele>
        <time>2016-02-21T12:15:25Z</time>
      </trkpt>
      <trkpt lat="46.78312" lon="12.32851">
        <ele>2475.53</ele>
        <time>2016-02-21T12:15:26Z</time>
      </trkpt>
      <trkpt lat="46.78312" lon="12.3285">
        <ele>2477.45</ele>
        <time>2016-02-21T12:15:28Z</time>
      </trkpt>
      <trkpt lat="46.78312" lon="12.32849">
        <ele>2472.65</ele>
        <time>2016-02-21T12:15:30Z</time>
      </trkpt>
      <trkpt lat="46.78311" lon="12.32849">
        <ele>2467.36</ele>
        <time>2016-02-21T12:15:32Z</time>
      </trkpt>
      <trkpt lat="46.78311" lon="12.32847">
        <ele>2474.09</ele>
        <time>2016-02-21T12:15:39Z</time>
      </trkpt>
      <trkpt lat="46.7831" lon="12.32845">
        <ele>2477.94</ele>
        <time>2016-02-21T12:15:42Z</time>
      </trkpt>
      <trkpt lat="46.7831" lon="12.32845">
        <ele>2474.57</ele>
        <time>2016-02-21T12:15:43Z</time>
      </trkpt>
      <trkpt lat="46.7831" lon="12.32845">
        <ele>2478.9</ele>
        <time>2016-02-21T12:15:44Z</time>
      </trkpt>
      <trkpt lat="46.7831" lon="12.32844">
        <ele>2475.05</ele>
        <time>2016-02-21T12:15:46Z</time>
      </trkpt>
      <trkpt lat="46.7831" lon="12.32842">
        <ele>2471.69</ele>
        <time>2016-02-21T12:15:52Z</time>
      </trkpt>
      <trkpt lat="46.7831" lon="12.32841">
        <ele>2468.32</ele>
        <time>2016-02-21T12:15:55Z</time>
      </trkpt>
      <trkpt lat="46.7831" lon="12.32841">
        <ele>2470.73</ele>
        <time>2016-02-21T12:15:56Z</time>
      </trkpt>
      <trkpt lat="46.7831" lon="12.3284">
        <ele>2466.88</ele>
        <time>2016-02-21T12:15:58Z</time>
      </trkpt>
      <trkpt lat="46.7831" lon="12.3284">
        <ele>2471.69</ele>
        <time>2016-02-21T12:15:59Z</time>
      </trkpt>
      <trkpt lat="46.7831" lon="12.32835">
        <ele>2470.24</ele>
        <time>2016-02-21T12:16:11Z</time>
      </trkpt>
      <trkpt lat="46.78309" lon="12.32835">
        <ele>2473.61</ele>
        <time>2016-02-21T12:16:14Z</time>
      </trkpt>
      <trkpt lat="46.78309" lon="12.32833">
        <ele>2472.65</ele>
        <time>2016-02-21T12:16:18Z</time>
      </trkpt>
      <trkpt lat="46.78308" lon="12.32831">
        <ele>2470.73</ele>
        <time>2016-02-21T12:16:24Z</time>
      </trkpt>
      <trkpt lat="46.78306" lon="12.32829">
        <ele>2475.53</ele>
        <time>2016-02-21T12:16:29Z</time>
      </trkpt>
      <trkpt lat="46.78304" lon="12.32828">
        <ele>2476.49</ele>
        <time>2016-02-21T12:16:33Z</time>
      </trkpt>
      <trkpt lat="46.78304" lon="12.32827">
        <ele>2472.17</ele>
        <time>2016-02-21T12:16:37Z</time>
      </trkpt>
      <trkpt lat="46.78304" lon="12.32827">
        <ele>2473.13</ele>
        <time>2016-02-21T12:16:38Z</time>
      </trkpt>
      <trkpt lat="46.78303" lon="12.32825">
        <ele>2476.49</ele>
        <time>2016-02-21T12:16:43Z</time>
      </trkpt>
      <trkpt lat="46.78304" lon="12.32825">
        <ele>2471.21</ele>
        <time>2016-02-21T12:16:44Z</time>
      </trkpt>
      <trkpt lat="46.78304" lon="12.32825">
        <ele>2471.69</ele>
        <time>2016-02-21T12:16:45Z</time>
      </trkpt>
      <trkpt lat="46.78304" lon="12.32824">
        <ele>2476.01</ele>
        <time>2016-02-21T12:16:46Z</time>
      </trkpt>
      <trkpt lat="46.78303" lon="12.32824">
        <ele>2476.49</ele>
        <time>2016-02-21T12:16:47Z</time>
      </trkpt>
      <trkpt lat="46.78303" lon="12.32822">
        <ele>2479.86</ele>
        <time>2016-02-21T12:16:52Z</time>
      </trkpt>
      <trkpt lat="46.78303" lon="12.32822">
        <ele>2482.74</ele>
        <time>2016-02-21T12:16:54Z</time>
      </trkpt>
      <trkpt lat="46.78301" lon="12.32822">
        <ele>2483.7</ele>
        <time>2016-02-21T12:17:01Z</time>
      </trkpt>
      <trkpt lat="46.783" lon="12.32822">
        <ele>2487.55</ele>
        <time>2016-02-21T12:17:03Z</time>
      </trkpt>
      <trkpt lat="46.783" lon="12.32822">
        <ele>2487.55</ele>
        <time>2016-02-21T12:17:04Z</time>
      </trkpt>
      <trkpt lat="46.783" lon="12.32823">
        <ele>2486.11</ele>
        <time>2016-02-21T12:17:06Z</time>
      </trkpt>
      <trkpt lat="46.78299" lon="12.32823">
        <ele>2489.95</ele>
        <time>2016-02-21T12:17:08Z</time>
      </trkpt>
      <trkpt lat="46.78299" lon="12.32823">
        <ele>2494.28</ele>
        <time>2016-02-21T12:17:10Z</time>
      </trkpt>
      <trkpt lat="46.78298" lon="12.32822">
        <ele>2488.99</ele>
        <time>2016-02-21T12:17:12Z</time>
      </trkpt>
      <trkpt lat="46.78298" lon="12.32822">
        <ele>2484.66</ele>
        <time>2016-02-21T12:17:15Z</time>
      </trkpt>
      <trkpt lat="46.78298" lon="12.32822">
        <ele>2492.36</ele>
        <time>2016-02-21T12:17:16Z</time>
      </trkpt>
      <trkpt lat="46.783" lon="12.32819">
        <ele>2485.63</ele>
        <time>2016-02-21T12:17:29Z</time>
      </trkpt>
      <trkpt lat="46.783" lon="12.32819">
        <ele>2485.63</ele>
        <time>2016-02-21T12:17:30Z</time>
      </trkpt>
      <trkpt lat="46.78301" lon="12.3282">
        <ele>2484.18</ele>
        <time>2016-02-21T12:17:32Z</time>
      </trkpt>
      <trkpt lat="46.78301" lon="12.3282">
        <ele>2481.3</ele>
        <time>2016-02-21T12:17:35Z</time>
      </trkpt>
      <trkpt lat="46.78301" lon="12.32819">
        <ele>2480.82</ele>
        <time>2016-02-21T12:17:36Z</time>
      </trkpt>
      <trkpt lat="46.783" lon="12.3282">
        <ele>2485.15</ele>
        <time>2016-02-21T12:17:39Z</time>
      </trkpt>
      <trkpt lat="46.78301" lon="12.32821">
        <ele>2485.63</ele>
        <time>2016-02-21T12:17:41Z</time>
      </trkpt>
      <trkpt lat="46.78301" lon="12.32821">
        <ele>2488.03</ele>
        <time>2016-02-21T12:17:44Z</time>
      </trkpt>
      <trkpt lat="46.78301" lon="12.3282">
        <ele>2492.84</ele>
        <time>2016-02-21T12:17:47Z</time>
      </trkpt>
      <trkpt lat="46.78301" lon="12.32819">
        <ele>2492.84</ele>
        <time>2016-02-21T12:17:48Z</time>
      </trkpt>
      <trkpt lat="46.783" lon="12.32819">
        <ele>2490.91</ele>
        <time>2016-02-21T12:17:49Z</time>
      </trkpt>
      <trkpt lat="46.78298" lon="12.32819">
        <ele>2487.55</ele>
        <time>2016-02-21T12:17:51Z</time>
      </trkpt>
      <trkpt lat="46.78297" lon="12.32819">
        <ele>2491.39</ele>
        <time>2016-02-21T12:17:52Z</time>
      </trkpt>
      <trkpt lat="46.78296" lon="12.32819">
        <ele>2487.07</ele>
        <time>2016-02-21T12:17:53Z</time>
      </trkpt>
      <trkpt lat="46.78294" lon="12.32818">
        <ele>2481.78</ele>
        <time>2016-02-21T12:17:59Z</time>
      </trkpt>
      <trkpt lat="46.78294" lon="12.32816">
        <ele>2477.94</ele>
        <time>2016-02-21T12:18:02Z</time>
      </trkpt>
      <trkpt lat="46.78295" lon="12.32813">
        <ele>2481.78</ele>
        <time>2016-02-21T12:18:12Z</time>
      </trkpt>
      <trkpt lat="46.78295" lon="12.32809">
        <ele>2485.63</ele>
        <time>2016-02-21T12:18:19Z</time>
      </trkpt>
      <trkpt lat="46.78294" lon="12.32809">
        <ele>2482.26</ele>
        <time>2016-02-21T12:18:20Z</time>
      </trkpt>
      <trkpt lat="46.78294" lon="12.32808">
        <ele>2487.55</ele>
        <time>2016-02-21T12:18:22Z</time>
      </trkpt>
      <trkpt lat="46.78294" lon="12.32807">
        <ele>2481.3</ele>
        <time>2016-02-21T12:18:23Z</time>
      </trkpt>
      <trkpt lat="46.78293" lon="12.32807">
        <ele>2492.84</ele>
        <time>2016-02-21T12:18:25Z</time>
      </trkpt>
      <trkpt lat="46.78293" lon="12.32806">
        <ele>2489.95</ele>
        <time>2016-02-21T12:18:26Z</time>
      </trkpt>
      <trkpt lat="46.78292" lon="12.32806">
        <ele>2498.6</ele>
        <time>2016-02-21T12:18:27Z</time>
      </trkpt>
      <trkpt lat="46.78292" lon="12.32806">
        <ele>2494.76</ele>
        <time>2016-02-21T12:18:28Z</time>
      </trkpt>
      <trkpt lat="46.78292" lon="12.32806">
        <ele>2500.53</ele>
        <time>2016-02-21T12:18:29Z</time>
      </trkpt>
      <trkpt lat="46.78291" lon="12.32807">
        <ele>2504.37</ele>
        <time>2016-02-21T12:18:30Z</time>
      </trkpt>
      <trkpt lat="46.78291" lon="12.32807">
        <ele>2496.68</ele>
        <time>2016-02-21T12:18:31Z</time>
      </trkpt>
      <trkpt lat="46.78291" lon="12.32807">
        <ele>2498.6</ele>
        <time>2016-02-21T12:18:32Z</time>
      </trkpt>
      <trkpt lat="46.7829" lon="12.32808">
        <ele>2495.72</ele>
        <time>2016-02-21T12:18:36Z</time>
      </trkpt>
      <trkpt lat="46.7829" lon="12.32809">
        <ele>2491.39</ele>
        <time>2016-02-21T12:18:38Z</time>
      </trkpt>
      <trkpt lat="46.78289" lon="12.32809">
        <ele>2492.36</ele>
        <time>2016-02-21T12:18:39Z</time>
      </trkpt>
      <trkpt lat="46.78289" lon="12.32808">
        <ele>2486.11</ele>
        <time>2016-02-21T12:18:42Z</time>
      </trkpt>
      <trkpt lat="46.78288" lon="12.32806">
        <ele>2482.74</ele>
        <time>2016-02-21T12:18:46Z</time>
      </trkpt>
      <trkpt lat="46.78288" lon="12.32806">
        <ele>2486.11</ele>
        <time>2016-02-21T12:18:47Z</time>
      </trkpt>
      <trkpt lat="46.78288" lon="12.32805">
        <ele>2482.74</ele>
        <time>2016-02-21T12:18:50Z</time>
      </trkpt>
      <trkpt lat="46.78288" lon="12.32804">
        <ele>2486.11</ele>
        <time>2016-02-21T12:18:51Z</time>
      </trkpt>
      <trkpt lat="46.78288" lon="12.32802">
        <ele>2483.22</ele>
        <time>2016-02-21T12:18:57Z</time>
      </trkpt>
      <trkpt lat="46.78288" lon="12.32801">
        <ele>2487.55</ele>
        <time>2016-02-21T12:18:59Z</time>
      </trkpt>
      <trkpt lat="46.78289" lon="12.32801">
        <ele>2490.43</ele>
        <time>2016-02-21T12:19:00Z</time>
      </trkpt>
      <trkpt lat="46.78289" lon="12.32801">
        <ele>2490.43</ele>
        <time>2016-02-21T12:19:01Z</time>
      </trkpt>
      <trkpt lat="46.78289" lon="12.32801">
        <ele>2486.11</ele>
        <time>2016-02-21T12:19:03Z</time>
      </trkpt>
      <trkpt lat="46.78289" lon="12.328">
        <ele>2486.11</ele>
        <time>2016-02-21T12:19:04Z</time>
      </trkpt>
      <trkpt lat="46.78289" lon="12.32799">
        <ele>2488.03</ele>
        <time>2016-02-21T12:19:06Z</time>
      </trkpt>
      <trkpt lat="46.78289" lon="12.32799">
        <ele>2483.7</ele>
        <time>2016-02-21T12:19:08Z</time>
      </trkpt>
      <trkpt lat="46.78289" lon="12.32798">
        <ele>2490.43</ele>
        <time>2016-02-21T12:19:09Z</time>
      </trkpt>
      <trkpt lat="46.78289" lon="12.32798">
        <ele>2486.59</ele>
        <time>2016-02-21T12:19:10Z</time>
      </trkpt>
      <trkpt lat="46.78289" lon="12.32796">
        <ele>2488.51</ele>
        <time>2016-02-21T12:19:14Z</time>
      </trkpt>
      <trkpt lat="46.78288" lon="12.32796">
        <ele>2491.87</ele>
        <time>2016-02-21T12:19:15Z</time>
      </trkpt>
      <trkpt lat="46.78287" lon="12.32795">
        <ele>2494.76</ele>
        <time>2016-02-21T12:19:20Z</time>
      </trkpt>
      <trkpt lat="46.78286" lon="12.32794">
        <ele>2495.24</ele>
        <time>2016-02-21T12:19:24Z</time>
      </trkpt>
      <trkpt lat="46.78286" lon="12.32794">
        <ele>2491.39</ele>
        <time>2016-02-21T12:19:25Z</time>
      </trkpt>
      <trkpt lat="46.78286" lon="12.32793">
        <ele>2491.87</ele>
        <time>2016-02-21T12:19:26Z</time>
      </trkpt>
      <trkpt lat="46.78286" lon="12.3279">
        <ele>2490.43</ele>
        <time>2016-02-21T12:19:31Z</time>
      </trkpt>
      <trkpt lat="46.78287" lon="12.3279">
        <ele>2486.11</ele>
        <time>2016-02-21T12:19:32Z</time>
      </trkpt>
      <trkpt lat="46.78287" lon="12.32789">
        <ele>2489.95</ele>
        <time>2016-02-21T12:19:33Z</time>
      </trkpt>
      <trkpt lat="46.78287" lon="12.32788">
        <ele>2493.32</ele>
        <time>2016-02-21T12:19:35Z</time>
      </trkpt>
      <trkpt lat="46.78287" lon="12.32788">
        <ele>2494.76</ele>
        <time>2016-02-21T12:19:37Z</time>
      </trkpt>
      <trkpt lat="46.78287" lon="12.32786">
        <ele>2495.72</ele>
        <time>2016-02-21T12:19:41Z</time>
      </trkpt>
      <trkpt lat="46.78287" lon="12.32786">
        <ele>2492.84</ele>
        <time>2016-02-21T12:19:43Z</time>
      </trkpt>
      <trkpt lat="46.78287" lon="12.32785">
        <ele>2497.16</ele>
        <time>2016-02-21T12:19:45Z</time>
      </trkpt>
      <trkpt lat="46.78287" lon="12.32785">
        <ele>2496.68</ele>
        <time>2016-02-21T12:19:46Z</time>
      </trkpt>
      <trkpt lat="46.78287" lon="12.32785">
        <ele>2493.32</ele>
        <time>2016-02-21T12:19:47Z</time>
      </trkpt>
      <trkpt lat="46.78287" lon="12.32785">
        <ele>2494.76</ele>
        <time>2016-02-21T12:19:48Z</time>
      </trkpt>
      <trkpt lat="46.78287" lon="12.32784">
        <ele>2494.28</ele>
        <time>2016-02-21T12:19:53Z</time>
      </trkpt>
      <trkpt lat="46.78286" lon="12.32783">
        <ele>2498.12</ele>
        <time>2016-02-21T12:19:58Z</time>
      </trkpt>
      <trkpt lat="46.78286" lon="12.32782">
        <ele>2499.57</ele>
        <time>2016-02-21T12:20:00Z</time>
      </trkpt>
      <trkpt lat="46.78286" lon="12.32781">
        <ele>2496.2</ele>
        <time>2016-02-21T12:20:03Z</time>
      </trkpt>
      <trkpt lat="46.78286" lon="12.32781">
        <ele>2499.57</ele>
        <time>2016-02-21T12:20:04Z</time>
      </trkpt>
      <trkpt lat="46.78286" lon="12.32781">
        <ele>2500.05</ele>
        <time>2016-02-21T12:20:05Z</time>
      </trkpt>
      <trkpt lat="46.78281" lon="12.32778">
        <ele>2501.49</ele>
        <time>2016-02-21T12:20:15Z</time>
      </trkpt>
      <trkpt lat="46.78281" lon="12.32778">
        <ele>2499.08</ele>
        <time>2016-02-21T12:20:18Z</time>
      </trkpt>
      <trkpt lat="46.78281" lon="12.32772">
        <ele>2500.05</ele>
        <time>2016-02-21T12:20:31Z</time>
      </trkpt>
      <trkpt lat="46.78281" lon="12.32772">
        <ele>2503.41</ele>
        <time>2016-02-21T12:20:33Z</time>
      </trkpt>
      <trkpt lat="46.78279" lon="12.32766">
        <ele>2502.93</ele>
        <time>2016-02-21T12:20:45Z</time>
      </trkpt>
      <trkpt lat="46.78278" lon="12.32764">
        <ele>2502.45</ele>
        <time>2016-02-21T12:20:50Z</time>
      </trkpt>
      <trkpt lat="46.78278" lon="12.32763">
        <ele>2500.05</ele>
        <time>2016-02-21T12:20:56Z</time>
      </trkpt>
      <trkpt lat="46.78279" lon="12.32763">
        <ele>2496.2</ele>
        <time>2016-02-21T12:21:01Z</time>
      </trkpt>
      <trkpt lat="46.78279" lon="12.32763">
        <ele>2497.16</ele>
        <time>2016-02-21T12:21:02Z</time>
      </trkpt>
      <trkpt lat="46.78279" lon="12.32763">
        <ele>2500.53</ele>
        <time>2016-02-21T12:21:03Z</time>
      </trkpt>
      <trkpt lat="46.78278" lon="12.32763">
        <ele>2500.53</ele>
        <time>2016-02-21T12:21:04Z</time>
      </trkpt>
      <trkpt lat="46.78278" lon="12.32764">
        <ele>2503.89</ele>
        <time>2016-02-21T12:21:07Z</time>
      </trkpt>
      <trkpt lat="46.78278" lon="12.32764">
        <ele>2504.37</ele>
        <time>2016-02-21T12:21:08Z</time>
      </trkpt>
      <trkpt lat="46.7828" lon="12.32765">
        <ele>2501.49</ele>
        <time>2016-02-21T12:21:20Z</time>
      </trkpt>
      <trkpt lat="46.78279" lon="12.32765">
        <ele>2505.33</ele>
        <time>2016-02-21T12:21:26Z</time>
      </trkpt>
      <trkpt lat="46.78279" lon="12.32765">
        <ele>2500.05</ele>
        <time>2016-02-21T12:21:30Z</time>
      </trkpt>
      <trkpt lat="46.78279" lon="12.32765">
        <ele>2501.49</ele>
        <time>2016-02-21T12:21:31Z</time>
      </trkpt>
      <trkpt lat="46.78277" lon="12.32761">
        <ele>2499.08</ele>
        <time>2016-02-21T12:21:38Z</time>
      </trkpt>
      <trkpt lat="46.78277" lon="12.3276">
        <ele>2502.45</ele>
        <time>2016-02-21T12:21:40Z</time>
      </trkpt>
      <trkpt lat="46.78277" lon="12.3276">
        <ele>2501.49</ele>
        <time>2016-02-21T12:21:41Z</time>
      </trkpt>
      <trkpt lat="46.78277" lon="12.32759">
        <ele>2494.28</ele>
        <time>2016-02-21T12:21:42Z</time>
      </trkpt>
      <trkpt lat="46.78277" lon="12.32759">
        <ele>2499.57</ele>
        <time>2016-02-21T12:21:43Z</time>
      </trkpt>
      <trkpt lat="46.78275" lon="12.32755">
        <ele>2502.45</ele>
        <time>2016-02-21T12:21:50Z</time>
      </trkpt>
      <trkpt lat="46.78273" lon="12.32753">
        <ele>2503.89</ele>
        <time>2016-02-21T12:21:54Z</time>
      </trkpt>
      <trkpt lat="46.78272" lon="12.32751">
        <ele>2501.97</ele>
        <time>2016-02-21T12:22:00Z</time>
      </trkpt>
      <trkpt lat="46.78271" lon="12.3275">
        <ele>2505.81</ele>
        <time>2016-02-21T12:22:03Z</time>
      </trkpt>
      <trkpt lat="46.78271" lon="12.3275">
        <ele>2499.57</ele>
        <time>2016-02-21T12:22:04Z</time>
      </trkpt>
      <trkpt lat="46.78271" lon="12.32749">
        <ele>2494.76</ele>
        <time>2016-02-21T12:22:06Z</time>
      </trkpt>
      <trkpt lat="46.78271" lon="12.32749">
        <ele>2501.97</ele>
        <time>2016-02-21T12:22:07Z</time>
      </trkpt>
      <trkpt lat="46.78271" lon="12.32749">
        <ele>2500.05</ele>
        <time>2016-02-21T12:22:08Z</time>
      </trkpt>
      <trkpt lat="46.7827" lon="12.32748">
        <ele>2504.37</ele>
        <time>2016-02-21T12:22:09Z</time>
      </trkpt>
      <trkpt lat="46.7827" lon="12.32747">
        <ele>2498.12</ele>
        <time>2016-02-21T12:22:11Z</time>
      </trkpt>
      <trkpt lat="46.78269" lon="12.32747">
        <ele>2504.85</ele>
        <time>2016-02-21T12:22:12Z</time>
      </trkpt>
      <trkpt lat="46.78267" lon="12.32746">
        <ele>2500.53</ele>
        <time>2016-02-21T12:22:16Z</time>
      </trkpt>
      <trkpt lat="46.78267" lon="12.32746">
        <ele>2507.26</ele>
        <time>2016-02-21T12:22:17Z</time>
      </trkpt>
      <trkpt lat="46.78266" lon="12.32746">
        <ele>2510.62</ele>
        <time>2016-02-21T12:22:20Z</time>
      </trkpt>
      <trkpt lat="46.78265" lon="12.32747">
        <ele>2518.79</ele>
        <time>2016-02-21T12:22:22Z</time>
      </trkpt>
      <trkpt lat="46.78265" lon="12.32747">
        <ele>2516.39</ele>
        <time>2016-02-21T12:22:23Z</time>
      </trkpt>
      <trkpt lat="46.78265" lon="12.32748">
        <ele>2519.75</ele>
        <time>2016-02-21T12:22:25Z</time>
      </trkpt>
      <trkpt lat="46.78264" lon="12.32748">
        <ele>2521.19</ele>
        <time>2016-02-21T12:22:27Z</time>
      </trkpt>
      <trkpt lat="46.78264" lon="12.32748">
        <ele>2529.37</ele>
        <time>2016-02-21T12:22:29Z</time>
      </trkpt>
      <trkpt lat="46.78263" lon="12.32748">
        <ele>2523.12</ele>
        <time>2016-02-21T12:22:32Z</time>
      </trkpt>
      <trkpt lat="46.78263" lon="12.32748">
        <ele>2512.54</ele>
        <time>2016-02-21T12:22:33Z</time>
      </trkpt>
      <trkpt lat="46.78262" lon="12.32748">
        <ele>2515.91</ele>
        <time>2016-02-21T12:22:34Z</time>
      </trkpt>
      <trkpt lat="46.78262" lon="12.32748">
        <ele>2523.12</ele>
        <time>2016-02-21T12:22:35Z</time>
      </trkpt>
      <trkpt lat="46.78262" lon="12.32748">
        <ele>2522.64</ele>
        <time>2016-02-21T12:22:36Z</time>
      </trkpt>
      <trkpt lat="46.78261" lon="12.32748">
        <ele>2519.27</ele>
        <time>2016-02-21T12:22:39Z</time>
      </trkpt>
      <trkpt lat="46.7826" lon="12.32748">
        <ele>2513.98</ele>
        <time>2016-02-21T12:22:44Z</time>
      </trkpt>
      <trkpt lat="46.7826" lon="12.32747">
        <ele>2508.22</ele>
        <time>2016-02-21T12:22:45Z</time>
      </trkpt>
      <trkpt lat="46.7826" lon="12.32746">
        <ele>2502.45</ele>
        <time>2016-02-21T12:22:47Z</time>
      </trkpt>
      <trkpt lat="46.7826" lon="12.32745">
        <ele>2504.37</ele>
        <time>2016-02-21T12:22:48Z</time>
      </trkpt>
      <trkpt lat="46.78261" lon="12.32744">
        <ele>2505.81</ele>
        <time>2016-02-21T12:22:52Z</time>
      </trkpt>
      <trkpt lat="46.78261" lon="12.32742">
        <ele>2501.97</ele>
        <time>2016-02-21T12:22:57Z</time>
      </trkpt>
      <trkpt lat="46.78259" lon="12.3274">
        <ele>2506.77</ele>
        <time>2016-02-21T12:23:01Z</time>
      </trkpt>
      <trkpt lat="46.78259" lon="12.3274">
        <ele>2505.81</ele>
        <time>2016-02-21T12:23:02Z</time>
      </trkpt>
      <trkpt lat="46.78259" lon="12.3274">
        <ele>2501.01</ele>
        <time>2016-02-21T12:23:03Z</time>
      </trkpt>
      <trkpt lat="46.78258" lon="12.3274">
        <ele>2508.7</ele>
        <time>2016-02-21T12:23:04Z</time>
      </trkpt>
      <trkpt lat="46.78258" lon="12.3274">
        <ele>2513.5</ele>
        <time>2016-02-21T12:23:05Z</time>
      </trkpt>
      <trkpt lat="46.78257" lon="12.32741">
        <ele>2519.27</ele>
        <time>2016-02-21T12:23:08Z</time>
      </trkpt>
      <trkpt lat="46.78256" lon="12.32742">
        <ele>2524.08</ele>
        <time>2016-02-21T12:23:10Z</time>
      </trkpt>
      <trkpt lat="46.78256" lon="12.32742">
        <ele>2520.23</ele>
        <time>2016-02-21T12:23:11Z</time>
      </trkpt>
      <trkpt lat="46.78255" lon="12.32743">
        <ele>2516.39</ele>
        <time>2016-02-21T12:23:14Z</time>
      </trkpt>
      <trkpt lat="46.78255" lon="12.32743">
        <ele>2523.6</ele>
        <time>2016-02-21T12:23:16Z</time>
      </trkpt>
      <trkpt lat="46.78254" lon="12.32743">
        <ele>2523.6</ele>
        <time>2016-02-21T12:23:17Z</time>
      </trkpt>
      <trkpt lat="46.78254" lon="12.32744">
        <ele>2518.79</ele>
        <time>2016-02-21T12:23:19Z</time>
      </trkpt>
      <trkpt lat="46.78254" lon="12.32744">
        <ele>2514.95</ele>
        <time>2016-02-21T12:23:21Z</time>
      </trkpt>
      <trkpt lat="46.78253" lon="12.32744">
        <ele>2511.58</ele>
        <time>2016-02-21T12:23:22Z</time>
      </trkpt>
      <trkpt lat="46.78252" lon="12.32743">
        <ele>2514.95</ele>
        <time>2016-02-21T12:23:23Z</time>
      </trkpt>
      <trkpt lat="46.78252" lon="12.32743">
        <ele>2511.1</ele>
        <time>2016-02-21T12:23:24Z</time>
      </trkpt>
      <trkpt lat="46.78251" lon="12.32743">
        <ele>2510.62</ele>
        <time>2016-02-21T12:23:26Z</time>
      </trkpt>
      <trkpt lat="46.78251" lon="12.32742">
        <ele>2513.5</ele>
        <time>2016-02-21T12:23:28Z</time>
      </trkpt>
      <trkpt lat="46.78252" lon="12.3274">
        <ele>2517.35</ele>
        <time>2016-02-21T12:23:31Z</time>
      </trkpt>
      <trkpt lat="46.78251" lon="12.32739">
        <ele>2518.31</ele>
        <time>2016-02-21T12:23:33Z</time>
      </trkpt>
      <trkpt lat="46.78251" lon="12.32738">
        <ele>2516.87</ele>
        <time>2016-02-21T12:23:35Z</time>
      </trkpt>
      <trkpt lat="46.7825" lon="12.32737">
        <ele>2513.5</ele>
        <time>2016-02-21T12:23:37Z</time>
      </trkpt>
      <trkpt lat="46.78249" lon="12.32737">
        <ele>2517.35</ele>
        <time>2016-02-21T12:23:41Z</time>
      </trkpt>
      <trkpt lat="46.78248" lon="12.32737">
        <ele>2515.43</ele>
        <time>2016-02-21T12:23:42Z</time>
      </trkpt>
      <trkpt lat="46.78242" lon="12.32732">
        <ele>2513.98</ele>
        <time>2016-02-21T12:23:56Z</time>
      </trkpt>
      <trkpt lat="46.78241" lon="12.3273">
        <ele>2515.91</ele>
        <time>2016-02-21T12:24:05Z</time>
      </trkpt>
      <trkpt lat="46.7824" lon="12.32728">
        <ele>2513.02</ele>
        <time>2016-02-21T12:24:12Z</time>
      </trkpt>
      <trkpt lat="46.7824" lon="12.32728">
        <ele>2514.47</ele>
        <time>2016-02-21T12:24:13Z</time>
      </trkpt>
      <trkpt lat="46.78239" lon="12.32727">
        <ele>2510.62</ele>
        <time>2016-02-21T12:24:14Z</time>
      </trkpt>
      <trkpt lat="46.78239" lon="12.32727">
        <ele>2506.29</ele>
        <time>2016-02-21T12:24:15Z</time>
      </trkpt>
      <trkpt lat="46.78239" lon="12.32727">
        <ele>2508.22</ele>
        <time>2016-02-21T12:24:16Z</time>
      </trkpt>
      <trkpt lat="46.7824" lon="12.32725">
        <ele>2506.29</ele>
        <time>2016-02-21T12:24:19Z</time>
      </trkpt>
      <trkpt lat="46.7824" lon="12.32725">
        <ele>2505.33</ele>
        <time>2016-02-21T12:24:21Z</time>
      </trkpt>
      <trkpt lat="46.78239" lon="12.32724">
        <ele>2506.29</ele>
        <time>2016-02-21T12:24:23Z</time>
      </trkpt>
      <trkpt lat="46.78239" lon="12.32722">
        <ele>2510.62</ele>
        <time>2016-02-21T12:24:28Z</time>
      </trkpt>
      <trkpt lat="46.78238" lon="12.32722">
        <ele>2506.29</ele>
        <time>2016-02-21T12:24:29Z</time>
      </trkpt>
      <trkpt lat="46.78237" lon="12.32722">
        <ele>2512.06</ele>
        <time>2016-02-21T12:24:30Z</time>
      </trkpt>
      <trkpt lat="46.78237" lon="12.32722">
        <ele>2517.35</ele>
        <time>2016-02-21T12:24:31Z</time>
      </trkpt>
      <trkpt lat="46.78235" lon="12.32721">
        <ele>2527.44</ele>
        <time>2016-02-21T12:24:34Z</time>
      </trkpt>
      <trkpt lat="46.78235" lon="12.32721">
        <ele>2511.58</ele>
        <time>2016-02-21T12:24:35Z</time>
      </trkpt>
      <trkpt lat="46.78235" lon="12.32721">
        <ele>2507.74</ele>
        <time>2016-02-21T12:24:36Z</time>
      </trkpt>
      <trkpt lat="46.78232" lon="12.3272">
        <ele>2513.02</ele>
        <time>2016-02-21T12:24:42Z</time>
      </trkpt>
      <trkpt lat="46.78232" lon="12.32719">
        <ele>2525.04</ele>
        <time>2016-02-21T12:24:44Z</time>
      </trkpt>
      <trkpt lat="46.78231" lon="12.32719">
        <ele>2533.69</ele>
        <time>2016-02-21T12:24:45Z</time>
      </trkpt>
      <trkpt lat="46.78231" lon="12.32719">
        <ele>2542.82</ele>
        <time>2016-02-21T12:24:46Z</time>
      </trkpt>
      <trkpt lat="46.78231" lon="12.32719">
        <ele>2537.06</ele>
        <time>2016-02-21T12:24:48Z</time>
      </trkpt>
      <trkpt lat="46.78231" lon="12.32719">
        <ele>2528.4</ele>
        <time>2016-02-21T12:24:49Z</time>
      </trkpt>
      <trkpt lat="46.78231" lon="12.32719">
        <ele>2531.29</ele>
        <time>2016-02-21T12:24:50Z</time>
      </trkpt>
      <trkpt lat="46.7823" lon="12.32718">
        <ele>2527.44</ele>
        <time>2016-02-21T12:24:51Z</time>
      </trkpt>
      <trkpt lat="46.7823" lon="12.32718">
        <ele>2515.91</ele>
        <time>2016-02-21T12:24:54Z</time>
      </trkpt>
      <trkpt lat="46.7823" lon="12.32718">
        <ele>2523.6</ele>
        <time>2016-02-21T12:24:55Z</time>
      </trkpt>
      <trkpt lat="46.7823" lon="12.32717">
        <ele>2514.47</ele>
        <time>2016-02-21T12:24:57Z</time>
      </trkpt>
      <trkpt lat="46.7823" lon="12.32716">
        <ele>2516.39</ele>
        <time>2016-02-21T12:24:58Z</time>
      </trkpt>
      <trkpt lat="46.78229" lon="12.32716">
        <ele>2532.25</ele>
        <time>2016-02-21T12:25:01Z</time>
      </trkpt>
      <trkpt lat="46.78229" lon="12.32716">
        <ele>2529.37</ele>
        <time>2016-02-21T12:25:02Z</time>
      </trkpt>
      <trkpt lat="46.78228" lon="12.32715">
        <ele>2533.69</ele>
        <time>2016-02-21T12:25:04Z</time>
      </trkpt>
      <trkpt lat="46.78227" lon="12.32716">
        <ele>2537.54</ele>
        <time>2016-02-21T12:25:05Z</time>
      </trkpt>
      <trkpt lat="46.78227" lon="12.32715">
        <ele>2537.06</ele>
        <time>2016-02-21T12:25:06Z</time>
      </trkpt>
      <trkpt lat="46.78226" lon="12.32715">
        <ele>2531.29</ele>
        <time>2016-02-21T12:25:07Z</time>
      </trkpt>
      <trkpt lat="46.78226" lon="12.32715">
        <ele>2527.44</ele>
        <time>2016-02-21T12:25:08Z</time>
      </trkpt>
      <trkpt lat="46.78226" lon="12.32715">
        <ele>2527.92</ele>
        <time>2016-02-21T12:25:09Z</time>
      </trkpt>
      <trkpt lat="46.78225" lon="12.32715">
        <ele>2531.77</ele>
        <time>2016-02-21T12:25:10Z</time>
      </trkpt>
      <trkpt lat="46.78224" lon="12.32715">
        <ele>2532.73</ele>
        <time>2016-02-21T12:25:12Z</time>
      </trkpt>
      <trkpt lat="46.78224" lon="12.32715">
        <ele>2528.89</ele>
        <time>2016-02-21T12:25:13Z</time>
      </trkpt>
      <trkpt lat="46.78224" lon="12.32714">
        <ele>2529.85</ele>
        <time>2016-02-21T12:25:14Z</time>
      </trkpt>
      <trkpt lat="46.78223" lon="12.32714">
        <ele>2534.17</ele>
        <time>2016-02-21T12:25:15Z</time>
      </trkpt>
      <trkpt lat="46.78223" lon="12.32714">
        <ele>2530.81</ele>
        <time>2016-02-21T12:25:16Z</time>
      </trkpt>
      <trkpt lat="46.78222" lon="12.32713">
        <ele>2527.44</ele>
        <time>2016-02-21T12:25:18Z</time>
      </trkpt>
      <trkpt lat="46.78221" lon="12.32713">
        <ele>2528.89</ele>
        <time>2016-02-21T12:25:19Z</time>
      </trkpt>
      <trkpt lat="46.78221" lon="12.32713">
        <ele>2523.12</ele>
        <time>2016-02-21T12:25:20Z</time>
      </trkpt>
      <trkpt lat="46.7822" lon="12.32713">
        <ele>2526</ele>
        <time>2016-02-21T12:25:21Z</time>
      </trkpt>
      <trkpt lat="46.7822" lon="12.32712">
        <ele>2530.81</ele>
        <time>2016-02-21T12:25:23Z</time>
      </trkpt>
      <trkpt lat="46.78219" lon="12.32711">
        <ele>2522.16</ele>
        <time>2016-02-21T12:25:24Z</time>
      </trkpt>
      <trkpt lat="46.78219" lon="12.32711">
        <ele>2522.16</ele>
        <time>2016-02-21T12:25:25Z</time>
      </trkpt>
      <trkpt lat="46.78218" lon="12.3271">
        <ele>2518.31</ele>
        <time>2016-02-21T12:25:27Z</time>
      </trkpt>
      <trkpt lat="46.78218" lon="12.3271">
        <ele>2525.04</ele>
        <time>2016-02-21T12:25:28Z</time>
      </trkpt>
      <trkpt lat="46.78218" lon="12.3271">
        <ele>2521.19</ele>
        <time>2016-02-21T12:25:30Z</time>
      </trkpt>
      <trkpt lat="46.78217" lon="12.32708">
        <ele>2518.31</ele>
        <time>2016-02-21T12:25:32Z</time>
      </trkpt>
      <trkpt lat="46.78217" lon="12.32708">
        <ele>2518.79</ele>
        <time>2016-02-21T12:25:33Z</time>
      </trkpt>
      <trkpt lat="46.78217" lon="12.32708">
        <ele>2522.16</ele>
        <time>2016-02-21T12:25:34Z</time>
      </trkpt>
      <trkpt lat="46.78216" lon="12.32707">
        <ele>2526</ele>
        <time>2016-02-21T12:25:36Z</time>
      </trkpt>
      <trkpt lat="46.78216" lon="12.32707">
        <ele>2524.08</ele>
        <time>2016-02-21T12:25:37Z</time>
      </trkpt>
      <trkpt lat="46.78216" lon="12.32706">
        <ele>2530.33</ele>
        <time>2016-02-21T12:25:41Z</time>
      </trkpt>
      <trkpt lat="46.78215" lon="12.32705">
        <ele>2521.19</ele>
        <time>2016-02-21T12:25:43Z</time>
      </trkpt>
      <trkpt lat="46.78215" lon="12.32704">
        <ele>2514.95</ele>
        <time>2016-02-21T12:25:44Z</time>
      </trkpt>
      <trkpt lat="46.78215" lon="12.32704">
        <ele>2521.19</ele>
        <time>2016-02-21T12:25:45Z</time>
      </trkpt>
      <trkpt lat="46.78214" lon="12.32703">
        <ele>2514.95</ele>
        <time>2016-02-21T12:25:47Z</time>
      </trkpt>
      <trkpt lat="46.78213" lon="12.32703">
        <ele>2519.75</ele>
        <time>2016-02-21T12:25:48Z</time>
      </trkpt>
      <trkpt lat="46.78213" lon="12.32703">
        <ele>2515.43</ele>
        <time>2016-02-21T12:25:50Z</time>
      </trkpt>
      <trkpt lat="46.78213" lon="12.32703">
        <ele>2521.19</ele>
        <time>2016-02-21T12:25:51Z</time>
      </trkpt>
      <trkpt lat="46.78213" lon="12.32702">
        <ele>2524.56</ele>
        <time>2016-02-21T12:25:53Z</time>
      </trkpt>
      <trkpt lat="46.78213" lon="12.32702">
        <ele>2527.92</ele>
        <time>2016-02-21T12:25:55Z</time>
      </trkpt>
      <trkpt lat="46.78212" lon="12.32701">
        <ele>2532.25</ele>
        <time>2016-02-21T12:25:58Z</time>
      </trkpt>
      <trkpt lat="46.78211" lon="12.327">
        <ele>2531.77</ele>
        <time>2016-02-21T12:25:59Z</time>
      </trkpt>
      <trkpt lat="46.7821" lon="12.327">
        <ele>2530.33</ele>
        <time>2016-02-21T12:26:05Z</time>
      </trkpt>
      <trkpt lat="46.78209" lon="12.327">
        <ele>2535.61</ele>
        <time>2016-02-21T12:26:08Z</time>
      </trkpt>
      <trkpt lat="46.78209" lon="12.327">
        <ele>2532.25</ele>
        <time>2016-02-21T12:26:09Z</time>
      </trkpt>
      <trkpt lat="46.78209" lon="12.32701">
        <ele>2528.89</ele>
        <time>2016-02-21T12:26:12Z</time>
      </trkpt>
      <trkpt lat="46.78206" lon="12.32698">
        <ele>2524.08</ele>
        <time>2016-02-21T12:26:31Z</time>
      </trkpt>
      <trkpt lat="46.78205" lon="12.32697">
        <ele>2527.92</ele>
        <time>2016-02-21T12:26:32Z</time>
      </trkpt>
      <trkpt lat="46.78203" lon="12.32695">
        <ele>2531.29</ele>
        <time>2016-02-21T12:26:38Z</time>
      </trkpt>
      <trkpt lat="46.78203" lon="12.32694">
        <ele>2537.06</ele>
        <time>2016-02-21T12:26:40Z</time>
      </trkpt>
      <trkpt lat="46.78203" lon="12.32694">
        <ele>2536.58</ele>
        <time>2016-02-21T12:26:41Z</time>
      </trkpt>
      <trkpt lat="46.78202" lon="12.32694">
        <ele>2533.69</ele>
        <time>2016-02-21T12:26:43Z</time>
      </trkpt>
      <trkpt lat="46.78199" lon="12.32693">
        <ele>2540.9</ele>
        <time>2016-02-21T12:26:52Z</time>
      </trkpt>
      <trkpt lat="46.78199" lon="12.32693">
        <ele>2537.54</ele>
        <time>2016-02-21T12:26:53Z</time>
      </trkpt>
      <trkpt lat="46.78199" lon="12.32693">
        <ele>2531.29</ele>
        <time>2016-02-21T12:26:54Z</time>
      </trkpt>
      <trkpt lat="46.78198" lon="12.32691">
        <ele>2527.92</ele>
        <time>2016-02-21T12:26:57Z</time>
      </trkpt>
      <trkpt lat="46.78198" lon="12.32691">
        <ele>2524.08</ele>
        <time>2016-02-21T12:26:58Z</time>
      </trkpt>
      <trkpt lat="46.78198" lon="12.32691">
        <ele>2527.92</ele>
        <time>2016-02-21T12:26:59Z</time>
      </trkpt>
      <trkpt lat="46.78197" lon="12.3269">
        <ele>2536.1</ele>
        <time>2016-02-21T12:27:00Z</time>
      </trkpt>
      <trkpt lat="46.78196" lon="12.32689">
        <ele>2538.98</ele>
        <time>2016-02-21T12:27:06Z</time>
      </trkpt>
      <trkpt lat="46.78195" lon="12.32688">
        <ele>2534.65</ele>
        <time>2016-02-21T12:27:10Z</time>
      </trkpt>
      <trkpt lat="46.78194" lon="12.32687">
        <ele>2539.46</ele>
        <time>2016-02-21T12:27:11Z</time>
      </trkpt>
      <trkpt lat="46.78194" lon="12.32687">
        <ele>2535.13</ele>
        <time>2016-02-21T12:27:13Z</time>
      </trkpt>
      <trkpt lat="46.78194" lon="12.32686">
        <ele>2525.52</ele>
        <time>2016-02-21T12:27:14Z</time>
      </trkpt>
      <trkpt lat="46.78194" lon="12.32686">
        <ele>2536.1</ele>
        <time>2016-02-21T12:27:15Z</time>
      </trkpt>
      <trkpt lat="46.78194" lon="12.32686">
        <ele>2540.9</ele>
        <time>2016-02-21T12:27:16Z</time>
      </trkpt>
      <trkpt lat="46.78193" lon="12.32685">
        <ele>2537.54</ele>
        <time>2016-02-21T12:27:17Z</time>
      </trkpt>
      <trkpt lat="46.78193" lon="12.32684">
        <ele>2532.73</ele>
        <time>2016-02-21T12:27:19Z</time>
      </trkpt>
      <trkpt lat="46.78193" lon="12.32684">
        <ele>2537.06</ele>
        <time>2016-02-21T12:27:21Z</time>
      </trkpt>
      <trkpt lat="46.78193" lon="12.32683">
        <ele>2535.13</ele>
        <time>2016-02-21T12:27:22Z</time>
      </trkpt>
      <trkpt lat="46.78192" lon="12.32683">
        <ele>2531.29</ele>
        <time>2016-02-21T12:27:23Z</time>
      </trkpt>
      <trkpt lat="46.78192" lon="12.32683">
        <ele>2535.13</ele>
        <time>2016-02-21T12:27:24Z</time>
      </trkpt>
      <trkpt lat="46.78192" lon="12.32683">
        <ele>2530.33</ele>
        <time>2016-02-21T12:27:25Z</time>
      </trkpt>
      <trkpt lat="46.78191" lon="12.32682">
        <ele>2536.58</ele>
        <time>2016-02-21T12:27:29Z</time>
      </trkpt>
      <trkpt lat="46.7819" lon="12.32681">
        <ele>2531.77</ele>
        <time>2016-02-21T12:27:33Z</time>
      </trkpt>
      <trkpt lat="46.78189" lon="12.32681">
        <ele>2534.65</ele>
        <time>2016-02-21T12:27:34Z</time>
      </trkpt>
      <trkpt lat="46.78188" lon="12.3268">
        <ele>2538.02</ele>
        <time>2016-02-21T12:27:37Z</time>
      </trkpt>
      <trkpt lat="46.78188" lon="12.3268">
        <ele>2536.58</ele>
        <time>2016-02-21T12:27:38Z</time>
      </trkpt>
      <trkpt lat="46.78188" lon="12.32679">
        <ele>2533.69</ele>
        <time>2016-02-21T12:27:41Z</time>
      </trkpt>
      <trkpt lat="46.78187" lon="12.32678">
        <ele>2538.02</ele>
        <time>2016-02-21T12:27:43Z</time>
      </trkpt>
      <trkpt lat="46.78186" lon="12.32677">
        <ele>2548.11</ele>
        <time>2016-02-21T12:27:48Z</time>
      </trkpt>
      <trkpt lat="46.78185" lon="12.32677">
        <ele>2553.4</ele>
        <time>2016-02-21T12:27:49Z</time>
      </trkpt>
      <trkpt lat="46.78185" lon="12.32677">
        <ele>2549.55</ele>
        <time>2016-02-21T12:27:50Z</time>
      </trkpt>
      <trkpt lat="46.78185" lon="12.32677">
        <ele>2543.79</ele>
        <time>2016-02-21T12:27:52Z</time>
      </trkpt>
      <trkpt lat="46.78185" lon="12.32677">
        <ele>2546.19</ele>
        <time>2016-02-21T12:27:53Z</time>
      </trkpt>
      <trkpt lat="46.78183" lon="12.32677">
        <ele>2541.86</ele>
        <time>2016-02-21T12:28:00Z</time>
      </trkpt>
      <trkpt lat="46.78183" lon="12.32677">
        <ele>2550.51</ele>
        <time>2016-02-21T12:28:02Z</time>
      </trkpt>
      <trkpt lat="46.78183" lon="12.32677">
        <ele>2555.32</ele>
        <time>2016-02-21T12:28:03Z</time>
      </trkpt>
      <trkpt lat="46.78182" lon="12.32677">
        <ele>2552.92</ele>
        <time>2016-02-21T12:28:04Z</time>
      </trkpt>
      <trkpt lat="46.78182" lon="12.32677">
        <ele>2548.11</ele>
        <time>2016-02-21T12:28:06Z</time>
      </trkpt>
      <trkpt lat="46.78182" lon="12.32677">
        <ele>2544.75</ele>
        <time>2016-02-21T12:28:07Z</time>
      </trkpt>
      <trkpt lat="46.78181" lon="12.32677">
        <ele>2548.11</ele>
        <time>2016-02-21T12:28:08Z</time>
      </trkpt>
      <trkpt lat="46.7818" lon="12.32677">
        <ele>2542.82</ele>
        <time>2016-02-21T12:28:11Z</time>
      </trkpt>
      <trkpt lat="46.7818" lon="12.32677">
        <ele>2537.54</ele>
        <time>2016-02-21T12:28:12Z</time>
      </trkpt>
      <trkpt lat="46.7818" lon="12.32677">
        <ele>2537.54</ele>
        <time>2016-02-21T12:28:13Z</time>
      </trkpt>
      <trkpt lat="46.7818" lon="12.32677">
        <ele>2534.65</ele>
        <time>2016-02-21T12:28:15Z</time>
      </trkpt>
      <trkpt lat="46.78179" lon="12.32676">
        <ele>2534.65</ele>
        <time>2016-02-21T12:28:29Z</time>
      </trkpt>
      <trkpt lat="46.78179" lon="12.32677">
        <ele>2538.5</ele>
        <time>2016-02-21T12:28:33Z</time>
      </trkpt>
      <trkpt lat="46.78178" lon="12.32676">
        <ele>2541.86</ele>
        <time>2016-02-21T12:28:37Z</time>
      </trkpt>
      <trkpt lat="46.78177" lon="12.32676">
        <ele>2538.02</ele>
        <time>2016-02-21T12:28:39Z</time>
      </trkpt>
      <trkpt lat="46.78177" lon="12.32676">
        <ele>2537.54</ele>
        <time>2016-02-21T12:28:40Z</time>
      </trkpt>
      <trkpt lat="46.78175" lon="12.32677">
        <ele>2537.06</ele>
        <time>2016-02-21T12:28:44Z</time>
      </trkpt>
      <trkpt lat="46.78174" lon="12.32677">
        <ele>2539.94</ele>
        <time>2016-02-21T12:28:47Z</time>
      </trkpt>
      <trkpt lat="46.78173" lon="12.32677">
        <ele>2536.1</ele>
        <time>2016-02-21T12:28:50Z</time>
      </trkpt>
      <trkpt lat="46.78173" lon="12.32677">
        <ele>2535.13</ele>
        <time>2016-02-21T12:28:52Z</time>
      </trkpt>
      <trkpt lat="46.78172" lon="12.32677">
        <ele>2532.25</ele>
        <time>2016-02-21T12:28:55Z</time>
      </trkpt>
      <trkpt lat="46.78172" lon="12.32677">
        <ele>2533.21</ele>
        <time>2016-02-21T12:28:56Z</time>
      </trkpt>
      <trkpt lat="46.78171" lon="12.32678">
        <ele>2535.13</ele>
        <time>2016-02-21T12:28:59Z</time>
      </trkpt>
      <trkpt lat="46.78166" lon="12.32679">
        <ele>2538.5</ele>
        <time>2016-02-21T12:29:09Z</time>
      </trkpt>
      <trkpt lat="46.78166" lon="12.3268">
        <ele>2535.13</ele>
        <time>2016-02-21T12:29:10Z</time>
      </trkpt>
      <trkpt lat="46.78164" lon="12.32679">
        <ele>2531.29</ele>
        <time>2016-02-21T12:29:13Z</time>
      </trkpt>
      <trkpt lat="46.78164" lon="12.32679">
        <ele>2535.13</ele>
        <time>2016-02-21T12:29:14Z</time>
      </trkpt>
      <trkpt lat="46.78164" lon="12.32679">
        <ele>2535.13</ele>
        <time>2016-02-21T12:29:15Z</time>
      </trkpt>
      <trkpt lat="46.78164" lon="12.32679">
        <ele>2539.94</ele>
        <time>2016-02-21T12:29:19Z</time>
      </trkpt>
      <trkpt lat="46.78164" lon="12.32679">
        <ele>2539.46</ele>
        <time>2016-02-21T12:29:20Z</time>
      </trkpt>
      <trkpt lat="46.78164" lon="12.32679">
        <ele>2534.65</ele>
        <time>2016-02-21T12:29:21Z</time>
      </trkpt>
      <trkpt lat="46.78164" lon="12.32679">
        <ele>2534.17</ele>
        <time>2016-02-21T12:29:23Z</time>
      </trkpt>
      <trkpt lat="46.78164" lon="12.32679">
        <ele>2537.54</ele>
        <time>2016-02-21T12:29:26Z</time>
      </trkpt>
      <trkpt lat="46.78164" lon="12.32679">
        <ele>2536.58</ele>
        <time>2016-02-21T12:29:27Z</time>
      </trkpt>
      <trkpt lat="46.78164" lon="12.32679">
        <ele>2534.17</ele>
        <time>2016-02-21T12:29:29Z</time>
      </trkpt>
      <trkpt lat="46.78161" lon="12.32677">
        <ele>2529.37</ele>
        <time>2016-02-21T12:29:37Z</time>
      </trkpt>
      <trkpt lat="46.78161" lon="12.32678">
        <ele>2529.85</ele>
        <time>2016-02-21T12:29:38Z</time>
      </trkpt>
      <trkpt lat="46.78162" lon="12.32675">
        <ele>2534.65</ele>
        <time>2016-02-21T12:29:44Z</time>
      </trkpt>
      <trkpt lat="46.78163" lon="12.32674">
        <ele>2533.21</ele>
        <time>2016-02-21T12:29:48Z</time>
      </trkpt>
      <trkpt lat="46.78163" lon="12.32674">
        <ele>2534.17</ele>
        <time>2016-02-21T12:29:50Z</time>
      </trkpt>
      <trkpt lat="46.78164" lon="12.3267">
        <ele>2535.13</ele>
        <time>2016-02-21T12:29:57Z</time>
      </trkpt>
      <trkpt lat="46.78165" lon="12.32666">
        <ele>2531.29</ele>
        <time>2016-02-21T12:30:10Z</time>
      </trkpt>
      <trkpt lat="46.78165" lon="12.32665">
        <ele>2534.17</ele>
        <time>2016-02-21T12:30:14Z</time>
      </trkpt>
      <trkpt lat="46.78164" lon="12.32664">
        <ele>2537.06</ele>
        <time>2016-02-21T12:30:17Z</time>
      </trkpt>
      <trkpt lat="46.78163" lon="12.32665">
        <ele>2537.54</ele>
        <time>2016-02-21T12:30:35Z</time>
      </trkpt>
      <trkpt lat="46.78163" lon="12.32665">
        <ele>2534.17</ele>
        <time>2016-02-21T12:30:37Z</time>
      </trkpt>
      <trkpt lat="46.78163" lon="12.32665">
        <ele>2534.17</ele>
        <time>2016-02-21T12:30:38Z</time>
      </trkpt>
      <trkpt lat="46.78162" lon="12.32664">
        <ele>2537.54</ele>
        <time>2016-02-21T12:30:40Z</time>
      </trkpt>
      <trkpt lat="46.78161" lon="12.32664">
        <ele>2542.34</ele>
        <time>2016-02-21T12:30:42Z</time>
      </trkpt>
      <trkpt lat="46.7816" lon="12.32664">
        <ele>2539.94</ele>
        <time>2016-02-21T12:30:43Z</time>
      </trkpt>
      <trkpt lat="46.7816" lon="12.32665">
        <ele>2542.82</ele>
        <time>2016-02-21T12:30:44Z</time>
      </trkpt>
      <trkpt lat="46.78157" lon="12.32665">
        <ele>2544.27</ele>
        <time>2016-02-21T12:30:50Z</time>
      </trkpt>
      <trkpt lat="46.78157" lon="12.32666">
        <ele>2540.42</ele>
        <time>2016-02-21T12:30:53Z</time>
      </trkpt>
      <trkpt lat="46.78155" lon="12.32667">
        <ele>2549.07</ele>
        <time>2016-02-21T12:30:55Z</time>
      </trkpt>
      <trkpt lat="46.78155" lon="12.32667">
        <ele>2548.11</ele>
        <time>2016-02-21T12:30:56Z</time>
      </trkpt>
      <trkpt lat="46.78152" lon="12.32669">
        <ele>2553.88</ele>
        <time>2016-02-21T12:31:05Z</time>
      </trkpt>
      <trkpt lat="46.78152" lon="12.32669">
        <ele>2553.4</ele>
        <time>2016-02-21T12:31:06Z</time>
      </trkpt>
      <trkpt lat="46.78152" lon="12.3267">
        <ele>2556.76</ele>
        <time>2016-02-21T12:31:07Z</time>
      </trkpt>
      <trkpt lat="46.7815" lon="12.32671">
        <ele>2561.57</ele>
        <time>2016-02-21T12:31:10Z</time>
      </trkpt>
      <trkpt lat="46.7815" lon="12.32672">
        <ele>2561.09</ele>
        <time>2016-02-21T12:31:11Z</time>
      </trkpt>
      <trkpt lat="46.78148" lon="12.32673">
        <ele>2552.44</ele>
        <time>2016-02-21T12:31:16Z</time>
      </trkpt>
      <trkpt lat="46.78148" lon="12.32673">
        <ele>2533.21</ele>
        <time>2016-02-21T12:31:17Z</time>
      </trkpt>
      <trkpt lat="46.78148" lon="12.32673">
        <ele>2547.63</ele>
        <time>2016-02-21T12:31:20Z</time>
      </trkpt>
      <trkpt lat="46.78148" lon="12.32672">
        <ele>2559.17</ele>
        <time>2016-02-21T12:31:21Z</time>
      </trkpt>
      <trkpt lat="46.78148" lon="12.32672">
        <ele>2555.8</ele>
        <time>2016-02-21T12:31:22Z</time>
      </trkpt>
      <trkpt lat="46.78148" lon="12.32672">
        <ele>2544.75</ele>
        <time>2016-02-21T12:31:23Z</time>
      </trkpt>
      <trkpt lat="46.78148" lon="12.32672">
        <ele>2547.15</ele>
        <time>2016-02-21T12:31:24Z</time>
      </trkpt>
      <trkpt lat="46.78148" lon="12.32672">
        <ele>2550.51</ele>
        <time>2016-02-21T12:31:25Z</time>
      </trkpt>
      <trkpt lat="46.78148" lon="12.32671">
        <ele>2547.15</ele>
        <time>2016-02-21T12:31:27Z</time>
      </trkpt>
      <trkpt lat="46.78148" lon="12.32671">
        <ele>2547.63</ele>
        <time>2016-02-21T12:31:28Z</time>
      </trkpt>
      <trkpt lat="46.78148" lon="12.32671">
        <ele>2552.44</ele>
        <time>2016-02-21T12:31:30Z</time>
      </trkpt>
      <trkpt lat="46.78148" lon="12.32672">
        <ele>2550.51</ele>
        <time>2016-02-21T12:31:33Z</time>
      </trkpt>
      <trkpt lat="46.78148" lon="12.32672">
        <ele>2546.67</ele>
        <time>2016-02-21T12:31:34Z</time>
      </trkpt>
      <trkpt lat="46.78148" lon="12.32672">
        <ele>2546.67</ele>
        <time>2016-02-21T12:31:35Z</time>
      </trkpt>
      <trkpt lat="46.78148" lon="12.32672">
        <ele>2551</ele>
        <time>2016-02-21T12:31:36Z</time>
      </trkpt>
      <trkpt lat="46.78148" lon="12.32672">
        <ele>2560.13</ele>
        <time>2016-02-21T12:31:37Z</time>
      </trkpt>
      <trkpt lat="46.78148" lon="12.32672">
        <ele>2556.28</ele>
        <time>2016-02-21T12:31:40Z</time>
      </trkpt>
      <trkpt lat="46.78148" lon="12.32672">
        <ele>2557.24</ele>
        <time>2016-02-21T12:31:41Z</time>
      </trkpt>
      <trkpt lat="46.78148" lon="12.32672">
        <ele>2553.88</ele>
        <time>2016-02-21T12:31:42Z</time>
      </trkpt>
      <trkpt lat="46.78148" lon="12.32672">
        <ele>2556.76</ele>
        <time>2016-02-21T12:31:43Z</time>
      </trkpt>
      <trkpt lat="46.78148" lon="12.32672">
        <ele>2551</ele>
        <time>2016-02-21T12:31:48Z</time>
      </trkpt>
      <trkpt lat="46.78148" lon="12.32671">
        <ele>2558.69</ele>
        <time>2016-02-21T12:31:49Z</time>
      </trkpt>
      <trkpt lat="46.78148" lon="12.32671">
        <ele>2553.88</ele>
        <time>2016-02-21T12:31:50Z</time>
      </trkpt>
      <trkpt lat="46.78147" lon="12.32672">
        <ele>2557.73</ele>
        <time>2016-02-21T12:31:52Z</time>
      </trkpt>
      <trkpt lat="46.78147" lon="12.32672">
        <ele>2564.45</ele>
        <time>2016-02-21T12:31:55Z</time>
      </trkpt>
      <trkpt lat="46.78147" lon="12.32673">
        <ele>2563.49</ele>
        <time>2016-02-21T12:31:56Z</time>
      </trkpt>
      <trkpt lat="46.78142" lon="12.32679">
        <ele>2560.13</ele>
        <time>2016-02-21T12:32:08Z</time>
      </trkpt>
      <trkpt lat="46.78142" lon="12.32679">
        <ele>2561.09</ele>
        <time>2016-02-21T12:32:09Z</time>
      </trkpt>
      <trkpt lat="46.78141" lon="12.32679">
        <ele>2565.9</ele>
        <time>2016-02-21T12:32:11Z</time>
      </trkpt>
      <trkpt lat="46.78141" lon="12.32679">
        <ele>2557.24</ele>
        <time>2016-02-21T12:32:12Z</time>
      </trkpt>
      <trkpt lat="46.7814" lon="12.32679">
        <ele>2564.93</ele>
        <time>2016-02-21T12:32:13Z</time>
      </trkpt>
      <trkpt lat="46.7814" lon="12.32679">
        <ele>2559.17</ele>
        <time>2016-02-21T12:32:14Z</time>
      </trkpt>
      <trkpt lat="46.7814" lon="12.3268">
        <ele>2554.36</ele>
        <time>2016-02-21T12:32:15Z</time>
      </trkpt>
      <trkpt lat="46.78139" lon="12.3268">
        <ele>2559.17</ele>
        <time>2016-02-21T12:32:16Z</time>
      </trkpt>
      <trkpt lat="46.78139" lon="12.32681">
        <ele>2558.21</ele>
        <time>2016-02-21T12:32:18Z</time>
      </trkpt>
      <trkpt lat="46.78135" lon="12.32684">
        <ele>2558.21</ele>
        <time>2016-02-21T12:32:22Z</time>
      </trkpt>
      <trkpt lat="46.78134" lon="12.32685">
        <ele>2555.8</ele>
        <time>2016-02-21T12:32:23Z</time>
      </trkpt>
      <trkpt lat="46.78132" lon="12.32688">
        <ele>2558.69</ele>
        <time>2016-02-21T12:32:27Z</time>
      </trkpt>
      <trkpt lat="46.78131" lon="12.32689">
        <ele>2555.32</ele>
        <time>2016-02-21T12:32:28Z</time>
      </trkpt>
      <trkpt lat="46.78131" lon="12.32689">
        <ele>2555.32</ele>
        <time>2016-02-21T12:32:29Z</time>
      </trkpt>
      <trkpt lat="46.7813" lon="12.32691">
        <ele>2558.69</ele>
        <time>2016-02-21T12:32:32Z</time>
      </trkpt>
      <trkpt lat="46.7813" lon="12.32692">
        <ele>2562.53</ele>
        <time>2016-02-21T12:32:34Z</time>
      </trkpt>
      <trkpt lat="46.78129" lon="12.32693">
        <ele>2558.21</ele>
        <time>2016-02-21T12:32:35Z</time>
      </trkpt>
      <trkpt lat="46.7813" lon="12.32693">
        <ele>2556.76</ele>
        <time>2016-02-21T12:32:37Z</time>
      </trkpt>
      <trkpt lat="46.7813" lon="12.32693">
        <ele>2557.73</ele>
        <time>2016-02-21T12:32:39Z</time>
      </trkpt>
      <trkpt lat="46.78129" lon="12.32693">
        <ele>2561.09</ele>
        <time>2016-02-21T12:32:40Z</time>
      </trkpt>
      <trkpt lat="46.78129" lon="12.32694">
        <ele>2554.36</ele>
        <time>2016-02-21T12:32:41Z</time>
      </trkpt>
      <trkpt lat="46.78129" lon="12.32694">
        <ele>2558.21</ele>
        <time>2016-02-21T12:32:42Z</time>
      </trkpt>
      <trkpt lat="46.78128" lon="12.32696">
        <ele>2559.17</ele>
        <time>2016-02-21T12:32:47Z</time>
      </trkpt>
      <trkpt lat="46.78126" lon="12.32698">
        <ele>2555.32</ele>
        <time>2016-02-21T12:32:51Z</time>
      </trkpt>
      <trkpt lat="46.78125" lon="12.327">
        <ele>2558.21</ele>
        <time>2016-02-21T12:32:56Z</time>
      </trkpt>
      <trkpt lat="46.78125" lon="12.327">
        <ele>2553.88</ele>
        <time>2016-02-21T12:32:57Z</time>
      </trkpt>
      <trkpt lat="46.78125" lon="12.327">
        <ele>2554.36</ele>
        <time>2016-02-21T12:32:58Z</time>
      </trkpt>
      <trkpt lat="46.78124" lon="12.32701">
        <ele>2556.28</ele>
        <time>2016-02-21T12:33:01Z</time>
      </trkpt>
      <trkpt lat="46.78124" lon="12.32701">
        <ele>2551</ele>
        <time>2016-02-21T12:33:02Z</time>
      </trkpt>
      <trkpt lat="46.78124" lon="12.32701">
        <ele>2548.59</ele>
        <time>2016-02-21T12:33:04Z</time>
      </trkpt>
      <trkpt lat="46.78119" lon="12.32707">
        <ele>2550.51</ele>
        <time>2016-02-21T12:33:17Z</time>
      </trkpt>
      <trkpt lat="46.78119" lon="12.32707">
        <ele>2545.23</ele>
        <time>2016-02-21T12:33:18Z</time>
      </trkpt>
      <trkpt lat="46.78119" lon="12.32707">
        <ele>2545.71</ele>
        <time>2016-02-21T12:33:19Z</time>
      </trkpt>
      <trkpt lat="46.78115" lon="12.32709">
        <ele>2540.9</ele>
        <time>2016-02-21T12:33:29Z</time>
      </trkpt>
      <trkpt lat="46.78114" lon="12.3271">
        <ele>2536.58</ele>
        <time>2016-02-21T12:33:34Z</time>
      </trkpt>
      <trkpt lat="46.78113" lon="12.3271">
        <ele>2531.77</ele>
        <time>2016-02-21T12:33:36Z</time>
      </trkpt>
      <trkpt lat="46.78113" lon="12.3271">
        <ele>2526.48</ele>
        <time>2016-02-21T12:33:38Z</time>
      </trkpt>
      <trkpt lat="46.78113" lon="12.32709">
        <ele>2528.4</ele>
        <time>2016-02-21T12:33:39Z</time>
      </trkpt>
      <trkpt lat="46.78112" lon="12.3271">
        <ele>2532.73</ele>
        <time>2016-02-21T12:33:43Z</time>
      </trkpt>
      <trkpt lat="46.78112" lon="12.3271">
        <ele>2535.13</ele>
        <time>2016-02-21T12:33:45Z</time>
      </trkpt>
      <trkpt lat="46.78112" lon="12.3271">
        <ele>2536.58</ele>
        <time>2016-02-21T12:33:48Z</time>
      </trkpt>
      <trkpt lat="46.78111" lon="12.32713">
        <ele>2544.75</ele>
        <time>2016-02-21T12:33:50Z</time>
      </trkpt>
      <trkpt lat="46.78111" lon="12.32714">
        <ele>2549.07</ele>
        <time>2016-02-21T12:33:52Z</time>
      </trkpt>
      <trkpt lat="46.7811" lon="12.32715">
        <ele>2549.07</ele>
        <time>2016-02-21T12:33:53Z</time>
      </trkpt>
      <trkpt lat="46.7811" lon="12.32715">
        <ele>2545.71</ele>
        <time>2016-02-21T12:33:55Z</time>
      </trkpt>
      <trkpt lat="46.78109" lon="12.32716">
        <ele>2550.51</ele>
        <time>2016-02-21T12:33:57Z</time>
      </trkpt>
      <trkpt lat="46.78109" lon="12.32716">
        <ele>2550.51</ele>
        <time>2016-02-21T12:33:58Z</time>
      </trkpt>
      <trkpt lat="46.78109" lon="12.32718">
        <ele>2545.71</ele>
        <time>2016-02-21T12:34:00Z</time>
      </trkpt>
      <trkpt lat="46.78108" lon="12.32718">
        <ele>2545.71</ele>
        <time>2016-02-21T12:34:01Z</time>
      </trkpt>
      <trkpt lat="46.78108" lon="12.32719">
        <ele>2549.07</ele>
        <time>2016-02-21T12:34:02Z</time>
      </trkpt>
      <trkpt lat="46.78108" lon="12.32719">
        <ele>2547.15</ele>
        <time>2016-02-21T12:34:03Z</time>
      </trkpt>
      <trkpt lat="46.78106" lon="12.32721">
        <ele>2551.96</ele>
        <time>2016-02-21T12:34:06Z</time>
      </trkpt>
      <trkpt lat="46.78106" lon="12.32721">
        <ele>2550.03</ele>
        <time>2016-02-21T12:34:07Z</time>
      </trkpt>
      <trkpt lat="46.78105" lon="12.32724">
        <ele>2554.84</ele>
        <time>2016-02-21T12:34:10Z</time>
      </trkpt>
      <trkpt lat="46.78105" lon="12.32724">
        <ele>2553.88</ele>
        <time>2016-02-21T12:34:11Z</time>
      </trkpt>
      <trkpt lat="46.78105" lon="12.32725">
        <ele>2548.11</ele>
        <time>2016-02-21T12:34:13Z</time>
      </trkpt>
      <trkpt lat="46.78104" lon="12.32725">
        <ele>2552.44</ele>
        <time>2016-02-21T12:34:15Z</time>
      </trkpt>
      <trkpt lat="46.78103" lon="12.32725">
        <ele>2549.07</ele>
        <time>2016-02-21T12:34:16Z</time>
      </trkpt>
      <trkpt lat="46.78102" lon="12.32725">
        <ele>2554.36</ele>
        <time>2016-02-21T12:34:18Z</time>
      </trkpt>
      <trkpt lat="46.78102" lon="12.32726">
        <ele>2550.51</ele>
        <time>2016-02-21T12:34:19Z</time>
      </trkpt>
      <trkpt lat="46.78099" lon="12.32732">
        <ele>2545.23</ele>
        <time>2016-02-21T12:34:27Z</time>
      </trkpt>
      <trkpt lat="46.78099" lon="12.32733">
        <ele>2548.59</ele>
        <time>2016-02-21T12:34:28Z</time>
      </trkpt>
      <trkpt lat="46.78098" lon="12.32735">
        <ele>2544.75</ele>
        <time>2016-02-21T12:34:34Z</time>
      </trkpt>
      <trkpt lat="46.78098" lon="12.32735">
        <ele>2545.23</ele>
        <time>2016-02-21T12:34:35Z</time>
      </trkpt>
      <trkpt lat="46.78097" lon="12.32734">
        <ele>2547.15</ele>
        <time>2016-02-21T12:34:40Z</time>
      </trkpt>
      <trkpt lat="46.78097" lon="12.32734">
        <ele>2546.19</ele>
        <time>2016-02-21T12:34:42Z</time>
      </trkpt>
      <trkpt lat="46.78097" lon="12.32734">
        <ele>2548.59</ele>
        <time>2016-02-21T12:34:45Z</time>
      </trkpt>
      <trkpt lat="46.78097" lon="12.32734">
        <ele>2553.4</ele>
        <time>2016-02-21T12:34:47Z</time>
      </trkpt>
      <trkpt lat="46.78096" lon="12.32734">
        <ele>2552.44</ele>
        <time>2016-02-21T12:34:48Z</time>
      </trkpt>
      <trkpt lat="46.78097" lon="12.32735">
        <ele>2548.11</ele>
        <time>2016-02-21T12:34:51Z</time>
      </trkpt>
      <trkpt lat="46.78096" lon="12.32735">
        <ele>2552.92</ele>
        <time>2016-02-21T12:34:53Z</time>
      </trkpt>
      <trkpt lat="46.78096" lon="12.32735">
        <ele>2553.88</ele>
        <time>2016-02-21T12:34:55Z</time>
      </trkpt>
      <trkpt lat="46.78096" lon="12.32736">
        <ele>2550.03</ele>
        <time>2016-02-21T12:34:56Z</time>
      </trkpt>
      <trkpt lat="46.78096" lon="12.32736">
        <ele>2552.92</ele>
        <time>2016-02-21T12:34:57Z</time>
      </trkpt>
      <trkpt lat="46.78096" lon="12.32737">
        <ele>2546.67</ele>
        <time>2016-02-21T12:34:59Z</time>
      </trkpt>
      <trkpt lat="46.78095" lon="12.32738">
        <ele>2547.63</ele>
        <time>2016-02-21T12:35:00Z</time>
      </trkpt>
      <trkpt lat="46.78096" lon="12.32745">
        <ele>2546.67</ele>
        <time>2016-02-21T12:35:13Z</time>
      </trkpt>
      <trkpt lat="46.78094" lon="12.32746">
        <ele>2539.46</ele>
        <time>2016-02-21T12:35:16Z</time>
      </trkpt>
      <trkpt lat="46.78094" lon="12.32747">
        <ele>2542.82</ele>
        <time>2016-02-21T12:35:17Z</time>
      </trkpt>
      <trkpt lat="46.78093" lon="12.32747">
        <ele>2548.59</ele>
        <time>2016-02-21T12:35:18Z</time>
      </trkpt>
      <trkpt lat="46.78093" lon="12.32747">
        <ele>2544.27</ele>
        <time>2016-02-21T12:35:21Z</time>
      </trkpt>
      <trkpt lat="46.78093" lon="12.32747">
        <ele>2548.59</ele>
        <time>2016-02-21T12:35:22Z</time>
      </trkpt>
      <trkpt lat="46.78093" lon="12.32748">
        <ele>2551.96</ele>
        <time>2016-02-21T12:35:26Z</time>
      </trkpt>
      <trkpt lat="46.78092" lon="12.32748">
        <ele>2549.07</ele>
        <time>2016-02-21T12:35:28Z</time>
      </trkpt>
      <trkpt lat="46.78092" lon="12.32748">
        <ele>2544.75</ele>
        <time>2016-02-21T12:35:31Z</time>
      </trkpt>
      <trkpt lat="46.78092" lon="12.32748">
        <ele>2544.75</ele>
        <time>2016-02-21T12:35:32Z</time>
      </trkpt>
      <trkpt lat="46.78092" lon="12.32748">
        <ele>2541.86</ele>
        <time>2016-02-21T12:35:37Z</time>
      </trkpt>
      <trkpt lat="46.78092" lon="12.3275">
        <ele>2547.15</ele>
        <time>2016-02-21T12:35:42Z</time>
      </trkpt>
      <trkpt lat="46.78092" lon="12.32749">
        <ele>2547.15</ele>
        <time>2016-02-21T12:35:43Z</time>
      </trkpt>
      <trkpt lat="46.78092" lon="12.3275">
        <ele>2543.79</ele>
        <time>2016-02-21T12:35:54Z</time>
      </trkpt>
      <trkpt lat="46.78092" lon="12.32749">
        <ele>2539.94</ele>
        <time>2016-02-21T12:35:56Z</time>
      </trkpt>
      <trkpt lat="46.78092" lon="12.3275">
        <ele>2544.75</ele>
        <time>2016-02-21T12:35:57Z</time>
      </trkpt>
      <trkpt lat="46.78092" lon="12.3275">
        <ele>2543.31</ele>
        <time>2016-02-21T12:36:01Z</time>
      </trkpt>
      <trkpt lat="46.78092" lon="12.3275">
        <ele>2545.23</ele>
        <time>2016-02-21T12:36:06Z</time>
      </trkpt>
      <trkpt lat="46.78093" lon="12.3275">
        <ele>2541.38</ele>
        <time>2016-02-21T12:36:10Z</time>
      </trkpt>
      <trkpt lat="46.78092" lon="12.3275">
        <ele>2547.15</ele>
        <time>2016-02-21T12:36:13Z</time>
      </trkpt>
      <trkpt lat="46.78092" lon="12.3275">
        <ele>2547.15</ele>
        <time>2016-02-21T12:36:14Z</time>
      </trkpt>
      <trkpt lat="46.78092" lon="12.3275">
        <ele>2542.82</ele>
        <time>2016-02-21T12:36:17Z</time>
      </trkpt>
      <trkpt lat="46.78092" lon="12.3275">
        <ele>2543.79</ele>
        <time>2016-02-21T12:36:18Z</time>
      </trkpt>
      <trkpt lat="46.78092" lon="12.32749">
        <ele>2539.94</ele>
        <time>2016-02-21T12:36:22Z</time>
      </trkpt>
      <trkpt lat="46.78092" lon="12.32749">
        <ele>2540.9</ele>
        <time>2016-02-21T12:36:23Z</time>
      </trkpt>
      <trkpt lat="46.78092" lon="12.32749">
        <ele>2544.27</ele>
        <time>2016-02-21T12:36:25Z</time>
      </trkpt>
      <trkpt lat="46.78092" lon="12.32749">
        <ele>2538.98</ele>
        <time>2016-02-21T12:36:26Z</time>
      </trkpt>
      <trkpt lat="46.78092" lon="12.32749">
        <ele>2542.82</ele>
        <time>2016-02-21T12:36:29Z</time>
      </trkpt>
      <trkpt lat="46.78092" lon="12.32749">
        <ele>2548.59</ele>
        <time>2016-02-21T12:36:30Z</time>
      </trkpt>
      <trkpt lat="46.78092" lon="12.3275">
        <ele>2546.19</ele>
        <time>2016-02-21T12:36:31Z</time>
      </trkpt>
      <trkpt lat="46.78092" lon="12.3275">
        <ele>2540.42</ele>
        <time>2016-02-21T12:36:33Z</time>
      </trkpt>
      <trkpt lat="46.78092" lon="12.32749">
        <ele>2537.06</ele>
        <time>2016-02-21T12:36:36Z</time>
      </trkpt>
      <trkpt lat="46.78092" lon="12.32749">
        <ele>2540.9</ele>
        <time>2016-02-21T12:36:40Z</time>
      </trkpt>
      <trkpt lat="46.78092" lon="12.32749">
        <ele>2540.42</ele>
        <time>2016-02-21T12:36:41Z</time>
      </trkpt>
      <trkpt lat="46.78091" lon="12.32748">
        <ele>2535.13</ele>
        <time>2016-02-21T12:36:44Z</time>
      </trkpt>
      <trkpt lat="46.78091" lon="12.32748">
        <ele>2537.06</ele>
        <time>2016-02-21T12:36:45Z</time>
      </trkpt>
      <trkpt lat="46.78091" lon="12.32749">
        <ele>2540.9</ele>
        <time>2016-02-21T12:36:49Z</time>
      </trkpt>
      <trkpt lat="46.78091" lon="12.3275">
        <ele>2550.03</ele>
        <time>2016-02-21T12:36:51Z</time>
      </trkpt>
      <trkpt lat="46.78092" lon="12.3275">
        <ele>2545.71</ele>
        <time>2016-02-21T12:36:52Z</time>
      </trkpt>
      <trkpt lat="46.78092" lon="12.32749">
        <ele>2544.75</ele>
        <time>2016-02-21T12:36:57Z</time>
      </trkpt>
      <trkpt lat="46.78091" lon="12.32749">
        <ele>2531.77</ele>
        <time>2016-02-21T12:37:00Z</time>
      </trkpt>
      <trkpt lat="46.78091" lon="12.32748">
        <ele>2536.1</ele>
        <time>2016-02-21T12:37:03Z</time>
      </trkpt>
      <trkpt lat="46.78091" lon="12.32748">
        <ele>2532.73</ele>
        <time>2016-02-21T12:37:04Z</time>
      </trkpt>
      <trkpt lat="46.78091" lon="12.32749">
        <ele>2540.9</ele>
        <time>2016-02-21T12:37:09Z</time>
      </trkpt>
      <trkpt lat="46.78091" lon="12.32749">
        <ele>2542.34</ele>
        <time>2016-02-21T12:37:11Z</time>
      </trkpt>
      <trkpt lat="46.78091" lon="12.32748">
        <ele>2543.31</ele>
        <time>2016-02-21T12:37:58Z</time>
      </trkpt>
      <trkpt lat="46.78091" lon="12.32748">
        <ele>2543.79</ele>
        <time>2016-02-21T12:38:00Z</time>
      </trkpt>
      <trkpt lat="46.78091" lon="12.32748">
        <ele>2544.75</ele>
        <time>2016-02-21T12:38:05Z</time>
      </trkpt>
      <trkpt lat="46.78091" lon="12.32748">
        <ele>2543.79</ele>
        <time>2016-02-21T12:38:17Z</time>
      </trkpt>
      <trkpt lat="46.78091" lon="12.32748">
        <ele>2542.82</ele>
        <time>2016-02-21T12:38:22Z</time>
      </trkpt>
      <trkpt lat="46.78092" lon="12.3275">
        <ele>2540.9</ele>
        <time>2016-02-21T12:39:02Z</time>
      </trkpt>
      <trkpt lat="46.78092" lon="12.32749">
        <ele>2541.86</ele>
        <time>2016-02-21T12:39:30Z</time>
      </trkpt>
      <trkpt lat="46.7809" lon="12.32747">
        <ele>2541.86</ele>
        <time>2016-02-21T12:39:58Z</time>
      </trkpt>
      <trkpt lat="46.78091" lon="12.32748">
        <ele>2545.23</ele>
        <time>2016-02-21T12:40:07Z</time>
      </trkpt>
      <trkpt lat="46.78091" lon="12.32748">
        <ele>2543.31</ele>
        <time>2016-02-21T12:40:10Z</time>
      </trkpt>
      <trkpt lat="46.78091" lon="12.32748">
        <ele>2541.86</ele>
        <time>2016-02-21T12:40:12Z</time>
      </trkpt>
      <trkpt lat="46.78091" lon="12.32749">
        <ele>2544.75</ele>
        <time>2016-02-21T12:40:16Z</time>
      </trkpt>
      <trkpt lat="46.78091" lon="12.32749">
        <ele>2546.67</ele>
        <time>2016-02-21T12:40:19Z</time>
      </trkpt>
      <trkpt lat="46.78091" lon="12.32749">
        <ele>2543.31</ele>
        <time>2016-02-21T12:40:30Z</time>
      </trkpt>
      <trkpt lat="46.78091" lon="12.32749">
        <ele>2542.82</ele>
        <time>2016-02-21T12:40:31Z</time>
      </trkpt>
      <trkpt lat="46.78091" lon="12.32749">
        <ele>2542.82</ele>
        <time>2016-02-21T12:40:35Z</time>
      </trkpt>
      <trkpt lat="46.78092" lon="12.3275">
        <ele>2539.94</ele>
        <time>2016-02-21T12:40:54Z</time>
      </trkpt>
      <trkpt lat="46.78092" lon="12.32748">
        <ele>2542.82</ele>
        <time>2016-02-21T12:41:06Z</time>
      </trkpt>
      <trkpt lat="46.78092" lon="12.32748">
        <ele>2542.34</ele>
        <time>2016-02-21T12:41:14Z</time>
      </trkpt>
      <trkpt lat="46.78091" lon="12.32748">
        <ele>2538.98</ele>
        <time>2016-02-21T12:41:30Z</time>
      </trkpt>
      <trkpt lat="46.78091" lon="12.32748">
        <ele>2544.27</ele>
        <time>2016-02-21T12:41:46Z</time>
      </trkpt>
      <trkpt lat="46.78091" lon="12.32748">
        <ele>2544.27</ele>
        <time>2016-02-21T12:41:47Z</time>
      </trkpt>
      <trkpt lat="46.7809" lon="12.32749">
        <ele>2536.58</ele>
        <time>2016-02-21T12:41:52Z</time>
      </trkpt>
      <trkpt lat="46.7809" lon="12.32749">
        <ele>2538.98</ele>
        <time>2016-02-21T12:41:53Z</time>
      </trkpt>
      <trkpt lat="46.7809" lon="12.3275">
        <ele>2542.34</ele>
        <time>2016-02-21T12:41:58Z</time>
      </trkpt>
      <trkpt lat="46.7809" lon="12.3275">
        <ele>2542.34</ele>
        <time>2016-02-21T12:41:59Z</time>
      </trkpt>
      <trkpt lat="46.7809" lon="12.32749">
        <ele>2538.98</ele>
        <time>2016-02-21T12:42:06Z</time>
      </trkpt>
      <trkpt lat="46.78091" lon="12.32749">
        <ele>2539.46</ele>
        <time>2016-02-21T12:42:35Z</time>
      </trkpt>
      <trkpt lat="46.78092" lon="12.32751">
        <ele>2540.42</ele>
        <time>2016-02-21T12:42:57Z</time>
      </trkpt>
      <trkpt lat="46.78091" lon="12.32749">
        <ele>2539.46</ele>
        <time>2016-02-21T12:43:17Z</time>
      </trkpt>
      <trkpt lat="46.78091" lon="12.32749">
        <ele>2540.9</ele>
        <time>2016-02-21T12:43:35Z</time>
      </trkpt>
      <trkpt lat="46.78091" lon="12.32748">
        <ele>2545.23</ele>
        <time>2016-02-21T12:43:52Z</time>
      </trkpt>
      <trkpt lat="46.78091" lon="12.32749">
        <ele>2541.86</ele>
        <time>2016-02-21T12:44:07Z</time>
      </trkpt>
      <trkpt lat="46.78091" lon="12.32749">
        <ele>2539.46</ele>
        <time>2016-02-21T12:44:44Z</time>
      </trkpt>
      <trkpt lat="46.78091" lon="12.32749">
        <ele>2540.9</ele>
        <time>2016-02-21T12:45:17Z</time>
      </trkpt>
      <trkpt lat="46.78091" lon="12.32749">
        <ele>2540.9</ele>
        <time>2016-02-21T12:45:32Z</time>
      </trkpt>
      <trkpt lat="46.78091" lon="12.32748">
        <ele>2541.38</ele>
        <time>2016-02-21T12:46:05Z</time>
      </trkpt>
      <trkpt lat="46.78091" lon="12.32748">
        <ele>2538.02</ele>
        <time>2016-02-21T12:46:21Z</time>
      </trkpt>
      <trkpt lat="46.78091" lon="12.32748">
        <ele>2538.02</ele>
        <time>2016-02-21T12:46:22Z</time>
      </trkpt>
      <trkpt lat="46.78091" lon="12.32747">
        <ele>2539.46</ele>
        <time>2016-02-21T12:46:36Z</time>
      </trkpt>
      <trkpt lat="46.78091" lon="12.32748">
        <ele>2538.02</ele>
        <time>2016-02-21T12:46:43Z</time>
      </trkpt>
      <trkpt lat="46.7809" lon="12.32748">
        <ele>2539.94</ele>
        <time>2016-02-21T12:47:17Z</time>
      </trkpt>
      <trkpt lat="46.7809" lon="12.32747">
        <ele>2538.98</ele>
        <time>2016-02-21T12:47:35Z</time>
      </trkpt>
      <trkpt lat="46.78091" lon="12.32747">
        <ele>2537.06</ele>
        <time>2016-02-21T12:48:14Z</time>
      </trkpt>
      <trkpt lat="46.7809" lon="12.32748">
        <ele>2538.02</ele>
        <time>2016-02-21T12:48:46Z</time>
      </trkpt>
      <trkpt lat="46.7809" lon="12.32747">
        <ele>2538.02</ele>
        <time>2016-02-21T12:49:01Z</time>
      </trkpt>
      <trkpt lat="46.7809" lon="12.32747">
        <ele>2537.06</ele>
        <time>2016-02-21T12:49:27Z</time>
      </trkpt>
      <trkpt lat="46.78091" lon="12.32748">
        <ele>2537.06</ele>
        <time>2016-02-21T12:49:58Z</time>
      </trkpt>
      <trkpt lat="46.7809" lon="12.32747">
        <ele>2535.61</ele>
        <time>2016-02-21T12:50:29Z</time>
      </trkpt>
      <trkpt lat="46.7809" lon="12.32746">
        <ele>2537.54</ele>
        <time>2016-02-21T12:51:02Z</time>
      </trkpt>
      <trkpt lat="46.7809" lon="12.32747">
        <ele>2538.98</ele>
        <time>2016-02-21T12:51:43Z</time>
      </trkpt>
      <trkpt lat="46.7809" lon="12.32747">
        <ele>2536.58</ele>
        <time>2016-02-21T12:51:50Z</time>
      </trkpt>
      <trkpt lat="46.78092" lon="12.32749">
        <ele>2540.9</ele>
        <time>2016-02-21T12:52:11Z</time>
      </trkpt>
      <trkpt lat="46.78092" lon="12.32749">
        <ele>2540.9</ele>
        <time>2016-02-21T12:52:12Z</time>
      </trkpt>
      <trkpt lat="46.78092" lon="12.32749">
        <ele>2537.54</ele>
        <time>2016-02-21T12:52:22Z</time>
      </trkpt>
      <trkpt lat="46.78091" lon="12.32749">
        <ele>2537.54</ele>
        <time>2016-02-21T12:52:32Z</time>
      </trkpt>
      <trkpt lat="46.78091" lon="12.32748">
        <ele>2541.38</ele>
        <time>2016-02-21T12:52:38Z</time>
      </trkpt>
      <trkpt lat="46.78091" lon="12.32748">
        <ele>2542.82</ele>
        <time>2016-02-21T12:52:40Z</time>
      </trkpt>
      <trkpt lat="46.78091" lon="12.32748">
        <ele>2542.34</ele>
        <time>2016-02-21T12:53:16Z</time>
      </trkpt>
      <trkpt lat="46.78091" lon="12.32748">
        <ele>2545.71</ele>
        <time>2016-02-21T12:53:19Z</time>
      </trkpt>
      <trkpt lat="46.78091" lon="12.32748">
        <ele>2544.75</ele>
        <time>2016-02-21T12:53:20Z</time>
      </trkpt>
      <trkpt lat="46.78091" lon="12.32748">
        <ele>2540.42</ele>
        <time>2016-02-21T12:53:23Z</time>
      </trkpt>
      <trkpt lat="46.78091" lon="12.32748">
        <ele>2543.79</ele>
        <time>2016-02-21T12:53:43Z</time>
      </trkpt>
      <trkpt lat="46.78091" lon="12.32748">
        <ele>2543.31</ele>
        <time>2016-02-21T12:53:44Z</time>
      </trkpt>
      <trkpt lat="46.78091" lon="12.32748">
        <ele>2540.9</ele>
        <time>2016-02-21T12:53:48Z</time>
      </trkpt>
      <trkpt lat="46.78091" lon="12.32747">
        <ele>2545.23</ele>
        <time>2016-02-21T12:53:52Z</time>
      </trkpt>
      <trkpt lat="46.78091" lon="12.32747">
        <ele>2543.79</ele>
        <time>2016-02-21T12:53:56Z</time>
      </trkpt>
      <trkpt lat="46.78091" lon="12.32748">
        <ele>2539.94</ele>
        <time>2016-02-21T12:53:59Z</time>
      </trkpt>
      <trkpt lat="46.78091" lon="12.32748">
        <ele>2539.94</ele>
        <time>2016-02-21T12:54:00Z</time>
      </trkpt>
      <trkpt lat="46.78091" lon="12.32748">
        <ele>2541.38</ele>
        <time>2016-02-21T12:54:03Z</time>
      </trkpt>
      <trkpt lat="46.78091" lon="12.32748">
        <ele>2538.02</ele>
        <time>2016-02-21T12:54:18Z</time>
      </trkpt>
      <trkpt lat="46.78091" lon="12.32748">
        <ele>2539.94</ele>
        <time>2016-02-21T12:54:22Z</time>
      </trkpt>
      <trkpt lat="46.78091" lon="12.32747">
        <ele>2540.9</ele>
        <time>2016-02-21T12:54:50Z</time>
      </trkpt>
      <trkpt lat="46.78091" lon="12.32748">
        <ele>2539.94</ele>
        <time>2016-02-21T12:55:06Z</time>
      </trkpt>
      <trkpt lat="46.7809" lon="12.32748">
        <ele>2538.98</ele>
        <time>2016-02-21T12:55:15Z</time>
      </trkpt>
      <trkpt lat="46.78091" lon="12.32748">
        <ele>2542.34</ele>
        <time>2016-02-21T12:55:47Z</time>
      </trkpt>
      <trkpt lat="46.78091" lon="12.32748">
        <ele>2538.98</ele>
        <time>2016-02-21T12:55:54Z</time>
      </trkpt>
      <trkpt lat="46.78091" lon="12.32749">
        <ele>2538.5</ele>
        <time>2016-02-21T12:56:30Z</time>
      </trkpt>
      <trkpt lat="46.7809" lon="12.32749">
        <ele>2538.98</ele>
        <time>2016-02-21T12:56:51Z</time>
      </trkpt>
      <trkpt lat="46.78091" lon="12.32749">
        <ele>2537.54</ele>
        <time>2016-02-21T12:56:55Z</time>
      </trkpt>
      <trkpt lat="46.78091" lon="12.32749">
        <ele>2538.02</ele>
        <time>2016-02-21T12:57:25Z</time>
      </trkpt>
      <trkpt lat="46.78091" lon="12.32749">
        <ele>2540.42</ele>
        <time>2016-02-21T12:57:36Z</time>
      </trkpt>
      <trkpt lat="46.78091" lon="12.32749">
        <ele>2537.06</ele>
        <time>2016-02-21T12:57:42Z</time>
      </trkpt>
      <trkpt lat="46.78092" lon="12.32748">
        <ele>2540.9</ele>
        <time>2016-02-21T12:58:06Z</time>
      </trkpt>
      <trkpt lat="46.78092" lon="12.32748">
        <ele>2541.38</ele>
        <time>2016-02-21T12:58:07Z</time>
      </trkpt>
      <trkpt lat="46.78092" lon="12.32747">
        <ele>2538.02</ele>
        <time>2016-02-21T12:58:21Z</time>
      </trkpt>
      <trkpt lat="46.78091" lon="12.32747">
        <ele>2540.9</ele>
        <time>2016-02-21T12:58:47Z</time>
      </trkpt>
      <trkpt lat="46.78091" lon="12.32747">
        <ele>2537.06</ele>
        <time>2016-02-21T12:58:49Z</time>
      </trkpt>
      <trkpt lat="46.7809" lon="12.32747">
        <ele>2533.21</ele>
        <time>2016-02-21T12:58:50Z</time>
      </trkpt>
      <trkpt lat="46.7809" lon="12.32747">
        <ele>2531.77</ele>
        <time>2016-02-21T12:58:55Z</time>
      </trkpt>
      <trkpt lat="46.7809" lon="12.32747">
        <ele>2539.46</ele>
        <time>2016-02-21T12:58:57Z</time>
      </trkpt>
      <trkpt lat="46.7809" lon="12.32749">
        <ele>2538.02</ele>
        <time>2016-02-21T12:58:58Z</time>
      </trkpt>
      <trkpt lat="46.78091" lon="12.32749">
        <ele>2541.86</ele>
        <time>2016-02-21T12:59:01Z</time>
      </trkpt>
      <trkpt lat="46.78091" lon="12.3275">
        <ele>2542.82</ele>
        <time>2016-02-21T12:59:03Z</time>
      </trkpt>
      <trkpt lat="46.78091" lon="12.32749">
        <ele>2538.98</ele>
        <time>2016-02-21T12:59:07Z</time>
      </trkpt>
      <trkpt lat="46.7809" lon="12.32749">
        <ele>2537.54</ele>
        <time>2016-02-21T12:59:10Z</time>
      </trkpt>
      <trkpt lat="46.7809" lon="12.32749">
        <ele>2545.71</ele>
        <time>2016-02-21T12:59:11Z</time>
      </trkpt>
      <trkpt lat="46.7809" lon="12.32749">
        <ele>2547.15</ele>
        <time>2016-02-21T12:59:13Z</time>
      </trkpt>
      <trkpt lat="46.78091" lon="12.32748">
        <ele>2534.17</ele>
        <time>2016-02-21T12:59:18Z</time>
      </trkpt>
      <trkpt lat="46.7809" lon="12.32747">
        <ele>2541.38</ele>
        <time>2016-02-21T12:59:20Z</time>
      </trkpt>
      <trkpt lat="46.7809" lon="12.32747">
        <ele>2538.98</ele>
        <time>2016-02-21T12:59:21Z</time>
      </trkpt>
      <trkpt lat="46.78091" lon="12.32748">
        <ele>2535.13</ele>
        <time>2016-02-21T12:59:24Z</time>
      </trkpt>
      <trkpt lat="46.78091" lon="12.32748">
        <ele>2545.71</ele>
        <time>2016-02-21T12:59:25Z</time>
      </trkpt>
      <trkpt lat="46.78091" lon="12.32748">
        <ele>2545.71</ele>
        <time>2016-02-21T12:59:26Z</time>
      </trkpt>
      <trkpt lat="46.78091" lon="12.32748">
        <ele>2542.34</ele>
        <time>2016-02-21T12:59:32Z</time>
      </trkpt>
      <trkpt lat="46.78091" lon="12.32747">
        <ele>2541.86</ele>
        <time>2016-02-21T12:59:33Z</time>
      </trkpt>
      <trkpt lat="46.7809" lon="12.32748">
        <ele>2538.5</ele>
        <time>2016-02-21T12:59:36Z</time>
      </trkpt>
      <trkpt lat="46.78091" lon="12.32748">
        <ele>2538.98</ele>
        <time>2016-02-21T12:59:37Z</time>
      </trkpt>
      <trkpt lat="46.78091" lon="12.32748">
        <ele>2535.61</ele>
        <time>2016-02-21T12:59:40Z</time>
      </trkpt>
      <trkpt lat="46.78091" lon="12.32748">
        <ele>2535.61</ele>
        <time>2016-02-21T12:59:41Z</time>
      </trkpt>
      <trkpt lat="46.78091" lon="12.32748">
        <ele>2540.42</ele>
        <time>2016-02-21T12:59:45Z</time>
      </trkpt>
      <trkpt lat="46.78091" lon="12.32748">
        <ele>2540.42</ele>
        <time>2016-02-21T12:59:46Z</time>
      </trkpt>
      <trkpt lat="46.78092" lon="12.32749">
        <ele>2541.86</ele>
        <time>2016-02-21T12:59:49Z</time>
      </trkpt>
      <trkpt lat="46.78092" lon="12.32748">
        <ele>2546.19</ele>
        <time>2016-02-21T12:59:54Z</time>
      </trkpt>
      <trkpt lat="46.78093" lon="12.32747">
        <ele>2543.31</ele>
        <time>2016-02-21T12:59:56Z</time>
      </trkpt>
      <trkpt lat="46.78093" lon="12.32746">
        <ele>2536.1</ele>
        <time>2016-02-21T12:59:58Z</time>
      </trkpt>
      <trkpt lat="46.78093" lon="12.32745">
        <ele>2536.1</ele>
        <time>2016-02-21T12:59:59Z</time>
      </trkpt>
      <trkpt lat="46.78093" lon="12.32744">
        <ele>2548.59</ele>
        <time>2016-02-21T13:00:01Z</time>
      </trkpt>
      <trkpt lat="46.78093" lon="12.32743">
        <ele>2547.15</ele>
        <time>2016-02-21T13:00:02Z</time>
      </trkpt>
      <trkpt lat="46.78093" lon="12.32741">
        <ele>2546.19</ele>
        <time>2016-02-21T13:00:04Z</time>
      </trkpt>
      <trkpt lat="46.78093" lon="12.32737">
        <ele>2543.79</ele>
        <time>2016-02-21T13:00:09Z</time>
      </trkpt>
      <trkpt lat="46.78097" lon="12.32735">
        <ele>2542.34</ele>
        <time>2016-02-21T13:00:22Z</time>
      </trkpt>
      <trkpt lat="46.78097" lon="12.32735">
        <ele>2541.38</ele>
        <time>2016-02-21T13:00:28Z</time>
      </trkpt>
      <trkpt lat="46.78096" lon="12.32735">
        <ele>2547.63</ele>
        <time>2016-02-21T13:00:33Z</time>
      </trkpt>
      <trkpt lat="46.78096" lon="12.32735">
        <ele>2545.71</ele>
        <time>2016-02-21T13:00:34Z</time>
      </trkpt>
      <trkpt lat="46.78097" lon="12.32736">
        <ele>2550.51</ele>
        <time>2016-02-21T13:00:43Z</time>
      </trkpt>
      <trkpt lat="46.78097" lon="12.32736">
        <ele>2546.19</ele>
        <time>2016-02-21T13:00:46Z</time>
      </trkpt>
      <trkpt lat="46.78097" lon="12.32736">
        <ele>2546.67</ele>
        <time>2016-02-21T13:00:47Z</time>
      </trkpt>
      <trkpt lat="46.78097" lon="12.32735">
        <ele>2544.75</ele>
        <time>2016-02-21T13:00:51Z</time>
      </trkpt>
      <trkpt lat="46.78096" lon="12.32735">
        <ele>2546.67</ele>
        <time>2016-02-21T13:00:57Z</time>
      </trkpt>
      <trkpt lat="46.78096" lon="12.32735">
        <ele>2543.79</ele>
        <time>2016-02-21T13:00:59Z</time>
      </trkpt>
      <trkpt lat="46.78096" lon="12.32735">
        <ele>2543.79</ele>
        <time>2016-02-21T13:01:00Z</time>
      </trkpt>
      <trkpt lat="46.78096" lon="12.32735">
        <ele>2547.63</ele>
        <time>2016-02-21T13:01:04Z</time>
      </trkpt>
      <trkpt lat="46.78096" lon="12.32735">
        <ele>2544.27</ele>
        <time>2016-02-21T13:01:05Z</time>
      </trkpt>
      <trkpt lat="46.78097" lon="12.32735">
        <ele>2547.63</ele>
        <time>2016-02-21T13:01:07Z</time>
      </trkpt>
      <trkpt lat="46.78097" lon="12.32735">
        <ele>2546.19</ele>
        <time>2016-02-21T13:01:15Z</time>
      </trkpt>
      <trkpt lat="46.78096" lon="12.32734">
        <ele>2542.82</ele>
        <time>2016-02-21T13:01:30Z</time>
      </trkpt>
      <trkpt lat="46.78096" lon="12.32734">
        <ele>2546.19</ele>
        <time>2016-02-21T13:01:39Z</time>
      </trkpt>
      <trkpt lat="46.78096" lon="12.32733">
        <ele>2538.5</ele>
        <time>2016-02-21T13:01:41Z</time>
      </trkpt>
      <trkpt lat="46.78097" lon="12.32733">
        <ele>2534.17</ele>
        <time>2016-02-21T13:01:42Z</time>
      </trkpt>
      <trkpt lat="46.78097" lon="12.32733">
        <ele>2540.42</ele>
        <time>2016-02-21T13:01:43Z</time>
      </trkpt>
      <trkpt lat="46.78097" lon="12.32733">
        <ele>2544.27</ele>
        <time>2016-02-21T13:01:44Z</time>
      </trkpt>
      <trkpt lat="46.78097" lon="12.32733">
        <ele>2542.82</ele>
        <time>2016-02-21T13:01:45Z</time>
      </trkpt>
      <trkpt lat="46.78097" lon="12.32734">
        <ele>2539.46</ele>
        <time>2016-02-21T13:01:58Z</time>
      </trkpt>
      <trkpt lat="46.78097" lon="12.32734">
        <ele>2542.82</ele>
        <time>2016-02-21T13:02:02Z</time>
      </trkpt>
      <trkpt lat="46.78097" lon="12.32734">
        <ele>2542.34</ele>
        <time>2016-02-21T13:02:03Z</time>
      </trkpt>
      <trkpt lat="46.78098" lon="12.32735">
        <ele>2540.9</ele>
        <time>2016-02-21T13:02:10Z</time>
      </trkpt>
      <trkpt lat="46.78097" lon="12.32735">
        <ele>2545.23</ele>
        <time>2016-02-21T13:02:17Z</time>
      </trkpt>
      <trkpt lat="46.78098" lon="12.32735">
        <ele>2544.27</ele>
        <time>2016-02-21T13:02:18Z</time>
      </trkpt>
      <trkpt lat="46.78098" lon="12.32735">
        <ele>2546.19</ele>
        <time>2016-02-21T13:02:22Z</time>
      </trkpt>
      <trkpt lat="46.78097" lon="12.32735">
        <ele>2544.75</ele>
        <time>2016-02-21T13:02:26Z</time>
      </trkpt>
      <trkpt lat="46.78097" lon="12.32735">
        <ele>2548.11</ele>
        <time>2016-02-21T13:02:27Z</time>
      </trkpt>
      <trkpt lat="46.78097" lon="12.32735">
        <ele>2550.03</ele>
        <time>2016-02-21T13:02:29Z</time>
      </trkpt>
      <trkpt lat="46.78097" lon="12.32736">
        <ele>2547.63</ele>
        <time>2016-02-21T13:02:32Z</time>
      </trkpt>
      <trkpt lat="46.78096" lon="12.32735">
        <ele>2545.71</ele>
        <time>2016-02-21T13:02:39Z</time>
      </trkpt>
      <trkpt lat="46.78096" lon="12.32735">
        <ele>2543.79</ele>
        <time>2016-02-21T13:02:46Z</time>
      </trkpt>
      <trkpt lat="46.78096" lon="12.32736">
        <ele>2549.07</ele>
        <time>2016-02-21T13:02:50Z</time>
      </trkpt>
      <trkpt lat="46.78097" lon="12.32736">
        <ele>2548.11</ele>
        <time>2016-02-21T13:02:51Z</time>
      </trkpt>
      <trkpt lat="46.78097" lon="12.32736">
        <ele>2544.27</ele>
        <time>2016-02-21T13:02:53Z</time>
      </trkpt>
      <trkpt lat="46.78096" lon="12.32735">
        <ele>2545.71</ele>
        <time>2016-02-21T13:03:11Z</time>
      </trkpt>
      <trkpt lat="46.78097" lon="12.32734">
        <ele>2551</ele>
        <time>2016-02-21T13:03:29Z</time>
      </trkpt>
      <trkpt lat="46.78097" lon="12.32734">
        <ele>2549.55</ele>
        <time>2016-02-21T13:03:30Z</time>
      </trkpt>
      <trkpt lat="46.78097" lon="12.32734">
        <ele>2546.67</ele>
        <time>2016-02-21T13:03:34Z</time>
      </trkpt>
      <trkpt lat="46.78097" lon="12.32735">
        <ele>2542.34</ele>
        <time>2016-02-21T13:03:35Z</time>
      </trkpt>
      <trkpt lat="46.78097" lon="12.32734">
        <ele>2538.5</ele>
        <time>2016-02-21T13:03:37Z</time>
      </trkpt>
      <trkpt lat="46.78098" lon="12.32735">
        <ele>2538.98</ele>
        <time>2016-02-21T13:03:38Z</time>
      </trkpt>
      <trkpt lat="46.78098" lon="12.32735">
        <ele>2541.38</ele>
        <time>2016-02-21T13:03:40Z</time>
      </trkpt>
      <trkpt lat="46.78097" lon="12.32734">
        <ele>2537.54</ele>
        <time>2016-02-21T13:03:43Z</time>
      </trkpt>
      <trkpt lat="46.78097" lon="12.32735">
        <ele>2535.13</ele>
        <time>2016-02-21T13:03:45Z</time>
      </trkpt>
      <trkpt lat="46.78097" lon="12.32735">
        <ele>2540.42</ele>
        <time>2016-02-21T13:03:47Z</time>
      </trkpt>
      <trkpt lat="46.78097" lon="12.32734">
        <ele>2539.46</ele>
        <time>2016-02-21T13:03:48Z</time>
      </trkpt>
      <trkpt lat="46.78097" lon="12.32735">
        <ele>2544.75</ele>
        <time>2016-02-21T13:03:50Z</time>
      </trkpt>
      <trkpt lat="46.78098" lon="12.32734">
        <ele>2545.71</ele>
        <time>2016-02-21T13:03:52Z</time>
      </trkpt>
      <trkpt lat="46.78098" lon="12.32734">
        <ele>2539.94</ele>
        <time>2016-02-21T13:03:56Z</time>
      </trkpt>
      <trkpt lat="46.78098" lon="12.32734">
        <ele>2543.31</ele>
        <time>2016-02-21T13:03:57Z</time>
      </trkpt>
      <trkpt lat="46.78098" lon="12.32735">
        <ele>2546.67</ele>
        <time>2016-02-21T13:04:01Z</time>
      </trkpt>
      <trkpt lat="46.78098" lon="12.32735">
        <ele>2542.82</ele>
        <time>2016-02-21T13:04:08Z</time>
      </trkpt>
      <trkpt lat="46.78098" lon="12.32735">
        <ele>2539.94</ele>
        <time>2016-02-21T13:04:13Z</time>
      </trkpt>
      <trkpt lat="46.78097" lon="12.32734">
        <ele>2532.25</ele>
        <time>2016-02-21T13:04:19Z</time>
      </trkpt>
      <trkpt lat="46.78098" lon="12.32734">
        <ele>2535.13</ele>
        <time>2016-02-21T13:04:20Z</time>
      </trkpt>
      <trkpt lat="46.78098" lon="12.32733">
        <ele>2537.54</ele>
        <time>2016-02-21T13:04:28Z</time>
      </trkpt>
      <trkpt lat="46.78097" lon="12.32734">
        <ele>2536.1</ele>
        <time>2016-02-21T13:04:30Z</time>
      </trkpt>
      <trkpt lat="46.78097" lon="12.32734">
        <ele>2539.94</ele>
        <time>2016-02-21T13:04:34Z</time>
      </trkpt>
      <trkpt lat="46.78098" lon="12.32734">
        <ele>2544.27</ele>
        <time>2016-02-21T13:04:46Z</time>
      </trkpt>
      <trkpt lat="46.78099" lon="12.32733">
        <ele>2541.86</ele>
        <time>2016-02-21T13:04:50Z</time>
      </trkpt>
      <trkpt lat="46.78098" lon="12.32733">
        <ele>2540.9</ele>
        <time>2016-02-21T13:04:56Z</time>
      </trkpt>
      <trkpt lat="46.78098" lon="12.32732">
        <ele>2541.86</ele>
        <time>2016-02-21T13:04:58Z</time>
      </trkpt>
      <trkpt lat="46.781" lon="12.3273">
        <ele>2534.65</ele>
        <time>2016-02-21T13:05:09Z</time>
      </trkpt>
      <trkpt lat="46.78102" lon="12.32727">
        <ele>2536.58</ele>
        <time>2016-02-21T13:05:12Z</time>
      </trkpt>
      <trkpt lat="46.78104" lon="12.32726">
        <ele>2540.9</ele>
        <time>2016-02-21T13:05:14Z</time>
      </trkpt>
      <trkpt lat="46.78104" lon="12.32725">
        <ele>2540.9</ele>
        <time>2016-02-21T13:05:15Z</time>
      </trkpt>
      <trkpt lat="46.78105" lon="12.32721">
        <ele>2539.46</ele>
        <time>2016-02-21T13:05:19Z</time>
      </trkpt>
      <trkpt lat="46.78105" lon="12.32721">
        <ele>2536.1</ele>
        <time>2016-02-21T13:05:20Z</time>
      </trkpt>
      <trkpt lat="46.78105" lon="12.3272">
        <ele>2547.15</ele>
        <time>2016-02-21T13:05:21Z</time>
      </trkpt>
      <trkpt lat="46.78105" lon="12.32719">
        <ele>2548.11</ele>
        <time>2016-02-21T13:05:22Z</time>
      </trkpt>
      <trkpt lat="46.78106" lon="12.32717">
        <ele>2544.75</ele>
        <time>2016-02-21T13:05:24Z</time>
      </trkpt>
      <trkpt lat="46.78115" lon="12.32709">
        <ele>2540.42</ele>
        <time>2016-02-21T13:05:28Z</time>
      </trkpt>
      <trkpt lat="46.78115" lon="12.32708">
        <ele>2541.38</ele>
        <time>2016-02-21T13:05:29Z</time>
      </trkpt>
      <trkpt lat="46.78117" lon="12.32707">
        <ele>2537.54</ele>
        <time>2016-02-21T13:05:33Z</time>
      </trkpt>
      <trkpt lat="46.78118" lon="12.32707">
        <ele>2537.06</ele>
        <time>2016-02-21T13:05:34Z</time>
      </trkpt>
      <trkpt lat="46.78124" lon="12.32698">
        <ele>2539.46</ele>
        <time>2016-02-21T13:05:38Z</time>
      </trkpt>
      <trkpt lat="46.78131" lon="12.3269">
        <ele>2545.71</ele>
        <time>2016-02-21T13:05:40Z</time>
      </trkpt>
      <trkpt lat="46.78133" lon="12.32687">
        <ele>2546.67</ele>
        <time>2016-02-21T13:05:42Z</time>
      </trkpt>
      <trkpt lat="46.78138" lon="12.32684">
        <ele>2546.19</ele>
        <time>2016-02-21T13:05:55Z</time>
      </trkpt>
      <trkpt lat="46.7814" lon="12.32683">
        <ele>2550.03</ele>
        <time>2016-02-21T13:06:02Z</time>
      </trkpt>
      <trkpt lat="46.7814" lon="12.32683">
        <ele>2550.03</ele>
        <time>2016-02-21T13:06:03Z</time>
      </trkpt>
      <trkpt lat="46.78141" lon="12.32682">
        <ele>2546.67</ele>
        <time>2016-02-21T13:06:06Z</time>
      </trkpt>
      <trkpt lat="46.78142" lon="12.32682">
        <ele>2547.15</ele>
        <time>2016-02-21T13:06:07Z</time>
      </trkpt>
      <trkpt lat="46.78142" lon="12.32682">
        <ele>2551</ele>
        <time>2016-02-21T13:06:10Z</time>
      </trkpt>
      <trkpt lat="46.78144" lon="12.32679">
        <ele>2550.03</ele>
        <time>2016-02-21T13:06:23Z</time>
      </trkpt>
      <trkpt lat="46.78144" lon="12.32678">
        <ele>2548.59</ele>
        <time>2016-02-21T13:06:27Z</time>
      </trkpt>
      <trkpt lat="46.78145" lon="12.32676">
        <ele>2549.07</ele>
        <time>2016-02-21T13:06:42Z</time>
      </trkpt>
      <trkpt lat="46.78145" lon="12.32675">
        <ele>2548.59</ele>
        <time>2016-02-21T13:06:43Z</time>
      </trkpt>
      <trkpt lat="46.78146" lon="12.32674">
        <ele>2545.71</ele>
        <time>2016-02-21T13:06:49Z</time>
      </trkpt>
      <trkpt lat="46.78146" lon="12.32674">
        <ele>2545.71</ele>
        <time>2016-02-21T13:06:50Z</time>
      </trkpt>
      <trkpt lat="46.78146" lon="12.32674">
        <ele>2544.27</ele>
        <time>2016-02-21T13:06:56Z</time>
      </trkpt>
      <trkpt lat="46.78146" lon="12.32674">
        <ele>2547.15</ele>
        <time>2016-02-21T13:06:58Z</time>
      </trkpt>
      <trkpt lat="46.78146" lon="12.32674">
        <ele>2543.79</ele>
        <time>2016-02-21T13:07:01Z</time>
      </trkpt>
      <trkpt lat="46.78146" lon="12.32674">
        <ele>2543.31</ele>
        <time>2016-02-21T13:07:02Z</time>
      </trkpt>
      <trkpt lat="46.78146" lon="12.32674">
        <ele>2546.67</ele>
        <time>2016-02-21T13:07:09Z</time>
      </trkpt>
      <trkpt lat="46.78146" lon="12.32674">
        <ele>2545.71</ele>
        <time>2016-02-21T13:07:10Z</time>
      </trkpt>
      <trkpt lat="46.78146" lon="12.32673">
        <ele>2548.59</ele>
        <time>2016-02-21T13:07:16Z</time>
      </trkpt>
      <trkpt lat="46.78148" lon="12.3267">
        <ele>2543.31</ele>
        <time>2016-02-21T13:07:20Z</time>
      </trkpt>
      <trkpt lat="46.78149" lon="12.32669">
        <ele>2544.27</ele>
        <time>2016-02-21T13:07:21Z</time>
      </trkpt>
      <trkpt lat="46.78151" lon="12.32668">
        <ele>2544.27</ele>
        <time>2016-02-21T13:07:29Z</time>
      </trkpt>
      <trkpt lat="46.78157" lon="12.32665">
        <ele>2538.02</ele>
        <time>2016-02-21T13:07:32Z</time>
      </trkpt>
      <trkpt lat="46.78159" lon="12.32665">
        <ele>2534.65</ele>
        <time>2016-02-21T13:07:33Z</time>
      </trkpt>
      <trkpt lat="46.78161" lon="12.32664">
        <ele>2534.65</ele>
        <time>2016-02-21T13:07:34Z</time>
      </trkpt>
      <trkpt lat="46.78166" lon="12.32665">
        <ele>2534.65</ele>
        <time>2016-02-21T13:07:37Z</time>
      </trkpt>
      <trkpt lat="46.78167" lon="12.32669">
        <ele>2533.21</ele>
        <time>2016-02-21T13:07:43Z</time>
      </trkpt>
      <trkpt lat="46.78167" lon="12.32669">
        <ele>2535.13</ele>
        <time>2016-02-21T13:07:45Z</time>
      </trkpt>
      <trkpt lat="46.78166" lon="12.32669">
        <ele>2530.33</ele>
        <time>2016-02-21T13:07:50Z</time>
      </trkpt>
      <trkpt lat="46.78166" lon="12.32669">
        <ele>2533.69</ele>
        <time>2016-02-21T13:07:53Z</time>
      </trkpt>
      <trkpt lat="46.78166" lon="12.32669">
        <ele>2530.33</ele>
        <time>2016-02-21T13:07:56Z</time>
      </trkpt>
      <trkpt lat="46.78166" lon="12.32669">
        <ele>2533.69</ele>
        <time>2016-02-21T13:08:00Z</time>
      </trkpt>
      <trkpt lat="46.78165" lon="12.32669">
        <ele>2537.54</ele>
        <time>2016-02-21T13:08:02Z</time>
      </trkpt>
      <trkpt lat="46.78165" lon="12.32668">
        <ele>2536.58</ele>
        <time>2016-02-21T13:08:03Z</time>
      </trkpt>
      <trkpt lat="46.78166" lon="12.32668">
        <ele>2534.65</ele>
        <time>2016-02-21T13:08:08Z</time>
      </trkpt>
      <trkpt lat="46.78165" lon="12.32668">
        <ele>2532.73</ele>
        <time>2016-02-21T13:08:14Z</time>
      </trkpt>
      <trkpt lat="46.78166" lon="12.32668">
        <ele>2529.37</ele>
        <time>2016-02-21T13:08:17Z</time>
      </trkpt>
      <trkpt lat="46.78166" lon="12.32668">
        <ele>2533.69</ele>
        <time>2016-02-21T13:08:18Z</time>
      </trkpt>
      <trkpt lat="46.78166" lon="12.32668">
        <ele>2534.17</ele>
        <time>2016-02-21T13:08:19Z</time>
      </trkpt>
      <trkpt lat="46.78166" lon="12.32667">
        <ele>2526.48</ele>
        <time>2016-02-21T13:08:21Z</time>
      </trkpt>
      <trkpt lat="46.78166" lon="12.32667">
        <ele>2532.73</ele>
        <time>2016-02-21T13:08:22Z</time>
      </trkpt>
      <trkpt lat="46.78166" lon="12.32667">
        <ele>2534.17</ele>
        <time>2016-02-21T13:08:24Z</time>
      </trkpt>
      <trkpt lat="46.78166" lon="12.32666">
        <ele>2530.81</ele>
        <time>2016-02-21T13:08:28Z</time>
      </trkpt>
      <trkpt lat="46.78166" lon="12.32666">
        <ele>2532.25</ele>
        <time>2016-02-21T13:08:33Z</time>
      </trkpt>
      <trkpt lat="46.78166" lon="12.32666">
        <ele>2529.37</ele>
        <time>2016-02-21T13:08:37Z</time>
      </trkpt>
      <trkpt lat="46.78166" lon="12.32667">
        <ele>2532.73</ele>
        <time>2016-02-21T13:08:53Z</time>
      </trkpt>
      <trkpt lat="46.78166" lon="12.32667">
        <ele>2530.81</ele>
        <time>2016-02-21T13:08:57Z</time>
      </trkpt>
      <trkpt lat="46.78166" lon="12.32667">
        <ele>2533.69</ele>
        <time>2016-02-21T13:08:59Z</time>
      </trkpt>
      <trkpt lat="46.78166" lon="12.32667">
        <ele>2533.69</ele>
        <time>2016-02-21T13:09:00Z</time>
      </trkpt>
      <trkpt lat="46.78167" lon="12.32668">
        <ele>2532.73</ele>
        <time>2016-02-21T13:09:04Z</time>
      </trkpt>
      <trkpt lat="46.78167" lon="12.32668">
        <ele>2527.92</ele>
        <time>2016-02-21T13:09:08Z</time>
      </trkpt>
      <trkpt lat="46.78167" lon="12.32668">
        <ele>2528.4</ele>
        <time>2016-02-21T13:09:09Z</time>
      </trkpt>
      <trkpt lat="46.78167" lon="12.32668">
        <ele>2533.21</ele>
        <time>2016-02-21T13:09:10Z</time>
      </trkpt>
      <trkpt lat="46.78167" lon="12.32668">
        <ele>2532.25</ele>
        <time>2016-02-21T13:09:11Z</time>
      </trkpt>
      <trkpt lat="46.78167" lon="12.32668">
        <ele>2530.33</ele>
        <time>2016-02-21T13:09:15Z</time>
      </trkpt>
      <trkpt lat="46.78166" lon="12.32668">
        <ele>2534.65</ele>
        <time>2016-02-21T13:09:18Z</time>
      </trkpt>
      <trkpt lat="46.78166" lon="12.3267">
        <ele>2534.65</ele>
        <time>2016-02-21T13:09:19Z</time>
      </trkpt>
      <trkpt lat="46.7817" lon="12.32674">
        <ele>2528.4</ele>
        <time>2016-02-21T13:09:22Z</time>
      </trkpt>
      <trkpt lat="46.78172" lon="12.32673">
        <ele>2528.4</ele>
        <time>2016-02-21T13:09:23Z</time>
      </trkpt>
      <trkpt lat="46.78175" lon="12.32673">
        <ele>2527.44</ele>
        <time>2016-02-21T13:09:25Z</time>
      </trkpt>
      <trkpt lat="46.78184" lon="12.32672">
        <ele>2524.08</ele>
        <time>2016-02-21T13:09:30Z</time>
      </trkpt>
      <trkpt lat="46.78185" lon="12.32675">
        <ele>2524.08</ele>
        <time>2016-02-21T13:09:32Z</time>
      </trkpt>
      <trkpt lat="46.78184" lon="12.32676">
        <ele>2524.08</ele>
        <time>2016-02-21T13:09:41Z</time>
      </trkpt>
      <trkpt lat="46.78183" lon="12.32677">
        <ele>2527.44</ele>
        <time>2016-02-21T13:09:50Z</time>
      </trkpt>
      <trkpt lat="46.78183" lon="12.32677">
        <ele>2526.48</ele>
        <time>2016-02-21T13:09:58Z</time>
      </trkpt>
      <trkpt lat="46.78183" lon="12.32677">
        <ele>2530.33</ele>
        <time>2016-02-21T13:10:01Z</time>
      </trkpt>
      <trkpt lat="46.78183" lon="12.32678">
        <ele>2527.44</ele>
        <time>2016-02-21T13:10:04Z</time>
      </trkpt>
      <trkpt lat="46.78183" lon="12.32679">
        <ele>2528.89</ele>
        <time>2016-02-21T13:10:06Z</time>
      </trkpt>
      <trkpt lat="46.78185" lon="12.32682">
        <ele>2529.37</ele>
        <time>2016-02-21T13:10:08Z</time>
      </trkpt>
      <trkpt lat="46.78188" lon="12.32682">
        <ele>2525.04</ele>
        <time>2016-02-21T13:10:10Z</time>
      </trkpt>
      <trkpt lat="46.78191" lon="12.32683">
        <ele>2522.16</ele>
        <time>2016-02-21T13:10:11Z</time>
      </trkpt>
      <trkpt lat="46.78195" lon="12.32688">
        <ele>2527.92</ele>
        <time>2016-02-21T13:10:13Z</time>
      </trkpt>
      <trkpt lat="46.78196" lon="12.32689">
        <ele>2524.56</ele>
        <time>2016-02-21T13:10:14Z</time>
      </trkpt>
      <trkpt lat="46.78196" lon="12.3269">
        <ele>2524.56</ele>
        <time>2016-02-21T13:10:15Z</time>
      </trkpt>
      <trkpt lat="46.782" lon="12.32693">
        <ele>2526</ele>
        <time>2016-02-21T13:10:18Z</time>
      </trkpt>
      <trkpt lat="46.78204" lon="12.32694">
        <ele>2523.12</ele>
        <time>2016-02-21T13:10:20Z</time>
      </trkpt>
      <trkpt lat="46.78209" lon="12.32698">
        <ele>2519.75</ele>
        <time>2016-02-21T13:10:22Z</time>
      </trkpt>
      <trkpt lat="46.78212" lon="12.32701">
        <ele>2519.75</ele>
        <time>2016-02-21T13:10:23Z</time>
      </trkpt>
      <trkpt lat="46.78218" lon="12.32708">
        <ele>2516.39</ele>
        <time>2016-02-21T13:10:25Z</time>
      </trkpt>
      <trkpt lat="46.78226" lon="12.32716">
        <ele>2512.54</ele>
        <time>2016-02-21T13:10:27Z</time>
      </trkpt>
      <trkpt lat="46.78238" lon="12.32727">
        <ele>2509.18</ele>
        <time>2016-02-21T13:10:30Z</time>
      </trkpt>
      <trkpt lat="46.7824" lon="12.32731">
        <ele>2510.14</ele>
        <time>2016-02-21T13:10:37Z</time>
      </trkpt>
      <trkpt lat="46.78244" lon="12.32735">
        <ele>2505.81</ele>
        <time>2016-02-21T13:10:40Z</time>
      </trkpt>
      <trkpt lat="46.78246" lon="12.32736">
        <ele>2504.37</ele>
        <time>2016-02-21T13:10:49Z</time>
      </trkpt>
      <trkpt lat="46.78246" lon="12.32735">
        <ele>2502.93</ele>
        <time>2016-02-21T13:10:55Z</time>
      </trkpt>
      <trkpt lat="46.78246" lon="12.32736">
        <ele>2504.85</ele>
        <time>2016-02-21T13:11:05Z</time>
      </trkpt>
      <trkpt lat="46.78246" lon="12.32736">
        <ele>2503.41</ele>
        <time>2016-02-21T13:11:31Z</time>
      </trkpt>
      <trkpt lat="46.78246" lon="12.32736">
        <ele>2502.45</ele>
        <time>2016-02-21T13:11:51Z</time>
      </trkpt>
      <trkpt lat="46.78245" lon="12.32735">
        <ele>2502.93</ele>
        <time>2016-02-21T13:12:10Z</time>
      </trkpt>
      <trkpt lat="46.78245" lon="12.32736">
        <ele>2502.93</ele>
        <time>2016-02-21T13:12:30Z</time>
      </trkpt>
      <trkpt lat="46.78245" lon="12.32737">
        <ele>2504.37</ele>
        <time>2016-02-21T13:12:48Z</time>
      </trkpt>
      <trkpt lat="46.78246" lon="12.32743">
        <ele>2501.97</ele>
        <time>2016-02-21T13:12:50Z</time>
      </trkpt>
      <trkpt lat="46.78253" lon="12.32748">
        <ele>2499.08</ele>
        <time>2016-02-21T13:12:52Z</time>
      </trkpt>
      <trkpt lat="46.78258" lon="12.3275">
        <ele>2503.41</ele>
        <time>2016-02-21T13:12:55Z</time>
      </trkpt>
      <trkpt lat="46.78263" lon="12.32753">
        <ele>2499.57</ele>
        <time>2016-02-21T13:12:58Z</time>
      </trkpt>
      <trkpt lat="46.78265" lon="12.32751">
        <ele>2500.53</ele>
        <time>2016-02-21T13:12:59Z</time>
      </trkpt>
      <trkpt lat="46.78268" lon="12.3275">
        <ele>2504.85</ele>
        <time>2016-02-21T13:13:00Z</time>
      </trkpt>
      <trkpt lat="46.7827" lon="12.3275">
        <ele>2502.93</ele>
        <time>2016-02-21T13:13:01Z</time>
      </trkpt>
      <trkpt lat="46.7827" lon="12.32753">
        <ele>2499.08</ele>
        <time>2016-02-21T13:13:03Z</time>
      </trkpt>
      <trkpt lat="46.78269" lon="12.32753">
        <ele>2495.24</ele>
        <time>2016-02-21T13:13:08Z</time>
      </trkpt>
      <trkpt lat="46.78269" lon="12.32754">
        <ele>2494.76</ele>
        <time>2016-02-21T13:13:10Z</time>
      </trkpt>
      <trkpt lat="46.78269" lon="12.32754">
        <ele>2498.6</ele>
        <time>2016-02-21T13:13:13Z</time>
      </trkpt>
      <trkpt lat="46.78269" lon="12.32754">
        <ele>2498.12</ele>
        <time>2016-02-21T13:13:14Z</time>
      </trkpt>
      <trkpt lat="46.78269" lon="12.32754">
        <ele>2501.97</ele>
        <time>2016-02-21T13:13:21Z</time>
      </trkpt>
      <trkpt lat="46.78269" lon="12.32754">
        <ele>2505.33</ele>
        <time>2016-02-21T13:13:29Z</time>
      </trkpt>
      <trkpt lat="46.78269" lon="12.32754">
        <ele>2505.33</ele>
        <time>2016-02-21T13:13:30Z</time>
      </trkpt>
      <trkpt lat="46.78269" lon="12.32755">
        <ele>2501.97</ele>
        <time>2016-02-21T13:13:34Z</time>
      </trkpt>
      <trkpt lat="46.78272" lon="12.32763">
        <ele>2495.72</ele>
        <time>2016-02-21T13:13:37Z</time>
      </trkpt>
      <trkpt lat="46.78276" lon="12.32778">
        <ele>2493.32</ele>
        <time>2016-02-21T13:13:42Z</time>
      </trkpt>
      <trkpt lat="46.78279" lon="12.32784">
        <ele>2494.28</ele>
        <time>2016-02-21T13:13:44Z</time>
      </trkpt>
      <trkpt lat="46.78279" lon="12.32787">
        <ele>2491.87</ele>
        <time>2016-02-21T13:13:45Z</time>
      </trkpt>
      <trkpt lat="46.7828" lon="12.32789">
        <ele>2489.95</ele>
        <time>2016-02-21T13:13:46Z</time>
      </trkpt>
      <trkpt lat="46.78281" lon="12.3279">
        <ele>2491.39</ele>
        <time>2016-02-21T13:13:47Z</time>
      </trkpt>
      <trkpt lat="46.78282" lon="12.32793">
        <ele>2490.43</ele>
        <time>2016-02-21T13:13:48Z</time>
      </trkpt>
      <trkpt lat="46.78284" lon="12.32796">
        <ele>2489.47</ele>
        <time>2016-02-21T13:13:49Z</time>
      </trkpt>
      <trkpt lat="46.78285" lon="12.32799">
        <ele>2488.51</ele>
        <time>2016-02-21T13:13:51Z</time>
      </trkpt>
      <trkpt lat="46.78284" lon="12.32799">
        <ele>2491.39</ele>
        <time>2016-02-21T13:13:54Z</time>
      </trkpt>
      <trkpt lat="46.78285" lon="12.32799">
        <ele>2487.07</ele>
        <time>2016-02-21T13:13:58Z</time>
      </trkpt>
      <trkpt lat="46.78284" lon="12.32799">
        <ele>2488.51</ele>
        <time>2016-02-21T13:13:59Z</time>
      </trkpt>
      <trkpt lat="46.78288" lon="12.328">
        <ele>2487.07</ele>
        <time>2016-02-21T13:14:14Z</time>
      </trkpt>
      <trkpt lat="46.78289" lon="12.32803">
        <ele>2487.07</ele>
        <time>2016-02-21T13:14:15Z</time>
      </trkpt>
      <trkpt lat="46.7829" lon="12.32806">
        <ele>2484.66</ele>
        <time>2016-02-21T13:14:16Z</time>
      </trkpt>
      <trkpt lat="46.7829" lon="12.32809">
        <ele>2484.18</ele>
        <time>2016-02-21T13:14:17Z</time>
      </trkpt>
      <trkpt lat="46.7829" lon="12.32811">
        <ele>2485.15</ele>
        <time>2016-02-21T13:14:18Z</time>
      </trkpt>
      <trkpt lat="46.78292" lon="12.32813">
        <ele>2487.07</ele>
        <time>2016-02-21T13:14:19Z</time>
      </trkpt>
      <trkpt lat="46.78295" lon="12.32813">
        <ele>2487.55</ele>
        <time>2016-02-21T13:14:20Z</time>
      </trkpt>
      <trkpt lat="46.78297" lon="12.32815">
        <ele>2488.99</ele>
        <time>2016-02-21T13:14:21Z</time>
      </trkpt>
      <trkpt lat="46.78297" lon="12.32818">
        <ele>2485.63</ele>
        <time>2016-02-21T13:14:22Z</time>
      </trkpt>
      <trkpt lat="46.78298" lon="12.32821">
        <ele>2482.26</ele>
        <time>2016-02-21T13:14:23Z</time>
      </trkpt>
      <trkpt lat="46.783" lon="12.32823">
        <ele>2482.26</ele>
        <time>2016-02-21T13:14:24Z</time>
      </trkpt>
      <trkpt lat="46.78304" lon="12.32825">
        <ele>2482.26</ele>
        <time>2016-02-21T13:14:26Z</time>
      </trkpt>
      <trkpt lat="46.78305" lon="12.32828">
        <ele>2483.7</ele>
        <time>2016-02-21T13:14:27Z</time>
      </trkpt>
      <trkpt lat="46.78305" lon="12.32831">
        <ele>2480.82</ele>
        <time>2016-02-21T13:14:28Z</time>
      </trkpt>
      <trkpt lat="46.78305" lon="12.32833">
        <ele>2476.97</ele>
        <time>2016-02-21T13:14:29Z</time>
      </trkpt>
      <trkpt lat="46.78305" lon="12.32833">
        <ele>2476.49</ele>
        <time>2016-02-21T13:14:30Z</time>
      </trkpt>
      <trkpt lat="46.78304" lon="12.32834">
        <ele>2479.86</ele>
        <time>2016-02-21T13:14:33Z</time>
      </trkpt>
      <trkpt lat="46.78304" lon="12.32833">
        <ele>2476.01</ele>
        <time>2016-02-21T13:14:49Z</time>
      </trkpt>
      <trkpt lat="46.78304" lon="12.32833">
        <ele>2472.17</ele>
        <time>2016-02-21T13:14:54Z</time>
      </trkpt>
      <trkpt lat="46.78305" lon="12.32834">
        <ele>2471.21</ele>
        <time>2016-02-21T13:14:56Z</time>
      </trkpt>
      <trkpt lat="46.78305" lon="12.32834">
        <ele>2474.09</ele>
        <time>2016-02-21T13:14:58Z</time>
      </trkpt>
      <trkpt lat="46.78304" lon="12.32834">
        <ele>2477.94</ele>
        <time>2016-02-21T13:15:01Z</time>
      </trkpt>
      <trkpt lat="46.78304" lon="12.32834">
        <ele>2479.38</ele>
        <time>2016-02-21T13:15:03Z</time>
      </trkpt>
      <trkpt lat="46.78304" lon="12.32834">
        <ele>2483.22</ele>
        <time>2016-02-21T13:15:08Z</time>
      </trkpt>
      <trkpt lat="46.78305" lon="12.32834">
        <ele>2479.38</ele>
        <time>2016-02-21T13:15:11Z</time>
      </trkpt>
      <trkpt lat="46.78304" lon="12.32833">
        <ele>2474.57</ele>
        <time>2016-02-21T13:15:13Z</time>
      </trkpt>
      <trkpt lat="46.78305" lon="12.32834">
        <ele>2478.42</ele>
        <time>2016-02-21T13:15:22Z</time>
      </trkpt>
      <trkpt lat="46.78305" lon="12.32834">
        <ele>2477.45</ele>
        <time>2016-02-21T13:15:23Z</time>
      </trkpt>
      <trkpt lat="46.78307" lon="12.32839">
        <ele>2471.69</ele>
        <time>2016-02-21T13:15:26Z</time>
      </trkpt>
      <trkpt lat="46.78308" lon="12.32839">
        <ele>2464.48</ele>
        <time>2016-02-21T13:15:27Z</time>
      </trkpt>
      <trkpt lat="46.78307" lon="12.32839">
        <ele>2466.88</ele>
        <time>2016-02-21T13:15:28Z</time>
      </trkpt>
      <trkpt lat="46.78308" lon="12.32839">
        <ele>2473.13</ele>
        <time>2016-02-21T13:15:29Z</time>
      </trkpt>
      <trkpt lat="46.78308" lon="12.32839">
        <ele>2467.84</ele>
        <time>2016-02-21T13:15:30Z</time>
      </trkpt>
      <trkpt lat="46.78308" lon="12.32838">
        <ele>2474.57</ele>
        <time>2016-02-21T13:15:31Z</time>
      </trkpt>
      <trkpt lat="46.78308" lon="12.32838">
        <ele>2479.38</ele>
        <time>2016-02-21T13:15:32Z</time>
      </trkpt>
      <trkpt lat="46.78311" lon="12.32846">
        <ele>2474.09</ele>
        <time>2016-02-21T13:15:35Z</time>
      </trkpt>
      <trkpt lat="46.78312" lon="12.3285">
        <ele>2474.57</ele>
        <time>2016-02-21T13:15:36Z</time>
      </trkpt>
      <trkpt lat="46.78314" lon="12.32854">
        <ele>2476.01</ele>
        <time>2016-02-21T13:15:37Z</time>
      </trkpt>
      <trkpt lat="46.78316" lon="12.32858">
        <ele>2472.17</ele>
        <time>2016-02-21T13:15:39Z</time>
      </trkpt>
      <trkpt lat="46.78321" lon="12.32867">
        <ele>2468.32</ele>
        <time>2016-02-21T13:15:45Z</time>
      </trkpt>
      <trkpt lat="46.7832" lon="12.32867">
        <ele>2464.48</ele>
        <time>2016-02-21T13:15:46Z</time>
      </trkpt>
      <trkpt lat="46.7832" lon="12.32867">
        <ele>2464.96</ele>
        <time>2016-02-21T13:15:47Z</time>
      </trkpt>
      <trkpt lat="46.7832" lon="12.32867">
        <ele>2469.28</ele>
        <time>2016-02-21T13:15:48Z</time>
      </trkpt>
      <trkpt lat="46.7832" lon="12.32867">
        <ele>2470.24</ele>
        <time>2016-02-21T13:15:50Z</time>
      </trkpt>
      <trkpt lat="46.78321" lon="12.32867">
        <ele>2464.48</ele>
        <time>2016-02-21T13:15:53Z</time>
      </trkpt>
      <trkpt lat="46.78321" lon="12.32866">
        <ele>2459.67</ele>
        <time>2016-02-21T13:15:54Z</time>
      </trkpt>
      <trkpt lat="46.78321" lon="12.32866">
        <ele>2461.59</ele>
        <time>2016-02-21T13:15:55Z</time>
      </trkpt>
      <trkpt lat="46.7832" lon="12.32865">
        <ele>2463.04</ele>
        <time>2016-02-21T13:15:57Z</time>
      </trkpt>
      <trkpt lat="46.7832" lon="12.32866">
        <ele>2459.67</ele>
        <time>2016-02-21T13:16:01Z</time>
      </trkpt>
      <trkpt lat="46.7832" lon="12.32866">
        <ele>2465.92</ele>
        <time>2016-02-21T13:16:02Z</time>
      </trkpt>
      <trkpt lat="46.7832" lon="12.32866">
        <ele>2471.69</ele>
        <time>2016-02-21T13:16:03Z</time>
      </trkpt>
      <trkpt lat="46.7832" lon="12.32866">
        <ele>2469.76</ele>
        <time>2016-02-21T13:16:04Z</time>
      </trkpt>
      <trkpt lat="46.7832" lon="12.32866">
        <ele>2463.04</ele>
        <time>2016-02-21T13:16:05Z</time>
      </trkpt>
      <trkpt lat="46.7832" lon="12.32865">
        <ele>2458.71</ele>
        <time>2016-02-21T13:16:06Z</time>
      </trkpt>
      <trkpt lat="46.7832" lon="12.32865">
        <ele>2463.52</ele>
        <time>2016-02-21T13:16:07Z</time>
      </trkpt>
      <trkpt lat="46.7832" lon="12.32865">
        <ele>2458.71</ele>
        <time>2016-02-21T13:16:08Z</time>
      </trkpt>
      <trkpt lat="46.7832" lon="12.32866">
        <ele>2465.92</ele>
        <time>2016-02-21T13:16:11Z</time>
      </trkpt>
      <trkpt lat="46.78321" lon="12.32868">
        <ele>2468.8</ele>
        <time>2016-02-21T13:16:13Z</time>
      </trkpt>
      <trkpt lat="46.78322" lon="12.3287">
        <ele>2467.36</ele>
        <time>2016-02-21T13:16:14Z</time>
      </trkpt>
      <trkpt lat="46.78324" lon="12.32872">
        <ele>2464</ele>
        <time>2016-02-21T13:16:15Z</time>
      </trkpt>
      <trkpt lat="46.78326" lon="12.32874">
        <ele>2463.04</ele>
        <time>2016-02-21T13:16:16Z</time>
      </trkpt>
      <trkpt lat="46.78327" lon="12.32878">
        <ele>2464.48</ele>
        <time>2016-02-21T13:16:17Z</time>
      </trkpt>
      <trkpt lat="46.78329" lon="12.32882">
        <ele>2461.11</ele>
        <time>2016-02-21T13:16:18Z</time>
      </trkpt>
      <trkpt lat="46.78333" lon="12.32889">
        <ele>2458.71</ele>
        <time>2016-02-21T13:16:20Z</time>
      </trkpt>
      <trkpt lat="46.78341" lon="12.32905">
        <ele>2456.31</ele>
        <time>2016-02-21T13:16:24Z</time>
      </trkpt>
      <trkpt lat="46.78348" lon="12.3292">
        <ele>2452.94</ele>
        <time>2016-02-21T13:16:28Z</time>
      </trkpt>
      <trkpt lat="46.78365" lon="12.32949">
        <ele>2450.06</ele>
        <time>2016-02-21T13:16:37Z</time>
      </trkpt>
      <trkpt lat="46.78367" lon="12.32955">
        <ele>2447.65</ele>
        <time>2016-02-21T13:16:38Z</time>
      </trkpt>
      <trkpt lat="46.78369" lon="12.32968">
        <ele>2446.21</ele>
        <time>2016-02-21T13:16:40Z</time>
      </trkpt>
      <trkpt lat="46.7837" lon="12.32974">
        <ele>2445.73</ele>
        <time>2016-02-21T13:16:41Z</time>
      </trkpt>
      <trkpt lat="46.78372" lon="12.32979">
        <ele>2445.25</ele>
        <time>2016-02-21T13:16:42Z</time>
      </trkpt>
      <trkpt lat="46.78381" lon="12.33001">
        <ele>2443.81</ele>
        <time>2016-02-21T13:16:47Z</time>
      </trkpt>
      <trkpt lat="46.78382" lon="12.33006">
        <ele>2445.25</ele>
        <time>2016-02-21T13:16:48Z</time>
      </trkpt>
      <trkpt lat="46.78381" lon="12.3301">
        <ele>2446.21</ele>
        <time>2016-02-21T13:16:49Z</time>
      </trkpt>
      <trkpt lat="46.78381" lon="12.33012">
        <ele>2445.73</ele>
        <time>2016-02-21T13:16:50Z</time>
      </trkpt>
      <trkpt lat="46.78381" lon="12.33014">
        <ele>2445.73</ele>
        <time>2016-02-21T13:16:51Z</time>
      </trkpt>
      <trkpt lat="46.7838" lon="12.33016">
        <ele>2446.21</ele>
        <time>2016-02-21T13:16:52Z</time>
      </trkpt>
      <trkpt lat="46.7838" lon="12.33018">
        <ele>2447.65</ele>
        <time>2016-02-21T13:16:53Z</time>
      </trkpt>
      <trkpt lat="46.7838" lon="12.3302">
        <ele>2448.13</ele>
        <time>2016-02-21T13:16:54Z</time>
      </trkpt>
      <trkpt lat="46.7838" lon="12.33022">
        <ele>2448.62</ele>
        <time>2016-02-21T13:16:55Z</time>
      </trkpt>
      <trkpt lat="46.7838" lon="12.33024">
        <ele>2448.62</ele>
        <time>2016-02-21T13:16:56Z</time>
      </trkpt>
      <trkpt lat="46.7838" lon="12.33026">
        <ele>2449.58</ele>
        <time>2016-02-21T13:16:57Z</time>
      </trkpt>
      <trkpt lat="46.7838" lon="12.33029">
        <ele>2446.21</ele>
        <time>2016-02-21T13:17:00Z</time>
      </trkpt>
      <trkpt lat="46.7838" lon="12.33031">
        <ele>2445.25</ele>
        <time>2016-02-21T13:17:02Z</time>
      </trkpt>
      <trkpt lat="46.78381" lon="12.33038">
        <ele>2444.29</ele>
        <time>2016-02-21T13:17:08Z</time>
      </trkpt>
      <trkpt lat="46.78382" lon="12.33047">
        <ele>2447.17</ele>
        <time>2016-02-21T13:17:14Z</time>
      </trkpt>
      <trkpt lat="46.78382" lon="12.3305">
        <ele>2449.1</ele>
        <time>2016-02-21T13:17:17Z</time>
      </trkpt>
      <trkpt lat="46.78383" lon="12.33052">
        <ele>2448.13</ele>
        <time>2016-02-21T13:17:18Z</time>
      </trkpt>
      <trkpt lat="46.78383" lon="12.33053">
        <ele>2447.65</ele>
        <time>2016-02-21T13:17:19Z</time>
      </trkpt>
      <trkpt lat="46.78384" lon="12.33056">
        <ele>2448.13</ele>
        <time>2016-02-21T13:17:20Z</time>
      </trkpt>
      <trkpt lat="46.78386" lon="12.3308">
        <ele>2445.73</ele>
        <time>2016-02-21T13:17:25Z</time>
      </trkpt>
      <trkpt lat="46.78394" lon="12.33115">
        <ele>2444.77</ele>
        <time>2016-02-21T13:17:35Z</time>
      </trkpt>
      <trkpt lat="46.78396" lon="12.33144">
        <ele>2443.33</ele>
        <time>2016-02-21T13:17:45Z</time>
      </trkpt>
      <trkpt lat="46.78398" lon="12.33171">
        <ele>2443.33</ele>
        <time>2016-02-21T13:17:51Z</time>
      </trkpt>
      <trkpt lat="46.78398" lon="12.33171">
        <ele>2443.81</ele>
        <time>2016-02-21T13:18:02Z</time>
      </trkpt>
      <trkpt lat="46.78399" lon="12.33171">
        <ele>2441.41</ele>
        <time>2016-02-21T13:18:07Z</time>
      </trkpt>
      <trkpt lat="46.78399" lon="12.33171">
        <ele>2443.33</ele>
        <time>2016-02-21T13:18:10Z</time>
      </trkpt>
      <trkpt lat="46.784" lon="12.3317">
        <ele>2446.69</ele>
        <time>2016-02-21T13:18:12Z</time>
      </trkpt>
      <trkpt lat="46.784" lon="12.3317">
        <ele>2442.37</ele>
        <time>2016-02-21T13:18:15Z</time>
      </trkpt>
      <trkpt lat="46.78399" lon="12.3317">
        <ele>2445.73</ele>
        <time>2016-02-21T13:18:22Z</time>
      </trkpt>
      <trkpt lat="46.78398" lon="12.33172">
        <ele>2448.13</ele>
        <time>2016-02-21T13:18:31Z</time>
      </trkpt>
      <trkpt lat="46.78398" lon="12.33173">
        <ele>2444.77</ele>
        <time>2016-02-21T13:18:32Z</time>
      </trkpt>
      <trkpt lat="46.78398" lon="12.33175">
        <ele>2443.81</ele>
        <time>2016-02-21T13:18:33Z</time>
      </trkpt>
      <trkpt lat="46.78398" lon="12.33178">
        <ele>2442.37</ele>
        <time>2016-02-21T13:18:34Z</time>
      </trkpt>
      <trkpt lat="46.78399" lon="12.33181">
        <ele>2440.44</ele>
        <time>2016-02-21T13:18:35Z</time>
      </trkpt>
      <trkpt lat="46.78401" lon="12.33183">
        <ele>2440.92</ele>
        <time>2016-02-21T13:18:36Z</time>
      </trkpt>
      <trkpt lat="46.78404" lon="12.33183">
        <ele>2440.92</ele>
        <time>2016-02-21T13:18:37Z</time>
      </trkpt>
      <trkpt lat="46.78407" lon="12.33182">
        <ele>2441.41</ele>
        <time>2016-02-21T13:18:38Z</time>
      </trkpt>
      <trkpt lat="46.78411" lon="12.33181">
        <ele>2440.92</ele>
        <time>2016-02-21T13:18:39Z</time>
      </trkpt>
      <trkpt lat="46.78413" lon="12.33184">
        <ele>2442.37</ele>
        <time>2016-02-21T13:18:40Z</time>
      </trkpt>
      <trkpt lat="46.78415" lon="12.3319">
        <ele>2442.85</ele>
        <time>2016-02-21T13:18:41Z</time>
      </trkpt>
      <trkpt lat="46.78415" lon="12.33196">
        <ele>2439</ele>
        <time>2016-02-21T13:18:42Z</time>
      </trkpt>
      <trkpt lat="46.78415" lon="12.33202">
        <ele>2432.27</ele>
        <time>2016-02-21T13:18:43Z</time>
      </trkpt>
      <trkpt lat="46.78414" lon="12.33208">
        <ele>2437.08</ele>
        <time>2016-02-21T13:18:44Z</time>
      </trkpt>
      <trkpt lat="46.78416" lon="12.33212">
        <ele>2434.68</ele>
        <time>2016-02-21T13:18:45Z</time>
      </trkpt>
      <trkpt lat="46.78418" lon="12.33214">
        <ele>2432.75</ele>
        <time>2016-02-21T13:18:46Z</time>
      </trkpt>
      <trkpt lat="46.7842" lon="12.33218">
        <ele>2432.75</ele>
        <time>2016-02-21T13:18:47Z</time>
      </trkpt>
      <trkpt lat="46.78422" lon="12.33223">
        <ele>2431.79</ele>
        <time>2016-02-21T13:18:48Z</time>
      </trkpt>
      <trkpt lat="46.78424" lon="12.33227">
        <ele>2433.71</ele>
        <time>2016-02-21T13:18:49Z</time>
      </trkpt>
      <trkpt lat="46.78426" lon="12.33231">
        <ele>2434.2</ele>
        <time>2016-02-21T13:18:50Z</time>
      </trkpt>
      <trkpt lat="46.78428" lon="12.33236">
        <ele>2435.16</ele>
        <time>2016-02-21T13:18:51Z</time>
      </trkpt>
      <trkpt lat="46.7843" lon="12.3324">
        <ele>2434.2</ele>
        <time>2016-02-21T13:18:52Z</time>
      </trkpt>
      <trkpt lat="46.7843" lon="12.33244">
        <ele>2437.08</ele>
        <time>2016-02-21T13:18:53Z</time>
      </trkpt>
      <trkpt lat="46.78431" lon="12.33246">
        <ele>2435.16</ele>
        <time>2016-02-21T13:18:54Z</time>
      </trkpt>
      <trkpt lat="46.78431" lon="12.33248">
        <ele>2434.2</ele>
        <time>2016-02-21T13:18:55Z</time>
      </trkpt>
      <trkpt lat="46.78432" lon="12.33249">
        <ele>2434.2</ele>
        <time>2016-02-21T13:18:56Z</time>
      </trkpt>
      <trkpt lat="46.78432" lon="12.33251">
        <ele>2437.08</ele>
        <time>2016-02-21T13:18:57Z</time>
      </trkpt>
      <trkpt lat="46.78433" lon="12.33253">
        <ele>2435.64</ele>
        <time>2016-02-21T13:18:58Z</time>
      </trkpt>
      <trkpt lat="46.78434" lon="12.33255">
        <ele>2437.56</ele>
        <time>2016-02-21T13:19:01Z</time>
      </trkpt>
      <trkpt lat="46.78434" lon="12.33254">
        <ele>2439</ele>
        <time>2016-02-21T13:19:05Z</time>
      </trkpt>
      <trkpt lat="46.78433" lon="12.33256">
        <ele>2434.68</ele>
        <time>2016-02-21T13:19:13Z</time>
      </trkpt>
      <trkpt lat="46.78434" lon="12.33257">
        <ele>2435.16</ele>
        <time>2016-02-21T13:19:14Z</time>
      </trkpt>
      <trkpt lat="46.78434" lon="12.33256">
        <ele>2431.79</ele>
        <time>2016-02-21T13:19:19Z</time>
      </trkpt>
      <trkpt lat="46.78434" lon="12.33256">
        <ele>2430.83</ele>
        <time>2016-02-21T13:19:21Z</time>
      </trkpt>
      <trkpt lat="46.78435" lon="12.33257">
        <ele>2434.68</ele>
        <time>2016-02-21T13:19:29Z</time>
      </trkpt>
      <trkpt lat="46.78435" lon="12.33257">
        <ele>2434.68</ele>
        <time>2016-02-21T13:19:35Z</time>
      </trkpt>
      <trkpt lat="46.78436" lon="12.33259">
        <ele>2434.2</ele>
        <time>2016-02-21T13:19:41Z</time>
      </trkpt>
      <trkpt lat="46.78437" lon="12.33259">
        <ele>2438.52</ele>
        <time>2016-02-21T13:19:43Z</time>
      </trkpt>
      <trkpt lat="46.78438" lon="12.33259">
        <ele>2433.71</ele>
        <time>2016-02-21T13:19:45Z</time>
      </trkpt>
      <trkpt lat="46.78439" lon="12.3326">
        <ele>2429.87</ele>
        <time>2016-02-21T13:19:47Z</time>
      </trkpt>
      <trkpt lat="46.7844" lon="12.3326">
        <ele>2433.23</ele>
        <time>2016-02-21T13:19:48Z</time>
      </trkpt>
      <trkpt lat="46.78441" lon="12.33259">
        <ele>2430.83</ele>
        <time>2016-02-21T13:19:49Z</time>
      </trkpt>
      <trkpt lat="46.78442" lon="12.33259">
        <ele>2433.71</ele>
        <time>2016-02-21T13:19:50Z</time>
      </trkpt>
      <trkpt lat="46.78444" lon="12.33259">
        <ele>2434.2</ele>
        <time>2016-02-21T13:19:51Z</time>
      </trkpt>
      <trkpt lat="46.78446" lon="12.3326">
        <ele>2435.64</ele>
        <time>2016-02-21T13:19:52Z</time>
      </trkpt>
      <trkpt lat="46.78448" lon="12.33261">
        <ele>2429.39</ele>
        <time>2016-02-21T13:19:53Z</time>
      </trkpt>
      <trkpt lat="46.7845" lon="12.33263">
        <ele>2429.87</ele>
        <time>2016-02-21T13:19:54Z</time>
      </trkpt>
      <trkpt lat="46.78457" lon="12.33269">
        <ele>2424.58</ele>
        <time>2016-02-21T13:19:56Z</time>
      </trkpt>
      <trkpt lat="46.7846" lon="12.33273">
        <ele>2423.14</ele>
        <time>2016-02-21T13:19:57Z</time>
      </trkpt>
      <trkpt lat="46.78463" lon="12.33277">
        <ele>2421.22</ele>
        <time>2016-02-21T13:19:58Z</time>
      </trkpt>
      <trkpt lat="46.78465" lon="12.3328">
        <ele>2421.22</ele>
        <time>2016-02-21T13:19:59Z</time>
      </trkpt>
      <trkpt lat="46.78469" lon="12.33286">
        <ele>2419.78</ele>
        <time>2016-02-21T13:20:01Z</time>
      </trkpt>
      <trkpt lat="46.78471" lon="12.33288">
        <ele>2418.81</ele>
        <time>2016-02-21T13:20:02Z</time>
      </trkpt>
      <trkpt lat="46.78472" lon="12.33288">
        <ele>2422.66</ele>
        <time>2016-02-21T13:20:04Z</time>
      </trkpt>
      <trkpt lat="46.78471" lon="12.33288">
        <ele>2419.3</ele>
        <time>2016-02-21T13:20:06Z</time>
      </trkpt>
      <trkpt lat="46.78471" lon="12.33287">
        <ele>2420.26</ele>
        <time>2016-02-21T13:20:13Z</time>
      </trkpt>
      <trkpt lat="46.7847" lon="12.33287">
        <ele>2420.26</ele>
        <time>2016-02-21T13:20:21Z</time>
      </trkpt>
      <trkpt lat="46.78475" lon="12.33294">
        <ele>2420.74</ele>
        <time>2016-02-21T13:20:29Z</time>
      </trkpt>
      <trkpt lat="46.78477" lon="12.33296">
        <ele>2421.7</ele>
        <time>2016-02-21T13:20:30Z</time>
      </trkpt>
      <trkpt lat="46.78479" lon="12.33298">
        <ele>2418.33</ele>
        <time>2016-02-21T13:20:32Z</time>
      </trkpt>
      <trkpt lat="46.78479" lon="12.33299">
        <ele>2417.85</ele>
        <time>2016-02-21T13:20:33Z</time>
      </trkpt>
      <trkpt lat="46.78481" lon="12.333">
        <ele>2417.85</ele>
        <time>2016-02-21T13:20:34Z</time>
      </trkpt>
      <trkpt lat="46.78484" lon="12.33301">
        <ele>2414.49</ele>
        <time>2016-02-21T13:20:35Z</time>
      </trkpt>
      <trkpt lat="46.78487" lon="12.33301">
        <ele>2412.09</ele>
        <time>2016-02-21T13:20:36Z</time>
      </trkpt>
      <trkpt lat="46.78489" lon="12.33303">
        <ele>2413.05</ele>
        <time>2016-02-21T13:20:37Z</time>
      </trkpt>
      <trkpt lat="46.7849" lon="12.33307">
        <ele>2414.49</ele>
        <time>2016-02-21T13:20:38Z</time>
      </trkpt>
      <trkpt lat="46.78492" lon="12.33312">
        <ele>2409.2</ele>
        <time>2016-02-21T13:20:39Z</time>
      </trkpt>
      <trkpt lat="46.78496" lon="12.33316">
        <ele>2406.8</ele>
        <time>2016-02-21T13:20:40Z</time>
      </trkpt>
      <trkpt lat="46.78499" lon="12.3332">
        <ele>2405.36</ele>
        <time>2016-02-21T13:20:41Z</time>
      </trkpt>
      <trkpt lat="46.78502" lon="12.33324">
        <ele>2403.43</ele>
        <time>2016-02-21T13:20:42Z</time>
      </trkpt>
      <trkpt lat="46.78504" lon="12.33326">
        <ele>2403.43</ele>
        <time>2016-02-21T13:20:43Z</time>
      </trkpt>
      <trkpt lat="46.78505" lon="12.33329">
        <ele>2405.84</ele>
        <time>2016-02-21T13:20:47Z</time>
      </trkpt>
      <trkpt lat="46.78503" lon="12.3333">
        <ele>2405.84</ele>
        <time>2016-02-21T13:21:05Z</time>
      </trkpt>
      <trkpt lat="46.78502" lon="12.3333">
        <ele>2405.84</ele>
        <time>2016-02-21T13:21:24Z</time>
      </trkpt>
      <trkpt lat="46.78502" lon="12.33329">
        <ele>2407.76</ele>
        <time>2016-02-21T13:21:34Z</time>
      </trkpt>
      <trkpt lat="46.78502" lon="12.3333">
        <ele>2407.28</ele>
        <time>2016-02-21T13:21:43Z</time>
      </trkpt>
      <trkpt lat="46.78503" lon="12.3333">
        <ele>2403.91</ele>
        <time>2016-02-21T13:21:48Z</time>
      </trkpt>
      <trkpt lat="46.78503" lon="12.3333">
        <ele>2404.39</ele>
        <time>2016-02-21T13:22:04Z</time>
      </trkpt>
      <trkpt lat="46.78502" lon="12.33331">
        <ele>2407.28</ele>
        <time>2016-02-21T13:22:14Z</time>
      </trkpt>
      <trkpt lat="46.78502" lon="12.33331">
        <ele>2406.32</ele>
        <time>2016-02-21T13:22:15Z</time>
      </trkpt>
      <trkpt lat="46.78502" lon="12.33331">
        <ele>2405.36</ele>
        <time>2016-02-21T13:22:17Z</time>
      </trkpt>
      <trkpt lat="46.78503" lon="12.33331">
        <ele>2407.76</ele>
        <time>2016-02-21T13:22:24Z</time>
      </trkpt>
      <trkpt lat="46.78503" lon="12.33331">
        <ele>2405.36</ele>
        <time>2016-02-21T13:22:27Z</time>
      </trkpt>
      <trkpt lat="46.78503" lon="12.33329">
        <ele>2405.84</ele>
        <time>2016-02-21T13:22:45Z</time>
      </trkpt>
      <trkpt lat="46.78503" lon="12.33328">
        <ele>2409.2</ele>
        <time>2016-02-21T13:22:48Z</time>
      </trkpt>
      <trkpt lat="46.78503" lon="12.33329">
        <ele>2409.2</ele>
        <time>2016-02-21T13:22:49Z</time>
      </trkpt>
      <trkpt lat="46.78503" lon="12.33328">
        <ele>2405.84</ele>
        <time>2016-02-21T13:22:51Z</time>
      </trkpt>
      <trkpt lat="46.78502" lon="12.33329">
        <ele>2405.36</ele>
        <time>2016-02-21T13:22:52Z</time>
      </trkpt>
      <trkpt lat="46.78501" lon="12.3333">
        <ele>2402.47</ele>
        <time>2016-02-21T13:23:03Z</time>
      </trkpt>
      <trkpt lat="46.78501" lon="12.33331">
        <ele>2402.47</ele>
        <time>2016-02-21T13:23:04Z</time>
      </trkpt>
      <trkpt lat="46.78501" lon="12.33331">
        <ele>2404.39</ele>
        <time>2016-02-21T13:23:12Z</time>
      </trkpt>
      <trkpt lat="46.78501" lon="12.33331">
        <ele>2407.76</ele>
        <time>2016-02-21T13:23:17Z</time>
      </trkpt>
      <trkpt lat="46.78502" lon="12.33334">
        <ele>2406.32</ele>
        <time>2016-02-21T13:23:31Z</time>
      </trkpt>
      <trkpt lat="46.78503" lon="12.33333">
        <ele>2407.28</ele>
        <time>2016-02-21T13:23:48Z</time>
      </trkpt>
      <trkpt lat="46.78502" lon="12.33333">
        <ele>2407.76</ele>
        <time>2016-02-21T13:23:59Z</time>
      </trkpt>
      <trkpt lat="46.78502" lon="12.33333">
        <ele>2410.16</ele>
        <time>2016-02-21T13:24:03Z</time>
      </trkpt>
      <trkpt lat="46.78502" lon="12.33334">
        <ele>2408.72</ele>
        <time>2016-02-21T13:24:06Z</time>
      </trkpt>
      <trkpt lat="46.78503" lon="12.33334">
        <ele>2404.88</ele>
        <time>2016-02-21T13:24:20Z</time>
      </trkpt>
      <trkpt lat="46.78503" lon="12.33334">
        <ele>2405.84</ele>
        <time>2016-02-21T13:24:21Z</time>
      </trkpt>
      <trkpt lat="46.78504" lon="12.33335">
        <ele>2405.84</ele>
        <time>2016-02-21T13:24:37Z</time>
      </trkpt>
      <trkpt lat="46.78504" lon="12.33335">
        <ele>2406.32</ele>
        <time>2016-02-21T13:24:50Z</time>
      </trkpt>
      <trkpt lat="46.78504" lon="12.33337">
        <ele>2405.36</ele>
        <time>2016-02-21T13:24:58Z</time>
      </trkpt>
      <trkpt lat="46.78503" lon="12.33352">
        <ele>2401.99</ele>
        <time>2016-02-21T13:25:02Z</time>
      </trkpt>
      <trkpt lat="46.78503" lon="12.33356">
        <ele>2401.99</ele>
        <time>2016-02-21T13:25:03Z</time>
      </trkpt>
      <trkpt lat="46.78502" lon="12.3336">
        <ele>2402.47</ele>
        <time>2016-02-21T13:25:04Z</time>
      </trkpt>
      <trkpt lat="46.78498" lon="12.3336">
        <ele>2398.15</ele>
        <time>2016-02-21T13:25:06Z</time>
      </trkpt>
      <trkpt lat="46.78496" lon="12.33357">
        <ele>2398.63</ele>
        <time>2016-02-21T13:25:07Z</time>
      </trkpt>
      <trkpt lat="46.78493" lon="12.33355">
        <ele>2397.67</ele>
        <time>2016-02-21T13:25:09Z</time>
      </trkpt>
      <trkpt lat="46.78488" lon="12.33361">
        <ele>2395.26</ele>
        <time>2016-02-21T13:25:11Z</time>
      </trkpt>
      <trkpt lat="46.78488" lon="12.33367">
        <ele>2396.22</ele>
        <time>2016-02-21T13:25:12Z</time>
      </trkpt>
      <trkpt lat="46.78489" lon="12.33372">
        <ele>2396.22</ele>
        <time>2016-02-21T13:25:13Z</time>
      </trkpt>
      <trkpt lat="46.7849" lon="12.33378">
        <ele>2394.78</ele>
        <time>2016-02-21T13:25:14Z</time>
      </trkpt>
      <trkpt lat="46.78489" lon="12.33383">
        <ele>2391.42</ele>
        <time>2016-02-21T13:25:15Z</time>
      </trkpt>
      <trkpt lat="46.78485" lon="12.334">
        <ele>2387.57</ele>
        <time>2016-02-21T13:25:18Z</time>
      </trkpt>
      <trkpt lat="46.78487" lon="12.33414">
        <ele>2386.61</ele>
        <time>2016-02-21T13:25:20Z</time>
      </trkpt>
      <trkpt lat="46.78489" lon="12.33428">
        <ele>2383.25</ele>
        <time>2016-02-21T13:25:22Z</time>
      </trkpt>
      <trkpt lat="46.78489" lon="12.33435">
        <ele>2379.4</ele>
        <time>2016-02-21T13:25:23Z</time>
      </trkpt>
      <trkpt lat="46.78488" lon="12.33442">
        <ele>2376.04</ele>
        <time>2016-02-21T13:25:24Z</time>
      </trkpt>
      <trkpt lat="46.78485" lon="12.33449">
        <ele>2375.07</ele>
        <time>2016-02-21T13:25:25Z</time>
      </trkpt>
      <trkpt lat="46.78481" lon="12.33453">
        <ele>2376.04</ele>
        <time>2016-02-21T13:25:26Z</time>
      </trkpt>
      <trkpt lat="46.78478" lon="12.33456">
        <ele>2378.44</ele>
        <time>2016-02-21T13:25:27Z</time>
      </trkpt>
      <trkpt lat="46.78477" lon="12.33457">
        <ele>2378.44</ele>
        <time>2016-02-21T13:25:28Z</time>
      </trkpt>
      <trkpt lat="46.78476" lon="12.3346">
        <ele>2378.44</ele>
        <time>2016-02-21T13:25:29Z</time>
      </trkpt>
      <trkpt lat="46.78476" lon="12.33464">
        <ele>2378.44</ele>
        <time>2016-02-21T13:25:30Z</time>
      </trkpt>
      <trkpt lat="46.78478" lon="12.33468">
        <ele>2377.48</ele>
        <time>2016-02-21T13:25:31Z</time>
      </trkpt>
      <trkpt lat="46.78481" lon="12.33471">
        <ele>2377</ele>
        <time>2016-02-21T13:25:32Z</time>
      </trkpt>
      <trkpt lat="46.78484" lon="12.33474">
        <ele>2376.52</ele>
        <time>2016-02-21T13:25:33Z</time>
      </trkpt>
      <trkpt lat="46.78486" lon="12.33478">
        <ele>2374.11</ele>
        <time>2016-02-21T13:25:34Z</time>
      </trkpt>
      <trkpt lat="46.78485" lon="12.33482">
        <ele>2370.27</ele>
        <time>2016-02-21T13:25:35Z</time>
      </trkpt>
      <trkpt lat="46.78482" lon="12.33485">
        <ele>2370.75</ele>
        <time>2016-02-21T13:25:36Z</time>
      </trkpt>
      <trkpt lat="46.7848" lon="12.33491">
        <ele>2368.83</ele>
        <time>2016-02-21T13:25:37Z</time>
      </trkpt>
      <trkpt lat="46.78481" lon="12.33498">
        <ele>2369.31</ele>
        <time>2016-02-21T13:25:38Z</time>
      </trkpt>
      <trkpt lat="46.78483" lon="12.33505">
        <ele>2369.31</ele>
        <time>2016-02-21T13:25:39Z</time>
      </trkpt>
      <trkpt lat="46.78486" lon="12.3351">
        <ele>2368.83</ele>
        <time>2016-02-21T13:25:40Z</time>
      </trkpt>
      <trkpt lat="46.78488" lon="12.33516">
        <ele>2368.35</ele>
        <time>2016-02-21T13:25:41Z</time>
      </trkpt>
      <trkpt lat="46.78488" lon="12.33522">
        <ele>2366.9</ele>
        <time>2016-02-21T13:25:42Z</time>
      </trkpt>
      <trkpt lat="46.78487" lon="12.33529">
        <ele>2363.54</ele>
        <time>2016-02-21T13:25:43Z</time>
      </trkpt>
      <trkpt lat="46.78482" lon="12.33539">
        <ele>2362.58</ele>
        <time>2016-02-21T13:25:45Z</time>
      </trkpt>
      <trkpt lat="46.7848" lon="12.33542">
        <ele>2362.58</ele>
        <time>2016-02-21T13:25:46Z</time>
      </trkpt>
      <trkpt lat="46.78479" lon="12.33545">
        <ele>2362.1</ele>
        <time>2016-02-21T13:25:47Z</time>
      </trkpt>
      <trkpt lat="46.7848" lon="12.3355">
        <ele>2364.02</ele>
        <time>2016-02-21T13:25:48Z</time>
      </trkpt>
      <trkpt lat="46.78482" lon="12.33556">
        <ele>2360.65</ele>
        <time>2016-02-21T13:25:49Z</time>
      </trkpt>
      <trkpt lat="46.78486" lon="12.33557">
        <ele>2359.69</ele>
        <time>2016-02-21T13:25:51Z</time>
      </trkpt>
      <trkpt lat="46.78486" lon="12.33557">
        <ele>2357.77</ele>
        <time>2016-02-21T13:25:56Z</time>
      </trkpt>
      <trkpt lat="46.78487" lon="12.3357">
        <ele>2354.41</ele>
        <time>2016-02-21T13:26:00Z</time>
      </trkpt>
      <trkpt lat="46.78484" lon="12.33574">
        <ele>2351.04</ele>
        <time>2016-02-21T13:26:01Z</time>
      </trkpt>
      <trkpt lat="46.7848" lon="12.33576">
        <ele>2348.16</ele>
        <time>2016-02-21T13:26:02Z</time>
      </trkpt>
      <trkpt lat="46.78477" lon="12.33579">
        <ele>2346.23</ele>
        <time>2016-02-21T13:26:03Z</time>
      </trkpt>
      <trkpt lat="46.78475" lon="12.33585">
        <ele>2346.23</ele>
        <time>2016-02-21T13:26:04Z</time>
      </trkpt>
      <trkpt lat="46.78476" lon="12.33591">
        <ele>2347.2</ele>
        <time>2016-02-21T13:26:05Z</time>
      </trkpt>
      <trkpt lat="46.78477" lon="12.33597">
        <ele>2346.72</ele>
        <time>2016-02-21T13:26:06Z</time>
      </trkpt>
      <trkpt lat="46.78475" lon="12.33601">
        <ele>2343.83</ele>
        <time>2016-02-21T13:26:07Z</time>
      </trkpt>
      <trkpt lat="46.78472" lon="12.33602">
        <ele>2340.47</ele>
        <time>2016-02-21T13:26:08Z</time>
      </trkpt>
      <trkpt lat="46.78471" lon="12.336">
        <ele>2345.27</ele>
        <time>2016-02-21T13:26:13Z</time>
      </trkpt>
      <trkpt lat="46.78471" lon="12.336">
        <ele>2345.27</ele>
        <time>2016-02-21T13:26:14Z</time>
      </trkpt>
      <trkpt lat="46.78471" lon="12.336">
        <ele>2344.31</ele>
        <time>2016-02-21T13:26:17Z</time>
      </trkpt>
      <trkpt lat="46.78472" lon="12.33599">
        <ele>2345.75</ele>
        <time>2016-02-21T13:26:19Z</time>
      </trkpt>
      <trkpt lat="46.78472" lon="12.336">
        <ele>2341.91</ele>
        <time>2016-02-21T13:26:20Z</time>
      </trkpt>
      <trkpt lat="46.78472" lon="12.33599">
        <ele>2341.91</ele>
        <time>2016-02-21T13:26:21Z</time>
      </trkpt>
      <trkpt lat="46.78472" lon="12.33599">
        <ele>2344.31</ele>
        <time>2016-02-21T13:26:23Z</time>
      </trkpt>
      <trkpt lat="46.78473" lon="12.33599">
        <ele>2344.79</ele>
        <time>2016-02-21T13:26:35Z</time>
      </trkpt>
      <trkpt lat="46.78473" lon="12.33599">
        <ele>2341.43</ele>
        <time>2016-02-21T13:26:39Z</time>
      </trkpt>
      <trkpt lat="46.78472" lon="12.33599">
        <ele>2345.75</ele>
        <time>2016-02-21T13:26:41Z</time>
      </trkpt>
      <trkpt lat="46.78472" lon="12.336">
        <ele>2345.27</ele>
        <time>2016-02-21T13:26:42Z</time>
      </trkpt>
      <trkpt lat="46.78472" lon="12.336">
        <ele>2346.72</ele>
        <time>2016-02-21T13:26:45Z</time>
      </trkpt>
      <trkpt lat="46.78473" lon="12.336">
        <ele>2343.83</ele>
        <time>2016-02-21T13:26:51Z</time>
      </trkpt>
      <trkpt lat="46.78473" lon="12.33599">
        <ele>2344.79</ele>
        <time>2016-02-21T13:27:00Z</time>
      </trkpt>
      <trkpt lat="46.78473" lon="12.336">
        <ele>2344.79</ele>
        <time>2016-02-21T13:27:04Z</time>
      </trkpt>
      <trkpt lat="46.78473" lon="12.3361">
        <ele>2344.79</ele>
        <time>2016-02-21T13:27:07Z</time>
      </trkpt>
      <trkpt lat="46.78474" lon="12.33614">
        <ele>2344.79</ele>
        <time>2016-02-21T13:27:08Z</time>
      </trkpt>
      <trkpt lat="46.78475" lon="12.33617">
        <ele>2344.31</ele>
        <time>2016-02-21T13:27:09Z</time>
      </trkpt>
      <trkpt lat="46.78476" lon="12.33622">
        <ele>2343.83</ele>
        <time>2016-02-21T13:27:10Z</time>
      </trkpt>
      <trkpt lat="46.78477" lon="12.33626">
        <ele>2343.35</ele>
        <time>2016-02-21T13:27:11Z</time>
      </trkpt>
      <trkpt lat="46.78479" lon="12.33632">
        <ele>2341.43</ele>
        <time>2016-02-21T13:27:12Z</time>
      </trkpt>
      <trkpt lat="46.78479" lon="12.33637">
        <ele>2340.95</ele>
        <time>2016-02-21T13:27:13Z</time>
      </trkpt>
      <trkpt lat="46.78481" lon="12.3365">
        <ele>2339.02</ele>
        <time>2016-02-21T13:27:15Z</time>
      </trkpt>
      <trkpt lat="46.78483" lon="12.33657">
        <ele>2337.1</ele>
        <time>2016-02-21T13:27:16Z</time>
      </trkpt>
      <trkpt lat="46.78486" lon="12.33662">
        <ele>2336.14</ele>
        <time>2016-02-21T13:27:17Z</time>
      </trkpt>
      <trkpt lat="46.78487" lon="12.33667">
        <ele>2334.22</ele>
        <time>2016-02-21T13:27:18Z</time>
      </trkpt>
      <trkpt lat="46.78485" lon="12.33671">
        <ele>2332.78</ele>
        <time>2016-02-21T13:27:19Z</time>
      </trkpt>
      <trkpt lat="46.78485" lon="12.33675">
        <ele>2332.78</ele>
        <time>2016-02-21T13:27:20Z</time>
      </trkpt>
      <trkpt lat="46.78485" lon="12.33675">
        <ele>2336.14</ele>
        <time>2016-02-21T13:27:28Z</time>
      </trkpt>
      <trkpt lat="46.78485" lon="12.33674">
        <ele>2335.66</ele>
        <time>2016-02-21T13:27:38Z</time>
      </trkpt>
      <trkpt lat="46.78485" lon="12.33674">
        <ele>2332.3</ele>
        <time>2016-02-21T13:27:41Z</time>
      </trkpt>
      <trkpt lat="46.78485" lon="12.33673">
        <ele>2332.3</ele>
        <time>2016-02-21T13:27:42Z</time>
      </trkpt>
      <trkpt lat="46.78486" lon="12.33674">
        <ele>2331.33</ele>
        <time>2016-02-21T13:28:00Z</time>
      </trkpt>
      <trkpt lat="46.78485" lon="12.33674">
        <ele>2329.89</ele>
        <time>2016-02-21T13:28:08Z</time>
      </trkpt>
      <trkpt lat="46.78485" lon="12.33675">
        <ele>2333.26</ele>
        <time>2016-02-21T13:28:30Z</time>
      </trkpt>
      <trkpt lat="46.78486" lon="12.33674">
        <ele>2330.37</ele>
        <time>2016-02-21T13:28:47Z</time>
      </trkpt>
      <trkpt lat="46.78485" lon="12.33673">
        <ele>2332.3</ele>
        <time>2016-02-21T13:29:23Z</time>
      </trkpt>
      <trkpt lat="46.78485" lon="12.33675">
        <ele>2331.81</ele>
        <time>2016-02-21T13:29:46Z</time>
      </trkpt>
      <trkpt lat="46.78485" lon="12.33672">
        <ele>2331.81</ele>
        <time>2016-02-21T13:30:28Z</time>
      </trkpt>
      <trkpt lat="46.78486" lon="12.33671">
        <ele>2334.22</ele>
        <time>2016-02-21T13:30:32Z</time>
      </trkpt>
      <trkpt lat="46.78486" lon="12.33672">
        <ele>2339.02</ele>
        <time>2016-02-21T13:30:35Z</time>
      </trkpt>
      <trkpt lat="46.78486" lon="12.33672">
        <ele>2334.7</ele>
        <time>2016-02-21T13:30:37Z</time>
      </trkpt>
      <trkpt lat="46.78486" lon="12.33672">
        <ele>2332.78</ele>
        <time>2016-02-21T13:30:40Z</time>
      </trkpt>
      <trkpt lat="46.78484" lon="12.33674">
        <ele>2332.78</ele>
        <time>2016-02-21T13:31:04Z</time>
      </trkpt>
      <trkpt lat="46.78485" lon="12.33673">
        <ele>2334.22</ele>
        <time>2016-02-21T13:31:15Z</time>
      </trkpt>
      <trkpt lat="46.78484" lon="12.33676">
        <ele>2333.26</ele>
        <time>2016-02-21T13:31:31Z</time>
      </trkpt>
      <trkpt lat="46.78484" lon="12.33678">
        <ele>2333.26</ele>
        <time>2016-02-21T13:31:32Z</time>
      </trkpt>
      <trkpt lat="46.78484" lon="12.33682">
        <ele>2330.37</ele>
        <time>2016-02-21T13:31:33Z</time>
      </trkpt>
      <trkpt lat="46.78482" lon="12.33684">
        <ele>2326.05</ele>
        <time>2016-02-21T13:31:34Z</time>
      </trkpt>
      <trkpt lat="46.78479" lon="12.33685">
        <ele>2322.68</ele>
        <time>2016-02-21T13:31:35Z</time>
      </trkpt>
      <trkpt lat="46.78476" lon="12.33684">
        <ele>2322.2</ele>
        <time>2016-02-21T13:31:36Z</time>
      </trkpt>
      <trkpt lat="46.78474" lon="12.33683">
        <ele>2322.2</ele>
        <time>2016-02-21T13:31:37Z</time>
      </trkpt>
      <trkpt lat="46.78464" lon="12.33681">
        <ele>2318.36</ele>
        <time>2016-02-21T13:31:40Z</time>
      </trkpt>
      <trkpt lat="46.7846" lon="12.3368">
        <ele>2315.47</ele>
        <time>2016-02-21T13:31:41Z</time>
      </trkpt>
      <trkpt lat="46.78457" lon="12.33679">
        <ele>2315.95</ele>
        <time>2016-02-21T13:31:42Z</time>
      </trkpt>
      <trkpt lat="46.78434" lon="12.33661">
        <ele>2316.43</ele>
        <time>2016-02-21T13:31:51Z</time>
      </trkpt>
      <trkpt lat="46.78427" lon="12.33654">
        <ele>2312.59</ele>
        <time>2016-02-21T13:31:54Z</time>
      </trkpt>
      <trkpt lat="46.78417" lon="12.33644">
        <ele>2309.22</ele>
        <time>2016-02-21T13:31:57Z</time>
      </trkpt>
      <trkpt lat="46.78406" lon="12.33633">
        <ele>2313.07</ele>
        <time>2016-02-21T13:32:00Z</time>
      </trkpt>
      <trkpt lat="46.78402" lon="12.3363">
        <ele>2305.38</ele>
        <time>2016-02-21T13:32:01Z</time>
      </trkpt>
      <trkpt lat="46.78398" lon="12.33627">
        <ele>2304.42</ele>
        <time>2016-02-21T13:32:03Z</time>
      </trkpt>
      <trkpt lat="46.78396" lon="12.33627">
        <ele>2307.3</ele>
        <time>2016-02-21T13:32:05Z</time>
      </trkpt>
      <trkpt lat="46.78395" lon="12.33627">
        <ele>2305.86</ele>
        <time>2016-02-21T13:32:06Z</time>
      </trkpt>
      <trkpt lat="46.7839" lon="12.33627">
        <ele>2309.22</ele>
        <time>2016-02-21T13:32:17Z</time>
      </trkpt>
      <trkpt lat="46.78388" lon="12.33627">
        <ele>2305.86</ele>
        <time>2016-02-21T13:32:21Z</time>
      </trkpt>
      <trkpt lat="46.78383" lon="12.33628">
        <ele>2302.49</ele>
        <time>2016-02-21T13:32:31Z</time>
      </trkpt>
      <trkpt lat="46.78382" lon="12.33628">
        <ele>2303.94</ele>
        <time>2016-02-21T13:32:32Z</time>
      </trkpt>
      <trkpt lat="46.78377" lon="12.33628">
        <ele>2299.61</ele>
        <time>2016-02-21T13:32:38Z</time>
      </trkpt>
      <trkpt lat="46.78378" lon="12.33628">
        <ele>2293.84</ele>
        <time>2016-02-21T13:32:39Z</time>
      </trkpt>
      <trkpt lat="46.78378" lon="12.33628">
        <ele>2301.05</ele>
        <time>2016-02-21T13:32:40Z</time>
      </trkpt>
      <trkpt lat="46.78377" lon="12.33628">
        <ele>2308.74</ele>
        <time>2016-02-21T13:32:41Z</time>
      </trkpt>
      <trkpt lat="46.78371" lon="12.33626">
        <ele>2310.67</ele>
        <time>2016-02-21T13:32:48Z</time>
      </trkpt>
      <trkpt lat="46.7837" lon="12.33625">
        <ele>2314.99</ele>
        <time>2016-02-21T13:32:50Z</time>
      </trkpt>
      <trkpt lat="46.78369" lon="12.33625">
        <ele>2310.19</ele>
        <time>2016-02-21T13:32:53Z</time>
      </trkpt>
      <trkpt lat="46.78369" lon="12.33624">
        <ele>2315.47</ele>
        <time>2016-02-21T13:32:59Z</time>
      </trkpt>
      <trkpt lat="46.78369" lon="12.33624">
        <ele>2315.47</ele>
        <time>2016-02-21T13:33:00Z</time>
      </trkpt>
      <trkpt lat="46.78369" lon="12.33624">
        <ele>2312.59</ele>
        <time>2016-02-21T13:33:03Z</time>
      </trkpt>
      <trkpt lat="46.78369" lon="12.33623">
        <ele>2309.22</ele>
        <time>2016-02-21T13:33:05Z</time>
      </trkpt>
      <trkpt lat="46.78369" lon="12.33623">
        <ele>2308.74</ele>
        <time>2016-02-21T13:33:06Z</time>
      </trkpt>
      <trkpt lat="46.78355" lon="12.33608">
        <ele>2303.46</ele>
        <time>2016-02-21T13:33:12Z</time>
      </trkpt>
      <trkpt lat="46.7835" lon="12.3361">
        <ele>2296.73</ele>
        <time>2016-02-21T13:33:14Z</time>
      </trkpt>
      <trkpt lat="46.78349" lon="12.33615">
        <ele>2296.73</ele>
        <time>2016-02-21T13:33:15Z</time>
      </trkpt>
      <trkpt lat="46.78349" lon="12.3362">
        <ele>2300.09</ele>
        <time>2016-02-21T13:33:16Z</time>
      </trkpt>
      <trkpt lat="46.7835" lon="12.33657">
        <ele>2298.17</ele>
        <time>2016-02-21T13:33:23Z</time>
      </trkpt>
      <trkpt lat="46.78345" lon="12.33664">
        <ele>2288.08</ele>
        <time>2016-02-21T13:33:25Z</time>
      </trkpt>
      <trkpt lat="46.78338" lon="12.33667">
        <ele>2287.11</ele>
        <time>2016-02-21T13:33:27Z</time>
      </trkpt>
      <trkpt lat="46.78335" lon="12.33671">
        <ele>2283.75</ele>
        <time>2016-02-21T13:33:28Z</time>
      </trkpt>
      <trkpt lat="46.78328" lon="12.33679">
        <ele>2279.9</ele>
        <time>2016-02-21T13:33:30Z</time>
      </trkpt>
      <trkpt lat="46.78325" lon="12.33682">
        <ele>2280.87</ele>
        <time>2016-02-21T13:33:31Z</time>
      </trkpt>
      <trkpt lat="46.78319" lon="12.3369">
        <ele>2282.79</ele>
        <time>2016-02-21T13:33:33Z</time>
      </trkpt>
      <trkpt lat="46.78315" lon="12.337">
        <ele>2283.75</ele>
        <time>2016-02-21T13:33:35Z</time>
      </trkpt>
      <trkpt lat="46.78313" lon="12.33711">
        <ele>2285.67</ele>
        <time>2016-02-21T13:33:37Z</time>
      </trkpt>
      <trkpt lat="46.7831" lon="12.33742">
        <ele>2282.31</ele>
        <time>2016-02-21T13:33:46Z</time>
      </trkpt>
      <trkpt lat="46.7831" lon="12.33742">
        <ele>2280.38</ele>
        <time>2016-02-21T13:33:48Z</time>
      </trkpt>
      <trkpt lat="46.7831" lon="12.33741">
        <ele>2284.23</ele>
        <time>2016-02-21T13:33:49Z</time>
      </trkpt>
      <trkpt lat="46.7831" lon="12.33742">
        <ele>2282.31</ele>
        <time>2016-02-21T13:33:50Z</time>
      </trkpt>
      <trkpt lat="46.78311" lon="12.33742">
        <ele>2278.94</ele>
        <time>2016-02-21T13:33:54Z</time>
      </trkpt>
      <trkpt lat="46.7831" lon="12.33741">
        <ele>2277.5</ele>
        <time>2016-02-21T13:33:58Z</time>
      </trkpt>
      <trkpt lat="46.78309" lon="12.33741">
        <ele>2272.69</ele>
        <time>2016-02-21T13:33:59Z</time>
      </trkpt>
      <trkpt lat="46.7831" lon="12.33741">
        <ele>2278.46</ele>
        <time>2016-02-21T13:34:00Z</time>
      </trkpt>
      <trkpt lat="46.78309" lon="12.33741">
        <ele>2285.19</ele>
        <time>2016-02-21T13:34:01Z</time>
      </trkpt>
      <trkpt lat="46.78309" lon="12.33741">
        <ele>2285.19</ele>
        <time>2016-02-21T13:34:02Z</time>
      </trkpt>
      <trkpt lat="46.7831" lon="12.33741">
        <ele>2279.42</ele>
        <time>2016-02-21T13:34:04Z</time>
      </trkpt>
      <trkpt lat="46.78309" lon="12.33741">
        <ele>2275.58</ele>
        <time>2016-02-21T13:34:06Z</time>
      </trkpt>
      <trkpt lat="46.78309" lon="12.33741">
        <ele>2280.38</ele>
        <time>2016-02-21T13:34:08Z</time>
      </trkpt>
      <trkpt lat="46.78309" lon="12.33741">
        <ele>2282.31</ele>
        <time>2016-02-21T13:34:16Z</time>
      </trkpt>
      <trkpt lat="46.78308" lon="12.3374">
        <ele>2275.58</ele>
        <time>2016-02-21T13:34:22Z</time>
      </trkpt>
      <trkpt lat="46.78308" lon="12.33741">
        <ele>2272.21</ele>
        <time>2016-02-21T13:34:23Z</time>
      </trkpt>
      <trkpt lat="46.78308" lon="12.33741">
        <ele>2269.33</ele>
        <time>2016-02-21T13:34:24Z</time>
      </trkpt>
      <trkpt lat="46.78307" lon="12.33741">
        <ele>2277.5</ele>
        <time>2016-02-21T13:34:25Z</time>
      </trkpt>
      <trkpt lat="46.78307" lon="12.33741">
        <ele>2282.31</ele>
        <time>2016-02-21T13:34:26Z</time>
      </trkpt>
      <trkpt lat="46.78304" lon="12.33749">
        <ele>2283.27</ele>
        <time>2016-02-21T13:34:33Z</time>
      </trkpt>
      <trkpt lat="46.78305" lon="12.33764">
        <ele>2277.98</ele>
        <time>2016-02-21T13:34:36Z</time>
      </trkpt>
      <trkpt lat="46.78302" lon="12.33771">
        <ele>2271.25</ele>
        <time>2016-02-21T13:34:38Z</time>
      </trkpt>
      <trkpt lat="46.78299" lon="12.33774">
        <ele>2272.69</ele>
        <time>2016-02-21T13:34:39Z</time>
      </trkpt>
      <trkpt lat="46.78301" lon="12.3379">
        <ele>2269.33</ele>
        <time>2016-02-21T13:34:42Z</time>
      </trkpt>
      <trkpt lat="46.78299" lon="12.33794">
        <ele>2265.48</ele>
        <time>2016-02-21T13:34:43Z</time>
      </trkpt>
      <trkpt lat="46.78293" lon="12.33799">
        <ele>2262.6</ele>
        <time>2016-02-21T13:34:45Z</time>
      </trkpt>
      <trkpt lat="46.78287" lon="12.33835">
        <ele>2256.83</ele>
        <time>2016-02-21T13:34:51Z</time>
      </trkpt>
      <trkpt lat="46.78263" lon="12.3386">
        <ele>2252.99</ele>
        <time>2016-02-21T13:35:01Z</time>
      </trkpt>
      <trkpt lat="46.78256" lon="12.33869">
        <ele>2250.58</ele>
        <time>2016-02-21T13:35:03Z</time>
      </trkpt>
      <trkpt lat="46.78244" lon="12.3388">
        <ele>2246.26</ele>
        <time>2016-02-21T13:35:06Z</time>
      </trkpt>
      <trkpt lat="46.78237" lon="12.33883">
        <ele>2244.82</ele>
        <time>2016-02-21T13:35:09Z</time>
      </trkpt>
      <trkpt lat="46.78234" lon="12.33883">
        <ele>2245.78</ele>
        <time>2016-02-21T13:35:15Z</time>
      </trkpt>
      <trkpt lat="46.78233" lon="12.33883">
        <ele>2243.85</ele>
        <time>2016-02-21T13:35:17Z</time>
      </trkpt>
      <trkpt lat="46.78233" lon="12.33883">
        <ele>2247.22</ele>
        <time>2016-02-21T13:35:22Z</time>
      </trkpt>
      <trkpt lat="46.78233" lon="12.33883">
        <ele>2247.7</ele>
        <time>2016-02-21T13:35:24Z</time>
      </trkpt>
      <trkpt lat="46.78233" lon="12.33883">
        <ele>2243.37</ele>
        <time>2016-02-21T13:35:27Z</time>
      </trkpt>
      <trkpt lat="46.78233" lon="12.33882">
        <ele>2242.89</ele>
        <time>2016-02-21T13:35:28Z</time>
      </trkpt>
      <trkpt lat="46.78233" lon="12.33883">
        <ele>2247.22</ele>
        <time>2016-02-21T13:35:31Z</time>
      </trkpt>
      <trkpt lat="46.78233" lon="12.33883">
        <ele>2246.26</ele>
        <time>2016-02-21T13:35:32Z</time>
      </trkpt>
      <trkpt lat="46.78233" lon="12.33883">
        <ele>2244.33</ele>
        <time>2016-02-21T13:35:38Z</time>
      </trkpt>
      <trkpt lat="46.78232" lon="12.33884">
        <ele>2246.26</ele>
        <time>2016-02-21T13:35:41Z</time>
      </trkpt>
      <trkpt lat="46.78232" lon="12.33884">
        <ele>2243.85</ele>
        <time>2016-02-21T13:35:51Z</time>
      </trkpt>
      <trkpt lat="46.78232" lon="12.33885">
        <ele>2246.26</ele>
        <time>2016-02-21T13:36:11Z</time>
      </trkpt>
      <trkpt lat="46.78232" lon="12.33885">
        <ele>2245.78</ele>
        <time>2016-02-21T13:36:24Z</time>
      </trkpt>
      <trkpt lat="46.78228" lon="12.33884">
        <ele>2246.26</ele>
        <time>2016-02-21T13:36:39Z</time>
      </trkpt>
      <trkpt lat="46.78217" lon="12.33901">
        <ele>2243.37</ele>
        <time>2016-02-21T13:36:45Z</time>
      </trkpt>
      <trkpt lat="46.78218" lon="12.3391">
        <ele>2241.93</ele>
        <time>2016-02-21T13:36:47Z</time>
      </trkpt>
      <trkpt lat="46.78215" lon="12.33919">
        <ele>2237.61</ele>
        <time>2016-02-21T13:36:50Z</time>
      </trkpt>
      <trkpt lat="46.78213" lon="12.33922">
        <ele>2237.61</ele>
        <time>2016-02-21T13:36:51Z</time>
      </trkpt>
      <trkpt lat="46.78213" lon="12.33932">
        <ele>2234.72</ele>
        <time>2016-02-21T13:36:53Z</time>
      </trkpt>
      <trkpt lat="46.78206" lon="12.33935">
        <ele>2230.88</ele>
        <time>2016-02-21T13:36:55Z</time>
      </trkpt>
      <trkpt lat="46.78203" lon="12.33937">
        <ele>2230.88</ele>
        <time>2016-02-21T13:36:56Z</time>
      </trkpt>
      <trkpt lat="46.78206" lon="12.33951">
        <ele>2226.55</ele>
        <time>2016-02-21T13:36:59Z</time>
      </trkpt>
      <trkpt lat="46.78208" lon="12.33952">
        <ele>2227.03</ele>
        <time>2016-02-21T13:37:00Z</time>
      </trkpt>
      <trkpt lat="46.7821" lon="12.3395">
        <ele>2226.07</ele>
        <time>2016-02-21T13:37:12Z</time>
      </trkpt>
      <trkpt lat="46.78211" lon="12.33951">
        <ele>2225.11</ele>
        <time>2016-02-21T13:37:19Z</time>
      </trkpt>
      <trkpt lat="46.78206" lon="12.33964">
        <ele>2221.26</ele>
        <time>2016-02-21T13:37:23Z</time>
      </trkpt>
      <trkpt lat="46.78205" lon="12.3397">
        <ele>2220.78</ele>
        <time>2016-02-21T13:37:24Z</time>
      </trkpt>
      <trkpt lat="46.7821" lon="12.33991">
        <ele>2217.42</ele>
        <time>2016-02-21T13:37:27Z</time>
      </trkpt>
      <trkpt lat="46.78212" lon="12.34005">
        <ele>2215.98</ele>
        <time>2016-02-21T13:37:29Z</time>
      </trkpt>
      <trkpt lat="46.78212" lon="12.34022">
        <ele>2214.53</ele>
        <time>2016-02-21T13:37:31Z</time>
      </trkpt>
      <trkpt lat="46.7821" lon="12.34035">
        <ele>2212.61</ele>
        <time>2016-02-21T13:37:33Z</time>
      </trkpt>
      <trkpt lat="46.78207" lon="12.34047">
        <ele>2213.57</ele>
        <time>2016-02-21T13:37:41Z</time>
      </trkpt>
      <trkpt lat="46.78206" lon="12.34046">
        <ele>2213.57</ele>
        <time>2016-02-21T13:38:01Z</time>
      </trkpt>
      <trkpt lat="46.78206" lon="12.34045">
        <ele>2209.73</ele>
        <time>2016-02-21T13:38:04Z</time>
      </trkpt>
      <trkpt lat="46.78206" lon="12.34045">
        <ele>2209.73</ele>
        <time>2016-02-21T13:38:05Z</time>
      </trkpt>
      <trkpt lat="46.78206" lon="12.34045">
        <ele>2214.05</ele>
        <time>2016-02-21T13:38:07Z</time>
      </trkpt>
      <trkpt lat="46.78207" lon="12.34047">
        <ele>2215.01</ele>
        <time>2016-02-21T13:38:22Z</time>
      </trkpt>
      <trkpt lat="46.78207" lon="12.34046">
        <ele>2215.01</ele>
        <time>2016-02-21T13:38:38Z</time>
      </trkpt>
      <trkpt lat="46.78206" lon="12.34048">
        <ele>2214.05</ele>
        <time>2016-02-21T13:39:00Z</time>
      </trkpt>
      <trkpt lat="46.78211" lon="12.34069">
        <ele>2212.61</ele>
        <time>2016-02-21T13:39:05Z</time>
      </trkpt>
      <trkpt lat="46.78214" lon="12.3409">
        <ele>2207.81</ele>
        <time>2016-02-21T13:39:08Z</time>
      </trkpt>
      <trkpt lat="46.78217" lon="12.34109">
        <ele>2204.92</ele>
        <time>2016-02-21T13:39:11Z</time>
      </trkpt>
      <trkpt lat="46.78232" lon="12.34118">
        <ele>2199.15</ele>
        <time>2016-02-21T13:39:15Z</time>
      </trkpt>
      <trkpt lat="46.78233" lon="12.34138">
        <ele>2195.31</ele>
        <time>2016-02-21T13:39:18Z</time>
      </trkpt>
      <trkpt lat="46.78243" lon="12.34157">
        <ele>2191.94</ele>
        <time>2016-02-21T13:39:24Z</time>
      </trkpt>
      <trkpt lat="46.78252" lon="12.34153">
        <ele>2189.54</ele>
        <time>2016-02-21T13:39:27Z</time>
      </trkpt>
      <trkpt lat="46.78253" lon="12.34166">
        <ele>2183.29</ele>
        <time>2016-02-21T13:39:32Z</time>
      </trkpt>
      <trkpt lat="46.78253" lon="12.34165">
        <ele>2180.89</ele>
        <time>2016-02-21T13:39:34Z</time>
      </trkpt>
      <trkpt lat="46.78252" lon="12.34165">
        <ele>2182.81</ele>
        <time>2016-02-21T13:39:37Z</time>
      </trkpt>
      <trkpt lat="46.78253" lon="12.34166">
        <ele>2187.14</ele>
        <time>2016-02-21T13:39:41Z</time>
      </trkpt>
      <trkpt lat="46.78253" lon="12.34166">
        <ele>2187.14</ele>
        <time>2016-02-21T13:39:42Z</time>
      </trkpt>
      <trkpt lat="46.78253" lon="12.34166">
        <ele>2185.21</ele>
        <time>2016-02-21T13:39:45Z</time>
      </trkpt>
      <trkpt lat="46.78253" lon="12.34167">
        <ele>2187.14</ele>
        <time>2016-02-21T13:40:02Z</time>
      </trkpt>
      <trkpt lat="46.78253" lon="12.34168">
        <ele>2187.14</ele>
        <time>2016-02-21T13:40:12Z</time>
      </trkpt>
      <trkpt lat="46.7826" lon="12.3418">
        <ele>2182.81</ele>
        <time>2016-02-21T13:40:16Z</time>
      </trkpt>
      <trkpt lat="46.78267" lon="12.34198">
        <ele>2178.97</ele>
        <time>2016-02-21T13:40:21Z</time>
      </trkpt>
      <trkpt lat="46.78268" lon="12.34198">
        <ele>2179.93</ele>
        <time>2016-02-21T13:40:25Z</time>
      </trkpt>
      <trkpt lat="46.78268" lon="12.34199">
        <ele>2178.97</ele>
        <time>2016-02-21T13:40:27Z</time>
      </trkpt>
      <trkpt lat="46.78268" lon="12.34201">
        <ele>2176.56</ele>
        <time>2016-02-21T13:40:45Z</time>
      </trkpt>
      <trkpt lat="46.7827" lon="12.34204">
        <ele>2176.08</ele>
        <time>2016-02-21T13:40:46Z</time>
      </trkpt>
      <trkpt lat="46.78268" lon="12.34216">
        <ele>2169.83</ele>
        <time>2016-02-21T13:40:49Z</time>
      </trkpt>
      <trkpt lat="46.78266" lon="12.3422">
        <ele>2171.27</ele>
        <time>2016-02-21T13:40:50Z</time>
      </trkpt>
      <trkpt lat="46.7826" lon="12.34239">
        <ele>2169.83</ele>
        <time>2016-02-21T13:40:54Z</time>
      </trkpt>
      <trkpt lat="46.78258" lon="12.34246">
        <ele>2169.35</ele>
        <time>2016-02-21T13:40:56Z</time>
      </trkpt>
      <trkpt lat="46.78265" lon="12.34255">
        <ele>2167.43</ele>
        <time>2016-02-21T13:41:00Z</time>
      </trkpt>
      <trkpt lat="46.78264" lon="12.34263">
        <ele>2165.03</ele>
        <time>2016-02-21T13:41:02Z</time>
      </trkpt>
      <trkpt lat="46.78261" lon="12.34271">
        <ele>2162.62</ele>
        <time>2016-02-21T13:41:04Z</time>
      </trkpt>
      <trkpt lat="46.78268" lon="12.34287">
        <ele>2157.82</ele>
        <time>2016-02-21T13:41:09Z</time>
      </trkpt>
      <trkpt lat="46.78263" lon="12.34295">
        <ele>2158.78</ele>
        <time>2016-02-21T13:41:13Z</time>
      </trkpt>
      <trkpt lat="46.78262" lon="12.34296">
        <ele>2157.82</ele>
        <time>2016-02-21T13:41:25Z</time>
      </trkpt>
      <trkpt lat="46.78262" lon="12.34296">
        <ele>2158.78</ele>
        <time>2016-02-21T13:41:37Z</time>
      </trkpt>
      <trkpt lat="46.78263" lon="12.34296">
        <ele>2158.78</ele>
        <time>2016-02-21T13:41:45Z</time>
      </trkpt>
      <trkpt lat="46.78269" lon="12.3431">
        <ele>2154.93</ele>
        <time>2016-02-21T13:41:49Z</time>
      </trkpt>
      <trkpt lat="46.78277" lon="12.34316">
        <ele>2151.09</ele>
        <time>2016-02-21T13:41:52Z</time>
      </trkpt>
      <trkpt lat="46.78275" lon="12.34331">
        <ele>2148.2</ele>
        <time>2016-02-21T13:41:55Z</time>
      </trkpt>
      <trkpt lat="46.78274" lon="12.34336">
        <ele>2147.72</ele>
        <time>2016-02-21T13:41:56Z</time>
      </trkpt>
      <trkpt lat="46.78278" lon="12.34352">
        <ele>2145.8</ele>
        <time>2016-02-21T13:42:00Z</time>
      </trkpt>
      <trkpt lat="46.78283" lon="12.34358">
        <ele>2142.44</ele>
        <time>2016-02-21T13:42:02Z</time>
      </trkpt>
      <trkpt lat="46.7828" lon="12.34369">
        <ele>2139.55</ele>
        <time>2016-02-21T13:42:04Z</time>
      </trkpt>
      <trkpt lat="46.78273" lon="12.34386">
        <ele>2138.59</ele>
        <time>2016-02-21T13:42:08Z</time>
      </trkpt>
      <trkpt lat="46.78269" lon="12.34407">
        <ele>2135.23</ele>
        <time>2016-02-21T13:42:12Z</time>
      </trkpt>
      <trkpt lat="46.78269" lon="12.3443">
        <ele>2133.3</ele>
        <time>2016-02-21T13:42:21Z</time>
      </trkpt>
      <trkpt lat="46.78268" lon="12.3443">
        <ele>2134.26</ele>
        <time>2016-02-21T13:42:24Z</time>
      </trkpt>
      <trkpt lat="46.78269" lon="12.34431">
        <ele>2134.74</ele>
        <time>2016-02-21T13:42:42Z</time>
      </trkpt>
      <trkpt lat="46.78269" lon="12.34433">
        <ele>2134.26</ele>
        <time>2016-02-21T13:43:01Z</time>
      </trkpt>
      <trkpt lat="46.78269" lon="12.34432">
        <ele>2135.23</ele>
        <time>2016-02-21T13:43:20Z</time>
      </trkpt>
      <trkpt lat="46.78269" lon="12.34438">
        <ele>2134.74</ele>
        <time>2016-02-21T13:43:33Z</time>
      </trkpt>
      <trkpt lat="46.78266" lon="12.34457">
        <ele>2130.9</ele>
        <time>2016-02-21T13:43:36Z</time>
      </trkpt>
      <trkpt lat="46.78261" lon="12.34476">
        <ele>2127.05</ele>
        <time>2016-02-21T13:43:40Z</time>
      </trkpt>
      <trkpt lat="46.78263" lon="12.34481">
        <ele>2126.09</ele>
        <time>2016-02-21T13:43:41Z</time>
      </trkpt>
      <trkpt lat="46.78268" lon="12.34506">
        <ele>2119.84</ele>
        <time>2016-02-21T13:43:44Z</time>
      </trkpt>
      <trkpt lat="46.7827" lon="12.34515">
        <ele>2118.88</ele>
        <time>2016-02-21T13:43:45Z</time>
      </trkpt>
      <trkpt lat="46.78287" lon="12.3454">
        <ele>2119.36</ele>
        <time>2016-02-21T13:43:53Z</time>
      </trkpt>
      <trkpt lat="46.78286" lon="12.3454">
        <ele>2116.48</ele>
        <time>2016-02-21T13:44:08Z</time>
      </trkpt>
      <trkpt lat="46.78286" lon="12.3454">
        <ele>2117.92</ele>
        <time>2016-02-21T13:44:28Z</time>
      </trkpt>
      <trkpt lat="46.78287" lon="12.3454">
        <ele>2118.4</ele>
        <time>2016-02-21T13:44:50Z</time>
      </trkpt>
      <trkpt lat="46.78287" lon="12.3454">
        <ele>2118.4</ele>
        <time>2016-02-21T13:44:51Z</time>
      </trkpt>
      <trkpt lat="46.78287" lon="12.34549">
        <ele>2112.63</ele>
        <time>2016-02-21T13:44:54Z</time>
      </trkpt>
      <trkpt lat="46.78286" lon="12.34554">
        <ele>2114.08</ele>
        <time>2016-02-21T13:44:55Z</time>
      </trkpt>
      <trkpt lat="46.78287" lon="12.34559">
        <ele>2110.71</ele>
        <time>2016-02-21T13:44:56Z</time>
      </trkpt>
      <trkpt lat="46.78289" lon="12.34569">
        <ele>2106.87</ele>
        <time>2016-02-21T13:44:58Z</time>
      </trkpt>
      <trkpt lat="46.78298" lon="12.34579">
        <ele>2101.58</ele>
        <time>2016-02-21T13:45:00Z</time>
      </trkpt>
      <trkpt lat="46.78305" lon="12.34592">
        <ele>2098.21</ele>
        <time>2016-02-21T13:45:02Z</time>
      </trkpt>
      <trkpt lat="46.78311" lon="12.34605">
        <ele>2094.37</ele>
        <time>2016-02-21T13:45:04Z</time>
      </trkpt>
      <trkpt lat="46.78315" lon="12.34617">
        <ele>2090.52</ele>
        <time>2016-02-21T13:45:06Z</time>
      </trkpt>
      <trkpt lat="46.78318" lon="12.34625">
        <ele>2088.12</ele>
        <time>2016-02-21T13:45:10Z</time>
      </trkpt>
      <trkpt lat="46.78333" lon="12.34624">
        <ele>2086.68</ele>
        <time>2016-02-21T13:45:18Z</time>
      </trkpt>
      <trkpt lat="46.78337" lon="12.34632">
        <ele>2083.31</ele>
        <time>2016-02-21T13:45:23Z</time>
      </trkpt>
      <trkpt lat="46.78348" lon="12.3464">
        <ele>2080.43</ele>
        <time>2016-02-21T13:45:27Z</time>
      </trkpt>
      <trkpt lat="46.78348" lon="12.34644">
        <ele>2078.51</ele>
        <time>2016-02-21T13:45:29Z</time>
      </trkpt>
      <trkpt lat="46.78348" lon="12.34644">
        <ele>2080.43</ele>
        <time>2016-02-21T13:45:34Z</time>
      </trkpt>
      <trkpt lat="46.78348" lon="12.34645">
        <ele>2078.99</ele>
        <time>2016-02-21T13:45:42Z</time>
      </trkpt>
      <trkpt lat="46.78347" lon="12.34646">
        <ele>2077.07</ele>
        <time>2016-02-21T13:45:57Z</time>
      </trkpt>
      <trkpt lat="46.78347" lon="12.34646">
        <ele>2076.59</ele>
        <time>2016-02-21T13:46:14Z</time>
      </trkpt>
      <trkpt lat="46.78349" lon="12.34649">
        <ele>2076.59</ele>
        <time>2016-02-21T13:46:21Z</time>
      </trkpt>
      <trkpt lat="46.78359" lon="12.34653">
        <ele>2074.66</ele>
        <time>2016-02-21T13:46:24Z</time>
      </trkpt>
      <trkpt lat="46.78365" lon="12.34655">
        <ele>2070.82</ele>
        <time>2016-02-21T13:46:30Z</time>
      </trkpt>
      <trkpt lat="46.78366" lon="12.34656">
        <ele>2072.74</ele>
        <time>2016-02-21T13:46:36Z</time>
      </trkpt>
      <trkpt lat="46.78365" lon="12.34656">
        <ele>2069.86</ele>
        <time>2016-02-21T13:46:56Z</time>
      </trkpt>
      <trkpt lat="46.78365" lon="12.34656">
        <ele>2074.66</ele>
        <time>2016-02-21T13:47:05Z</time>
      </trkpt>
      <trkpt lat="46.78363" lon="12.34658">
        <ele>2073.22</ele>
        <time>2016-02-21T13:47:17Z</time>
      </trkpt>
      <trkpt lat="46.78365" lon="12.34675">
        <ele>2068.41</ele>
        <time>2016-02-21T13:47:23Z</time>
      </trkpt>
      <trkpt lat="46.78373" lon="12.34681">
        <ele>2064.57</ele>
        <time>2016-02-21T13:47:26Z</time>
      </trkpt>
      <trkpt lat="46.78378" lon="12.34682">
        <ele>2063.61</ele>
        <time>2016-02-21T13:47:28Z</time>
      </trkpt>
      <trkpt lat="46.78381" lon="12.34685">
        <ele>2062.17</ele>
        <time>2016-02-21T13:47:31Z</time>
      </trkpt>
      <trkpt lat="46.78388" lon="12.34691">
        <ele>2059.28</ele>
        <time>2016-02-21T13:47:35Z</time>
      </trkpt>
      <trkpt lat="46.7839" lon="12.34693">
        <ele>2058.32</ele>
        <time>2016-02-21T13:47:41Z</time>
      </trkpt>
      <trkpt lat="46.78396" lon="12.34696">
        <ele>2057.36</ele>
        <time>2016-02-21T13:47:49Z</time>
      </trkpt>
      <trkpt lat="46.78396" lon="12.34697">
        <ele>2057.36</ele>
        <time>2016-02-21T13:47:53Z</time>
      </trkpt>
      <trkpt lat="46.78397" lon="12.34705">
        <ele>2054.96</ele>
        <time>2016-02-21T13:47:58Z</time>
      </trkpt>
      <trkpt lat="46.78393" lon="12.34711">
        <ele>2052.55</ele>
        <time>2016-02-21T13:48:02Z</time>
      </trkpt>
      <trkpt lat="46.78389" lon="12.34713">
        <ele>2052.55</ele>
        <time>2016-02-21T13:48:16Z</time>
      </trkpt>
      <trkpt lat="46.78389" lon="12.34713">
        <ele>2052.55</ele>
        <time>2016-02-21T13:48:17Z</time>
      </trkpt>
      <trkpt lat="46.78386" lon="12.3472">
        <ele>2051.59</ele>
        <time>2016-02-21T13:48:22Z</time>
      </trkpt>
      <trkpt lat="46.78393" lon="12.3472">
        <ele>2049.67</ele>
        <time>2016-02-21T13:48:29Z</time>
      </trkpt>
      <trkpt lat="46.78403" lon="12.34726">
        <ele>2045.82</ele>
        <time>2016-02-21T13:48:34Z</time>
      </trkpt>
      <trkpt lat="46.78412" lon="12.34731">
        <ele>2043.42</ele>
        <time>2016-02-21T13:48:43Z</time>
      </trkpt>
      <trkpt lat="46.78419" lon="12.34734">
        <ele>2042.46</ele>
        <time>2016-02-21T13:48:54Z</time>
      </trkpt>
      <trkpt lat="46.78419" lon="12.34734">
        <ele>2040.54</ele>
        <time>2016-02-21T13:49:00Z</time>
      </trkpt>
      <trkpt lat="46.78422" lon="12.34735">
        <ele>2040.05</ele>
        <time>2016-02-21T13:49:04Z</time>
      </trkpt>
      <trkpt lat="46.78421" lon="12.34742">
        <ele>2037.65</ele>
        <time>2016-02-21T13:49:08Z</time>
      </trkpt>
      <trkpt lat="46.78423" lon="12.34746">
        <ele>2035.73</ele>
        <time>2016-02-21T13:49:11Z</time>
      </trkpt>
      <trkpt lat="46.7843" lon="12.3475">
        <ele>2032.84</ele>
        <time>2016-02-21T13:49:15Z</time>
      </trkpt>
      <trkpt lat="46.7843" lon="12.34751">
        <ele>2032.84</ele>
        <time>2016-02-21T13:49:16Z</time>
      </trkpt>
      <trkpt lat="46.78428" lon="12.34755">
        <ele>2032.36</ele>
        <time>2016-02-21T13:49:32Z</time>
      </trkpt>
      <trkpt lat="46.78429" lon="12.34756">
        <ele>2032.36</ele>
        <time>2016-02-21T13:49:48Z</time>
      </trkpt>
      <trkpt lat="46.78427" lon="12.34764">
        <ele>2029.96</ele>
        <time>2016-02-21T13:49:58Z</time>
      </trkpt>
      <trkpt lat="46.78434" lon="12.34774">
        <ele>2026.6</ele>
        <time>2016-02-21T13:50:03Z</time>
      </trkpt>
      <trkpt lat="46.78428" lon="12.34788">
        <ele>2023.23</ele>
        <time>2016-02-21T13:50:09Z</time>
      </trkpt>
      <trkpt lat="46.78422" lon="12.34793">
        <ele>2020.35</ele>
        <time>2016-02-21T13:50:13Z</time>
      </trkpt>
      <trkpt lat="46.78411" lon="12.34796">
        <ele>2017.46</ele>
        <time>2016-02-21T13:50:20Z</time>
      </trkpt>
      <trkpt lat="46.78401" lon="12.34799">
        <ele>2016.02</ele>
        <time>2016-02-21T13:50:28Z</time>
      </trkpt>
      <trkpt lat="46.78395" lon="12.34809">
        <ele>2011.7</ele>
        <time>2016-02-21T13:50:31Z</time>
      </trkpt>
      <trkpt lat="46.78388" lon="12.34826">
        <ele>2008.33</ele>
        <time>2016-02-21T13:50:35Z</time>
      </trkpt>
      <trkpt lat="46.7839" lon="12.3483">
        <ele>2006.89</ele>
        <time>2016-02-21T13:50:42Z</time>
      </trkpt>
      <trkpt lat="46.7839" lon="12.3483">
        <ele>2006.89</ele>
        <time>2016-02-21T13:50:55Z</time>
      </trkpt>
      <trkpt lat="46.78391" lon="12.3483">
        <ele>2007.85</ele>
        <time>2016-02-21T13:51:07Z</time>
      </trkpt>
      <trkpt lat="46.78388" lon="12.34828">
        <ele>2007.37</ele>
        <time>2016-02-21T13:51:29Z</time>
      </trkpt>
      <trkpt lat="46.78388" lon="12.34827">
        <ele>2006.89</ele>
        <time>2016-02-21T13:52:07Z</time>
      </trkpt>
      <trkpt lat="46.7839" lon="12.34833">
        <ele>2006.89</ele>
        <time>2016-02-21T13:52:47Z</time>
      </trkpt>
      <trkpt lat="46.78393" lon="12.34831">
        <ele>2008.33</ele>
        <time>2016-02-21T13:53:06Z</time>
      </trkpt>
      <trkpt lat="46.78394" lon="12.34829">
        <ele>2007.85</ele>
        <time>2016-02-21T13:53:29Z</time>
      </trkpt>
      <trkpt lat="46.78395" lon="12.34832">
        <ele>2007.37</ele>
        <time>2016-02-21T13:53:37Z</time>
      </trkpt>
      <trkpt lat="46.78403" lon="12.3484">
        <ele>2004.01</ele>
        <time>2016-02-21T13:53:41Z</time>
      </trkpt>
      <trkpt lat="46.78415" lon="12.34848">
        <ele>2000.64</ele>
        <time>2016-02-21T13:53:45Z</time>
      </trkpt>
      <trkpt lat="46.78416" lon="12.34857">
        <ele>1997.76</ele>
        <time>2016-02-21T13:53:47Z</time>
      </trkpt>
      <trkpt lat="46.78412" lon="12.34872">
        <ele>1993.91</ele>
        <time>2016-02-21T13:53:51Z</time>
      </trkpt>
      <trkpt lat="46.78423" lon="12.3488">
        <ele>1990.55</ele>
        <time>2016-02-21T13:53:55Z</time>
      </trkpt>
      <trkpt lat="46.78423" lon="12.34894">
        <ele>1986.7</ele>
        <time>2016-02-21T13:53:58Z</time>
      </trkpt>
      <trkpt lat="46.78419" lon="12.34917">
        <ele>1982.86</ele>
        <time>2016-02-21T13:54:02Z</time>
      </trkpt>
      <trkpt lat="46.78417" lon="12.34928">
        <ele>1981.9</ele>
        <time>2016-02-21T13:54:04Z</time>
      </trkpt>
      <trkpt lat="46.78418" lon="12.34945">
        <ele>1979.01</ele>
        <time>2016-02-21T13:54:07Z</time>
      </trkpt>
      <trkpt lat="46.78416" lon="12.34963">
        <ele>1977.57</ele>
        <time>2016-02-21T13:54:10Z</time>
      </trkpt>
      <trkpt lat="46.78415" lon="12.34967">
        <ele>1977.57</ele>
        <time>2016-02-21T13:54:11Z</time>
      </trkpt>
      <trkpt lat="46.78412" lon="12.34972">
        <ele>1978.53</ele>
        <time>2016-02-21T13:54:25Z</time>
      </trkpt>
      <trkpt lat="46.78413" lon="12.34975">
        <ele>1978.05</ele>
        <time>2016-02-21T13:54:46Z</time>
      </trkpt>
      <trkpt lat="46.78417" lon="12.34987">
        <ele>1974.2</ele>
        <time>2016-02-21T13:54:50Z</time>
      </trkpt>
      <trkpt lat="46.78425" lon="12.35">
        <ele>1969.4</ele>
        <time>2016-02-21T13:54:55Z</time>
      </trkpt>
      <trkpt lat="46.78423" lon="12.35011">
        <ele>1969.88</ele>
        <time>2016-02-21T13:54:58Z</time>
      </trkpt>
      <trkpt lat="46.78435" lon="12.35022">
        <ele>1966.03</ele>
        <time>2016-02-21T13:55:03Z</time>
      </trkpt>
      <trkpt lat="46.78437" lon="12.35035">
        <ele>1962.67</ele>
        <time>2016-02-21T13:55:06Z</time>
      </trkpt>
      <trkpt lat="46.78435" lon="12.35042">
        <ele>1961.71</ele>
        <time>2016-02-21T13:55:08Z</time>
      </trkpt>
      <trkpt lat="46.78433" lon="12.35043">
        <ele>1962.67</ele>
        <time>2016-02-21T13:55:18Z</time>
      </trkpt>
      <trkpt lat="46.78433" lon="12.35043">
        <ele>1962.67</ele>
        <time>2016-02-21T13:55:21Z</time>
      </trkpt>
      <trkpt lat="46.78442" lon="12.35048">
        <ele>1961.23</ele>
        <time>2016-02-21T13:55:26Z</time>
      </trkpt>
      <trkpt lat="46.78448" lon="12.35046">
        <ele>1960.27</ele>
        <time>2016-02-21T13:55:28Z</time>
      </trkpt>
      <trkpt lat="46.78454" lon="12.35057">
        <ele>1956.42</ele>
        <time>2016-02-21T13:55:33Z</time>
      </trkpt>
      <trkpt lat="46.78452" lon="12.35058">
        <ele>1957.38</ele>
        <time>2016-02-21T13:55:44Z</time>
      </trkpt>
      <trkpt lat="46.78453" lon="12.35061">
        <ele>1957.86</ele>
        <time>2016-02-21T13:55:50Z</time>
      </trkpt>
      <trkpt lat="46.78451" lon="12.35066">
        <ele>1954.02</ele>
        <time>2016-02-21T13:55:58Z</time>
      </trkpt>
      <trkpt lat="46.78452" lon="12.35066">
        <ele>1957.86</ele>
        <time>2016-02-21T13:56:11Z</time>
      </trkpt>
      <trkpt lat="46.78452" lon="12.35066">
        <ele>1957.86</ele>
        <time>2016-02-21T13:56:12Z</time>
      </trkpt>
      <trkpt lat="46.78452" lon="12.35067">
        <ele>1954.98</ele>
        <time>2016-02-21T13:56:22Z</time>
      </trkpt>
      <trkpt lat="46.78452" lon="12.35067">
        <ele>1954.5</ele>
        <time>2016-02-21T13:56:36Z</time>
      </trkpt>
      <trkpt lat="46.78449" lon="12.35069">
        <ele>1953.54</ele>
        <time>2016-02-21T13:57:10Z</time>
      </trkpt>
      <trkpt lat="46.78449" lon="12.35071">
        <ele>1954.02</ele>
        <time>2016-02-21T13:57:46Z</time>
      </trkpt>
      <trkpt lat="46.7845" lon="12.35069">
        <ele>1953.06</ele>
        <time>2016-02-21T13:58:25Z</time>
      </trkpt>
      <trkpt lat="46.78452" lon="12.35067">
        <ele>1954.5</ele>
        <time>2016-02-21T13:59:03Z</time>
      </trkpt>
      <trkpt lat="46.78454" lon="12.35066">
        <ele>1953.54</ele>
        <time>2016-02-21T13:59:30Z</time>
      </trkpt>
      <trkpt lat="46.78453" lon="12.35068">
        <ele>1954.5</ele>
        <time>2016-02-21T13:59:46Z</time>
      </trkpt>
      <trkpt lat="46.78452" lon="12.3507">
        <ele>1954.02</ele>
        <time>2016-02-21T14:00:06Z</time>
      </trkpt>
      <trkpt lat="46.78451" lon="12.3508">
        <ele>1953.06</ele>
        <time>2016-02-21T14:00:10Z</time>
      </trkpt>
      <trkpt lat="46.78455" lon="12.3511">
        <ele>1948.73</ele>
        <time>2016-02-21T14:00:15Z</time>
      </trkpt>
      <trkpt lat="46.78452" lon="12.3513">
        <ele>1945.36</ele>
        <time>2016-02-21T14:00:19Z</time>
      </trkpt>
      <trkpt lat="46.7845" lon="12.35146">
        <ele>1942.96</ele>
        <time>2016-02-21T14:00:23Z</time>
      </trkpt>
      <trkpt lat="46.78448" lon="12.35163">
        <ele>1941.04</ele>
        <time>2016-02-21T14:00:28Z</time>
      </trkpt>
      <trkpt lat="46.78447" lon="12.3517">
        <ele>1942</ele>
        <time>2016-02-21T14:00:32Z</time>
      </trkpt>
      <trkpt lat="46.78456" lon="12.35193">
        <ele>1936.23</ele>
        <time>2016-02-21T14:00:37Z</time>
      </trkpt>
      <trkpt lat="46.78454" lon="12.35201">
        <ele>1938.16</ele>
        <time>2016-02-21T14:00:41Z</time>
      </trkpt>
      <trkpt lat="46.78463" lon="12.352">
        <ele>1936.71</ele>
        <time>2016-02-21T14:00:49Z</time>
      </trkpt>
      <trkpt lat="46.78473" lon="12.35204">
        <ele>1934.31</ele>
        <time>2016-02-21T14:00:53Z</time>
      </trkpt>
      <trkpt lat="46.78479" lon="12.35208">
        <ele>1931.43</ele>
        <time>2016-02-21T14:00:56Z</time>
      </trkpt>
      <trkpt lat="46.78479" lon="12.35208">
        <ele>1931.43</ele>
        <time>2016-02-21T14:00:57Z</time>
      </trkpt>
      <trkpt lat="46.78489" lon="12.35226">
        <ele>1928.06</ele>
        <time>2016-02-21T14:01:03Z</time>
      </trkpt>
      <trkpt lat="46.78494" lon="12.35247">
        <ele>1924.7</ele>
        <time>2016-02-21T14:01:07Z</time>
      </trkpt>
      <trkpt lat="46.78497" lon="12.35264">
        <ele>1922.29</ele>
        <time>2016-02-21T14:01:10Z</time>
      </trkpt>
      <trkpt lat="46.78495" lon="12.35278">
        <ele>1921.81</ele>
        <time>2016-02-21T14:01:19Z</time>
      </trkpt>
      <trkpt lat="46.78501" lon="12.35296">
        <ele>1919.41</ele>
        <time>2016-02-21T14:01:25Z</time>
      </trkpt>
      <trkpt lat="46.78507" lon="12.35306">
        <ele>1916.53</ele>
        <time>2016-02-21T14:01:27Z</time>
      </trkpt>
      <trkpt lat="46.78511" lon="12.35318">
        <ele>1915.08</ele>
        <time>2016-02-21T14:01:29Z</time>
      </trkpt>
      <trkpt lat="46.78512" lon="12.35335">
        <ele>1913.64</ele>
        <time>2016-02-21T14:01:32Z</time>
      </trkpt>
      <trkpt lat="46.78511" lon="12.35336">
        <ele>1915.56</ele>
        <time>2016-02-21T14:01:35Z</time>
      </trkpt>
      <trkpt lat="46.78511" lon="12.35337">
        <ele>1914.6</ele>
        <time>2016-02-21T14:01:53Z</time>
      </trkpt>
      <trkpt lat="46.7851" lon="12.35339">
        <ele>1915.08</ele>
        <time>2016-02-21T14:02:15Z</time>
      </trkpt>
      <trkpt lat="46.78511" lon="12.35339">
        <ele>1915.56</ele>
        <time>2016-02-21T14:02:21Z</time>
      </trkpt>
      <trkpt lat="46.78511" lon="12.3534">
        <ele>1914.6</ele>
        <time>2016-02-21T14:02:33Z</time>
      </trkpt>
      <trkpt lat="46.78512" lon="12.35339">
        <ele>1914.12</ele>
        <time>2016-02-21T14:02:40Z</time>
      </trkpt>
      <trkpt lat="46.78512" lon="12.35342">
        <ele>1914.6</ele>
        <time>2016-02-21T14:02:58Z</time>
      </trkpt>
      <trkpt lat="46.78513" lon="12.35343">
        <ele>1914.6</ele>
        <time>2016-02-21T14:03:07Z</time>
      </trkpt>
      <trkpt lat="46.78528" lon="12.3536">
        <ele>1909.8</ele>
        <time>2016-02-21T14:03:14Z</time>
      </trkpt>
      <trkpt lat="46.78534" lon="12.3538">
        <ele>1906.43</ele>
        <time>2016-02-21T14:03:18Z</time>
      </trkpt>
      <trkpt lat="46.78542" lon="12.35396">
        <ele>1904.99</ele>
        <time>2016-02-21T14:03:22Z</time>
      </trkpt>
      <trkpt lat="46.78552" lon="12.3541">
        <ele>1904.51</ele>
        <time>2016-02-21T14:03:27Z</time>
      </trkpt>
      <trkpt lat="46.78556" lon="12.35404">
        <ele>1902.59</ele>
        <time>2016-02-21T14:03:34Z</time>
      </trkpt>
      <trkpt lat="46.78567" lon="12.35399">
        <ele>1899.22</ele>
        <time>2016-02-21T14:03:38Z</time>
      </trkpt>
      <trkpt lat="46.7857" lon="12.35402">
        <ele>1899.22</ele>
        <time>2016-02-21T14:03:39Z</time>
      </trkpt>
      <trkpt lat="46.78576" lon="12.35409">
        <ele>1898.26</ele>
        <time>2016-02-21T14:03:41Z</time>
      </trkpt>
      <trkpt lat="46.78583" lon="12.35413">
        <ele>1896.34</ele>
        <time>2016-02-21T14:03:43Z</time>
      </trkpt>
      <trkpt lat="46.78599" lon="12.35431">
        <ele>1892.97</ele>
        <time>2016-02-21T14:03:51Z</time>
      </trkpt>
      <trkpt lat="46.78606" lon="12.35439">
        <ele>1890.57</ele>
        <time>2016-02-21T14:03:53Z</time>
      </trkpt>
      <trkpt lat="46.78622" lon="12.35451">
        <ele>1887.69</ele>
        <time>2016-02-21T14:03:57Z</time>
      </trkpt>
      <trkpt lat="46.78635" lon="12.35467">
        <ele>1885.76</ele>
        <time>2016-02-21T14:04:07Z</time>
      </trkpt>
      <trkpt lat="46.78638" lon="12.35472">
        <ele>1884.8</ele>
        <time>2016-02-21T14:04:15Z</time>
      </trkpt>
      <trkpt lat="46.78638" lon="12.35473">
        <ele>1884.32</ele>
        <time>2016-02-21T14:04:17Z</time>
      </trkpt>
      <trkpt lat="46.78648" lon="12.3548">
        <ele>1881.92</ele>
        <time>2016-02-21T14:04:22Z</time>
      </trkpt>
      <trkpt lat="46.78656" lon="12.35487">
        <ele>1878.55</ele>
        <time>2016-02-21T14:04:26Z</time>
      </trkpt>
      <trkpt lat="46.78658" lon="12.3549">
        <ele>1878.55</ele>
        <time>2016-02-21T14:04:27Z</time>
      </trkpt>
      <trkpt lat="46.78665" lon="12.35502">
        <ele>1876.63</ele>
        <time>2016-02-21T14:04:30Z</time>
      </trkpt>
      <trkpt lat="46.78684" lon="12.35524">
        <ele>1873.75</ele>
        <time>2016-02-21T14:04:36Z</time>
      </trkpt>
      <trkpt lat="46.78694" lon="12.35534">
        <ele>1872.3</ele>
        <time>2016-02-21T14:04:41Z</time>
      </trkpt>
      <trkpt lat="46.78698" lon="12.35539">
        <ele>1872.3</ele>
        <time>2016-02-21T14:04:51Z</time>
      </trkpt>
      <trkpt lat="46.78708" lon="12.35544">
        <ele>1869.42</ele>
        <time>2016-02-21T14:04:59Z</time>
      </trkpt>
      <trkpt lat="46.78714" lon="12.35553">
        <ele>1867.5</ele>
        <time>2016-02-21T14:05:03Z</time>
      </trkpt>
      <trkpt lat="46.78729" lon="12.35571">
        <ele>1864.13</ele>
        <time>2016-02-21T14:05:09Z</time>
      </trkpt>
      <trkpt lat="46.7874" lon="12.35585">
        <ele>1861.25</ele>
        <time>2016-02-21T14:05:13Z</time>
      </trkpt>
      <trkpt lat="46.78751" lon="12.35599">
        <ele>1857.89</ele>
        <time>2016-02-21T14:05:17Z</time>
      </trkpt>
      <trkpt lat="46.78755" lon="12.35601">
        <ele>1856.92</ele>
        <time>2016-02-21T14:05:19Z</time>
      </trkpt>
      <trkpt lat="46.78756" lon="12.35599">
        <ele>1857.4</ele>
        <time>2016-02-21T14:05:30Z</time>
      </trkpt>
      <trkpt lat="46.78757" lon="12.35601">
        <ele>1856.92</ele>
        <time>2016-02-21T14:05:33Z</time>
      </trkpt>
      <trkpt lat="46.78761" lon="12.35606">
        <ele>1855.96</ele>
        <time>2016-02-21T14:05:35Z</time>
      </trkpt>
      <trkpt lat="46.78784" lon="12.35622">
        <ele>1850.19</ele>
        <time>2016-02-21T14:05:40Z</time>
      </trkpt>
      <trkpt lat="46.78786" lon="12.35623">
        <ele>1849.71</ele>
        <time>2016-02-21T14:05:41Z</time>
      </trkpt>
      <trkpt lat="46.78797" lon="12.35634">
        <ele>1848.75</ele>
        <time>2016-02-21T14:05:48Z</time>
      </trkpt>
      <trkpt lat="46.78798" lon="12.35632">
        <ele>1849.23</ele>
        <time>2016-02-21T14:06:02Z</time>
      </trkpt>
      <trkpt lat="46.78799" lon="12.35633">
        <ele>1848.75</ele>
        <time>2016-02-21T14:06:15Z</time>
      </trkpt>
      <trkpt lat="46.78813" lon="12.35644">
        <ele>1844.91</ele>
        <time>2016-02-21T14:06:21Z</time>
      </trkpt>
      <trkpt lat="46.7883" lon="12.35654">
        <ele>1841.54</ele>
        <time>2016-02-21T14:06:26Z</time>
      </trkpt>
      <trkpt lat="46.78846" lon="12.35666">
        <ele>1838.18</ele>
        <time>2016-02-21T14:06:31Z</time>
      </trkpt>
      <trkpt lat="46.78858" lon="12.35674">
        <ele>1835.29</ele>
        <time>2016-02-21T14:06:34Z</time>
      </trkpt>
      <trkpt lat="46.7887" lon="12.35684">
        <ele>1833.85</ele>
        <time>2016-02-21T14:06:37Z</time>
      </trkpt>
      <trkpt lat="46.78874" lon="12.35688">
        <ele>1834.81</ele>
        <time>2016-02-21T14:06:38Z</time>
      </trkpt>
      <trkpt lat="46.78887" lon="12.35695">
        <ele>1832.89</ele>
        <time>2016-02-21T14:06:41Z</time>
      </trkpt>
      <trkpt lat="46.78904" lon="12.35707">
        <ele>1830.97</ele>
        <time>2016-02-21T14:06:44Z</time>
      </trkpt>
      <trkpt lat="46.78914" lon="12.35716">
        <ele>1830.97</ele>
        <time>2016-02-21T14:06:46Z</time>
      </trkpt>
      <trkpt lat="46.78926" lon="12.35728">
        <ele>1827.6</ele>
        <time>2016-02-21T14:06:49Z</time>
      </trkpt>
      <trkpt lat="46.78931" lon="12.35732">
        <ele>1827.6</ele>
        <time>2016-02-21T14:06:50Z</time>
      </trkpt>
      <trkpt lat="46.7894" lon="12.35744">
        <ele>1826.16</ele>
        <time>2016-02-21T14:06:56Z</time>
      </trkpt>
      <trkpt lat="46.7894" lon="12.35744">
        <ele>1826.16</ele>
        <time>2016-02-21T14:07:05Z</time>
      </trkpt>
      <trkpt lat="46.78949" lon="12.35768">
        <ele>1822.32</ele>
        <time>2016-02-21T14:07:10Z</time>
      </trkpt>
      <trkpt lat="46.78958" lon="12.35785">
        <ele>1821.35</ele>
        <time>2016-02-21T14:07:13Z</time>
      </trkpt>
      <trkpt lat="46.78971" lon="12.35805">
        <ele>1818.95</ele>
        <time>2016-02-21T14:07:17Z</time>
      </trkpt>
      <trkpt lat="46.78992" lon="12.3582">
        <ele>1815.11</ele>
        <time>2016-02-21T14:07:21Z</time>
      </trkpt>
      <trkpt lat="46.78997" lon="12.35823">
        <ele>1815.11</ele>
        <time>2016-02-21T14:07:22Z</time>
      </trkpt>
      <trkpt lat="46.79024" lon="12.35849">
        <ele>1810.3</ele>
        <time>2016-02-21T14:07:27Z</time>
      </trkpt>
      <trkpt lat="46.79038" lon="12.35863">
        <ele>1808.86</ele>
        <time>2016-02-21T14:07:30Z</time>
      </trkpt>
      <trkpt lat="46.79042" lon="12.35867">
        <ele>1808.38</ele>
        <time>2016-02-21T14:07:31Z</time>
      </trkpt>
      <trkpt lat="46.79057" lon="12.35874">
        <ele>1805.97</ele>
        <time>2016-02-21T14:07:38Z</time>
      </trkpt>
      <trkpt lat="46.79054" lon="12.35874">
        <ele>1805.97</ele>
        <time>2016-02-21T14:07:57Z</time>
      </trkpt>
      <trkpt lat="46.79055" lon="12.35875">
        <ele>1805.97</ele>
        <time>2016-02-21T14:08:05Z</time>
      </trkpt>
      <trkpt lat="46.79061" lon="12.35879">
        <ele>1804.05</ele>
        <time>2016-02-21T14:08:15Z</time>
      </trkpt>
      <trkpt lat="46.7906" lon="12.3588">
        <ele>1804.53</ele>
        <time>2016-02-21T14:08:19Z</time>
      </trkpt>
      <trkpt lat="46.79067" lon="12.35885">
        <ele>1803.09</ele>
        <time>2016-02-21T14:08:28Z</time>
      </trkpt>
      <trkpt lat="46.79066" lon="12.35886">
        <ele>1802.61</ele>
        <time>2016-02-21T14:08:33Z</time>
      </trkpt>
      <trkpt lat="46.79068" lon="12.35887">
        <ele>1802.13</ele>
        <time>2016-02-21T14:08:35Z</time>
      </trkpt>
      <trkpt lat="46.79074" lon="12.35892">
        <ele>1800.69</ele>
        <time>2016-02-21T14:08:39Z</time>
      </trkpt>
      <trkpt lat="46.79079" lon="12.35898">
        <ele>1800.69</ele>
        <time>2016-02-21T14:08:41Z</time>
      </trkpt>
      <trkpt lat="46.79094" lon="12.35917">
        <ele>1795.4</ele>
        <time>2016-02-21T14:08:46Z</time>
      </trkpt>
      <trkpt lat="46.79097" lon="12.35922">
        <ele>1794.44</ele>
        <time>2016-02-21T14:08:47Z</time>
      </trkpt>
      <trkpt lat="46.7911" lon="12.35933">
        <ele>1791.55</ele>
        <time>2016-02-21T14:08:55Z</time>
      </trkpt>
      <trkpt lat="46.79109" lon="12.35939">
        <ele>1792.03</ele>
        <time>2016-02-21T14:09:19Z</time>
      </trkpt>
      <trkpt lat="46.7911" lon="12.35937">
        <ele>1791.07</ele>
        <time>2016-02-21T14:09:37Z</time>
      </trkpt>
      <trkpt lat="46.7911" lon="12.35937">
        <ele>1790.59</ele>
        <time>2016-02-21T14:09:41Z</time>
      </trkpt>
      <trkpt lat="46.79108" lon="12.35939">
        <ele>1791.07</ele>
        <time>2016-02-21T14:10:00Z</time>
      </trkpt>
      <trkpt lat="46.79128" lon="12.35952">
        <ele>1787.71</ele>
        <time>2016-02-21T14:10:12Z</time>
      </trkpt>
      <trkpt lat="46.79136" lon="12.35956">
        <ele>1786.27</ele>
        <time>2016-02-21T14:10:14Z</time>
      </trkpt>
      <trkpt lat="46.79144" lon="12.35961">
        <ele>1785.31</ele>
        <time>2016-02-21T14:10:16Z</time>
      </trkpt>
      <trkpt lat="46.79151" lon="12.35967">
        <ele>1784.82</ele>
        <time>2016-02-21T14:10:18Z</time>
      </trkpt>
      <trkpt lat="46.79171" lon="12.35982">
        <ele>1781.94</ele>
        <time>2016-02-21T14:10:23Z</time>
      </trkpt>
      <trkpt lat="46.792" lon="12.36014">
        <ele>1780.02</ele>
        <time>2016-02-21T14:10:35Z</time>
      </trkpt>
      <trkpt lat="46.79214" lon="12.36038">
        <ele>1778.1</ele>
        <time>2016-02-21T14:10:40Z</time>
      </trkpt>
      <trkpt lat="46.79228" lon="12.36064">
        <ele>1774.25</ele>
        <time>2016-02-21T14:10:44Z</time>
      </trkpt>
      <trkpt lat="46.79241" lon="12.36084">
        <ele>1771.85</ele>
        <time>2016-02-21T14:10:48Z</time>
      </trkpt>
      <trkpt lat="46.79257" lon="12.36105">
        <ele>1768.48</ele>
        <time>2016-02-21T14:10:53Z</time>
      </trkpt>
      <trkpt lat="46.79272" lon="12.36128">
        <ele>1765.6</ele>
        <time>2016-02-21T14:10:59Z</time>
      </trkpt>
      <trkpt lat="46.7928" lon="12.36138">
        <ele>1763.2</ele>
        <time>2016-02-21T14:11:07Z</time>
      </trkpt>
      <trkpt lat="46.7928" lon="12.36139">
        <ele>1763.2</ele>
        <time>2016-02-21T14:11:13Z</time>
      </trkpt>
      <trkpt lat="46.79289" lon="12.3616">
        <ele>1758.87</ele>
        <time>2016-02-21T14:11:20Z</time>
      </trkpt>
      <trkpt lat="46.79291" lon="12.36165">
        <ele>1757.91</ele>
        <time>2016-02-21T14:11:21Z</time>
      </trkpt>
      <trkpt lat="46.793" lon="12.36185">
        <ele>1753.1</ele>
        <time>2016-02-21T14:11:25Z</time>
      </trkpt>
      <trkpt lat="46.79305" lon="12.36194">
        <ele>1750.22</ele>
        <time>2016-02-21T14:11:29Z</time>
      </trkpt>
      <trkpt lat="46.79312" lon="12.362">
        <ele>1748.29</ele>
        <time>2016-02-21T14:11:42Z</time>
      </trkpt>
      <trkpt lat="46.79314" lon="12.36199">
        <ele>1749.26</ele>
        <time>2016-02-21T14:12:02Z</time>
      </trkpt>
      <trkpt lat="46.79312" lon="12.36205">
        <ele>1747.81</ele>
        <time>2016-02-21T14:12:24Z</time>
      </trkpt>
      <trkpt lat="46.7932" lon="12.36217">
        <ele>1744.93</ele>
        <time>2016-02-21T14:12:29Z</time>
      </trkpt>
      <trkpt lat="46.79333" lon="12.36235">
        <ele>1741.08</ele>
        <time>2016-02-21T14:12:36Z</time>
      </trkpt>
      <trkpt lat="46.79336" lon="12.36243">
        <ele>1739.64</ele>
        <time>2016-02-21T14:12:38Z</time>
      </trkpt>
      <trkpt lat="46.79336" lon="12.36276">
        <ele>1736.76</ele>
        <time>2016-02-21T14:12:46Z</time>
      </trkpt>
      <trkpt lat="46.79345" lon="12.36298">
        <ele>1733.39</ele>
        <time>2016-02-21T14:12:52Z</time>
      </trkpt>
      <trkpt lat="46.79353" lon="12.36318">
        <ele>1730.51</ele>
        <time>2016-02-21T14:12:58Z</time>
      </trkpt>
      <trkpt lat="46.79347" lon="12.36333">
        <ele>1730.51</ele>
        <time>2016-02-21T14:13:08Z</time>
      </trkpt>
      <trkpt lat="46.79351" lon="12.36356">
        <ele>1727.63</ele>
        <time>2016-02-21T14:13:14Z</time>
      </trkpt>
      <trkpt lat="46.79362" lon="12.36377">
        <ele>1722.82</ele>
        <time>2016-02-21T14:13:20Z</time>
      </trkpt>
      <trkpt lat="46.79365" lon="12.3638">
        <ele>1721.86</ele>
        <time>2016-02-21T14:13:30Z</time>
      </trkpt>
      <trkpt lat="46.79366" lon="12.36383">
        <ele>1721.38</ele>
        <time>2016-02-21T14:13:32Z</time>
      </trkpt>
      <trkpt lat="46.79381" lon="12.36395">
        <ele>1719.46</ele>
        <time>2016-02-21T14:13:43Z</time>
      </trkpt>
      <trkpt lat="46.79383" lon="12.36406">
        <ele>1719.46</ele>
        <time>2016-02-21T14:14:02Z</time>
      </trkpt>
      <trkpt lat="46.79378" lon="12.36413">
        <ele>1717.53</ele>
        <time>2016-02-21T14:14:16Z</time>
      </trkpt>
      <trkpt lat="46.79377" lon="12.36415">
        <ele>1716.57</ele>
        <time>2016-02-21T14:14:18Z</time>
      </trkpt>
      <trkpt lat="46.79374" lon="12.36442">
        <ele>1714.65</ele>
        <time>2016-02-21T14:14:25Z</time>
      </trkpt>
      <trkpt lat="46.79374" lon="12.36463">
        <ele>1710.8</ele>
        <time>2016-02-21T14:14:30Z</time>
      </trkpt>
      <trkpt lat="46.79377" lon="12.36471">
        <ele>1709.84</ele>
        <time>2016-02-21T14:14:32Z</time>
      </trkpt>
      <trkpt lat="46.79386" lon="12.36486">
        <ele>1707.44</ele>
        <time>2016-02-21T14:14:35Z</time>
      </trkpt>
      <trkpt lat="46.79395" lon="12.36512">
        <ele>1704.07</ele>
        <time>2016-02-21T14:14:39Z</time>
      </trkpt>
      <trkpt lat="46.79402" lon="12.36532">
        <ele>1703.59</ele>
        <time>2016-02-21T14:14:43Z</time>
      </trkpt>
      <trkpt lat="46.79412" lon="12.36556">
        <ele>1701.19</ele>
        <time>2016-02-21T14:14:49Z</time>
      </trkpt>
      <trkpt lat="46.79426" lon="12.36583">
        <ele>1698.79</ele>
        <time>2016-02-21T14:14:58Z</time>
      </trkpt>
      <trkpt lat="46.7943" lon="12.36597">
        <ele>1697.34</ele>
        <time>2016-02-21T14:15:01Z</time>
      </trkpt>
      <trkpt lat="46.79435" lon="12.36626">
        <ele>1693.98</ele>
        <time>2016-02-21T14:15:08Z</time>
      </trkpt>
      <trkpt lat="46.79437" lon="12.36638">
        <ele>1692.06</ele>
        <time>2016-02-21T14:15:11Z</time>
      </trkpt>
      <trkpt lat="46.79435" lon="12.36643">
        <ele>1690.14</ele>
        <time>2016-02-21T14:15:14Z</time>
      </trkpt>
      <trkpt lat="46.79436" lon="12.36647">
        <ele>1690.62</ele>
        <time>2016-02-21T14:15:19Z</time>
      </trkpt>
      <trkpt lat="46.79433" lon="12.36652">
        <ele>1689.65</ele>
        <time>2016-02-21T14:15:31Z</time>
      </trkpt>
      <trkpt lat="46.79436" lon="12.36653">
        <ele>1689.65</ele>
        <time>2016-02-21T14:15:50Z</time>
      </trkpt>
      <trkpt lat="46.79437" lon="12.36654">
        <ele>1688.69</ele>
        <time>2016-02-21T14:16:10Z</time>
      </trkpt>
      <trkpt lat="46.79439" lon="12.36654">
        <ele>1688.69</ele>
        <time>2016-02-21T14:16:32Z</time>
      </trkpt>
      <trkpt lat="46.79439" lon="12.36654">
        <ele>1690.14</ele>
        <time>2016-02-21T14:16:51Z</time>
      </trkpt>
      <trkpt lat="46.7944" lon="12.36656">
        <ele>1690.14</ele>
        <time>2016-02-21T14:17:12Z</time>
      </trkpt>
      <trkpt lat="46.79439" lon="12.36655">
        <ele>1689.17</ele>
        <time>2016-02-21T14:17:33Z</time>
      </trkpt>
      <trkpt lat="46.79443" lon="12.36656">
        <ele>1689.65</ele>
        <time>2016-02-21T14:17:52Z</time>
      </trkpt>
      <trkpt lat="46.79439" lon="12.36655">
        <ele>1688.69</ele>
        <time>2016-02-21T14:18:12Z</time>
      </trkpt>
      <trkpt lat="46.79442" lon="12.36657">
        <ele>1689.17</ele>
        <time>2016-02-21T14:18:32Z</time>
      </trkpt>
      <trkpt lat="46.79448" lon="12.3667">
        <ele>1686.77</ele>
        <time>2016-02-21T14:18:36Z</time>
      </trkpt>
      <trkpt lat="46.79454" lon="12.36687">
        <ele>1684.85</ele>
        <time>2016-02-21T14:18:39Z</time>
      </trkpt>
      <trkpt lat="46.79459" lon="12.3671">
        <ele>1681.48</ele>
        <time>2016-02-21T14:18:43Z</time>
      </trkpt>
      <trkpt lat="46.79462" lon="12.36715">
        <ele>1681.48</ele>
        <time>2016-02-21T14:18:44Z</time>
      </trkpt>
      <trkpt lat="46.79471" lon="12.36732">
        <ele>1679.56</ele>
        <time>2016-02-21T14:18:47Z</time>
      </trkpt>
      <trkpt lat="46.79474" lon="12.36738">
        <ele>1678.6</ele>
        <time>2016-02-21T14:18:48Z</time>
      </trkpt>
      <trkpt lat="46.79488" lon="12.3676">
        <ele>1676.2</ele>
        <time>2016-02-21T14:18:52Z</time>
      </trkpt>
      <trkpt lat="46.79505" lon="12.36779">
        <ele>1673.31</ele>
        <time>2016-02-21T14:18:56Z</time>
      </trkpt>
      <trkpt lat="46.7951" lon="12.36784">
        <ele>1672.35</ele>
        <time>2016-02-21T14:18:57Z</time>
      </trkpt>
      <trkpt lat="46.79524" lon="12.36796">
        <ele>1669.95</ele>
        <time>2016-02-21T14:19:00Z</time>
      </trkpt>
      <trkpt lat="46.79556" lon="12.36824">
        <ele>1666.58</ele>
        <time>2016-02-21T14:19:07Z</time>
      </trkpt>
      <trkpt lat="46.79577" lon="12.36852">
        <ele>1662.74</ele>
        <time>2016-02-21T14:19:12Z</time>
      </trkpt>
      <trkpt lat="46.79599" lon="12.36878">
        <ele>1659.85</ele>
        <time>2016-02-21T14:19:18Z</time>
      </trkpt>
      <trkpt lat="46.79615" lon="12.36894">
        <ele>1656.97</ele>
        <time>2016-02-21T14:19:22Z</time>
      </trkpt>
      <trkpt lat="46.79635" lon="12.3691">
        <ele>1653.6</ele>
        <time>2016-02-21T14:19:27Z</time>
      </trkpt>
      <trkpt lat="46.79658" lon="12.36925">
        <ele>1650.24</ele>
        <time>2016-02-21T14:19:32Z</time>
      </trkpt>
      <trkpt lat="46.79674" lon="12.36934">
        <ele>1648.8</ele>
        <time>2016-02-21T14:19:35Z</time>
      </trkpt>
      <trkpt lat="46.79598" lon="12.36957">
        <ele>1645.43</ele>
        <time>2016-02-21T14:19:43Z</time>
      </trkpt>
      <trkpt lat="46.79607" lon="12.36971">
        <ele>1643.51</ele>
        <time>2016-02-21T14:19:47Z</time>
      </trkpt>
      <trkpt lat="46.79622" lon="12.36983">
        <ele>1640.63</ele>
        <time>2016-02-21T14:19:54Z</time>
      </trkpt>
      <trkpt lat="46.79618" lon="12.36988">
        <ele>1640.63</ele>
        <time>2016-02-21T14:20:11Z</time>
      </trkpt>
      <trkpt lat="46.79619" lon="12.36991">
        <ele>1640.63</ele>
        <time>2016-02-21T14:20:27Z</time>
      </trkpt>
      <trkpt lat="46.7963" lon="12.37008">
        <ele>1637.26</ele>
        <time>2016-02-21T14:20:36Z</time>
      </trkpt>
      <trkpt lat="46.79634" lon="12.37002">
        <ele>1637.26</ele>
        <time>2016-02-21T14:20:56Z</time>
      </trkpt>
      <trkpt lat="46.79636" lon="12.37002">
        <ele>1637.74</ele>
        <time>2016-02-21T14:21:16Z</time>
      </trkpt>
      <trkpt lat="46.79645" lon="12.37018">
        <ele>1636.3</ele>
        <time>2016-02-21T14:21:23Z</time>
      </trkpt>
      <trkpt lat="46.79658" lon="12.37038">
        <ele>1632.94</ele>
        <time>2016-02-21T14:21:28Z</time>
      </trkpt>
      <trkpt lat="46.79661" lon="12.37038">
        <ele>1632.46</ele>
        <time>2016-02-21T14:21:30Z</time>
      </trkpt>
      <trkpt lat="46.79661" lon="12.37034">
        <ele>1632.46</ele>
        <time>2016-02-21T14:21:41Z</time>
      </trkpt>
      <trkpt lat="46.79659" lon="12.37035">
        <ele>1631.98</ele>
        <time>2016-02-21T14:22:00Z</time>
      </trkpt>
      <trkpt lat="46.79654" lon="12.37044">
        <ele>1632.46</ele>
        <time>2016-02-21T14:22:23Z</time>
      </trkpt>
      <trkpt lat="46.79653" lon="12.37045">
        <ele>1631.98</ele>
        <time>2016-02-21T14:22:40Z</time>
      </trkpt>
      <trkpt lat="46.79655" lon="12.3704">
        <ele>1632.46</ele>
        <time>2016-02-21T14:22:55Z</time>
      </trkpt>
      <trkpt lat="46.79655" lon="12.37041">
        <ele>1632.94</ele>
        <time>2016-02-21T14:23:17Z</time>
      </trkpt>
      <trkpt lat="46.79656" lon="12.37046">
        <ele>1632.46</ele>
        <time>2016-02-21T14:23:36Z</time>
      </trkpt>
      <trkpt lat="46.79659" lon="12.37058">
        <ele>1632.46</ele>
        <time>2016-02-21T14:23:47Z</time>
      </trkpt>
      <trkpt lat="46.7967" lon="12.37088">
        <ele>1630.05</ele>
        <time>2016-02-21T14:24:05Z</time>
      </trkpt>
      <trkpt lat="46.79678" lon="12.37099">
        <ele>1629.09</ele>
        <time>2016-02-21T14:24:12Z</time>
      </trkpt>
      <trkpt lat="46.79681" lon="12.37124">
        <ele>1625.73</ele>
        <time>2016-02-21T14:24:17Z</time>
      </trkpt>
      <trkpt lat="46.79683" lon="12.37142">
        <ele>1623.32</ele>
        <time>2016-02-21T14:24:21Z</time>
      </trkpt>
      <trkpt lat="46.79692" lon="12.3716">
        <ele>1620.92</ele>
        <time>2016-02-21T14:24:25Z</time>
      </trkpt>
      <trkpt lat="46.79702" lon="12.37182">
        <ele>1617.56</ele>
        <time>2016-02-21T14:24:30Z</time>
      </trkpt>
      <trkpt lat="46.7971" lon="12.37197">
        <ele>1615.15</ele>
        <time>2016-02-21T14:24:34Z</time>
      </trkpt>
      <trkpt lat="46.79712" lon="12.37207">
        <ele>1613.71</ele>
        <time>2016-02-21T14:24:36Z</time>
      </trkpt>
      <trkpt lat="46.7972" lon="12.37232">
        <ele>1609.86</ele>
        <time>2016-02-21T14:24:40Z</time>
      </trkpt>
      <trkpt lat="46.7973" lon="12.3724">
        <ele>1607.94</ele>
        <time>2016-02-21T14:24:43Z</time>
      </trkpt>
      <trkpt lat="46.79755" lon="12.37237">
        <ele>1607.94</ele>
        <time>2016-02-21T14:24:50Z</time>
      </trkpt>
      <trkpt lat="46.79757" lon="12.37235">
        <ele>1606.5</ele>
        <time>2016-02-21T14:24:51Z</time>
      </trkpt>
      <trkpt lat="46.79758" lon="12.37232">
        <ele>1606.02</ele>
        <time>2016-02-21T14:25:02Z</time>
      </trkpt>
      <trkpt lat="46.79765" lon="12.37255">
        <ele>1602.66</ele>
        <time>2016-02-21T14:25:09Z</time>
      </trkpt>
      <trkpt lat="46.79775" lon="12.37271">
        <ele>1599.29</ele>
        <time>2016-02-21T14:25:14Z</time>
      </trkpt>
      <trkpt lat="46.79779" lon="12.37281">
        <ele>1597.85</ele>
        <time>2016-02-21T14:25:16Z</time>
      </trkpt>
      <trkpt lat="46.79791" lon="12.37299">
        <ele>1594.48</ele>
        <time>2016-02-21T14:25:21Z</time>
      </trkpt>
      <trkpt lat="46.79809" lon="12.37316">
        <ele>1591.12</ele>
        <time>2016-02-21T14:25:27Z</time>
      </trkpt>
      <trkpt lat="46.79822" lon="12.37333">
        <ele>1587.75</ele>
        <time>2016-02-21T14:25:32Z</time>
      </trkpt>
      <trkpt lat="46.79838" lon="12.37344">
        <ele>1584.39</ele>
        <time>2016-02-21T14:25:38Z</time>
      </trkpt>
      <trkpt lat="46.79855" lon="12.37352">
        <ele>1581.51</ele>
        <time>2016-02-21T14:25:44Z</time>
      </trkpt>
      <trkpt lat="46.79877" lon="12.37361">
        <ele>1578.62</ele>
        <time>2016-02-21T14:25:50Z</time>
      </trkpt>
      <trkpt lat="46.79894" lon="12.37372">
        <ele>1575.26</ele>
        <time>2016-02-21T14:25:55Z</time>
      </trkpt>
      <trkpt lat="46.79896" lon="12.37372">
        <ele>1574.78</ele>
        <time>2016-02-21T14:25:56Z</time>
      </trkpt>
      <trkpt lat="46.79957" lon="12.3732">
        <ele>1571.41</ele>
        <time>2016-02-21T14:26:02Z</time>
      </trkpt>
      <trkpt lat="46.79969" lon="12.37313">
        <ele>1571.41</ele>
        <time>2016-02-21T14:26:03Z</time>
      </trkpt>
      <trkpt lat="46.79998" lon="12.37297">
        <ele>1569.97</ele>
        <time>2016-02-21T14:26:14Z</time>
      </trkpt>
      <trkpt lat="46.80013" lon="12.37294">
        <ele>1569.01</ele>
        <time>2016-02-21T14:26:32Z</time>
      </trkpt>
      <trkpt lat="46.8003" lon="12.37303">
        <ele>1565.64</ele>
        <time>2016-02-21T14:26:39Z</time>
      </trkpt>
      <trkpt lat="46.80033" lon="12.37303">
        <ele>1565.16</ele>
        <time>2016-02-21T14:26:40Z</time>
      </trkpt>
      <trkpt lat="46.80055" lon="12.37294">
        <ele>1563.24</ele>
        <time>2016-02-21T14:26:43Z</time>
      </trkpt>
      <trkpt lat="46.80064" lon="12.37293">
        <ele>1561.8</ele>
        <time>2016-02-21T14:26:44Z</time>
      </trkpt>
      <trkpt lat="46.80078" lon="12.37288">
        <ele>1560.36</ele>
        <time>2016-02-21T14:26:47Z</time>
      </trkpt>
      <trkpt lat="46.80086" lon="12.37287">
        <ele>1559.4</ele>
        <time>2016-02-21T14:26:49Z</time>
      </trkpt>
      <trkpt lat="46.8009" lon="12.37286">
        <ele>1559.88</ele>
        <time>2016-02-21T14:26:50Z</time>
      </trkpt>
      <trkpt lat="46.80095" lon="12.37284">
        <ele>1557.95</ele>
        <time>2016-02-21T14:26:51Z</time>
      </trkpt>
      <trkpt lat="46.801" lon="12.37283">
        <ele>1556.99</ele>
        <time>2016-02-21T14:26:52Z</time>
      </trkpt>
      <trkpt lat="46.80109" lon="12.3728">
        <ele>1556.03</ele>
        <time>2016-02-21T14:26:54Z</time>
      </trkpt>
      <trkpt lat="46.80122" lon="12.37275">
        <ele>1554.11</ele>
        <time>2016-02-21T14:26:57Z</time>
      </trkpt>
      <trkpt lat="46.8013" lon="12.37274">
        <ele>1552.67</ele>
        <time>2016-02-21T14:26:59Z</time>
      </trkpt>
      <trkpt lat="46.80152" lon="12.37268">
        <ele>1549.3</ele>
        <time>2016-02-21T14:27:04Z</time>
      </trkpt>
      <trkpt lat="46.80161" lon="12.37266">
        <ele>1547.86</ele>
        <time>2016-02-21T14:27:06Z</time>
      </trkpt>
      <trkpt lat="46.80166" lon="12.37266">
        <ele>1546.9</ele>
        <time>2016-02-21T14:27:07Z</time>
      </trkpt>
      <trkpt lat="46.8017" lon="12.37264">
        <ele>1546.42</ele>
        <time>2016-02-21T14:27:08Z</time>
      </trkpt>
      <trkpt lat="46.80182" lon="12.37261">
        <ele>1544.98</ele>
        <time>2016-02-21T14:27:11Z</time>
      </trkpt>
      <trkpt lat="46.80186" lon="12.3726">
        <ele>1544.01</ele>
        <time>2016-02-21T14:27:12Z</time>
      </trkpt>
      <trkpt lat="46.80215" lon="12.37246">
        <ele>1540.17</ele>
        <time>2016-02-21T14:27:20Z</time>
      </trkpt>
      <trkpt lat="46.80232" lon="12.37245">
        <ele>1537.77</ele>
        <time>2016-02-21T14:27:30Z</time>
      </trkpt>
      <trkpt lat="46.80224" lon="12.37244">
        <ele>1537.77</ele>
        <time>2016-02-21T14:27:47Z</time>
      </trkpt>
      <trkpt lat="46.80207" lon="12.37247">
        <ele>1538.25</ele>
        <time>2016-02-21T14:28:05Z</time>
      </trkpt>
      <trkpt lat="46.80199" lon="12.37249">
        <ele>1538.25</ele>
        <time>2016-02-21T14:28:09Z</time>
      </trkpt>
      <trkpt lat="46.80176" lon="12.37274">
        <ele>1533.92</ele>
        <time>2016-02-21T14:28:19Z</time>
      </trkpt>
      <trkpt lat="46.80173" lon="12.37278">
        <ele>1533.44</ele>
        <time>2016-02-21T14:28:20Z</time>
      </trkpt>
      <trkpt lat="46.80159" lon="12.37291">
        <ele>1531.52</ele>
        <time>2016-02-21T14:28:24Z</time>
      </trkpt>
      <trkpt lat="46.8015" lon="12.37298">
        <ele>1530.08</ele>
        <time>2016-02-21T14:28:27Z</time>
      </trkpt>
      <trkpt lat="46.80147" lon="12.37318">
        <ele>1525.75</ele>
        <time>2016-02-21T14:28:36Z</time>
      </trkpt>
      <trkpt lat="46.80149" lon="12.37319">
        <ele>1524.79</ele>
        <time>2016-02-21T14:28:38Z</time>
      </trkpt>
      <trkpt lat="46.80164" lon="12.37318">
        <ele>1521.42</ele>
        <time>2016-02-21T14:28:44Z</time>
      </trkpt>
      <trkpt lat="46.80179" lon="12.3731">
        <ele>1518.54</ele>
        <time>2016-02-21T14:28:50Z</time>
      </trkpt>
      <trkpt lat="46.80204" lon="12.37291">
        <ele>1516.14</ele>
        <time>2016-02-21T14:28:56Z</time>
      </trkpt>
      <trkpt lat="46.80226" lon="12.37274">
        <ele>1513.73</ele>
        <time>2016-02-21T14:29:01Z</time>
      </trkpt>
      <trkpt lat="46.80265" lon="12.37237">
        <ele>1510.85</ele>
        <time>2016-02-21T14:29:08Z</time>
      </trkpt>
      <trkpt lat="46.80283" lon="12.37216">
        <ele>1507.97</ele>
        <time>2016-02-21T14:29:16Z</time>
      </trkpt>
      <trkpt lat="46.80285" lon="12.37214">
        <ele>1507.97</ele>
        <time>2016-02-21T14:29:32Z</time>
      </trkpt>
      <trkpt lat="46.80291" lon="12.3721">
        <ele>1507</ele>
        <time>2016-02-21T14:29:47Z</time>
      </trkpt>
      <trkpt lat="46.80292" lon="12.37214">
        <ele>1506.52</ele>
        <time>2016-02-21T14:30:02Z</time>
      </trkpt>
      <trkpt lat="46.80287" lon="12.37219">
        <ele>1506.52</ele>
        <time>2016-02-21T14:30:16Z</time>
      </trkpt>
      <trkpt lat="46.80284" lon="12.37227">
        <ele>1506.52</ele>
        <time>2016-02-21T14:30:32Z</time>
      </trkpt>
      <trkpt lat="46.8028" lon="12.37225">
        <ele>1506.04</ele>
        <time>2016-02-21T14:30:43Z</time>
      </trkpt>
      <trkpt lat="46.80278" lon="12.37227">
        <ele>1506.04</ele>
        <time>2016-02-21T14:30:49Z</time>
      </trkpt>
      <trkpt lat="46.80262" lon="12.37248">
        <ele>1502.68</ele>
        <time>2016-02-21T14:31:03Z</time>
      </trkpt>
      <trkpt lat="46.80261" lon="12.37249">
        <ele>1502.68</ele>
        <time>2016-02-21T14:31:17Z</time>
      </trkpt>
      <trkpt lat="46.80262" lon="12.37255">
        <ele>1502.68</ele>
        <time>2016-02-21T14:31:44Z</time>
      </trkpt>
      <trkpt lat="46.80258" lon="12.37258">
        <ele>1502.2</ele>
        <time>2016-02-21T14:32:12Z</time>
      </trkpt>
      <trkpt lat="46.80254" lon="12.3727">
        <ele>1501.24</ele>
        <time>2016-02-21T14:32:28Z</time>
      </trkpt>
      <trkpt lat="46.80256" lon="12.37276">
        <ele>1500.27</ele>
        <time>2016-02-21T14:32:41Z</time>
      </trkpt>
      <trkpt lat="46.80252" lon="12.37275">
        <ele>1502.2</ele>
        <time>2016-02-21T14:32:54Z</time>
      </trkpt>
      <trkpt lat="46.80246" lon="12.37285">
        <ele>1498.83</ele>
        <time>2016-02-21T14:33:09Z</time>
      </trkpt>
      <trkpt lat="46.80243" lon="12.37293">
        <ele>1497.87</ele>
        <time>2016-02-21T14:33:23Z</time>
      </trkpt>
      <trkpt lat="46.80231" lon="12.37316">
        <ele>1495.95</ele>
        <time>2016-02-21T14:33:42Z</time>
      </trkpt>
      <trkpt lat="46.8022" lon="12.37336">
        <ele>1494.03</ele>
        <time>2016-02-21T14:33:58Z</time>
      </trkpt>
      <trkpt lat="46.80218" lon="12.37342">
        <ele>1494.03</ele>
        <time>2016-02-21T14:34:10Z</time>
      </trkpt>
      <trkpt lat="46.80218" lon="12.37345">
        <ele>1494.03</ele>
        <time>2016-02-21T14:34:27Z</time>
      </trkpt>
      <trkpt lat="46.80219" lon="12.37347">
        <ele>1494.03</ele>
        <time>2016-02-21T14:34:49Z</time>
      </trkpt>
      <trkpt lat="46.80218" lon="12.37346">
        <ele>1494.03</ele>
        <time>2016-02-21T14:35:11Z</time>
      </trkpt>
      <trkpt lat="46.80217" lon="12.37346">
        <ele>1494.03</ele>
        <time>2016-02-21T14:35:32Z</time>
      </trkpt>
      <trkpt lat="46.80214" lon="12.37353">
        <ele>1491.62</ele>
        <time>2016-02-21T14:35:46Z</time>
      </trkpt>
      <trkpt lat="46.80212" lon="12.37355">
        <ele>1491.14</ele>
        <time>2016-02-21T14:35:47Z</time>
      </trkpt>
      <trkpt lat="46.80217" lon="12.37363">
        <ele>1486.34</ele>
        <time>2016-02-21T14:35:51Z</time>
      </trkpt>
      <trkpt lat="46.80218" lon="12.37362">
        <ele>1485.37</ele>
        <time>2016-02-21T14:35:53Z</time>
      </trkpt>
      <trkpt lat="46.80222" lon="12.37358">
        <ele>1485.37</ele>
        <time>2016-02-21T14:36:10Z</time>
      </trkpt>
      <trkpt lat="46.80223" lon="12.37357">
        <ele>1485.37</ele>
        <time>2016-02-21T14:36:29Z</time>
      </trkpt>
      <trkpt lat="46.80221" lon="12.37357">
        <ele>1485.37</ele>
        <time>2016-02-21T14:36:52Z</time>
      </trkpt>
      <trkpt lat="46.80222" lon="12.37357">
        <ele>1485.37</ele>
        <time>2016-02-21T14:37:11Z</time>
      </trkpt>
      <trkpt lat="46.80223" lon="12.37358">
        <ele>1484.89</ele>
        <time>2016-02-21T14:37:28Z</time>
      </trkpt>
      <trkpt lat="46.80217" lon="12.37369">
        <ele>1481.05</ele>
        <time>2016-02-21T14:37:31Z</time>
      </trkpt>
      <trkpt lat="46.80208" lon="12.37382">
        <ele>1477.68</ele>
        <time>2016-02-21T14:37:34Z</time>
      </trkpt>
      <trkpt lat="46.80202" lon="12.37396">
        <ele>1475.28</ele>
        <time>2016-02-21T14:37:37Z</time>
      </trkpt>
      <trkpt lat="46.80204" lon="12.37405">
        <ele>1471.92</ele>
        <time>2016-02-21T14:37:40Z</time>
      </trkpt>
      <trkpt lat="46.80205" lon="12.37422">
        <ele>1467.11</ele>
        <time>2016-02-21T14:37:43Z</time>
      </trkpt>
      <trkpt lat="46.80204" lon="12.37428">
        <ele>1466.15</ele>
        <time>2016-02-21T14:37:44Z</time>
      </trkpt>
      <trkpt lat="46.80203" lon="12.37442">
        <ele>1464.71</ele>
        <time>2016-02-21T14:37:52Z</time>
      </trkpt>
      <trkpt lat="46.8021" lon="12.37437">
        <ele>1464.71</ele>
        <time>2016-02-21T14:38:02Z</time>
      </trkpt>
      <trkpt lat="46.80213" lon="12.37436">
        <ele>1463.74</ele>
        <time>2016-02-21T14:38:05Z</time>
      </trkpt>
      <trkpt lat="46.80218" lon="12.37446">
        <ele>1459.9</ele>
        <time>2016-02-21T14:38:09Z</time>
      </trkpt>
      <trkpt lat="46.80216" lon="12.37466">
        <ele>1456.53</ele>
        <time>2016-02-21T14:38:13Z</time>
      </trkpt>
      <trkpt lat="46.80225" lon="12.37464">
        <ele>1453.17</ele>
        <time>2016-02-21T14:38:16Z</time>
      </trkpt>
      <trkpt lat="46.80226" lon="12.37463">
        <ele>1453.17</ele>
        <time>2016-02-21T14:38:17Z</time>
      </trkpt>
      <trkpt lat="46.80224" lon="12.37461">
        <ele>1453.17</ele>
        <time>2016-02-21T14:38:31Z</time>
      </trkpt>
      <trkpt lat="46.80228" lon="12.3746">
        <ele>1453.17</ele>
        <time>2016-02-21T14:38:55Z</time>
      </trkpt>
      <trkpt lat="46.80228" lon="12.37477">
        <ele>1449.81</ele>
        <time>2016-02-21T14:39:00Z</time>
      </trkpt>
      <trkpt lat="46.80237" lon="12.3748">
        <ele>1445.96</ele>
        <time>2016-02-21T14:39:03Z</time>
      </trkpt>
      <trkpt lat="46.80244" lon="12.3749">
        <ele>1442.11</ele>
        <time>2016-02-21T14:39:06Z</time>
      </trkpt>
      <trkpt lat="46.80243" lon="12.375">
        <ele>1438.75</ele>
        <time>2016-02-21T14:39:08Z</time>
      </trkpt>
      <trkpt lat="46.80242" lon="12.37503">
        <ele>1438.75</ele>
        <time>2016-02-21T14:39:09Z</time>
      </trkpt>
      <trkpt lat="46.80252" lon="12.37507">
        <ele>1435.39</ele>
        <time>2016-02-21T14:39:14Z</time>
      </trkpt>
      <trkpt lat="46.80254" lon="12.37503">
        <ele>1433.94</ele>
        <time>2016-02-21T14:39:23Z</time>
      </trkpt>
      <trkpt lat="46.80255" lon="12.37503">
        <ele>1433.94</ele>
        <time>2016-02-21T14:39:26Z</time>
      </trkpt>
      <trkpt lat="46.80273" lon="12.37498">
        <ele>1429.62</ele>
        <time>2016-02-21T14:39:32Z</time>
      </trkpt>
      <trkpt lat="46.80283" lon="12.37504">
        <ele>1425.77</ele>
        <time>2016-02-21T14:39:35Z</time>
      </trkpt>
      <trkpt lat="46.80286" lon="12.37506">
        <ele>1424.81</ele>
        <time>2016-02-21T14:39:36Z</time>
      </trkpt>
      <trkpt lat="46.80297" lon="12.37507">
        <ele>1422.89</ele>
        <time>2016-02-21T14:39:47Z</time>
      </trkpt>
      <trkpt lat="46.80297" lon="12.37505">
        <ele>1422.41</ele>
        <time>2016-02-21T14:40:01Z</time>
      </trkpt>
      <trkpt lat="46.80298" lon="12.37507">
        <ele>1422.41</ele>
        <time>2016-02-21T14:40:07Z</time>
      </trkpt>
      <trkpt lat="46.80294" lon="12.37522">
        <ele>1418.08</ele>
        <time>2016-02-21T14:40:11Z</time>
      </trkpt>
      <trkpt lat="46.80291" lon="12.37526">
        <ele>1417.12</ele>
        <time>2016-02-21T14:40:12Z</time>
      </trkpt>
      <trkpt lat="46.80286" lon="12.37533">
        <ele>1416.16</ele>
        <time>2016-02-21T14:40:14Z</time>
      </trkpt>
      <trkpt lat="46.80294" lon="12.37537">
        <ele>1412.31</ele>
        <time>2016-02-21T14:40:18Z</time>
      </trkpt>
      <trkpt lat="46.80297" lon="12.37548">
        <ele>1406.07</ele>
        <time>2016-02-21T14:40:21Z</time>
      </trkpt>
      <trkpt lat="46.80295" lon="12.37559">
        <ele>1402.22</ele>
        <time>2016-02-21T14:40:24Z</time>
      </trkpt>
      <trkpt lat="46.80299" lon="12.37564">
        <ele>1400.3</ele>
        <time>2016-02-21T14:40:25Z</time>
      </trkpt>
      <trkpt lat="46.80308" lon="12.37583">
        <ele>1392.61</ele>
        <time>2016-02-21T14:40:28Z</time>
      </trkpt>
      <trkpt lat="46.80313" lon="12.37604">
        <ele>1390.2</ele>
        <time>2016-02-21T14:40:31Z</time>
      </trkpt>
      <trkpt lat="46.80317" lon="12.37614">
        <ele>1390.2</ele>
        <time>2016-02-21T14:40:34Z</time>
      </trkpt>
      <trkpt lat="46.80329" lon="12.37633">
        <ele>1388.28</ele>
        <time>2016-02-21T14:40:46Z</time>
      </trkpt>
      <trkpt lat="46.80331" lon="12.37637">
        <ele>1387.8</ele>
        <time>2016-02-21T14:41:01Z</time>
      </trkpt>
      <trkpt lat="46.80331" lon="12.37638">
        <ele>1387.32</ele>
        <time>2016-02-21T14:41:20Z</time>
      </trkpt>
      <trkpt lat="46.80331" lon="12.37638">
        <ele>1386.84</ele>
        <time>2016-02-21T14:41:42Z</time>
      </trkpt>
      <trkpt lat="46.8033" lon="12.37639">
        <ele>1386.36</ele>
        <time>2016-02-21T14:41:58Z</time>
      </trkpt>
      <trkpt lat="46.80331" lon="12.37638">
        <ele>1386.84</ele>
        <time>2016-02-21T14:42:12Z</time>
      </trkpt>
      <trkpt lat="46.80331" lon="12.37643">
        <ele>1386.36</ele>
        <time>2016-02-21T14:42:34Z</time>
      </trkpt>
      <trkpt lat="46.80332" lon="12.37649">
        <ele>1385.88</ele>
        <time>2016-02-21T14:42:39Z</time>
      </trkpt>
      <trkpt lat="46.80332" lon="12.37671">
        <ele>1385.4</ele>
        <time>2016-02-21T14:42:55Z</time>
      </trkpt>
      <trkpt lat="46.80339" lon="12.37684">
        <ele>1383.96</ele>
        <time>2016-02-21T14:43:09Z</time>
      </trkpt>
      <trkpt lat="46.8035" lon="12.3769">
        <ele>1382.51</ele>
        <time>2016-02-21T14:43:23Z</time>
      </trkpt>
      <trkpt lat="46.80357" lon="12.37696">
        <ele>1381.55</ele>
        <time>2016-02-21T14:43:30Z</time>
      </trkpt>
      <trkpt lat="46.80374" lon="12.37712">
        <ele>1379.63</ele>
        <time>2016-02-21T14:43:50Z</time>
      </trkpt>
      <trkpt lat="46.80394" lon="12.37732">
        <ele>1377.23</ele>
        <time>2016-02-21T14:44:10Z</time>
      </trkpt>
      <trkpt lat="46.80397" lon="12.37735">
        <ele>1377.23</ele>
        <time>2016-02-21T14:44:14Z</time>
      </trkpt>
      <trkpt lat="46.80419" lon="12.37742">
        <ele>1375.3</ele>
        <time>2016-02-21T14:44:32Z</time>
      </trkpt>
      <trkpt lat="46.80419" lon="12.37741">
        <ele>1375.78</ele>
        <time>2016-02-21T14:44:43Z</time>
      </trkpt>
      <trkpt lat="46.80418" lon="12.37745">
        <ele>1375.78</ele>
        <time>2016-02-21T14:44:52Z</time>
      </trkpt>
      <trkpt lat="46.80418" lon="12.37745">
        <ele>1375.3</ele>
        <time>2016-02-21T14:45:02Z</time>
      </trkpt>
      <trkpt lat="46.80418" lon="12.37746">
        <ele>1375.78</ele>
        <time>2016-02-21T14:45:20Z</time>
      </trkpt>
      <trkpt lat="46.80419" lon="12.37748">
        <ele>1374.82</ele>
        <time>2016-02-21T14:45:47Z</time>
      </trkpt>
    </trkseg>
  </trk>
</gpx>